<?xml version="1.0" encoding="UTF-8" standalone="no" ?>
<gpx xmlns="http://www.topografix.com/GPX/1/1" xmlns:xsi="http://www.w3.org/2001/XMLSchema-instance" xsi:schemaLocation="http://www.topografix.com/GPX/1/1 http://www.topografix.com/GPX/1/1/gpx.xsd" version="1.1" creator="VisuGPX - https://www.visugpx.com">
  <metadata>
    <name>Far_West_Realisé</name>
  </metadata>
  <trk>
    <name><![CDATA[J2 - Far west - Mirepoix - Saint-Lizier ]]></name>
    <extensions>
      <line xmlns="http://www.topografix.com/GPX/gpx_style/0/2">
        <color>000088</color>
        <width>4</width>
      </line>
    </extensions>
    <trkseg>
      <trkpt lat="43.0885" lon="1.87315">
        <ele>295.2</ele>
        <time>2022-09-03T07:24:15Z</time>
      </trkpt>
      <trkpt lat="43.08847" lon="1.8731">
        <ele>295.2</ele>
        <time>2022-09-03T07:24:22Z</time>
      </trkpt>
      <trkpt lat="43.08845" lon="1.87304">
        <ele>295.2</ele>
        <time>2022-09-03T07:24:25Z</time>
      </trkpt>
      <trkpt lat="43.0884" lon="1.87281">
        <ele>295</ele>
        <time>2022-09-03T07:24:34Z</time>
      </trkpt>
      <trkpt lat="43.08833" lon="1.87265">
        <ele>294.8</ele>
        <time>2022-09-03T07:24:40Z</time>
      </trkpt>
      <trkpt lat="43.08837" lon="1.87241">
        <ele>294.8</ele>
        <time>2022-09-03T07:24:46Z</time>
      </trkpt>
      <trkpt lat="43.08841" lon="1.87221">
        <ele>294.8</ele>
        <time>2022-09-03T07:24:53Z</time>
      </trkpt>
      <trkpt lat="43.08845" lon="1.87217">
        <ele>294.6</ele>
        <time>2022-09-03T07:24:57Z</time>
      </trkpt>
      <trkpt lat="43.08864" lon="1.87209">
        <ele>294.8</ele>
        <time>2022-09-03T07:29:41Z</time>
      </trkpt>
      <trkpt lat="43.08867" lon="1.8721">
        <ele>295</ele>
        <time>2022-09-03T07:29:42Z</time>
      </trkpt>
      <trkpt lat="43.08885" lon="1.8721">
        <ele>294.6</ele>
        <time>2022-09-03T07:29:48Z</time>
      </trkpt>
      <trkpt lat="43.08904" lon="1.87215">
        <ele>294.4</ele>
        <time>2022-09-03T07:29:53Z</time>
      </trkpt>
      <trkpt lat="43.08906" lon="1.87218">
        <ele>294.4</ele>
        <time>2022-09-03T07:29:54Z</time>
      </trkpt>
      <trkpt lat="43.0891" lon="1.87235">
        <ele>294.4</ele>
        <time>2022-09-03T07:29:58Z</time>
      </trkpt>
      <trkpt lat="43.0891" lon="1.87239">
        <ele>294.4</ele>
        <time>2022-09-03T07:29:59Z</time>
      </trkpt>
      <trkpt lat="43.08911" lon="1.87269">
        <ele>294.6</ele>
        <time>2022-09-03T07:30:06Z</time>
      </trkpt>
      <trkpt lat="43.08911" lon="1.87303">
        <ele>295</ele>
        <time>2022-09-03T07:30:14Z</time>
      </trkpt>
      <trkpt lat="43.08911" lon="1.8733">
        <ele>295.4</ele>
        <time>2022-09-03T07:30:21Z</time>
      </trkpt>
      <trkpt lat="43.08912" lon="1.87359">
        <ele>295.6</ele>
        <time>2022-09-03T07:30:28Z</time>
      </trkpt>
      <trkpt lat="43.08911" lon="1.8739">
        <ele>296.2</ele>
        <time>2022-09-03T07:30:35Z</time>
      </trkpt>
      <trkpt lat="43.08913" lon="1.87418">
        <ele>296.4</ele>
        <time>2022-09-03T07:30:42Z</time>
      </trkpt>
      <trkpt lat="43.08912" lon="1.87448">
        <ele>296.6</ele>
        <time>2022-09-03T07:30:49Z</time>
      </trkpt>
      <trkpt lat="43.08912" lon="1.87481">
        <ele>296.8</ele>
        <time>2022-09-03T07:30:56Z</time>
      </trkpt>
      <trkpt lat="43.08912" lon="1.8751">
        <ele>297</ele>
        <time>2022-09-03T07:31:02Z</time>
      </trkpt>
      <trkpt lat="43.08913" lon="1.87537">
        <ele>297.2</ele>
        <time>2022-09-03T07:31:08Z</time>
      </trkpt>
      <trkpt lat="43.08913" lon="1.87542">
        <ele>297.2</ele>
        <time>2022-09-03T07:31:09Z</time>
      </trkpt>
      <trkpt lat="43.08913" lon="1.87579">
        <ele>297.4</ele>
        <time>2022-09-03T07:31:17Z</time>
      </trkpt>
      <trkpt lat="43.08915" lon="1.8761">
        <ele>297</ele>
        <time>2022-09-03T07:31:23Z</time>
      </trkpt>
      <trkpt lat="43.08918" lon="1.87614">
        <ele>297</ele>
        <time>2022-09-03T07:31:24Z</time>
      </trkpt>
      <trkpt lat="43.08929" lon="1.87617">
        <ele>297</ele>
        <time>2022-09-03T07:31:28Z</time>
      </trkpt>
      <trkpt lat="43.08954" lon="1.8762">
        <ele>296.6</ele>
        <time>2022-09-03T07:31:35Z</time>
      </trkpt>
      <trkpt lat="43.08978" lon="1.87618">
        <ele>296.4</ele>
        <time>2022-09-03T07:31:41Z</time>
      </trkpt>
      <trkpt lat="43.09003" lon="1.87619">
        <ele>296.2</ele>
        <time>2022-09-03T07:31:47Z</time>
      </trkpt>
      <trkpt lat="43.09011" lon="1.87619">
        <ele>296.2</ele>
        <time>2022-09-03T07:31:49Z</time>
      </trkpt>
      <trkpt lat="43.09045" lon="1.8762">
        <ele>296</ele>
        <time>2022-09-03T07:31:56Z</time>
      </trkpt>
      <trkpt lat="43.09073" lon="1.87621">
        <ele>295.6</ele>
        <time>2022-09-03T07:32:02Z</time>
      </trkpt>
      <trkpt lat="43.09111" lon="1.87623">
        <ele>295.2</ele>
        <time>2022-09-03T07:32:10Z</time>
      </trkpt>
      <trkpt lat="43.09115" lon="1.87624">
        <ele>295</ele>
        <time>2022-09-03T07:32:11Z</time>
      </trkpt>
      <trkpt lat="43.09143" lon="1.87627">
        <ele>295</ele>
        <time>2022-09-03T07:32:17Z</time>
      </trkpt>
      <trkpt lat="43.09176" lon="1.87629">
        <ele>294.8</ele>
        <time>2022-09-03T07:32:24Z</time>
      </trkpt>
      <trkpt lat="43.09209" lon="1.87627">
        <ele>295</ele>
        <time>2022-09-03T07:32:31Z</time>
      </trkpt>
      <trkpt lat="43.09241" lon="1.87625">
        <ele>294.8</ele>
        <time>2022-09-03T07:32:38Z</time>
      </trkpt>
      <trkpt lat="43.09284" lon="1.87623">
        <ele>294.8</ele>
        <time>2022-09-03T07:32:47Z</time>
      </trkpt>
      <trkpt lat="43.09331" lon="1.87624">
        <ele>294.8</ele>
        <time>2022-09-03T07:32:57Z</time>
      </trkpt>
      <trkpt lat="43.09373" lon="1.87624">
        <ele>294.8</ele>
        <time>2022-09-03T07:33:06Z</time>
      </trkpt>
      <trkpt lat="43.09419" lon="1.87625">
        <ele>295</ele>
        <time>2022-09-03T07:33:16Z</time>
      </trkpt>
      <trkpt lat="43.09459" lon="1.87626">
        <ele>294.6</ele>
        <time>2022-09-03T07:33:25Z</time>
      </trkpt>
      <trkpt lat="43.09487" lon="1.87626">
        <ele>294</ele>
        <time>2022-09-03T07:33:31Z</time>
      </trkpt>
      <trkpt lat="43.09502" lon="1.87627">
        <ele>294</ele>
        <time>2022-09-03T07:33:34Z</time>
      </trkpt>
      <trkpt lat="43.09512" lon="1.87626">
        <ele>294</ele>
        <time>2022-09-03T07:33:36Z</time>
      </trkpt>
      <trkpt lat="43.09525" lon="1.87627">
        <ele>293.8</ele>
        <time>2022-09-03T07:33:39Z</time>
      </trkpt>
      <trkpt lat="43.09559" lon="1.87627">
        <ele>293.2</ele>
        <time>2022-09-03T07:33:46Z</time>
      </trkpt>
      <trkpt lat="43.09583" lon="1.87626">
        <ele>293</ele>
        <time>2022-09-03T07:33:51Z</time>
      </trkpt>
      <trkpt lat="43.09588" lon="1.87626">
        <ele>293</ele>
        <time>2022-09-03T07:33:52Z</time>
      </trkpt>
      <trkpt lat="43.09604" lon="1.87627">
        <ele>292.8</ele>
        <time>2022-09-03T07:33:55Z</time>
      </trkpt>
      <trkpt lat="43.09613" lon="1.8763">
        <ele>292.6</ele>
        <time>2022-09-03T07:33:57Z</time>
      </trkpt>
      <trkpt lat="43.09618" lon="1.8763">
        <ele>292.6</ele>
        <time>2022-09-03T07:33:58Z</time>
      </trkpt>
      <trkpt lat="43.09628" lon="1.87623">
        <ele>292.6</ele>
        <time>2022-09-03T07:34:01Z</time>
      </trkpt>
      <trkpt lat="43.09639" lon="1.87602">
        <ele>292.4</ele>
        <time>2022-09-03T07:34:05Z</time>
      </trkpt>
      <trkpt lat="43.09641" lon="1.87595">
        <ele>292.4</ele>
        <time>2022-09-03T07:34:06Z</time>
      </trkpt>
      <trkpt lat="43.09646" lon="1.87567">
        <ele>292.2</ele>
        <time>2022-09-03T07:34:10Z</time>
      </trkpt>
      <trkpt lat="43.09647" lon="1.87559">
        <ele>292</ele>
        <time>2022-09-03T07:34:11Z</time>
      </trkpt>
      <trkpt lat="43.09648" lon="1.87514">
        <ele>291.4</ele>
        <time>2022-09-03T07:34:17Z</time>
      </trkpt>
      <trkpt lat="43.09649" lon="1.87508">
        <ele>291.4</ele>
        <time>2022-09-03T07:34:18Z</time>
      </trkpt>
      <trkpt lat="43.09652" lon="1.87486">
        <ele>291</ele>
        <time>2022-09-03T07:34:21Z</time>
      </trkpt>
      <trkpt lat="43.09654" lon="1.8744">
        <ele>290.8</ele>
        <time>2022-09-03T07:34:27Z</time>
      </trkpt>
      <trkpt lat="43.09655" lon="1.87425">
        <ele>290.6</ele>
        <time>2022-09-03T07:34:29Z</time>
      </trkpt>
      <trkpt lat="43.0966" lon="1.87373">
        <ele>290.2</ele>
        <time>2022-09-03T07:34:36Z</time>
      </trkpt>
      <trkpt lat="43.09665" lon="1.87321">
        <ele>289.8</ele>
        <time>2022-09-03T07:34:43Z</time>
      </trkpt>
      <trkpt lat="43.09666" lon="1.87313">
        <ele>289.8</ele>
        <time>2022-09-03T07:34:44Z</time>
      </trkpt>
      <trkpt lat="43.09672" lon="1.8724">
        <ele>289.4</ele>
        <time>2022-09-03T07:34:54Z</time>
      </trkpt>
      <trkpt lat="43.09677" lon="1.87167">
        <ele>289</ele>
        <time>2022-09-03T07:35:04Z</time>
      </trkpt>
      <trkpt lat="43.09678" lon="1.87152">
        <ele>288.8</ele>
        <time>2022-09-03T07:35:06Z</time>
      </trkpt>
      <trkpt lat="43.0968" lon="1.87093">
        <ele>288.6</ele>
        <time>2022-09-03T07:35:14Z</time>
      </trkpt>
      <trkpt lat="43.09684" lon="1.87039">
        <ele>288.6</ele>
        <time>2022-09-03T07:35:22Z</time>
      </trkpt>
      <trkpt lat="43.09679" lon="1.87002">
        <ele>288.6</ele>
        <time>2022-09-03T07:35:27Z</time>
      </trkpt>
      <trkpt lat="43.09677" lon="1.86996">
        <ele>288.6</ele>
        <time>2022-09-03T07:35:28Z</time>
      </trkpt>
      <trkpt lat="43.0966" lon="1.86927">
        <ele>288.4</ele>
        <time>2022-09-03T07:35:38Z</time>
      </trkpt>
      <trkpt lat="43.09641" lon="1.86852">
        <ele>288.2</ele>
        <time>2022-09-03T07:35:49Z</time>
      </trkpt>
      <trkpt lat="43.09639" lon="1.86845">
        <ele>288.2</ele>
        <time>2022-09-03T07:35:50Z</time>
      </trkpt>
      <trkpt lat="43.09623" lon="1.8678">
        <ele>287.8</ele>
        <time>2022-09-03T07:36:00Z</time>
      </trkpt>
      <trkpt lat="43.0962" lon="1.86767">
        <ele>288</ele>
        <time>2022-09-03T07:36:02Z</time>
      </trkpt>
      <trkpt lat="43.09605" lon="1.86702">
        <ele>288</ele>
        <time>2022-09-03T07:36:12Z</time>
      </trkpt>
      <trkpt lat="43.09594" lon="1.86654">
        <ele>288</ele>
        <time>2022-09-03T07:36:20Z</time>
      </trkpt>
      <trkpt lat="43.09582" lon="1.86606">
        <ele>287.8</ele>
        <time>2022-09-03T07:36:28Z</time>
      </trkpt>
      <trkpt lat="43.0957" lon="1.8655">
        <ele>287.8</ele>
        <time>2022-09-03T07:36:37Z</time>
      </trkpt>
      <trkpt lat="43.09553" lon="1.86474">
        <ele>287.6</ele>
        <time>2022-09-03T07:36:49Z</time>
      </trkpt>
      <trkpt lat="43.09538" lon="1.8641">
        <ele>287.8</ele>
        <time>2022-09-03T07:36:59Z</time>
      </trkpt>
      <trkpt lat="43.09528" lon="1.86361">
        <ele>287.8</ele>
        <time>2022-09-03T07:37:07Z</time>
      </trkpt>
      <trkpt lat="43.09513" lon="1.86297">
        <ele>288</ele>
        <time>2022-09-03T07:37:17Z</time>
      </trkpt>
      <trkpt lat="43.09501" lon="1.8624">
        <ele>288</ele>
        <time>2022-09-03T07:37:26Z</time>
      </trkpt>
      <trkpt lat="43.09498" lon="1.8618">
        <ele>288</ele>
        <time>2022-09-03T07:37:35Z</time>
      </trkpt>
      <trkpt lat="43.09497" lon="1.86128">
        <ele>287.4</ele>
        <time>2022-09-03T07:37:42Z</time>
      </trkpt>
      <trkpt lat="43.09496" lon="1.86096">
        <ele>286.8</ele>
        <time>2022-09-03T07:37:46Z</time>
      </trkpt>
      <trkpt lat="43.09495" lon="1.86055">
        <ele>286.2</ele>
        <time>2022-09-03T07:37:51Z</time>
      </trkpt>
      <trkpt lat="43.09494" lon="1.85992">
        <ele>285.8</ele>
        <time>2022-09-03T07:37:59Z</time>
      </trkpt>
      <trkpt lat="43.09494" lon="1.85985">
        <ele>285.6</ele>
        <time>2022-09-03T07:38:00Z</time>
      </trkpt>
      <trkpt lat="43.09493" lon="1.85911">
        <ele>285.4</ele>
        <time>2022-09-03T07:38:10Z</time>
      </trkpt>
      <trkpt lat="43.09493" lon="1.85903">
        <ele>285.4</ele>
        <time>2022-09-03T07:38:11Z</time>
      </trkpt>
      <trkpt lat="43.09491" lon="1.85825">
        <ele>285.4</ele>
        <time>2022-09-03T07:38:22Z</time>
      </trkpt>
      <trkpt lat="43.09489" lon="1.85748">
        <ele>285</ele>
        <time>2022-09-03T07:38:33Z</time>
      </trkpt>
      <trkpt lat="43.09489" lon="1.85734">
        <ele>285</ele>
        <time>2022-09-03T07:38:35Z</time>
      </trkpt>
      <trkpt lat="43.09488" lon="1.85666">
        <ele>285</ele>
        <time>2022-09-03T07:38:45Z</time>
      </trkpt>
      <trkpt lat="43.09486" lon="1.85597">
        <ele>285</ele>
        <time>2022-09-03T07:38:55Z</time>
      </trkpt>
      <trkpt lat="43.09484" lon="1.85527">
        <ele>285</ele>
        <time>2022-09-03T07:39:05Z</time>
      </trkpt>
      <trkpt lat="43.09483" lon="1.85458">
        <ele>285</ele>
        <time>2022-09-03T07:39:15Z</time>
      </trkpt>
      <trkpt lat="43.09481" lon="1.85384">
        <ele>285</ele>
        <time>2022-09-03T07:39:26Z</time>
      </trkpt>
      <trkpt lat="43.09479" lon="1.85308">
        <ele>285</ele>
        <time>2022-09-03T07:39:37Z</time>
      </trkpt>
      <trkpt lat="43.09477" lon="1.85233">
        <ele>284.8</ele>
        <time>2022-09-03T07:39:48Z</time>
      </trkpt>
      <trkpt lat="43.09476" lon="1.85206">
        <ele>284.8</ele>
        <time>2022-09-03T07:39:52Z</time>
      </trkpt>
      <trkpt lat="43.09475" lon="1.85159">
        <ele>284.8</ele>
        <time>2022-09-03T07:39:59Z</time>
      </trkpt>
      <trkpt lat="43.09473" lon="1.85079">
        <ele>284.6</ele>
        <time>2022-09-03T07:40:11Z</time>
      </trkpt>
      <trkpt lat="43.09473" lon="1.85072">
        <ele>284.6</ele>
        <time>2022-09-03T07:40:12Z</time>
      </trkpt>
      <trkpt lat="43.09471" lon="1.84992">
        <ele>284.8</ele>
        <time>2022-09-03T07:40:24Z</time>
      </trkpt>
      <trkpt lat="43.0947" lon="1.84933">
        <ele>284.8</ele>
        <time>2022-09-03T07:40:33Z</time>
      </trkpt>
      <trkpt lat="43.09469" lon="1.84867">
        <ele>284.8</ele>
        <time>2022-09-03T07:40:43Z</time>
      </trkpt>
      <trkpt lat="43.09467" lon="1.84805">
        <ele>284.8</ele>
        <time>2022-09-03T07:40:53Z</time>
      </trkpt>
      <trkpt lat="43.09469" lon="1.84765">
        <ele>285.2</ele>
        <time>2022-09-03T07:41:00Z</time>
      </trkpt>
      <trkpt lat="43.09475" lon="1.84725">
        <ele>285.6</ele>
        <time>2022-09-03T07:41:08Z</time>
      </trkpt>
      <trkpt lat="43.09475" lon="1.8472">
        <ele>285.8</ele>
        <time>2022-09-03T07:41:09Z</time>
      </trkpt>
      <trkpt lat="43.09478" lon="1.84684">
        <ele>286.4</ele>
        <time>2022-09-03T07:41:16Z</time>
      </trkpt>
      <trkpt lat="43.09469" lon="1.84662">
        <ele>286.6</ele>
        <time>2022-09-03T07:41:21Z</time>
      </trkpt>
      <trkpt lat="43.09454" lon="1.84656">
        <ele>286.6</ele>
        <time>2022-09-03T07:41:25Z</time>
      </trkpt>
      <trkpt lat="43.0945" lon="1.84654">
        <ele>286.6</ele>
        <time>2022-09-03T07:41:26Z</time>
      </trkpt>
      <trkpt lat="43.09441" lon="1.84652">
        <ele>286.4</ele>
        <time>2022-09-03T07:41:28Z</time>
      </trkpt>
      <trkpt lat="43.09433" lon="1.84651">
        <ele>286.4</ele>
        <time>2022-09-03T07:41:30Z</time>
      </trkpt>
      <trkpt lat="43.09412" lon="1.84649">
        <ele>286.6</ele>
        <time>2022-09-03T07:41:36Z</time>
      </trkpt>
      <trkpt lat="43.09401" lon="1.84642">
        <ele>286.8</ele>
        <time>2022-09-03T07:41:41Z</time>
      </trkpt>
      <trkpt lat="43.09399" lon="1.84642">
        <ele>286.8</ele>
        <time>2022-09-03T07:41:42Z</time>
      </trkpt>
      <trkpt lat="43.09392" lon="1.84635">
        <ele>287.8</ele>
        <time>2022-09-03T07:46:22Z</time>
      </trkpt>
      <trkpt lat="43.09389" lon="1.8463">
        <ele>288</ele>
        <time>2022-09-03T07:46:25Z</time>
      </trkpt>
      <trkpt lat="43.09383" lon="1.84614">
        <ele>288.2</ele>
        <time>2022-09-03T07:46:30Z</time>
      </trkpt>
      <trkpt lat="43.09369" lon="1.84579">
        <ele>288.6</ele>
        <time>2022-09-03T07:46:38Z</time>
      </trkpt>
      <trkpt lat="43.09358" lon="1.84542">
        <ele>288.8</ele>
        <time>2022-09-03T07:46:45Z</time>
      </trkpt>
      <trkpt lat="43.09346" lon="1.84502">
        <ele>287.8</ele>
        <time>2022-09-03T07:46:51Z</time>
      </trkpt>
      <trkpt lat="43.09344" lon="1.84494">
        <ele>287.6</ele>
        <time>2022-09-03T07:46:52Z</time>
      </trkpt>
      <trkpt lat="43.09335" lon="1.84462">
        <ele>286.6</ele>
        <time>2022-09-03T07:46:56Z</time>
      </trkpt>
      <trkpt lat="43.09326" lon="1.84429">
        <ele>286</ele>
        <time>2022-09-03T07:47:00Z</time>
      </trkpt>
      <trkpt lat="43.09322" lon="1.84413">
        <ele>285.6</ele>
        <time>2022-09-03T07:47:02Z</time>
      </trkpt>
      <trkpt lat="43.09309" lon="1.84366">
        <ele>284.8</ele>
        <time>2022-09-03T07:47:08Z</time>
      </trkpt>
      <trkpt lat="43.09295" lon="1.84313">
        <ele>284.4</ele>
        <time>2022-09-03T07:47:15Z</time>
      </trkpt>
      <trkpt lat="43.0929" lon="1.84298">
        <ele>284.4</ele>
        <time>2022-09-03T07:47:17Z</time>
      </trkpt>
      <trkpt lat="43.09268" lon="1.84234">
        <ele>284</ele>
        <time>2022-09-03T07:47:26Z</time>
      </trkpt>
      <trkpt lat="43.09258" lon="1.84216">
        <ele>284.2</ele>
        <time>2022-09-03T07:47:29Z</time>
      </trkpt>
      <trkpt lat="43.09244" lon="1.84193">
        <ele>284.4</ele>
        <time>2022-09-03T07:47:33Z</time>
      </trkpt>
      <trkpt lat="43.09235" lon="1.84183">
        <ele>284.4</ele>
        <time>2022-09-03T07:47:35Z</time>
      </trkpt>
      <trkpt lat="43.09213" lon="1.8416">
        <ele>284</ele>
        <time>2022-09-03T07:47:40Z</time>
      </trkpt>
      <trkpt lat="43.09172" lon="1.84121">
        <ele>283.4</ele>
        <time>2022-09-03T07:47:49Z</time>
      </trkpt>
      <trkpt lat="43.09167" lon="1.84116">
        <ele>283.6</ele>
        <time>2022-09-03T07:47:50Z</time>
      </trkpt>
      <trkpt lat="43.0912" lon="1.8407">
        <ele>283.4</ele>
        <time>2022-09-03T07:48:00Z</time>
      </trkpt>
      <trkpt lat="43.09115" lon="1.84066">
        <ele>283.2</ele>
        <time>2022-09-03T07:48:01Z</time>
      </trkpt>
      <trkpt lat="43.09073" lon="1.84026">
        <ele>283</ele>
        <time>2022-09-03T07:48:10Z</time>
      </trkpt>
      <trkpt lat="43.09032" lon="1.83987">
        <ele>282.6</ele>
        <time>2022-09-03T07:48:19Z</time>
      </trkpt>
      <trkpt lat="43.09005" lon="1.8396">
        <ele>282.4</ele>
        <time>2022-09-03T07:48:25Z</time>
      </trkpt>
      <trkpt lat="43.08993" lon="1.83945">
        <ele>282.4</ele>
        <time>2022-09-03T07:48:28Z</time>
      </trkpt>
      <trkpt lat="43.08952" lon="1.83895">
        <ele>282.2</ele>
        <time>2022-09-03T07:48:38Z</time>
      </trkpt>
      <trkpt lat="43.08916" lon="1.83848">
        <ele>282.4</ele>
        <time>2022-09-03T07:48:47Z</time>
      </trkpt>
      <trkpt lat="43.08892" lon="1.83808">
        <ele>282.2</ele>
        <time>2022-09-03T07:48:54Z</time>
      </trkpt>
      <trkpt lat="43.08864" lon="1.83752">
        <ele>281.6</ele>
        <time>2022-09-03T07:49:03Z</time>
      </trkpt>
      <trkpt lat="43.08839" lon="1.83704">
        <ele>282</ele>
        <time>2022-09-03T07:49:11Z</time>
      </trkpt>
      <trkpt lat="43.08824" lon="1.83674">
        <ele>281.2</ele>
        <time>2022-09-03T07:49:16Z</time>
      </trkpt>
      <trkpt lat="43.08805" lon="1.83638">
        <ele>281.6</ele>
        <time>2022-09-03T07:49:22Z</time>
      </trkpt>
      <trkpt lat="43.08774" lon="1.83578">
        <ele>280.8</ele>
        <time>2022-09-03T07:49:32Z</time>
      </trkpt>
      <trkpt lat="43.08745" lon="1.83514">
        <ele>281.4</ele>
        <time>2022-09-03T07:49:42Z</time>
      </trkpt>
      <trkpt lat="43.0874" lon="1.83502">
        <ele>281.4</ele>
        <time>2022-09-03T07:49:44Z</time>
      </trkpt>
      <trkpt lat="43.08719" lon="1.83436">
        <ele>281.2</ele>
        <time>2022-09-03T07:49:54Z</time>
      </trkpt>
      <trkpt lat="43.08705" lon="1.83373">
        <ele>281</ele>
        <time>2022-09-03T07:50:03Z</time>
      </trkpt>
      <trkpt lat="43.08691" lon="1.83295">
        <ele>280.8</ele>
        <time>2022-09-03T07:50:14Z</time>
      </trkpt>
      <trkpt lat="43.0868" lon="1.83231">
        <ele>281</ele>
        <time>2022-09-03T07:50:23Z</time>
      </trkpt>
      <trkpt lat="43.08668" lon="1.83155">
        <ele>281.2</ele>
        <time>2022-09-03T07:50:34Z</time>
      </trkpt>
      <trkpt lat="43.08659" lon="1.83103">
        <ele>281.4</ele>
        <time>2022-09-03T07:50:42Z</time>
      </trkpt>
      <trkpt lat="43.08646" lon="1.83027">
        <ele>281</ele>
        <time>2022-09-03T07:50:53Z</time>
      </trkpt>
      <trkpt lat="43.08632" lon="1.82951">
        <ele>281.2</ele>
        <time>2022-09-03T07:51:04Z</time>
      </trkpt>
      <trkpt lat="43.0863" lon="1.82944">
        <ele>281.4</ele>
        <time>2022-09-03T07:51:05Z</time>
      </trkpt>
      <trkpt lat="43.08614" lon="1.82895">
        <ele>282</ele>
        <time>2022-09-03T07:51:13Z</time>
      </trkpt>
      <trkpt lat="43.086" lon="1.82865">
        <ele>281.8</ele>
        <time>2022-09-03T07:51:19Z</time>
      </trkpt>
      <trkpt lat="43.08584" lon="1.82839">
        <ele>282</ele>
        <time>2022-09-03T07:51:25Z</time>
      </trkpt>
      <trkpt lat="43.08562" lon="1.82799">
        <ele>282.2</ele>
        <time>2022-09-03T07:51:33Z</time>
      </trkpt>
      <trkpt lat="43.08557" lon="1.8279">
        <ele>282.4</ele>
        <time>2022-09-03T07:51:35Z</time>
      </trkpt>
      <trkpt lat="43.08545" lon="1.82769">
        <ele>282.2</ele>
        <time>2022-09-03T07:51:39Z</time>
      </trkpt>
      <trkpt lat="43.08533" lon="1.82747">
        <ele>282</ele>
        <time>2022-09-03T07:51:43Z</time>
      </trkpt>
      <trkpt lat="43.0853" lon="1.82742">
        <ele>282</ele>
        <time>2022-09-03T07:51:44Z</time>
      </trkpt>
      <trkpt lat="43.08517" lon="1.82721">
        <ele>282</ele>
        <time>2022-09-03T07:51:48Z</time>
      </trkpt>
      <trkpt lat="43.08511" lon="1.82711">
        <ele>281.8</ele>
        <time>2022-09-03T07:51:50Z</time>
      </trkpt>
      <trkpt lat="43.08502" lon="1.8269">
        <ele>281.6</ele>
        <time>2022-09-03T07:51:54Z</time>
      </trkpt>
      <trkpt lat="43.085" lon="1.82685">
        <ele>281.6</ele>
        <time>2022-09-03T07:51:55Z</time>
      </trkpt>
      <trkpt lat="43.0849" lon="1.82652">
        <ele>281.8</ele>
        <time>2022-09-03T07:52:01Z</time>
      </trkpt>
      <trkpt lat="43.08487" lon="1.8264">
        <ele>282</ele>
        <time>2022-09-03T07:52:03Z</time>
      </trkpt>
      <trkpt lat="43.08481" lon="1.82615">
        <ele>282.4</ele>
        <time>2022-09-03T07:52:07Z</time>
      </trkpt>
      <trkpt lat="43.08472" lon="1.82588">
        <ele>282.4</ele>
        <time>2022-09-03T07:52:11Z</time>
      </trkpt>
      <trkpt lat="43.08469" lon="1.82575">
        <ele>282.6</ele>
        <time>2022-09-03T07:52:13Z</time>
      </trkpt>
      <trkpt lat="43.08466" lon="1.82569">
        <ele>282.4</ele>
        <time>2022-09-03T07:52:14Z</time>
      </trkpt>
      <trkpt lat="43.08456" lon="1.82547">
        <ele>282.2</ele>
        <time>2022-09-03T07:52:17Z</time>
      </trkpt>
      <trkpt lat="43.08449" lon="1.82532">
        <ele>282</ele>
        <time>2022-09-03T07:52:19Z</time>
      </trkpt>
      <trkpt lat="43.08446" lon="1.82525">
        <ele>282.2</ele>
        <time>2022-09-03T07:52:20Z</time>
      </trkpt>
      <trkpt lat="43.08433" lon="1.82472">
        <ele>281.4</ele>
        <time>2022-09-03T07:52:27Z</time>
      </trkpt>
      <trkpt lat="43.08424" lon="1.82418">
        <ele>280.6</ele>
        <time>2022-09-03T07:52:34Z</time>
      </trkpt>
      <trkpt lat="43.08409" lon="1.82341">
        <ele>280.4</ele>
        <time>2022-09-03T07:52:43Z</time>
      </trkpt>
      <trkpt lat="43.08405" lon="1.82325">
        <ele>280.2</ele>
        <time>2022-09-03T07:52:45Z</time>
      </trkpt>
      <trkpt lat="43.08387" lon="1.8225">
        <ele>280</ele>
        <time>2022-09-03T07:52:54Z</time>
      </trkpt>
      <trkpt lat="43.08384" lon="1.82233">
        <ele>279.8</ele>
        <time>2022-09-03T07:52:56Z</time>
      </trkpt>
      <trkpt lat="43.08373" lon="1.82181">
        <ele>279.2</ele>
        <time>2022-09-03T07:53:02Z</time>
      </trkpt>
      <trkpt lat="43.08369" lon="1.82163">
        <ele>279</ele>
        <time>2022-09-03T07:53:04Z</time>
      </trkpt>
      <trkpt lat="43.08363" lon="1.82115">
        <ele>278.4</ele>
        <time>2022-09-03T07:53:10Z</time>
      </trkpt>
      <trkpt lat="43.08361" lon="1.82089">
        <ele>278.2</ele>
        <time>2022-09-03T07:53:13Z</time>
      </trkpt>
      <trkpt lat="43.08359" lon="1.82054">
        <ele>277.8</ele>
        <time>2022-09-03T07:53:17Z</time>
      </trkpt>
      <trkpt lat="43.08357" lon="1.81978">
        <ele>278.2</ele>
        <time>2022-09-03T07:53:26Z</time>
      </trkpt>
      <trkpt lat="43.08357" lon="1.81955">
        <ele>278.2</ele>
        <time>2022-09-03T07:53:29Z</time>
      </trkpt>
      <trkpt lat="43.08358" lon="1.81887">
        <ele>278.4</ele>
        <time>2022-09-03T07:53:38Z</time>
      </trkpt>
      <trkpt lat="43.08362" lon="1.81835">
        <ele>278.4</ele>
        <time>2022-09-03T07:53:45Z</time>
      </trkpt>
      <trkpt lat="43.08376" lon="1.81791">
        <ele>278.4</ele>
        <time>2022-09-03T07:53:51Z</time>
      </trkpt>
      <trkpt lat="43.08389" lon="1.81741">
        <ele>278.4</ele>
        <time>2022-09-03T07:53:58Z</time>
      </trkpt>
      <trkpt lat="43.08397" lon="1.81693">
        <ele>278.6</ele>
        <time>2022-09-03T07:54:05Z</time>
      </trkpt>
      <trkpt lat="43.08407" lon="1.81643">
        <ele>278.8</ele>
        <time>2022-09-03T07:54:12Z</time>
      </trkpt>
      <trkpt lat="43.08408" lon="1.81636">
        <ele>278.8</ele>
        <time>2022-09-03T07:54:13Z</time>
      </trkpt>
      <trkpt lat="43.08418" lon="1.81604">
        <ele>279</ele>
        <time>2022-09-03T07:54:18Z</time>
      </trkpt>
      <trkpt lat="43.0842" lon="1.81598">
        <ele>279</ele>
        <time>2022-09-03T07:54:19Z</time>
      </trkpt>
      <trkpt lat="43.0843" lon="1.81571">
        <ele>278.6</ele>
        <time>2022-09-03T07:54:23Z</time>
      </trkpt>
      <trkpt lat="43.08444" lon="1.81519">
        <ele>278.4</ele>
        <time>2022-09-03T07:54:30Z</time>
      </trkpt>
      <trkpt lat="43.08454" lon="1.81471">
        <ele>278</ele>
        <time>2022-09-03T07:54:37Z</time>
      </trkpt>
      <trkpt lat="43.08464" lon="1.81419">
        <ele>278</ele>
        <time>2022-09-03T07:54:44Z</time>
      </trkpt>
      <trkpt lat="43.08464" lon="1.81411">
        <ele>278</ele>
        <time>2022-09-03T07:54:45Z</time>
      </trkpt>
      <trkpt lat="43.08468" lon="1.81379">
        <ele>278</ele>
        <time>2022-09-03T07:54:49Z</time>
      </trkpt>
      <trkpt lat="43.08473" lon="1.81364">
        <ele>278.2</ele>
        <time>2022-09-03T07:54:51Z</time>
      </trkpt>
      <trkpt lat="43.08488" lon="1.81333">
        <ele>278.4</ele>
        <time>2022-09-03T07:54:56Z</time>
      </trkpt>
      <trkpt lat="43.08491" lon="1.81328">
        <ele>278.4</ele>
        <time>2022-09-03T07:54:57Z</time>
      </trkpt>
      <trkpt lat="43.08499" lon="1.81321">
        <ele>278.6</ele>
        <time>2022-09-03T07:54:59Z</time>
      </trkpt>
      <trkpt lat="43.08511" lon="1.81315">
        <ele>278.8</ele>
        <time>2022-09-03T07:55:02Z</time>
      </trkpt>
      <trkpt lat="43.08535" lon="1.81306">
        <ele>279.4</ele>
        <time>2022-09-03T07:55:08Z</time>
      </trkpt>
      <trkpt lat="43.08543" lon="1.81303">
        <ele>279.6</ele>
        <time>2022-09-03T07:55:10Z</time>
      </trkpt>
      <trkpt lat="43.08573" lon="1.81293">
        <ele>280.4</ele>
        <time>2022-09-03T07:55:17Z</time>
      </trkpt>
      <trkpt lat="43.08577" lon="1.81292">
        <ele>280.4</ele>
        <time>2022-09-03T07:55:18Z</time>
      </trkpt>
      <trkpt lat="43.08605" lon="1.81277">
        <ele>281.2</ele>
        <time>2022-09-03T07:55:25Z</time>
      </trkpt>
      <trkpt lat="43.08633" lon="1.81249">
        <ele>281.4</ele>
        <time>2022-09-03T07:55:33Z</time>
      </trkpt>
      <trkpt lat="43.08662" lon="1.81203">
        <ele>281.4</ele>
        <time>2022-09-03T07:55:43Z</time>
      </trkpt>
      <trkpt lat="43.08671" lon="1.81177">
        <ele>281.6</ele>
        <time>2022-09-03T07:55:48Z</time>
      </trkpt>
      <trkpt lat="43.08674" lon="1.81159">
        <ele>281.6</ele>
        <time>2022-09-03T07:55:51Z</time>
      </trkpt>
      <trkpt lat="43.08674" lon="1.81121">
        <ele>281.6</ele>
        <time>2022-09-03T07:55:57Z</time>
      </trkpt>
      <trkpt lat="43.0867" lon="1.81057">
        <ele>281.4</ele>
        <time>2022-09-03T07:56:06Z</time>
      </trkpt>
      <trkpt lat="43.08667" lon="1.80991">
        <ele>281.2</ele>
        <time>2022-09-03T07:56:15Z</time>
      </trkpt>
      <trkpt lat="43.08662" lon="1.80916">
        <ele>281</ele>
        <time>2022-09-03T07:56:25Z</time>
      </trkpt>
      <trkpt lat="43.08662" lon="1.80908">
        <ele>281.2</ele>
        <time>2022-09-03T07:56:26Z</time>
      </trkpt>
      <trkpt lat="43.08655" lon="1.80858">
        <ele>281.4</ele>
        <time>2022-09-03T07:56:33Z</time>
      </trkpt>
      <trkpt lat="43.08644" lon="1.80835">
        <ele>281.6</ele>
        <time>2022-09-03T07:56:37Z</time>
      </trkpt>
      <trkpt lat="43.0864" lon="1.80829">
        <ele>281.8</ele>
        <time>2022-09-03T07:56:38Z</time>
      </trkpt>
      <trkpt lat="43.08633" lon="1.8082">
        <ele>281.6</ele>
        <time>2022-09-03T07:56:40Z</time>
      </trkpt>
      <trkpt lat="43.08616" lon="1.80806">
        <ele>282</ele>
        <time>2022-09-03T07:56:44Z</time>
      </trkpt>
      <trkpt lat="43.08588" lon="1.80783">
        <ele>281.8</ele>
        <time>2022-09-03T07:56:50Z</time>
      </trkpt>
      <trkpt lat="43.08563" lon="1.80747">
        <ele>281.6</ele>
        <time>2022-09-03T07:56:57Z</time>
      </trkpt>
      <trkpt lat="43.08546" lon="1.80702">
        <ele>280.8</ele>
        <time>2022-09-03T07:57:04Z</time>
      </trkpt>
      <trkpt lat="43.08524" lon="1.80637">
        <ele>280.8</ele>
        <time>2022-09-03T07:57:13Z</time>
      </trkpt>
      <trkpt lat="43.0851" lon="1.80592">
        <ele>280.6</ele>
        <time>2022-09-03T07:57:19Z</time>
      </trkpt>
      <trkpt lat="43.08503" lon="1.8057">
        <ele>280.6</ele>
        <time>2022-09-03T07:57:22Z</time>
      </trkpt>
      <trkpt lat="43.0849" lon="1.80517">
        <ele>280.4</ele>
        <time>2022-09-03T07:57:29Z</time>
      </trkpt>
      <trkpt lat="43.08484" lon="1.8046">
        <ele>279.8</ele>
        <time>2022-09-03T07:57:36Z</time>
      </trkpt>
      <trkpt lat="43.08481" lon="1.80418">
        <ele>279.4</ele>
        <time>2022-09-03T07:57:41Z</time>
      </trkpt>
      <trkpt lat="43.08475" lon="1.80369">
        <ele>279</ele>
        <time>2022-09-03T07:57:47Z</time>
      </trkpt>
      <trkpt lat="43.08464" lon="1.80312">
        <ele>278.8</ele>
        <time>2022-09-03T07:57:54Z</time>
      </trkpt>
      <trkpt lat="43.08463" lon="1.80261">
        <ele>278.6</ele>
        <time>2022-09-03T07:58:00Z</time>
      </trkpt>
      <trkpt lat="43.08472" lon="1.80212">
        <ele>278.8</ele>
        <time>2022-09-03T07:58:06Z</time>
      </trkpt>
      <trkpt lat="43.0849" lon="1.80138">
        <ele>278.4</ele>
        <time>2022-09-03T07:58:15Z</time>
      </trkpt>
      <trkpt lat="43.08492" lon="1.8013">
        <ele>278.6</ele>
        <time>2022-09-03T07:58:16Z</time>
      </trkpt>
      <trkpt lat="43.08508" lon="1.80054">
        <ele>277.8</ele>
        <time>2022-09-03T07:58:25Z</time>
      </trkpt>
      <trkpt lat="43.0851" lon="1.80038">
        <ele>277.8</ele>
        <time>2022-09-03T07:58:27Z</time>
      </trkpt>
      <trkpt lat="43.08518" lon="1.79963">
        <ele>278.2</ele>
        <time>2022-09-03T07:58:36Z</time>
      </trkpt>
      <trkpt lat="43.08521" lon="1.79916">
        <ele>278.4</ele>
        <time>2022-09-03T07:58:42Z</time>
      </trkpt>
      <trkpt lat="43.08518" lon="1.79858">
        <ele>277.8</ele>
        <time>2022-09-03T07:58:49Z</time>
      </trkpt>
      <trkpt lat="43.08515" lon="1.79825">
        <ele>277.4</ele>
        <time>2022-09-03T07:58:53Z</time>
      </trkpt>
      <trkpt lat="43.08512" lon="1.79801">
        <ele>277</ele>
        <time>2022-09-03T07:58:56Z</time>
      </trkpt>
      <trkpt lat="43.08505" lon="1.79731">
        <ele>276.4</ele>
        <time>2022-09-03T07:59:04Z</time>
      </trkpt>
      <trkpt lat="43.08505" lon="1.79723">
        <ele>276.4</ele>
        <time>2022-09-03T07:59:05Z</time>
      </trkpt>
      <trkpt lat="43.08499" lon="1.79672">
        <ele>275.8</ele>
        <time>2022-09-03T07:59:11Z</time>
      </trkpt>
      <trkpt lat="43.08492" lon="1.79611">
        <ele>275.2</ele>
        <time>2022-09-03T07:59:18Z</time>
      </trkpt>
      <trkpt lat="43.08478" lon="1.79562">
        <ele>275</ele>
        <time>2022-09-03T07:59:24Z</time>
      </trkpt>
      <trkpt lat="43.08452" lon="1.79489">
        <ele>274.6</ele>
        <time>2022-09-03T07:59:33Z</time>
      </trkpt>
      <trkpt lat="43.0844" lon="1.79422">
        <ele>274.6</ele>
        <time>2022-09-03T07:59:41Z</time>
      </trkpt>
      <trkpt lat="43.0843" lon="1.79348">
        <ele>274.4</ele>
        <time>2022-09-03T07:59:50Z</time>
      </trkpt>
      <trkpt lat="43.08426" lon="1.79314">
        <ele>274</ele>
        <time>2022-09-03T07:59:54Z</time>
      </trkpt>
      <trkpt lat="43.08425" lon="1.7927">
        <ele>274.2</ele>
        <time>2022-09-03T07:59:59Z</time>
      </trkpt>
      <trkpt lat="43.08431" lon="1.79201">
        <ele>274.8</ele>
        <time>2022-09-03T08:00:07Z</time>
      </trkpt>
      <trkpt lat="43.08439" lon="1.79124">
        <ele>274.4</ele>
        <time>2022-09-03T08:00:16Z</time>
      </trkpt>
      <trkpt lat="43.0844" lon="1.79115">
        <ele>274.4</ele>
        <time>2022-09-03T08:00:17Z</time>
      </trkpt>
      <trkpt lat="43.08446" lon="1.79038">
        <ele>274</ele>
        <time>2022-09-03T08:00:26Z</time>
      </trkpt>
      <trkpt lat="43.08447" lon="1.79029">
        <ele>274</ele>
        <time>2022-09-03T08:00:27Z</time>
      </trkpt>
      <trkpt lat="43.08458" lon="1.78972">
        <ele>273.8</ele>
        <time>2022-09-03T08:00:34Z</time>
      </trkpt>
      <trkpt lat="43.08485" lon="1.78921">
        <ele>273.8</ele>
        <time>2022-09-03T08:00:41Z</time>
      </trkpt>
      <trkpt lat="43.08516" lon="1.78856">
        <ele>274</ele>
        <time>2022-09-03T08:00:50Z</time>
      </trkpt>
      <trkpt lat="43.08527" lon="1.78811">
        <ele>274.4</ele>
        <time>2022-09-03T08:00:56Z</time>
      </trkpt>
      <trkpt lat="43.08542" lon="1.7876">
        <ele>274.4</ele>
        <time>2022-09-03T08:01:03Z</time>
      </trkpt>
      <trkpt lat="43.08562" lon="1.78711">
        <ele>273.8</ele>
        <time>2022-09-03T08:01:10Z</time>
      </trkpt>
      <trkpt lat="43.0857" lon="1.78674">
        <ele>274</ele>
        <time>2022-09-03T08:01:15Z</time>
      </trkpt>
      <trkpt lat="43.08583" lon="1.78631">
        <ele>274</ele>
        <time>2022-09-03T08:01:21Z</time>
      </trkpt>
      <trkpt lat="43.08608" lon="1.78582">
        <ele>272.8</ele>
        <time>2022-09-03T08:01:28Z</time>
      </trkpt>
      <trkpt lat="43.08629" lon="1.78547">
        <ele>271.8</ele>
        <time>2022-09-03T08:01:33Z</time>
      </trkpt>
      <trkpt lat="43.08638" lon="1.78532">
        <ele>271.6</ele>
        <time>2022-09-03T08:01:35Z</time>
      </trkpt>
      <trkpt lat="43.08655" lon="1.7849">
        <ele>270.6</ele>
        <time>2022-09-03T08:01:40Z</time>
      </trkpt>
      <trkpt lat="43.0866" lon="1.78474">
        <ele>270.2</ele>
        <time>2022-09-03T08:01:42Z</time>
      </trkpt>
      <trkpt lat="43.08661" lon="1.78466">
        <ele>270</ele>
        <time>2022-09-03T08:01:43Z</time>
      </trkpt>
      <trkpt lat="43.08659" lon="1.78451">
        <ele>269.6</ele>
        <time>2022-09-03T08:01:45Z</time>
      </trkpt>
      <trkpt lat="43.08641" lon="1.78431">
        <ele>269</ele>
        <time>2022-09-03T08:01:48Z</time>
      </trkpt>
      <trkpt lat="43.08634" lon="1.78426">
        <ele>268.8</ele>
        <time>2022-09-03T08:01:49Z</time>
      </trkpt>
      <trkpt lat="43.08627" lon="1.7842">
        <ele>268.2</ele>
        <time>2022-09-03T08:01:50Z</time>
      </trkpt>
      <trkpt lat="43.08592" lon="1.78395">
        <ele>267.8</ele>
        <time>2022-09-03T08:01:55Z</time>
      </trkpt>
      <trkpt lat="43.0854" lon="1.78358">
        <ele>267.4</ele>
        <time>2022-09-03T08:02:03Z</time>
      </trkpt>
      <trkpt lat="43.08528" lon="1.78349">
        <ele>267.2</ele>
        <time>2022-09-03T08:02:05Z</time>
      </trkpt>
      <trkpt lat="43.08476" lon="1.78312">
        <ele>266.8</ele>
        <time>2022-09-03T08:02:14Z</time>
      </trkpt>
      <trkpt lat="43.08432" lon="1.78281">
        <ele>266.6</ele>
        <time>2022-09-03T08:02:22Z</time>
      </trkpt>
      <trkpt lat="43.08381" lon="1.78244">
        <ele>266.6</ele>
        <time>2022-09-03T08:02:32Z</time>
      </trkpt>
      <trkpt lat="43.08375" lon="1.78241">
        <ele>266.6</ele>
        <time>2022-09-03T08:02:33Z</time>
      </trkpt>
      <trkpt lat="43.08322" lon="1.78204">
        <ele>266.2</ele>
        <time>2022-09-03T08:02:43Z</time>
      </trkpt>
      <trkpt lat="43.08277" lon="1.78171">
        <ele>266.4</ele>
        <time>2022-09-03T08:02:52Z</time>
      </trkpt>
      <trkpt lat="43.08226" lon="1.78135">
        <ele>266.4</ele>
        <time>2022-09-03T08:03:02Z</time>
      </trkpt>
      <trkpt lat="43.08221" lon="1.78132">
        <ele>266.4</ele>
        <time>2022-09-03T08:03:03Z</time>
      </trkpt>
      <trkpt lat="43.08171" lon="1.78097">
        <ele>266.4</ele>
        <time>2022-09-03T08:03:13Z</time>
      </trkpt>
      <trkpt lat="43.08147" lon="1.78079">
        <ele>266.2</ele>
        <time>2022-09-03T08:03:18Z</time>
      </trkpt>
      <trkpt lat="43.08128" lon="1.78066">
        <ele>266.6</ele>
        <time>2022-09-03T08:03:22Z</time>
      </trkpt>
      <trkpt lat="43.08088" lon="1.78038">
        <ele>267</ele>
        <time>2022-09-03T08:03:31Z</time>
      </trkpt>
      <trkpt lat="43.08084" lon="1.78035">
        <ele>267.2</ele>
        <time>2022-09-03T08:03:32Z</time>
      </trkpt>
      <trkpt lat="43.08049" lon="1.78012">
        <ele>268.2</ele>
        <time>2022-09-03T08:03:41Z</time>
      </trkpt>
      <trkpt lat="43.08028" lon="1.77998">
        <ele>268.8</ele>
        <time>2022-09-03T08:03:47Z</time>
      </trkpt>
      <trkpt lat="43.08008" lon="1.77984">
        <ele>268.6</ele>
        <time>2022-09-03T08:03:53Z</time>
      </trkpt>
      <trkpt lat="43.07985" lon="1.7796">
        <ele>268</ele>
        <time>2022-09-03T08:04:01Z</time>
      </trkpt>
      <trkpt lat="43.07977" lon="1.77957">
        <ele>267.4</ele>
        <time>2022-09-03T08:05:16Z</time>
      </trkpt>
      <trkpt lat="43.07975" lon="1.77957">
        <ele>267.6</ele>
        <time>2022-09-03T08:05:17Z</time>
      </trkpt>
      <trkpt lat="43.07972" lon="1.77956">
        <ele>267.8</ele>
        <time>2022-09-03T08:05:18Z</time>
      </trkpt>
      <trkpt lat="43.07964" lon="1.77949">
        <ele>267.8</ele>
        <time>2022-09-03T08:05:22Z</time>
      </trkpt>
      <trkpt lat="43.07961" lon="1.77948">
        <ele>268</ele>
        <time>2022-09-03T08:05:23Z</time>
      </trkpt>
      <trkpt lat="43.07937" lon="1.77931">
        <ele>268</ele>
        <time>2022-09-03T08:05:31Z</time>
      </trkpt>
      <trkpt lat="43.07904" lon="1.77908">
        <ele>268.4</ele>
        <time>2022-09-03T08:05:41Z</time>
      </trkpt>
      <trkpt lat="43.07873" lon="1.77886">
        <ele>268.6</ele>
        <time>2022-09-03T08:05:50Z</time>
      </trkpt>
      <trkpt lat="43.07851" lon="1.77857">
        <ele>269.2</ele>
        <time>2022-09-03T08:05:58Z</time>
      </trkpt>
      <trkpt lat="43.0785" lon="1.77852">
        <ele>269.2</ele>
        <time>2022-09-03T08:05:59Z</time>
      </trkpt>
      <trkpt lat="43.07851" lon="1.77835">
        <ele>269.4</ele>
        <time>2022-09-03T08:06:02Z</time>
      </trkpt>
      <trkpt lat="43.07855" lon="1.77819">
        <ele>269.4</ele>
        <time>2022-09-03T08:06:05Z</time>
      </trkpt>
      <trkpt lat="43.07856" lon="1.77814">
        <ele>269.6</ele>
        <time>2022-09-03T08:06:06Z</time>
      </trkpt>
      <trkpt lat="43.07861" lon="1.77797">
        <ele>269.6</ele>
        <time>2022-09-03T08:06:09Z</time>
      </trkpt>
      <trkpt lat="43.07873" lon="1.77745">
        <ele>270</ele>
        <time>2022-09-03T08:06:19Z</time>
      </trkpt>
      <trkpt lat="43.07877" lon="1.7773">
        <ele>270.2</ele>
        <time>2022-09-03T08:06:22Z</time>
      </trkpt>
      <trkpt lat="43.07886" lon="1.77691">
        <ele>270.8</ele>
        <time>2022-09-03T08:06:30Z</time>
      </trkpt>
      <trkpt lat="43.07891" lon="1.77672">
        <ele>271.4</ele>
        <time>2022-09-03T08:06:34Z</time>
      </trkpt>
      <trkpt lat="43.07894" lon="1.77659">
        <ele>271.8</ele>
        <time>2022-09-03T08:06:37Z</time>
      </trkpt>
      <trkpt lat="43.07899" lon="1.7762">
        <ele>272.4</ele>
        <time>2022-09-03T08:06:45Z</time>
      </trkpt>
      <trkpt lat="43.07904" lon="1.77571">
        <ele>272.2</ele>
        <time>2022-09-03T08:06:54Z</time>
      </trkpt>
      <trkpt lat="43.0791" lon="1.7751">
        <ele>272.2</ele>
        <time>2022-09-03T08:07:05Z</time>
      </trkpt>
      <trkpt lat="43.07918" lon="1.77457">
        <ele>272.2</ele>
        <time>2022-09-03T08:07:15Z</time>
      </trkpt>
      <trkpt lat="43.07925" lon="1.77422">
        <ele>272.4</ele>
        <time>2022-09-03T08:07:23Z</time>
      </trkpt>
      <trkpt lat="43.0793" lon="1.77417">
        <ele>272.4</ele>
        <time>2022-09-03T08:07:25Z</time>
      </trkpt>
      <trkpt lat="43.07933" lon="1.77417">
        <ele>272.4</ele>
        <time>2022-09-03T08:07:26Z</time>
      </trkpt>
      <trkpt lat="43.07944" lon="1.77419">
        <ele>272</ele>
        <time>2022-09-03T08:07:29Z</time>
      </trkpt>
      <trkpt lat="43.07953" lon="1.77421">
        <ele>271.8</ele>
        <time>2022-09-03T08:07:31Z</time>
      </trkpt>
      <trkpt lat="43.07963" lon="1.77423">
        <ele>271.4</ele>
        <time>2022-09-03T08:07:33Z</time>
      </trkpt>
      <trkpt lat="43.07981" lon="1.77429">
        <ele>270.4</ele>
        <time>2022-09-03T08:07:36Z</time>
      </trkpt>
      <trkpt lat="43.07988" lon="1.77433">
        <ele>270</ele>
        <time>2022-09-03T08:07:37Z</time>
      </trkpt>
      <trkpt lat="43.08015" lon="1.7745">
        <ele>269.2</ele>
        <time>2022-09-03T08:07:41Z</time>
      </trkpt>
      <trkpt lat="43.08028" lon="1.77459">
        <ele>269</ele>
        <time>2022-09-03T08:07:43Z</time>
      </trkpt>
      <trkpt lat="43.08057" lon="1.7748">
        <ele>268</ele>
        <time>2022-09-03T08:07:48Z</time>
      </trkpt>
      <trkpt lat="43.08068" lon="1.77488">
        <ele>267.8</ele>
        <time>2022-09-03T08:07:50Z</time>
      </trkpt>
      <trkpt lat="43.08115" lon="1.77521">
        <ele>267</ele>
        <time>2022-09-03T08:07:59Z</time>
      </trkpt>
      <trkpt lat="43.0812" lon="1.77524">
        <ele>266.8</ele>
        <time>2022-09-03T08:08:00Z</time>
      </trkpt>
      <trkpt lat="43.08145" lon="1.77534">
        <ele>266.4</ele>
        <time>2022-09-03T08:08:06Z</time>
      </trkpt>
      <trkpt lat="43.08151" lon="1.77522">
        <ele>266</ele>
        <time>2022-09-03T08:08:09Z</time>
      </trkpt>
      <trkpt lat="43.08153" lon="1.77517">
        <ele>266</ele>
        <time>2022-09-03T08:08:10Z</time>
      </trkpt>
      <trkpt lat="43.08165" lon="1.77483">
        <ele>266.2</ele>
        <time>2022-09-03T08:08:17Z</time>
      </trkpt>
      <trkpt lat="43.08179" lon="1.77441">
        <ele>266.2</ele>
        <time>2022-09-03T08:08:25Z</time>
      </trkpt>
      <trkpt lat="43.08196" lon="1.77395">
        <ele>266</ele>
        <time>2022-09-03T08:08:33Z</time>
      </trkpt>
      <trkpt lat="43.08207" lon="1.77355">
        <ele>266</ele>
        <time>2022-09-03T08:08:40Z</time>
      </trkpt>
      <trkpt lat="43.08204" lon="1.7732">
        <ele>266.2</ele>
        <time>2022-09-03T08:08:46Z</time>
      </trkpt>
      <trkpt lat="43.082" lon="1.77272">
        <ele>266.4</ele>
        <time>2022-09-03T08:08:54Z</time>
      </trkpt>
      <trkpt lat="43.08197" lon="1.77238">
        <ele>266.6</ele>
        <time>2022-09-03T08:09:00Z</time>
      </trkpt>
      <trkpt lat="43.08191" lon="1.77183">
        <ele>267.2</ele>
        <time>2022-09-03T08:09:09Z</time>
      </trkpt>
      <trkpt lat="43.08186" lon="1.77131">
        <ele>267.8</ele>
        <time>2022-09-03T08:09:18Z</time>
      </trkpt>
      <trkpt lat="43.08186" lon="1.77086">
        <ele>268.8</ele>
        <time>2022-09-03T08:09:27Z</time>
      </trkpt>
      <trkpt lat="43.08193" lon="1.77068">
        <ele>269.8</ele>
        <time>2022-09-03T08:09:32Z</time>
      </trkpt>
      <trkpt lat="43.08195" lon="1.77065">
        <ele>269.8</ele>
        <time>2022-09-03T08:09:33Z</time>
      </trkpt>
      <trkpt lat="43.08211" lon="1.77048">
        <ele>270.8</ele>
        <time>2022-09-03T08:09:39Z</time>
      </trkpt>
      <trkpt lat="43.08214" lon="1.77045">
        <ele>271</ele>
        <time>2022-09-03T08:09:40Z</time>
      </trkpt>
      <trkpt lat="43.08231" lon="1.77027">
        <ele>272</ele>
        <time>2022-09-03T08:09:47Z</time>
      </trkpt>
      <trkpt lat="43.08234" lon="1.77025">
        <ele>272.2</ele>
        <time>2022-09-03T08:09:48Z</time>
      </trkpt>
      <trkpt lat="43.08247" lon="1.77006">
        <ele>272.4</ele>
        <time>2022-09-03T08:09:54Z</time>
      </trkpt>
      <trkpt lat="43.08258" lon="1.76976">
        <ele>272.8</ele>
        <time>2022-09-03T08:10:01Z</time>
      </trkpt>
      <trkpt lat="43.0826" lon="1.76961">
        <ele>273</ele>
        <time>2022-09-03T08:10:04Z</time>
      </trkpt>
      <trkpt lat="43.08261" lon="1.76947">
        <ele>273.4</ele>
        <time>2022-09-03T08:10:07Z</time>
      </trkpt>
      <trkpt lat="43.08258" lon="1.76919">
        <ele>273.8</ele>
        <time>2022-09-03T08:10:13Z</time>
      </trkpt>
      <trkpt lat="43.08258" lon="1.76895">
        <ele>274.2</ele>
        <time>2022-09-03T08:10:18Z</time>
      </trkpt>
      <trkpt lat="43.08259" lon="1.76887">
        <ele>274.2</ele>
        <time>2022-09-03T08:10:20Z</time>
      </trkpt>
      <trkpt lat="43.08268" lon="1.76852">
        <ele>274</ele>
        <time>2022-09-03T08:10:28Z</time>
      </trkpt>
      <trkpt lat="43.08285" lon="1.76814">
        <ele>273.8</ele>
        <time>2022-09-03T08:10:37Z</time>
      </trkpt>
      <trkpt lat="43.08293" lon="1.76794">
        <ele>273.6</ele>
        <time>2022-09-03T08:10:41Z</time>
      </trkpt>
      <trkpt lat="43.08299" lon="1.76782">
        <ele>273</ele>
        <time>2022-09-03T08:10:44Z</time>
      </trkpt>
      <trkpt lat="43.08307" lon="1.76768">
        <ele>272.8</ele>
        <time>2022-09-03T08:10:48Z</time>
      </trkpt>
      <trkpt lat="43.0831" lon="1.76768">
        <ele>272.8</ele>
        <time>2022-09-03T08:10:49Z</time>
      </trkpt>
      <trkpt lat="43.08325" lon="1.76776">
        <ele>272.6</ele>
        <time>2022-09-03T08:10:54Z</time>
      </trkpt>
      <trkpt lat="43.08341" lon="1.76786">
        <ele>272.4</ele>
        <time>2022-09-03T08:10:59Z</time>
      </trkpt>
      <trkpt lat="43.08344" lon="1.76783">
        <ele>272.4</ele>
        <time>2022-09-03T08:11:00Z</time>
      </trkpt>
      <trkpt lat="43.08355" lon="1.76773">
        <ele>272.6</ele>
        <time>2022-09-03T08:11:04Z</time>
      </trkpt>
      <trkpt lat="43.08374" lon="1.76744">
        <ele>273</ele>
        <time>2022-09-03T08:11:12Z</time>
      </trkpt>
      <trkpt lat="43.08391" lon="1.76717">
        <ele>272.6</ele>
        <time>2022-09-03T08:11:19Z</time>
      </trkpt>
      <trkpt lat="43.08396" lon="1.76695">
        <ele>272.4</ele>
        <time>2022-09-03T08:11:24Z</time>
      </trkpt>
      <trkpt lat="43.08402" lon="1.7667">
        <ele>272</ele>
        <time>2022-09-03T08:11:29Z</time>
      </trkpt>
      <trkpt lat="43.08403" lon="1.76659">
        <ele>271.8</ele>
        <time>2022-09-03T08:11:31Z</time>
      </trkpt>
      <trkpt lat="43.08413" lon="1.76614">
        <ele>271.4</ele>
        <time>2022-09-03T08:11:40Z</time>
      </trkpt>
      <trkpt lat="43.08424" lon="1.76591">
        <ele>271.2</ele>
        <time>2022-09-03T08:11:46Z</time>
      </trkpt>
      <trkpt lat="43.08425" lon="1.76573">
        <ele>271.4</ele>
        <time>2022-09-03T08:11:50Z</time>
      </trkpt>
      <trkpt lat="43.08414" lon="1.76552">
        <ele>271.4</ele>
        <time>2022-09-03T08:11:55Z</time>
      </trkpt>
      <trkpt lat="43.08393" lon="1.76519">
        <ele>272</ele>
        <time>2022-09-03T08:12:03Z</time>
      </trkpt>
      <trkpt lat="43.08385" lon="1.76493">
        <ele>272</ele>
        <time>2022-09-03T08:12:08Z</time>
      </trkpt>
      <trkpt lat="43.08373" lon="1.76455">
        <ele>272.8</ele>
        <time>2022-09-03T08:12:16Z</time>
      </trkpt>
      <trkpt lat="43.08363" lon="1.76412">
        <ele>273</ele>
        <time>2022-09-03T08:12:25Z</time>
      </trkpt>
      <trkpt lat="43.08362" lon="1.76408">
        <ele>273</ele>
        <time>2022-09-03T08:12:26Z</time>
      </trkpt>
      <trkpt lat="43.08357" lon="1.76388">
        <ele>273.4</ele>
        <time>2022-09-03T08:12:30Z</time>
      </trkpt>
      <trkpt lat="43.08345" lon="1.76348">
        <ele>274</ele>
        <time>2022-09-03T08:12:39Z</time>
      </trkpt>
      <trkpt lat="43.08344" lon="1.76344">
        <ele>274.2</ele>
        <time>2022-09-03T08:12:40Z</time>
      </trkpt>
      <trkpt lat="43.08331" lon="1.76321">
        <ele>274.8</ele>
        <time>2022-09-03T08:12:47Z</time>
      </trkpt>
      <trkpt lat="43.08322" lon="1.76309">
        <ele>275.2</ele>
        <time>2022-09-03T08:12:51Z</time>
      </trkpt>
      <trkpt lat="43.08311" lon="1.76295">
        <ele>275.6</ele>
        <time>2022-09-03T08:12:56Z</time>
      </trkpt>
      <trkpt lat="43.08297" lon="1.76278">
        <ele>275.8</ele>
        <time>2022-09-03T08:13:02Z</time>
      </trkpt>
      <trkpt lat="43.08293" lon="1.76261">
        <ele>275.8</ele>
        <time>2022-09-03T08:13:07Z</time>
      </trkpt>
      <trkpt lat="43.08301" lon="1.76247">
        <ele>276.4</ele>
        <time>2022-09-03T08:13:12Z</time>
      </trkpt>
      <trkpt lat="43.08303" lon="1.76243">
        <ele>276.4</ele>
        <time>2022-09-03T08:13:13Z</time>
      </trkpt>
      <trkpt lat="43.08318" lon="1.76215">
        <ele>275.8</ele>
        <time>2022-09-03T08:13:20Z</time>
      </trkpt>
      <trkpt lat="43.08329" lon="1.76194">
        <ele>275.2</ele>
        <time>2022-09-03T08:13:24Z</time>
      </trkpt>
      <trkpt lat="43.08335" lon="1.76184">
        <ele>275.2</ele>
        <time>2022-09-03T08:13:26Z</time>
      </trkpt>
      <trkpt lat="43.0836" lon="1.76139">
        <ele>274.4</ele>
        <time>2022-09-03T08:13:34Z</time>
      </trkpt>
      <trkpt lat="43.08363" lon="1.76133">
        <ele>274.2</ele>
        <time>2022-09-03T08:13:35Z</time>
      </trkpt>
      <trkpt lat="43.08382" lon="1.76099">
        <ele>273</ele>
        <time>2022-09-03T08:13:40Z</time>
      </trkpt>
      <trkpt lat="43.08387" lon="1.76093">
        <ele>273</ele>
        <time>2022-09-03T08:13:41Z</time>
      </trkpt>
      <trkpt lat="43.08403" lon="1.76077">
        <ele>272.2</ele>
        <time>2022-09-03T08:13:44Z</time>
      </trkpt>
      <trkpt lat="43.08407" lon="1.76072">
        <ele>271.8</ele>
        <time>2022-09-03T08:13:45Z</time>
      </trkpt>
      <trkpt lat="43.08418" lon="1.76053">
        <ele>271.6</ele>
        <time>2022-09-03T08:13:48Z</time>
      </trkpt>
      <trkpt lat="43.08428" lon="1.76037">
        <ele>271</ele>
        <time>2022-09-03T08:13:51Z</time>
      </trkpt>
      <trkpt lat="43.08431" lon="1.76032">
        <ele>270.8</ele>
        <time>2022-09-03T08:13:52Z</time>
      </trkpt>
      <trkpt lat="43.08434" lon="1.76027">
        <ele>270.8</ele>
        <time>2022-09-03T08:13:53Z</time>
      </trkpt>
      <trkpt lat="43.08447" lon="1.76004">
        <ele>270.8</ele>
        <time>2022-09-03T08:13:58Z</time>
      </trkpt>
      <trkpt lat="43.08461" lon="1.75971">
        <ele>270.2</ele>
        <time>2022-09-03T08:14:05Z</time>
      </trkpt>
      <trkpt lat="43.08463" lon="1.75965">
        <ele>269.6</ele>
        <time>2022-09-03T08:14:07Z</time>
      </trkpt>
      <trkpt lat="43.08464" lon="1.75963">
        <ele>269.4</ele>
        <time>2022-09-03T08:14:08Z</time>
      </trkpt>
      <trkpt lat="43.08472" lon="1.75952">
        <ele>269.8</ele>
        <time>2022-09-03T08:14:40Z</time>
      </trkpt>
      <trkpt lat="43.08473" lon="1.7595">
        <ele>269.8</ele>
        <time>2022-09-03T08:14:41Z</time>
      </trkpt>
      <trkpt lat="43.0848" lon="1.75938">
        <ele>269.8</ele>
        <time>2022-09-03T08:14:47Z</time>
      </trkpt>
      <trkpt lat="43.08493" lon="1.75921">
        <ele>269.8</ele>
        <time>2022-09-03T08:14:54Z</time>
      </trkpt>
      <trkpt lat="43.08501" lon="1.75908">
        <ele>269.8</ele>
        <time>2022-09-03T08:14:59Z</time>
      </trkpt>
      <trkpt lat="43.08511" lon="1.75895">
        <ele>269.6</ele>
        <time>2022-09-03T08:15:04Z</time>
      </trkpt>
      <trkpt lat="43.08525" lon="1.75873">
        <ele>269.4</ele>
        <time>2022-09-03T08:15:11Z</time>
      </trkpt>
      <trkpt lat="43.08532" lon="1.75862">
        <ele>269.2</ele>
        <time>2022-09-03T08:15:15Z</time>
      </trkpt>
      <trkpt lat="43.08542" lon="1.75841">
        <ele>269</ele>
        <time>2022-09-03T08:15:21Z</time>
      </trkpt>
      <trkpt lat="43.08555" lon="1.75811">
        <ele>269</ele>
        <time>2022-09-03T08:15:28Z</time>
      </trkpt>
      <trkpt lat="43.08567" lon="1.75788">
        <ele>269</ele>
        <time>2022-09-03T08:15:34Z</time>
      </trkpt>
      <trkpt lat="43.0858" lon="1.75761">
        <ele>269</ele>
        <time>2022-09-03T08:15:41Z</time>
      </trkpt>
      <trkpt lat="43.08591" lon="1.75736">
        <ele>268.6</ele>
        <time>2022-09-03T08:15:47Z</time>
      </trkpt>
      <trkpt lat="43.08593" lon="1.75732">
        <ele>268.6</ele>
        <time>2022-09-03T08:15:48Z</time>
      </trkpt>
      <trkpt lat="43.08607" lon="1.75709">
        <ele>268.4</ele>
        <time>2022-09-03T08:15:54Z</time>
      </trkpt>
      <trkpt lat="43.0862" lon="1.75686">
        <ele>268.2</ele>
        <time>2022-09-03T08:16:01Z</time>
      </trkpt>
      <trkpt lat="43.08632" lon="1.75664">
        <ele>268.2</ele>
        <time>2022-09-03T08:16:07Z</time>
      </trkpt>
      <trkpt lat="43.08644" lon="1.75641">
        <ele>268.2</ele>
        <time>2022-09-03T08:16:13Z</time>
      </trkpt>
      <trkpt lat="43.08653" lon="1.75623">
        <ele>268</ele>
        <time>2022-09-03T08:16:18Z</time>
      </trkpt>
      <trkpt lat="43.08667" lon="1.75597">
        <ele>268</ele>
        <time>2022-09-03T08:16:25Z</time>
      </trkpt>
      <trkpt lat="43.0868" lon="1.75579">
        <ele>268</ele>
        <time>2022-09-03T08:16:31Z</time>
      </trkpt>
      <trkpt lat="43.08689" lon="1.7556">
        <ele>268</ele>
        <time>2022-09-03T08:16:36Z</time>
      </trkpt>
      <trkpt lat="43.087" lon="1.7554">
        <ele>268</ele>
        <time>2022-09-03T08:16:43Z</time>
      </trkpt>
      <trkpt lat="43.0871" lon="1.7552">
        <ele>268</ele>
        <time>2022-09-03T08:16:49Z</time>
      </trkpt>
      <trkpt lat="43.08721" lon="1.755">
        <ele>268</ele>
        <time>2022-09-03T08:16:55Z</time>
      </trkpt>
      <trkpt lat="43.08729" lon="1.75483">
        <ele>267.8</ele>
        <time>2022-09-03T08:17:01Z</time>
      </trkpt>
      <trkpt lat="43.08738" lon="1.75463">
        <ele>267.4</ele>
        <time>2022-09-03T08:17:07Z</time>
      </trkpt>
      <trkpt lat="43.08751" lon="1.75444">
        <ele>267.8</ele>
        <time>2022-09-03T08:17:13Z</time>
      </trkpt>
      <trkpt lat="43.08766" lon="1.75414">
        <ele>267.8</ele>
        <time>2022-09-03T08:17:21Z</time>
      </trkpt>
      <trkpt lat="43.08782" lon="1.7538">
        <ele>267.8</ele>
        <time>2022-09-03T08:17:30Z</time>
      </trkpt>
      <trkpt lat="43.08793" lon="1.75359">
        <ele>267.8</ele>
        <time>2022-09-03T08:17:36Z</time>
      </trkpt>
      <trkpt lat="43.08806" lon="1.7534">
        <ele>267.8</ele>
        <time>2022-09-03T08:17:42Z</time>
      </trkpt>
      <trkpt lat="43.08818" lon="1.75315">
        <ele>268</ele>
        <time>2022-09-03T08:17:49Z</time>
      </trkpt>
      <trkpt lat="43.08829" lon="1.75295">
        <ele>268</ele>
        <time>2022-09-03T08:17:55Z</time>
      </trkpt>
      <trkpt lat="43.08844" lon="1.75268">
        <ele>268</ele>
        <time>2022-09-03T08:18:03Z</time>
      </trkpt>
      <trkpt lat="43.08861" lon="1.7523">
        <ele>268</ele>
        <time>2022-09-03T08:18:13Z</time>
      </trkpt>
      <trkpt lat="43.0888" lon="1.75196">
        <ele>268</ele>
        <time>2022-09-03T08:18:22Z</time>
      </trkpt>
      <trkpt lat="43.08901" lon="1.75159">
        <ele>268</ele>
        <time>2022-09-03T08:18:32Z</time>
      </trkpt>
      <trkpt lat="43.0892" lon="1.75123">
        <ele>268.2</ele>
        <time>2022-09-03T08:18:42Z</time>
      </trkpt>
      <trkpt lat="43.0894" lon="1.75088">
        <ele>268.4</ele>
        <time>2022-09-03T08:18:52Z</time>
      </trkpt>
      <trkpt lat="43.08953" lon="1.75061">
        <ele>268.4</ele>
        <time>2022-09-03T08:18:59Z</time>
      </trkpt>
      <trkpt lat="43.08973" lon="1.75024">
        <ele>268.4</ele>
        <time>2022-09-03T08:19:09Z</time>
      </trkpt>
      <trkpt lat="43.08977" lon="1.75016">
        <ele>268.6</ele>
        <time>2022-09-03T08:19:11Z</time>
      </trkpt>
      <trkpt lat="43.0899" lon="1.74992">
        <ele>268.4</ele>
        <time>2022-09-03T08:19:17Z</time>
      </trkpt>
      <trkpt lat="43.09008" lon="1.7496">
        <ele>268.8</ele>
        <time>2022-09-03T08:19:25Z</time>
      </trkpt>
      <trkpt lat="43.09021" lon="1.74931">
        <ele>268.8</ele>
        <time>2022-09-03T08:19:32Z</time>
      </trkpt>
      <trkpt lat="43.09035" lon="1.74901">
        <ele>268.8</ele>
        <time>2022-09-03T08:19:39Z</time>
      </trkpt>
      <trkpt lat="43.09049" lon="1.74872">
        <ele>268.8</ele>
        <time>2022-09-03T08:19:46Z</time>
      </trkpt>
      <trkpt lat="43.09059" lon="1.74853">
        <ele>269</ele>
        <time>2022-09-03T08:19:52Z</time>
      </trkpt>
      <trkpt lat="43.09069" lon="1.74834">
        <ele>268.8</ele>
        <time>2022-09-03T08:19:59Z</time>
      </trkpt>
      <trkpt lat="43.09077" lon="1.74816">
        <ele>269</ele>
        <time>2022-09-03T08:20:04Z</time>
      </trkpt>
      <trkpt lat="43.09089" lon="1.74791">
        <ele>269</ele>
        <time>2022-09-03T08:20:11Z</time>
      </trkpt>
      <trkpt lat="43.09101" lon="1.74764">
        <ele>269.6</ele>
        <time>2022-09-03T08:20:18Z</time>
      </trkpt>
      <trkpt lat="43.09104" lon="1.74756">
        <ele>269.6</ele>
        <time>2022-09-03T08:20:20Z</time>
      </trkpt>
      <trkpt lat="43.09116" lon="1.74727">
        <ele>269.4</ele>
        <time>2022-09-03T08:20:28Z</time>
      </trkpt>
      <trkpt lat="43.0913" lon="1.74698">
        <ele>269.8</ele>
        <time>2022-09-03T08:20:36Z</time>
      </trkpt>
      <trkpt lat="43.09144" lon="1.74664">
        <ele>269.8</ele>
        <time>2022-09-03T08:20:45Z</time>
      </trkpt>
      <trkpt lat="43.0916" lon="1.74637">
        <ele>269.6</ele>
        <time>2022-09-03T08:20:53Z</time>
      </trkpt>
      <trkpt lat="43.09174" lon="1.7462">
        <ele>269.2</ele>
        <time>2022-09-03T08:20:58Z</time>
      </trkpt>
      <trkpt lat="43.09183" lon="1.7461">
        <ele>268.8</ele>
        <time>2022-09-03T08:21:03Z</time>
      </trkpt>
      <trkpt lat="43.09173" lon="1.74564">
        <ele>266.8</ele>
        <time>2022-09-03T08:22:48Z</time>
      </trkpt>
      <trkpt lat="43.09181" lon="1.7455">
        <ele>267</ele>
        <time>2022-09-03T08:22:55Z</time>
      </trkpt>
      <trkpt lat="43.09194" lon="1.74531">
        <ele>268</ele>
        <time>2022-09-03T08:23:03Z</time>
      </trkpt>
      <trkpt lat="43.09206" lon="1.74509">
        <ele>268.6</ele>
        <time>2022-09-03T08:23:10Z</time>
      </trkpt>
      <trkpt lat="43.09213" lon="1.74495">
        <ele>269</ele>
        <time>2022-09-03T08:23:15Z</time>
      </trkpt>
      <trkpt lat="43.09216" lon="1.74488">
        <ele>269.2</ele>
        <time>2022-09-03T08:23:17Z</time>
      </trkpt>
      <trkpt lat="43.09227" lon="1.74467">
        <ele>269.8</ele>
        <time>2022-09-03T08:23:24Z</time>
      </trkpt>
      <trkpt lat="43.0923" lon="1.7446">
        <ele>270.2</ele>
        <time>2022-09-03T08:23:26Z</time>
      </trkpt>
      <trkpt lat="43.09234" lon="1.74442">
        <ele>270.6</ele>
        <time>2022-09-03T08:23:31Z</time>
      </trkpt>
      <trkpt lat="43.09237" lon="1.74412">
        <ele>271.2</ele>
        <time>2022-09-03T08:23:38Z</time>
      </trkpt>
      <trkpt lat="43.09237" lon="1.74407">
        <ele>271.2</ele>
        <time>2022-09-03T08:23:39Z</time>
      </trkpt>
      <trkpt lat="43.09238" lon="1.7436">
        <ele>271.8</ele>
        <time>2022-09-03T08:23:49Z</time>
      </trkpt>
      <trkpt lat="43.0924" lon="1.74306">
        <ele>272</ele>
        <time>2022-09-03T08:24:00Z</time>
      </trkpt>
      <trkpt lat="43.09239" lon="1.74292">
        <ele>272.2</ele>
        <time>2022-09-03T08:24:03Z</time>
      </trkpt>
      <trkpt lat="43.09241" lon="1.74275">
        <ele>272.2</ele>
        <time>2022-09-03T08:24:07Z</time>
      </trkpt>
      <trkpt lat="43.0925" lon="1.7426">
        <ele>272.2</ele>
        <time>2022-09-03T08:24:11Z</time>
      </trkpt>
      <trkpt lat="43.09276" lon="1.74239">
        <ele>272.2</ele>
        <time>2022-09-03T08:24:19Z</time>
      </trkpt>
      <trkpt lat="43.09299" lon="1.74219">
        <ele>272</ele>
        <time>2022-09-03T08:24:27Z</time>
      </trkpt>
      <trkpt lat="43.09327" lon="1.74197">
        <ele>271.6</ele>
        <time>2022-09-03T08:24:36Z</time>
      </trkpt>
      <trkpt lat="43.09339" lon="1.74185">
        <ele>271.2</ele>
        <time>2022-09-03T08:24:40Z</time>
      </trkpt>
      <trkpt lat="43.09348" lon="1.74175">
        <ele>271.2</ele>
        <time>2022-09-03T08:24:43Z</time>
      </trkpt>
      <trkpt lat="43.09354" lon="1.74166">
        <ele>271.2</ele>
        <time>2022-09-03T08:24:45Z</time>
      </trkpt>
      <trkpt lat="43.09368" lon="1.7414">
        <ele>270.6</ele>
        <time>2022-09-03T08:24:50Z</time>
      </trkpt>
      <trkpt lat="43.09378" lon="1.74118">
        <ele>270.2</ele>
        <time>2022-09-03T08:24:54Z</time>
      </trkpt>
      <trkpt lat="43.09388" lon="1.74097">
        <ele>269.8</ele>
        <time>2022-09-03T08:24:58Z</time>
      </trkpt>
      <trkpt lat="43.09414" lon="1.74047">
        <ele>269.4</ele>
        <time>2022-09-03T08:25:07Z</time>
      </trkpt>
      <trkpt lat="43.09417" lon="1.74043">
        <ele>269.2</ele>
        <time>2022-09-03T08:25:08Z</time>
      </trkpt>
      <trkpt lat="43.0942" lon="1.74039">
        <ele>269.2</ele>
        <time>2022-09-03T08:25:09Z</time>
      </trkpt>
      <trkpt lat="43.09423" lon="1.74035">
        <ele>269</ele>
        <time>2022-09-03T08:25:10Z</time>
      </trkpt>
      <trkpt lat="43.09426" lon="1.74031">
        <ele>269</ele>
        <time>2022-09-03T08:25:11Z</time>
      </trkpt>
      <trkpt lat="43.09436" lon="1.74015">
        <ele>269</ele>
        <time>2022-09-03T08:25:15Z</time>
      </trkpt>
      <trkpt lat="43.09441" lon="1.74005">
        <ele>269.2</ele>
        <time>2022-09-03T08:25:17Z</time>
      </trkpt>
      <trkpt lat="43.09454" lon="1.73973">
        <ele>268.8</ele>
        <time>2022-09-03T08:25:23Z</time>
      </trkpt>
      <trkpt lat="43.09467" lon="1.73934">
        <ele>268.8</ele>
        <time>2022-09-03T08:25:31Z</time>
      </trkpt>
      <trkpt lat="43.09474" lon="1.73903">
        <ele>269</ele>
        <time>2022-09-03T08:25:37Z</time>
      </trkpt>
      <trkpt lat="43.09483" lon="1.73858">
        <ele>268.8</ele>
        <time>2022-09-03T08:25:45Z</time>
      </trkpt>
      <trkpt lat="43.09492" lon="1.73817">
        <ele>269.2</ele>
        <time>2022-09-03T08:25:52Z</time>
      </trkpt>
      <trkpt lat="43.09508" lon="1.73759">
        <ele>269.2</ele>
        <time>2022-09-03T08:26:02Z</time>
      </trkpt>
      <trkpt lat="43.09529" lon="1.73715">
        <ele>269</ele>
        <time>2022-09-03T08:26:11Z</time>
      </trkpt>
      <trkpt lat="43.09546" lon="1.73678">
        <ele>269</ele>
        <time>2022-09-03T08:26:19Z</time>
      </trkpt>
      <trkpt lat="43.09568" lon="1.73631">
        <ele>268.8</ele>
        <time>2022-09-03T08:26:29Z</time>
      </trkpt>
      <trkpt lat="43.09586" lon="1.73595">
        <ele>269</ele>
        <time>2022-09-03T08:26:37Z</time>
      </trkpt>
      <trkpt lat="43.09613" lon="1.73555">
        <ele>269.2</ele>
        <time>2022-09-03T08:26:46Z</time>
      </trkpt>
      <trkpt lat="43.09634" lon="1.73525">
        <ele>269</ele>
        <time>2022-09-03T08:26:54Z</time>
      </trkpt>
      <trkpt lat="43.09654" lon="1.73495">
        <ele>269</ele>
        <time>2022-09-03T08:27:02Z</time>
      </trkpt>
      <trkpt lat="43.09671" lon="1.73464">
        <ele>268.8</ele>
        <time>2022-09-03T08:27:10Z</time>
      </trkpt>
      <trkpt lat="43.09683" lon="1.73436">
        <ele>269.2</ele>
        <time>2022-09-03T08:27:17Z</time>
      </trkpt>
      <trkpt lat="43.09691" lon="1.7342">
        <ele>268.6</ele>
        <time>2022-09-03T08:27:23Z</time>
      </trkpt>
      <trkpt lat="43.09693" lon="1.73414">
        <ele>268.4</ele>
        <time>2022-09-03T08:27:30Z</time>
      </trkpt>
      <trkpt lat="43.09695" lon="1.73411">
        <ele>268.4</ele>
        <time>2022-09-03T08:27:32Z</time>
      </trkpt>
      <trkpt lat="43.09694" lon="1.73404">
        <ele>268.4</ele>
        <time>2022-09-03T08:27:34Z</time>
      </trkpt>
      <trkpt lat="43.0969" lon="1.73396">
        <ele>268.2</ele>
        <time>2022-09-03T08:27:36Z</time>
      </trkpt>
      <trkpt lat="43.09689" lon="1.73392">
        <ele>268.2</ele>
        <time>2022-09-03T08:27:37Z</time>
      </trkpt>
      <trkpt lat="43.09685" lon="1.73382">
        <ele>267.8</ele>
        <time>2022-09-03T08:27:39Z</time>
      </trkpt>
      <trkpt lat="43.09676" lon="1.73342">
        <ele>267.2</ele>
        <time>2022-09-03T08:27:45Z</time>
      </trkpt>
      <trkpt lat="43.09674" lon="1.73335">
        <ele>267</ele>
        <time>2022-09-03T08:27:46Z</time>
      </trkpt>
      <trkpt lat="43.09661" lon="1.73277">
        <ele>267</ele>
        <time>2022-09-03T08:27:54Z</time>
      </trkpt>
      <trkpt lat="43.09645" lon="1.73205">
        <ele>266.8</ele>
        <time>2022-09-03T08:28:04Z</time>
      </trkpt>
      <trkpt lat="43.09632" lon="1.73142">
        <ele>267.2</ele>
        <time>2022-09-03T08:28:13Z</time>
      </trkpt>
      <trkpt lat="43.09624" lon="1.73102">
        <ele>267.8</ele>
        <time>2022-09-03T08:28:20Z</time>
      </trkpt>
      <trkpt lat="43.09621" lon="1.73093">
        <ele>268.2</ele>
        <time>2022-09-03T08:28:22Z</time>
      </trkpt>
      <trkpt lat="43.09617" lon="1.73074">
        <ele>269.2</ele>
        <time>2022-09-03T08:28:27Z</time>
      </trkpt>
      <trkpt lat="43.09616" lon="1.7307">
        <ele>269.2</ele>
        <time>2022-09-03T08:28:28Z</time>
      </trkpt>
      <trkpt lat="43.0961" lon="1.73042">
        <ele>270.2</ele>
        <time>2022-09-03T08:28:35Z</time>
      </trkpt>
      <trkpt lat="43.09602" lon="1.7301">
        <ele>271</ele>
        <time>2022-09-03T08:28:43Z</time>
      </trkpt>
      <trkpt lat="43.09596" lon="1.72983">
        <ele>271.4</ele>
        <time>2022-09-03T08:28:49Z</time>
      </trkpt>
      <trkpt lat="43.0959" lon="1.72962">
        <ele>272</ele>
        <time>2022-09-03T08:28:54Z</time>
      </trkpt>
      <trkpt lat="43.09581" lon="1.72934">
        <ele>272.4</ele>
        <time>2022-09-03T08:29:01Z</time>
      </trkpt>
      <trkpt lat="43.09576" lon="1.72918">
        <ele>272.8</ele>
        <time>2022-09-03T08:29:05Z</time>
      </trkpt>
      <trkpt lat="43.09568" lon="1.72894">
        <ele>273.4</ele>
        <time>2022-09-03T08:29:11Z</time>
      </trkpt>
      <trkpt lat="43.09565" lon="1.72887">
        <ele>273.6</ele>
        <time>2022-09-03T08:29:13Z</time>
      </trkpt>
      <trkpt lat="43.09555" lon="1.72861">
        <ele>274.4</ele>
        <time>2022-09-03T08:29:20Z</time>
      </trkpt>
      <trkpt lat="43.09548" lon="1.72846">
        <ele>275</ele>
        <time>2022-09-03T08:29:24Z</time>
      </trkpt>
      <trkpt lat="43.09544" lon="1.72835">
        <ele>275.6</ele>
        <time>2022-09-03T08:29:27Z</time>
      </trkpt>
      <trkpt lat="43.09534" lon="1.72814">
        <ele>276.2</ele>
        <time>2022-09-03T08:29:33Z</time>
      </trkpt>
      <trkpt lat="43.09528" lon="1.72799">
        <ele>276.6</ele>
        <time>2022-09-03T08:29:37Z</time>
      </trkpt>
      <trkpt lat="43.09524" lon="1.72788">
        <ele>277</ele>
        <time>2022-09-03T08:29:40Z</time>
      </trkpt>
      <trkpt lat="43.09514" lon="1.72752">
        <ele>277.8</ele>
        <time>2022-09-03T08:29:49Z</time>
      </trkpt>
      <trkpt lat="43.09506" lon="1.72724">
        <ele>278.4</ele>
        <time>2022-09-03T08:29:56Z</time>
      </trkpt>
      <trkpt lat="43.09496" lon="1.72701">
        <ele>278.8</ele>
        <time>2022-09-03T08:30:02Z</time>
      </trkpt>
      <trkpt lat="43.09494" lon="1.72695">
        <ele>278.8</ele>
        <time>2022-09-03T08:30:04Z</time>
      </trkpt>
      <trkpt lat="43.09482" lon="1.72673">
        <ele>279.2</ele>
        <time>2022-09-03T08:30:11Z</time>
      </trkpt>
      <trkpt lat="43.0946" lon="1.72637">
        <ele>280</ele>
        <time>2022-09-03T08:30:21Z</time>
      </trkpt>
      <trkpt lat="43.09457" lon="1.72633">
        <ele>280</ele>
        <time>2022-09-03T08:30:22Z</time>
      </trkpt>
      <trkpt lat="43.09431" lon="1.72606">
        <ele>280.4</ele>
        <time>2022-09-03T08:30:31Z</time>
      </trkpt>
      <trkpt lat="43.09424" lon="1.726">
        <ele>280.4</ele>
        <time>2022-09-03T08:30:33Z</time>
      </trkpt>
      <trkpt lat="43.094" lon="1.7258">
        <ele>281</ele>
        <time>2022-09-03T08:30:40Z</time>
      </trkpt>
      <trkpt lat="43.09396" lon="1.72578">
        <ele>281</ele>
        <time>2022-09-03T08:30:41Z</time>
      </trkpt>
      <trkpt lat="43.09361" lon="1.7255">
        <ele>281.2</ele>
        <time>2022-09-03T08:30:51Z</time>
      </trkpt>
      <trkpt lat="43.09336" lon="1.72534">
        <ele>281.6</ele>
        <time>2022-09-03T08:30:59Z</time>
      </trkpt>
      <trkpt lat="43.09318" lon="1.72525">
        <ele>281.8</ele>
        <time>2022-09-03T08:31:06Z</time>
      </trkpt>
      <trkpt lat="43.09314" lon="1.72523">
        <ele>282</ele>
        <time>2022-09-03T08:31:09Z</time>
      </trkpt>
      <trkpt lat="43.09311" lon="1.7252">
        <ele>282</ele>
        <time>2022-09-03T08:31:12Z</time>
      </trkpt>
      <trkpt lat="43.09305" lon="1.72516">
        <ele>282.2</ele>
        <time>2022-09-03T08:31:28Z</time>
      </trkpt>
      <trkpt lat="43.09301" lon="1.72513">
        <ele>282.4</ele>
        <time>2022-09-03T08:31:30Z</time>
      </trkpt>
      <trkpt lat="43.09295" lon="1.7251">
        <ele>282.4</ele>
        <time>2022-09-03T08:31:32Z</time>
      </trkpt>
      <trkpt lat="43.09282" lon="1.72503">
        <ele>282.2</ele>
        <time>2022-09-03T08:31:37Z</time>
      </trkpt>
      <trkpt lat="43.09264" lon="1.72493">
        <ele>282.4</ele>
        <time>2022-09-03T08:31:44Z</time>
      </trkpt>
      <trkpt lat="43.09241" lon="1.72478">
        <ele>282.8</ele>
        <time>2022-09-03T08:31:52Z</time>
      </trkpt>
      <trkpt lat="43.09222" lon="1.72461">
        <ele>283</ele>
        <time>2022-09-03T08:31:59Z</time>
      </trkpt>
      <trkpt lat="43.09219" lon="1.72458">
        <ele>283.2</ele>
        <time>2022-09-03T08:32:00Z</time>
      </trkpt>
      <trkpt lat="43.0919" lon="1.72427">
        <ele>283.4</ele>
        <time>2022-09-03T08:32:10Z</time>
      </trkpt>
      <trkpt lat="43.09181" lon="1.72417">
        <ele>283.2</ele>
        <time>2022-09-03T08:32:13Z</time>
      </trkpt>
      <trkpt lat="43.09164" lon="1.72396">
        <ele>283.8</ele>
        <time>2022-09-03T08:32:19Z</time>
      </trkpt>
      <trkpt lat="43.09147" lon="1.72376">
        <ele>284</ele>
        <time>2022-09-03T08:32:26Z</time>
      </trkpt>
      <trkpt lat="43.09142" lon="1.7237">
        <ele>284</ele>
        <time>2022-09-03T08:32:29Z</time>
      </trkpt>
      <trkpt lat="43.09132" lon="1.72356">
        <ele>284</ele>
        <time>2022-09-03T08:32:34Z</time>
      </trkpt>
      <trkpt lat="43.09113" lon="1.72326">
        <ele>284.6</ele>
        <time>2022-09-03T08:32:44Z</time>
      </trkpt>
      <trkpt lat="43.09093" lon="1.72284">
        <ele>284.8</ele>
        <time>2022-09-03T08:32:56Z</time>
      </trkpt>
      <trkpt lat="43.09089" lon="1.72276">
        <ele>285.2</ele>
        <time>2022-09-03T08:32:58Z</time>
      </trkpt>
      <trkpt lat="43.09078" lon="1.72259">
        <ele>285.8</ele>
        <time>2022-09-03T08:33:03Z</time>
      </trkpt>
      <trkpt lat="43.09072" lon="1.72249">
        <ele>286.2</ele>
        <time>2022-09-03T08:33:06Z</time>
      </trkpt>
      <trkpt lat="43.09059" lon="1.72234">
        <ele>286.8</ele>
        <time>2022-09-03T08:33:11Z</time>
      </trkpt>
      <trkpt lat="43.09043" lon="1.7222">
        <ele>287.2</ele>
        <time>2022-09-03T08:33:17Z</time>
      </trkpt>
      <trkpt lat="43.0904" lon="1.72219">
        <ele>287.4</ele>
        <time>2022-09-03T08:33:18Z</time>
      </trkpt>
      <trkpt lat="43.09022" lon="1.72209">
        <ele>288</ele>
        <time>2022-09-03T08:33:24Z</time>
      </trkpt>
      <trkpt lat="43.09008" lon="1.72202">
        <ele>288.4</ele>
        <time>2022-09-03T08:33:29Z</time>
      </trkpt>
      <trkpt lat="43.09002" lon="1.72199">
        <ele>288.6</ele>
        <time>2022-09-03T08:33:31Z</time>
      </trkpt>
      <trkpt lat="43.08999" lon="1.72198">
        <ele>288.8</ele>
        <time>2022-09-03T08:33:32Z</time>
      </trkpt>
      <trkpt lat="43.08979" lon="1.72185">
        <ele>289.2</ele>
        <time>2022-09-03T08:33:39Z</time>
      </trkpt>
      <trkpt lat="43.08969" lon="1.72176">
        <ele>289.4</ele>
        <time>2022-09-03T08:33:43Z</time>
      </trkpt>
      <trkpt lat="43.08959" lon="1.72171">
        <ele>290</ele>
        <time>2022-09-03T08:33:47Z</time>
      </trkpt>
      <trkpt lat="43.08944" lon="1.72164">
        <ele>289.6</ele>
        <time>2022-09-03T08:33:53Z</time>
      </trkpt>
      <trkpt lat="43.08925" lon="1.72154">
        <ele>289.6</ele>
        <time>2022-09-03T08:33:59Z</time>
      </trkpt>
      <trkpt lat="43.08897" lon="1.72136">
        <ele>289.4</ele>
        <time>2022-09-03T08:34:07Z</time>
      </trkpt>
      <trkpt lat="43.08872" lon="1.72113">
        <ele>289.8</ele>
        <time>2022-09-03T08:34:15Z</time>
      </trkpt>
      <trkpt lat="43.08849" lon="1.72092">
        <ele>290</ele>
        <time>2022-09-03T08:34:23Z</time>
      </trkpt>
      <trkpt lat="43.08826" lon="1.72076">
        <ele>289.6</ele>
        <time>2022-09-03T08:34:31Z</time>
      </trkpt>
      <trkpt lat="43.08815" lon="1.72063">
        <ele>288.8</ele>
        <time>2022-09-03T08:34:37Z</time>
      </trkpt>
      <trkpt lat="43.08814" lon="1.72051">
        <ele>289.8</ele>
        <time>2022-09-03T08:34:43Z</time>
      </trkpt>
      <trkpt lat="43.08817" lon="1.72044">
        <ele>290.6</ele>
        <time>2022-09-03T08:34:47Z</time>
      </trkpt>
      <trkpt lat="43.0882" lon="1.72037">
        <ele>291.6</ele>
        <time>2022-09-03T08:34:51Z</time>
      </trkpt>
      <trkpt lat="43.08844" lon="1.7197">
        <ele>304.2</ele>
        <time>2022-09-03T08:37:16Z</time>
      </trkpt>
      <trkpt lat="43.08842" lon="1.71964">
        <ele>304.6</ele>
        <time>2022-09-03T08:37:18Z</time>
      </trkpt>
      <trkpt lat="43.08832" lon="1.71949">
        <ele>305.4</ele>
        <time>2022-09-03T08:37:25Z</time>
      </trkpt>
      <trkpt lat="43.0883" lon="1.71945">
        <ele>305.6</ele>
        <time>2022-09-03T08:37:27Z</time>
      </trkpt>
      <trkpt lat="43.08824" lon="1.71935">
        <ele>306.6</ele>
        <time>2022-09-03T08:37:32Z</time>
      </trkpt>
      <trkpt lat="43.08821" lon="1.71928">
        <ele>307</ele>
        <time>2022-09-03T08:37:35Z</time>
      </trkpt>
      <trkpt lat="43.08817" lon="1.71916">
        <ele>307.6</ele>
        <time>2022-09-03T08:37:39Z</time>
      </trkpt>
      <trkpt lat="43.08815" lon="1.71908">
        <ele>308</ele>
        <time>2022-09-03T08:37:42Z</time>
      </trkpt>
      <trkpt lat="43.08812" lon="1.71895">
        <ele>308.8</ele>
        <time>2022-09-03T08:37:47Z</time>
      </trkpt>
      <trkpt lat="43.08811" lon="1.71884">
        <ele>309.2</ele>
        <time>2022-09-03T08:37:51Z</time>
      </trkpt>
      <trkpt lat="43.08812" lon="1.71872">
        <ele>310</ele>
        <time>2022-09-03T08:37:55Z</time>
      </trkpt>
      <trkpt lat="43.08815" lon="1.71862">
        <ele>310.4</ele>
        <time>2022-09-03T08:37:59Z</time>
      </trkpt>
      <trkpt lat="43.08818" lon="1.71849">
        <ele>311</ele>
        <time>2022-09-03T08:38:04Z</time>
      </trkpt>
      <trkpt lat="43.08821" lon="1.71842">
        <ele>311.4</ele>
        <time>2022-09-03T08:38:07Z</time>
      </trkpt>
      <trkpt lat="43.08826" lon="1.71823">
        <ele>312.2</ele>
        <time>2022-09-03T08:38:14Z</time>
      </trkpt>
      <trkpt lat="43.08826" lon="1.7182">
        <ele>312.2</ele>
        <time>2022-09-03T08:38:15Z</time>
      </trkpt>
      <trkpt lat="43.0882" lon="1.71808">
        <ele>312.6</ele>
        <time>2022-09-03T08:38:20Z</time>
      </trkpt>
      <trkpt lat="43.0881" lon="1.71792">
        <ele>312.8</ele>
        <time>2022-09-03T08:38:27Z</time>
      </trkpt>
      <trkpt lat="43.08804" lon="1.71775">
        <ele>312.8</ele>
        <time>2022-09-03T08:38:33Z</time>
      </trkpt>
      <trkpt lat="43.088" lon="1.71756">
        <ele>312.6</ele>
        <time>2022-09-03T08:38:39Z</time>
      </trkpt>
      <trkpt lat="43.08802" lon="1.71754">
        <ele>312.6</ele>
        <time>2022-09-03T08:38:40Z</time>
      </trkpt>
      <trkpt lat="43.08814" lon="1.71738">
        <ele>311.6</ele>
        <time>2022-09-03T08:38:44Z</time>
      </trkpt>
      <trkpt lat="43.08817" lon="1.71733">
        <ele>311.2</ele>
        <time>2022-09-03T08:38:45Z</time>
      </trkpt>
      <trkpt lat="43.08819" lon="1.71728">
        <ele>311</ele>
        <time>2022-09-03T08:38:46Z</time>
      </trkpt>
      <trkpt lat="43.08822" lon="1.71714">
        <ele>310.6</ele>
        <time>2022-09-03T08:38:48Z</time>
      </trkpt>
      <trkpt lat="43.08824" lon="1.71705">
        <ele>310.4</ele>
        <time>2022-09-03T08:38:49Z</time>
      </trkpt>
      <trkpt lat="43.08825" lon="1.71695">
        <ele>309.8</ele>
        <time>2022-09-03T08:38:50Z</time>
      </trkpt>
      <trkpt lat="43.08827" lon="1.71675">
        <ele>308.4</ele>
        <time>2022-09-03T08:38:52Z</time>
      </trkpt>
      <trkpt lat="43.0883" lon="1.71655">
        <ele>307</ele>
        <time>2022-09-03T08:38:54Z</time>
      </trkpt>
      <trkpt lat="43.08832" lon="1.71645">
        <ele>306.2</ele>
        <time>2022-09-03T08:38:55Z</time>
      </trkpt>
      <trkpt lat="43.08834" lon="1.71635">
        <ele>305.6</ele>
        <time>2022-09-03T08:38:56Z</time>
      </trkpt>
      <trkpt lat="43.08836" lon="1.71624">
        <ele>304.8</ele>
        <time>2022-09-03T08:38:57Z</time>
      </trkpt>
      <trkpt lat="43.08838" lon="1.71613">
        <ele>304.2</ele>
        <time>2022-09-03T08:38:58Z</time>
      </trkpt>
      <trkpt lat="43.0884" lon="1.7158">
        <ele>303</ele>
        <time>2022-09-03T08:39:01Z</time>
      </trkpt>
      <trkpt lat="43.0884" lon="1.7157">
        <ele>303</ele>
        <time>2022-09-03T08:39:02Z</time>
      </trkpt>
      <trkpt lat="43.08839" lon="1.71541">
        <ele>302</ele>
        <time>2022-09-03T08:39:05Z</time>
      </trkpt>
      <trkpt lat="43.08836" lon="1.71523">
        <ele>302</ele>
        <time>2022-09-03T08:39:07Z</time>
      </trkpt>
      <trkpt lat="43.08826" lon="1.71483">
        <ele>301.4</ele>
        <time>2022-09-03T08:39:12Z</time>
      </trkpt>
      <trkpt lat="43.08815" lon="1.71446">
        <ele>301.2</ele>
        <time>2022-09-03T08:39:18Z</time>
      </trkpt>
      <trkpt lat="43.0881" lon="1.71434">
        <ele>301</ele>
        <time>2022-09-03T08:39:20Z</time>
      </trkpt>
      <trkpt lat="43.08806" lon="1.7142">
        <ele>301</ele>
        <time>2022-09-03T08:39:22Z</time>
      </trkpt>
      <trkpt lat="43.08805" lon="1.71412">
        <ele>300.8</ele>
        <time>2022-09-03T08:39:23Z</time>
      </trkpt>
      <trkpt lat="43.08805" lon="1.71387">
        <ele>300.2</ele>
        <time>2022-09-03T08:39:26Z</time>
      </trkpt>
      <trkpt lat="43.08804" lon="1.71379">
        <ele>300</ele>
        <time>2022-09-03T08:39:27Z</time>
      </trkpt>
      <trkpt lat="43.08796" lon="1.71346">
        <ele>298.8</ele>
        <time>2022-09-03T08:39:31Z</time>
      </trkpt>
      <trkpt lat="43.08795" lon="1.71338">
        <ele>298.4</ele>
        <time>2022-09-03T08:39:32Z</time>
      </trkpt>
      <trkpt lat="43.08795" lon="1.71323">
        <ele>297.8</ele>
        <time>2022-09-03T08:39:34Z</time>
      </trkpt>
      <trkpt lat="43.08798" lon="1.71317">
        <ele>297.6</ele>
        <time>2022-09-03T08:39:35Z</time>
      </trkpt>
      <trkpt lat="43.08807" lon="1.71308">
        <ele>297.6</ele>
        <time>2022-09-03T08:39:38Z</time>
      </trkpt>
      <trkpt lat="43.08819" lon="1.71291">
        <ele>298</ele>
        <time>2022-09-03T08:39:43Z</time>
      </trkpt>
      <trkpt lat="43.08821" lon="1.71275">
        <ele>298.8</ele>
        <time>2022-09-03T08:39:47Z</time>
      </trkpt>
      <trkpt lat="43.08821" lon="1.71272">
        <ele>298.8</ele>
        <time>2022-09-03T08:39:48Z</time>
      </trkpt>
      <trkpt lat="43.08814" lon="1.7125">
        <ele>299.8</ele>
        <time>2022-09-03T08:39:55Z</time>
      </trkpt>
      <trkpt lat="43.08809" lon="1.7123">
        <ele>300.6</ele>
        <time>2022-09-03T08:40:01Z</time>
      </trkpt>
      <trkpt lat="43.08807" lon="1.71223">
        <ele>301</ele>
        <time>2022-09-03T08:40:03Z</time>
      </trkpt>
      <trkpt lat="43.088" lon="1.71196">
        <ele>302.2</ele>
        <time>2022-09-03T08:40:11Z</time>
      </trkpt>
      <trkpt lat="43.08796" lon="1.7118">
        <ele>303.2</ele>
        <time>2022-09-03T08:40:17Z</time>
      </trkpt>
      <trkpt lat="43.08795" lon="1.71177">
        <ele>303.4</ele>
        <time>2022-09-03T08:40:18Z</time>
      </trkpt>
      <trkpt lat="43.0879" lon="1.71158">
        <ele>304.2</ele>
        <time>2022-09-03T08:40:25Z</time>
      </trkpt>
      <trkpt lat="43.08789" lon="1.71153">
        <ele>304.6</ele>
        <time>2022-09-03T08:40:27Z</time>
      </trkpt>
      <trkpt lat="43.08785" lon="1.71142">
        <ele>305.4</ele>
        <time>2022-09-03T08:40:32Z</time>
      </trkpt>
      <trkpt lat="43.08784" lon="1.71137">
        <ele>305.8</ele>
        <time>2022-09-03T08:40:34Z</time>
      </trkpt>
      <trkpt lat="43.08778" lon="1.71122">
        <ele>306.4</ele>
        <time>2022-09-03T08:40:39Z</time>
      </trkpt>
      <trkpt lat="43.08777" lon="1.71116">
        <ele>307</ele>
        <time>2022-09-03T08:40:41Z</time>
      </trkpt>
      <trkpt lat="43.08774" lon="1.71104">
        <ele>307.6</ele>
        <time>2022-09-03T08:40:45Z</time>
      </trkpt>
      <trkpt lat="43.08772" lon="1.71094">
        <ele>308.2</ele>
        <time>2022-09-03T08:40:49Z</time>
      </trkpt>
      <trkpt lat="43.08769" lon="1.71084">
        <ele>308.6</ele>
        <time>2022-09-03T08:40:53Z</time>
      </trkpt>
      <trkpt lat="43.08767" lon="1.71079">
        <ele>309.2</ele>
        <time>2022-09-03T08:40:56Z</time>
      </trkpt>
      <trkpt lat="43.08766" lon="1.71068">
        <ele>309.8</ele>
        <time>2022-09-03T08:41:00Z</time>
      </trkpt>
      <trkpt lat="43.08765" lon="1.71063">
        <ele>310</ele>
        <time>2022-09-03T08:41:02Z</time>
      </trkpt>
      <trkpt lat="43.08762" lon="1.71047">
        <ele>310.8</ele>
        <time>2022-09-03T08:41:07Z</time>
      </trkpt>
      <trkpt lat="43.08761" lon="1.7104">
        <ele>311</ele>
        <time>2022-09-03T08:41:09Z</time>
      </trkpt>
      <trkpt lat="43.08756" lon="1.71013">
        <ele>312</ele>
        <time>2022-09-03T08:41:17Z</time>
      </trkpt>
      <trkpt lat="43.08753" lon="1.70992">
        <ele>312.6</ele>
        <time>2022-09-03T08:41:24Z</time>
      </trkpt>
      <trkpt lat="43.08744" lon="1.70969">
        <ele>312.8</ele>
        <time>2022-09-03T08:41:30Z</time>
      </trkpt>
      <trkpt lat="43.08737" lon="1.70951">
        <ele>312.8</ele>
        <time>2022-09-03T08:41:36Z</time>
      </trkpt>
      <trkpt lat="43.08729" lon="1.7093">
        <ele>312.8</ele>
        <time>2022-09-03T08:41:42Z</time>
      </trkpt>
      <trkpt lat="43.08725" lon="1.70919">
        <ele>312.4</ele>
        <time>2022-09-03T08:41:44Z</time>
      </trkpt>
      <trkpt lat="43.08717" lon="1.70888">
        <ele>311</ele>
        <time>2022-09-03T08:41:48Z</time>
      </trkpt>
      <trkpt lat="43.087" lon="1.70828">
        <ele>310</ele>
        <time>2022-09-03T08:41:55Z</time>
      </trkpt>
      <trkpt lat="43.08698" lon="1.7082">
        <ele>309.8</ele>
        <time>2022-09-03T08:41:56Z</time>
      </trkpt>
      <trkpt lat="43.08693" lon="1.70804">
        <ele>309.4</ele>
        <time>2022-09-03T08:41:58Z</time>
      </trkpt>
      <trkpt lat="43.08687" lon="1.70793">
        <ele>309.4</ele>
        <time>2022-09-03T08:42:00Z</time>
      </trkpt>
      <trkpt lat="43.08676" lon="1.70771">
        <ele>310.2</ele>
        <time>2022-09-03T08:42:04Z</time>
      </trkpt>
      <trkpt lat="43.08673" lon="1.70764">
        <ele>311.2</ele>
        <time>2022-09-03T08:42:06Z</time>
      </trkpt>
      <trkpt lat="43.0867" lon="1.70759">
        <ele>312</ele>
        <time>2022-09-03T08:42:08Z</time>
      </trkpt>
      <trkpt lat="43.08667" lon="1.70754">
        <ele>312.2</ele>
        <time>2022-09-03T08:42:10Z</time>
      </trkpt>
      <trkpt lat="43.0866" lon="1.70745">
        <ele>313.4</ele>
        <time>2022-09-03T08:42:15Z</time>
      </trkpt>
      <trkpt lat="43.08654" lon="1.70739">
        <ele>314.6</ele>
        <time>2022-09-03T08:42:19Z</time>
      </trkpt>
      <trkpt lat="43.08647" lon="1.70732">
        <ele>315.6</ele>
        <time>2022-09-03T08:42:23Z</time>
      </trkpt>
      <trkpt lat="43.08645" lon="1.7073">
        <ele>315.8</ele>
        <time>2022-09-03T08:42:24Z</time>
      </trkpt>
      <trkpt lat="43.08637" lon="1.70721">
        <ele>316.8</ele>
        <time>2022-09-03T08:42:29Z</time>
      </trkpt>
      <trkpt lat="43.08636" lon="1.70719">
        <ele>317</ele>
        <time>2022-09-03T08:42:30Z</time>
      </trkpt>
      <trkpt lat="43.08631" lon="1.70715">
        <ele>317.8</ele>
        <time>2022-09-03T08:42:33Z</time>
      </trkpt>
      <trkpt lat="43.08626" lon="1.7071">
        <ele>319</ele>
        <time>2022-09-03T08:42:37Z</time>
      </trkpt>
      <trkpt lat="43.08622" lon="1.70704">
        <ele>320.4</ele>
        <time>2022-09-03T08:42:41Z</time>
      </trkpt>
      <trkpt lat="43.08619" lon="1.70697">
        <ele>321.2</ele>
        <time>2022-09-03T08:42:44Z</time>
      </trkpt>
      <trkpt lat="43.08619" lon="1.70695">
        <ele>321.4</ele>
        <time>2022-09-03T08:42:45Z</time>
      </trkpt>
      <trkpt lat="43.08617" lon="1.70692">
        <ele>321.8</ele>
        <time>2022-09-03T08:42:47Z</time>
      </trkpt>
      <trkpt lat="43.08615" lon="1.70686">
        <ele>322</ele>
        <time>2022-09-03T08:42:50Z</time>
      </trkpt>
      <trkpt lat="43.08615" lon="1.70678">
        <ele>322.4</ele>
        <time>2022-09-03T08:42:54Z</time>
      </trkpt>
      <trkpt lat="43.08616" lon="1.70669">
        <ele>322.4</ele>
        <time>2022-09-03T08:42:58Z</time>
      </trkpt>
      <trkpt lat="43.08619" lon="1.70657">
        <ele>322.6</ele>
        <time>2022-09-03T08:43:03Z</time>
      </trkpt>
      <trkpt lat="43.0862" lon="1.70649">
        <ele>322.8</ele>
        <time>2022-09-03T08:43:06Z</time>
      </trkpt>
      <trkpt lat="43.08611" lon="1.70638">
        <ele>323.2</ele>
        <time>2022-09-03T08:43:11Z</time>
      </trkpt>
      <trkpt lat="43.08606" lon="1.70633">
        <ele>323.6</ele>
        <time>2022-09-03T08:43:14Z</time>
      </trkpt>
      <trkpt lat="43.08596" lon="1.70625">
        <ele>324</ele>
        <time>2022-09-03T08:43:19Z</time>
      </trkpt>
      <trkpt lat="43.0858" lon="1.70609">
        <ele>324.6</ele>
        <time>2022-09-03T08:43:27Z</time>
      </trkpt>
      <trkpt lat="43.08575" lon="1.70605">
        <ele>324.6</ele>
        <time>2022-09-03T08:43:29Z</time>
      </trkpt>
      <trkpt lat="43.08561" lon="1.70593">
        <ele>325</ele>
        <time>2022-09-03T08:43:34Z</time>
      </trkpt>
      <trkpt lat="43.08541" lon="1.70575">
        <ele>325.2</ele>
        <time>2022-09-03T08:43:42Z</time>
      </trkpt>
      <trkpt lat="43.08523" lon="1.70559">
        <ele>325.4</ele>
        <time>2022-09-03T08:43:49Z</time>
      </trkpt>
      <trkpt lat="43.085" lon="1.70537">
        <ele>325.6</ele>
        <time>2022-09-03T08:43:58Z</time>
      </trkpt>
      <trkpt lat="43.08497" lon="1.70536">
        <ele>325.8</ele>
        <time>2022-09-03T08:43:59Z</time>
      </trkpt>
      <trkpt lat="43.0848" lon="1.70519">
        <ele>326</ele>
        <time>2022-09-03T08:44:06Z</time>
      </trkpt>
      <trkpt lat="43.08456" lon="1.70499">
        <ele>326</ele>
        <time>2022-09-03T08:44:15Z</time>
      </trkpt>
      <trkpt lat="43.08454" lon="1.70497">
        <ele>325.8</ele>
        <time>2022-09-03T08:44:19Z</time>
      </trkpt>
      <trkpt lat="43.08451" lon="1.70493">
        <ele>326</ele>
        <time>2022-09-03T08:44:36Z</time>
      </trkpt>
      <trkpt lat="43.08447" lon="1.7049">
        <ele>326.2</ele>
        <time>2022-09-03T08:44:38Z</time>
      </trkpt>
      <trkpt lat="43.08431" lon="1.70476">
        <ele>326</ele>
        <time>2022-09-03T08:44:45Z</time>
      </trkpt>
      <trkpt lat="43.0841" lon="1.70457">
        <ele>326</ele>
        <time>2022-09-03T08:44:55Z</time>
      </trkpt>
      <trkpt lat="43.08391" lon="1.70439">
        <ele>326.4</ele>
        <time>2022-09-03T08:45:03Z</time>
      </trkpt>
      <trkpt lat="43.0837" lon="1.70419">
        <ele>326.2</ele>
        <time>2022-09-03T08:45:12Z</time>
      </trkpt>
      <trkpt lat="43.08355" lon="1.70407">
        <ele>326.2</ele>
        <time>2022-09-03T08:45:19Z</time>
      </trkpt>
      <trkpt lat="43.08336" lon="1.70389">
        <ele>326</ele>
        <time>2022-09-03T08:45:26Z</time>
      </trkpt>
      <trkpt lat="43.08334" lon="1.7038">
        <ele>325.6</ele>
        <time>2022-09-03T08:45:28Z</time>
      </trkpt>
      <trkpt lat="43.08334" lon="1.70376">
        <ele>325.8</ele>
        <time>2022-09-03T08:45:29Z</time>
      </trkpt>
      <trkpt lat="43.08339" lon="1.7036">
        <ele>326.2</ele>
        <time>2022-09-03T08:45:33Z</time>
      </trkpt>
      <trkpt lat="43.08348" lon="1.70343">
        <ele>326.8</ele>
        <time>2022-09-03T08:45:38Z</time>
      </trkpt>
      <trkpt lat="43.08351" lon="1.70337">
        <ele>326.8</ele>
        <time>2022-09-03T08:45:40Z</time>
      </trkpt>
      <trkpt lat="43.08366" lon="1.70311">
        <ele>327.6</ele>
        <time>2022-09-03T08:45:48Z</time>
      </trkpt>
      <trkpt lat="43.08368" lon="1.703">
        <ele>327.6</ele>
        <time>2022-09-03T08:45:51Z</time>
      </trkpt>
      <trkpt lat="43.08367" lon="1.70297">
        <ele>327.6</ele>
        <time>2022-09-03T08:45:52Z</time>
      </trkpt>
      <trkpt lat="43.08365" lon="1.70295">
        <ele>328</ele>
        <time>2022-09-03T08:45:53Z</time>
      </trkpt>
      <trkpt lat="43.08357" lon="1.70281">
        <ele>328.6</ele>
        <time>2022-09-03T08:45:58Z</time>
      </trkpt>
      <trkpt lat="43.08349" lon="1.70267">
        <ele>329</ele>
        <time>2022-09-03T08:46:03Z</time>
      </trkpt>
      <trkpt lat="43.08342" lon="1.70256">
        <ele>329.4</ele>
        <time>2022-09-03T08:46:07Z</time>
      </trkpt>
      <trkpt lat="43.08331" lon="1.70236">
        <ele>330</ele>
        <time>2022-09-03T08:46:14Z</time>
      </trkpt>
      <trkpt lat="43.0833" lon="1.70233">
        <ele>330.2</ele>
        <time>2022-09-03T08:46:15Z</time>
      </trkpt>
      <trkpt lat="43.08315" lon="1.70208">
        <ele>331</ele>
        <time>2022-09-03T08:46:24Z</time>
      </trkpt>
      <trkpt lat="43.08297" lon="1.70175">
        <ele>332</ele>
        <time>2022-09-03T08:46:35Z</time>
      </trkpt>
      <trkpt lat="43.08295" lon="1.70172">
        <ele>332.2</ele>
        <time>2022-09-03T08:46:36Z</time>
      </trkpt>
      <trkpt lat="43.08281" lon="1.7015">
        <ele>333</ele>
        <time>2022-09-03T08:46:44Z</time>
      </trkpt>
      <trkpt lat="43.08277" lon="1.70141">
        <ele>333.6</ele>
        <time>2022-09-03T08:46:47Z</time>
      </trkpt>
      <trkpt lat="43.08267" lon="1.70124">
        <ele>334.2</ele>
        <time>2022-09-03T08:46:53Z</time>
      </trkpt>
      <trkpt lat="43.08262" lon="1.70115">
        <ele>334.6</ele>
        <time>2022-09-03T08:46:57Z</time>
      </trkpt>
      <trkpt lat="43.08258" lon="1.70108">
        <ele>335.2</ele>
        <time>2022-09-03T08:47:00Z</time>
      </trkpt>
      <trkpt lat="43.08253" lon="1.70098">
        <ele>335.8</ele>
        <time>2022-09-03T08:47:05Z</time>
      </trkpt>
      <trkpt lat="43.08251" lon="1.70095">
        <ele>336.2</ele>
        <time>2022-09-03T08:47:07Z</time>
      </trkpt>
      <trkpt lat="43.08246" lon="1.70086">
        <ele>337</ele>
        <time>2022-09-03T08:47:11Z</time>
      </trkpt>
      <trkpt lat="43.08243" lon="1.70082">
        <ele>337.2</ele>
        <time>2022-09-03T08:47:13Z</time>
      </trkpt>
      <trkpt lat="43.08238" lon="1.7007">
        <ele>338.2</ele>
        <time>2022-09-03T08:47:19Z</time>
      </trkpt>
      <trkpt lat="43.08237" lon="1.70067">
        <ele>338.4</ele>
        <time>2022-09-03T08:47:20Z</time>
      </trkpt>
      <trkpt lat="43.08232" lon="1.7006">
        <ele>339.4</ele>
        <time>2022-09-03T08:47:25Z</time>
      </trkpt>
      <trkpt lat="43.08231" lon="1.70058">
        <ele>339.6</ele>
        <time>2022-09-03T08:47:26Z</time>
      </trkpt>
      <trkpt lat="43.08226" lon="1.70049">
        <ele>340.4</ele>
        <time>2022-09-03T08:47:30Z</time>
      </trkpt>
      <trkpt lat="43.08224" lon="1.70046">
        <ele>341</ele>
        <time>2022-09-03T08:47:32Z</time>
      </trkpt>
      <trkpt lat="43.0822" lon="1.7004">
        <ele>341.4</ele>
        <time>2022-09-03T08:47:35Z</time>
      </trkpt>
      <trkpt lat="43.08219" lon="1.70037">
        <ele>341.8</ele>
        <time>2022-09-03T08:47:36Z</time>
      </trkpt>
      <trkpt lat="43.08217" lon="1.70034">
        <ele>342.2</ele>
        <time>2022-09-03T08:47:38Z</time>
      </trkpt>
      <trkpt lat="43.08214" lon="1.70028">
        <ele>342.8</ele>
        <time>2022-09-03T08:47:42Z</time>
      </trkpt>
      <trkpt lat="43.08212" lon="1.70025">
        <ele>343.2</ele>
        <time>2022-09-03T08:47:44Z</time>
      </trkpt>
      <trkpt lat="43.0821" lon="1.70019">
        <ele>343.8</ele>
        <time>2022-09-03T08:47:48Z</time>
      </trkpt>
      <trkpt lat="43.08207" lon="1.70013">
        <ele>344.4</ele>
        <time>2022-09-03T08:47:51Z</time>
      </trkpt>
      <trkpt lat="43.08203" lon="1.70006">
        <ele>345</ele>
        <time>2022-09-03T08:47:54Z</time>
      </trkpt>
      <trkpt lat="43.082" lon="1.69999">
        <ele>345.6</ele>
        <time>2022-09-03T08:47:58Z</time>
      </trkpt>
      <trkpt lat="43.08196" lon="1.69987">
        <ele>346.2</ele>
        <time>2022-09-03T08:48:04Z</time>
      </trkpt>
      <trkpt lat="43.08195" lon="1.69985">
        <ele>346.2</ele>
        <time>2022-09-03T08:48:05Z</time>
      </trkpt>
      <trkpt lat="43.08191" lon="1.69969">
        <ele>346.4</ele>
        <time>2022-09-03T08:48:11Z</time>
      </trkpt>
      <trkpt lat="43.08189" lon="1.69953">
        <ele>346.8</ele>
        <time>2022-09-03T08:48:17Z</time>
      </trkpt>
      <trkpt lat="43.08186" lon="1.69934">
        <ele>347.4</ele>
        <time>2022-09-03T08:48:23Z</time>
      </trkpt>
      <trkpt lat="43.08185" lon="1.69931">
        <ele>347.4</ele>
        <time>2022-09-03T08:48:24Z</time>
      </trkpt>
      <trkpt lat="43.08183" lon="1.69917">
        <ele>347.8</ele>
        <time>2022-09-03T08:48:29Z</time>
      </trkpt>
      <trkpt lat="43.08181" lon="1.69908">
        <ele>348.2</ele>
        <time>2022-09-03T08:48:32Z</time>
      </trkpt>
      <trkpt lat="43.08179" lon="1.699">
        <ele>348.4</ele>
        <time>2022-09-03T08:48:35Z</time>
      </trkpt>
      <trkpt lat="43.08176" lon="1.69886">
        <ele>349.4</ele>
        <time>2022-09-03T08:48:40Z</time>
      </trkpt>
      <trkpt lat="43.08175" lon="1.69883">
        <ele>349.6</ele>
        <time>2022-09-03T08:48:41Z</time>
      </trkpt>
      <trkpt lat="43.08172" lon="1.69871">
        <ele>350.4</ele>
        <time>2022-09-03T08:48:45Z</time>
      </trkpt>
      <trkpt lat="43.08169" lon="1.69865">
        <ele>350.6</ele>
        <time>2022-09-03T08:48:47Z</time>
      </trkpt>
      <trkpt lat="43.08162" lon="1.69845">
        <ele>351.4</ele>
        <time>2022-09-03T08:48:54Z</time>
      </trkpt>
      <trkpt lat="43.0816" lon="1.69843">
        <ele>351.6</ele>
        <time>2022-09-03T08:48:55Z</time>
      </trkpt>
      <trkpt lat="43.08152" lon="1.69823">
        <ele>351.8</ele>
        <time>2022-09-03T08:49:00Z</time>
      </trkpt>
      <trkpt lat="43.0813" lon="1.69788">
        <ele>352.2</ele>
        <time>2022-09-03T08:49:08Z</time>
      </trkpt>
      <trkpt lat="43.08122" lon="1.69778">
        <ele>352.6</ele>
        <time>2022-09-03T08:49:11Z</time>
      </trkpt>
      <trkpt lat="43.08112" lon="1.69765">
        <ele>353</ele>
        <time>2022-09-03T08:49:15Z</time>
      </trkpt>
      <trkpt lat="43.08096" lon="1.69747">
        <ele>353.8</ele>
        <time>2022-09-03T08:49:22Z</time>
      </trkpt>
      <trkpt lat="43.08081" lon="1.6973">
        <ele>354.6</ele>
        <time>2022-09-03T08:49:29Z</time>
      </trkpt>
      <trkpt lat="43.08075" lon="1.69721">
        <ele>354.8</ele>
        <time>2022-09-03T08:49:32Z</time>
      </trkpt>
      <trkpt lat="43.08064" lon="1.69706">
        <ele>355.2</ele>
        <time>2022-09-03T08:49:37Z</time>
      </trkpt>
      <trkpt lat="43.08057" lon="1.69687">
        <ele>355.2</ele>
        <time>2022-09-03T08:49:43Z</time>
      </trkpt>
      <trkpt lat="43.08044" lon="1.69663">
        <ele>354.8</ele>
        <time>2022-09-03T08:49:49Z</time>
      </trkpt>
      <trkpt lat="43.08025" lon="1.6963">
        <ele>353.8</ele>
        <time>2022-09-03T08:49:55Z</time>
      </trkpt>
      <trkpt lat="43.08002" lon="1.69589">
        <ele>353</ele>
        <time>2022-09-03T08:50:02Z</time>
      </trkpt>
      <trkpt lat="43.07987" lon="1.69563">
        <ele>353.2</ele>
        <time>2022-09-03T08:50:08Z</time>
      </trkpt>
      <trkpt lat="43.07974" lon="1.69541">
        <ele>353.2</ele>
        <time>2022-09-03T08:50:14Z</time>
      </trkpt>
      <trkpt lat="43.07961" lon="1.69523">
        <ele>353</ele>
        <time>2022-09-03T08:50:20Z</time>
      </trkpt>
      <trkpt lat="43.07951" lon="1.69508">
        <ele>352.6</ele>
        <time>2022-09-03T08:50:25Z</time>
      </trkpt>
      <trkpt lat="43.07948" lon="1.695">
        <ele>352.4</ele>
        <time>2022-09-03T08:50:27Z</time>
      </trkpt>
      <trkpt lat="43.07938" lon="1.69481">
        <ele>351.8</ele>
        <time>2022-09-03T08:50:31Z</time>
      </trkpt>
      <trkpt lat="43.07931" lon="1.69467">
        <ele>351.4</ele>
        <time>2022-09-03T08:50:34Z</time>
      </trkpt>
      <trkpt lat="43.07927" lon="1.69458">
        <ele>351.4</ele>
        <time>2022-09-03T08:50:36Z</time>
      </trkpt>
      <trkpt lat="43.07917" lon="1.69434">
        <ele>350.6</ele>
        <time>2022-09-03T08:50:41Z</time>
      </trkpt>
      <trkpt lat="43.07915" lon="1.69429">
        <ele>350.4</ele>
        <time>2022-09-03T08:50:42Z</time>
      </trkpt>
      <trkpt lat="43.07905" lon="1.69409">
        <ele>349.6</ele>
        <time>2022-09-03T08:50:46Z</time>
      </trkpt>
      <trkpt lat="43.07898" lon="1.69394">
        <ele>349.2</ele>
        <time>2022-09-03T08:50:49Z</time>
      </trkpt>
      <trkpt lat="43.07889" lon="1.69377">
        <ele>349.2</ele>
        <time>2022-09-03T08:50:52Z</time>
      </trkpt>
      <trkpt lat="43.07872" lon="1.69344">
        <ele>348</ele>
        <time>2022-09-03T08:50:58Z</time>
      </trkpt>
      <trkpt lat="43.07867" lon="1.69334">
        <ele>347.4</ele>
        <time>2022-09-03T08:51:00Z</time>
      </trkpt>
      <trkpt lat="43.0786" lon="1.69322">
        <ele>346.8</ele>
        <time>2022-09-03T08:51:03Z</time>
      </trkpt>
      <trkpt lat="43.07858" lon="1.69315">
        <ele>346.6</ele>
        <time>2022-09-03T08:51:04Z</time>
      </trkpt>
      <trkpt lat="43.07848" lon="1.69285">
        <ele>345.8</ele>
        <time>2022-09-03T08:51:08Z</time>
      </trkpt>
      <trkpt lat="43.07846" lon="1.69245">
        <ele>345.2</ele>
        <time>2022-09-03T08:51:13Z</time>
      </trkpt>
      <trkpt lat="43.07847" lon="1.69238">
        <ele>345</ele>
        <time>2022-09-03T08:51:14Z</time>
      </trkpt>
      <trkpt lat="43.07856" lon="1.69211">
        <ele>345</ele>
        <time>2022-09-03T08:51:19Z</time>
      </trkpt>
      <trkpt lat="43.07858" lon="1.69207">
        <ele>345</ele>
        <time>2022-09-03T08:51:20Z</time>
      </trkpt>
      <trkpt lat="43.0786" lon="1.69202">
        <ele>344.8</ele>
        <time>2022-09-03T08:51:21Z</time>
      </trkpt>
      <trkpt lat="43.07864" lon="1.69184">
        <ele>344.6</ele>
        <time>2022-09-03T08:51:25Z</time>
      </trkpt>
      <trkpt lat="43.07865" lon="1.69156">
        <ele>344.6</ele>
        <time>2022-09-03T08:51:31Z</time>
      </trkpt>
      <trkpt lat="43.07865" lon="1.69113">
        <ele>343.8</ele>
        <time>2022-09-03T08:51:39Z</time>
      </trkpt>
      <trkpt lat="43.07865" lon="1.69108">
        <ele>343.8</ele>
        <time>2022-09-03T08:51:40Z</time>
      </trkpt>
      <trkpt lat="43.07865" lon="1.69102">
        <ele>343.6</ele>
        <time>2022-09-03T08:51:41Z</time>
      </trkpt>
      <trkpt lat="43.07868" lon="1.69076">
        <ele>343.4</ele>
        <time>2022-09-03T08:51:46Z</time>
      </trkpt>
      <trkpt lat="43.07869" lon="1.69064">
        <ele>343.2</ele>
        <time>2022-09-03T08:51:48Z</time>
      </trkpt>
      <trkpt lat="43.0787" lon="1.69033">
        <ele>342.8</ele>
        <time>2022-09-03T08:51:53Z</time>
      </trkpt>
      <trkpt lat="43.07873" lon="1.68968">
        <ele>342</ele>
        <time>2022-09-03T08:52:03Z</time>
      </trkpt>
      <trkpt lat="43.07876" lon="1.68942">
        <ele>341.6</ele>
        <time>2022-09-03T08:52:07Z</time>
      </trkpt>
      <trkpt lat="43.07876" lon="1.68915">
        <ele>341.2</ele>
        <time>2022-09-03T08:52:11Z</time>
      </trkpt>
      <trkpt lat="43.07871" lon="1.68862">
        <ele>340.8</ele>
        <time>2022-09-03T08:52:19Z</time>
      </trkpt>
      <trkpt lat="43.07871" lon="1.68855">
        <ele>340.6</ele>
        <time>2022-09-03T08:52:20Z</time>
      </trkpt>
      <trkpt lat="43.07866" lon="1.6881">
        <ele>340.4</ele>
        <time>2022-09-03T08:52:27Z</time>
      </trkpt>
      <trkpt lat="43.07862" lon="1.68755">
        <ele>339.8</ele>
        <time>2022-09-03T08:52:35Z</time>
      </trkpt>
      <trkpt lat="43.07862" lon="1.68741">
        <ele>339.6</ele>
        <time>2022-09-03T08:52:37Z</time>
      </trkpt>
      <trkpt lat="43.07862" lon="1.68699">
        <ele>339.2</ele>
        <time>2022-09-03T08:52:43Z</time>
      </trkpt>
      <trkpt lat="43.07862" lon="1.68653">
        <ele>338.8</ele>
        <time>2022-09-03T08:52:50Z</time>
      </trkpt>
      <trkpt lat="43.07862" lon="1.68639">
        <ele>338.6</ele>
        <time>2022-09-03T08:52:52Z</time>
      </trkpt>
      <trkpt lat="43.07864" lon="1.68598">
        <ele>338</ele>
        <time>2022-09-03T08:52:58Z</time>
      </trkpt>
      <trkpt lat="43.07864" lon="1.68556">
        <ele>337.6</ele>
        <time>2022-09-03T08:53:04Z</time>
      </trkpt>
      <trkpt lat="43.07864" lon="1.68543">
        <ele>337.6</ele>
        <time>2022-09-03T08:53:06Z</time>
      </trkpt>
      <trkpt lat="43.07858" lon="1.68493">
        <ele>337</ele>
        <time>2022-09-03T08:53:14Z</time>
      </trkpt>
      <trkpt lat="43.07849" lon="1.68447">
        <ele>336.6</ele>
        <time>2022-09-03T08:53:22Z</time>
      </trkpt>
      <trkpt lat="43.07849" lon="1.68441">
        <ele>336.6</ele>
        <time>2022-09-03T08:53:23Z</time>
      </trkpt>
      <trkpt lat="43.07843" lon="1.68412">
        <ele>336.6</ele>
        <time>2022-09-03T08:53:29Z</time>
      </trkpt>
      <trkpt lat="43.07838" lon="1.68377">
        <ele>336.6</ele>
        <time>2022-09-03T08:53:36Z</time>
      </trkpt>
      <trkpt lat="43.0783" lon="1.68334">
        <ele>336.6</ele>
        <time>2022-09-03T08:53:45Z</time>
      </trkpt>
      <trkpt lat="43.07823" lon="1.68294">
        <ele>336.6</ele>
        <time>2022-09-03T08:53:53Z</time>
      </trkpt>
      <trkpt lat="43.07815" lon="1.68248">
        <ele>336.8</ele>
        <time>2022-09-03T08:54:02Z</time>
      </trkpt>
      <trkpt lat="43.07806" lon="1.682">
        <ele>337</ele>
        <time>2022-09-03T08:54:12Z</time>
      </trkpt>
      <trkpt lat="43.07799" lon="1.68161">
        <ele>336</ele>
        <time>2022-09-03T08:54:19Z</time>
      </trkpt>
      <trkpt lat="43.07792" lon="1.68132">
        <ele>335.4</ele>
        <time>2022-09-03T08:54:23Z</time>
      </trkpt>
      <trkpt lat="43.0779" lon="1.68124">
        <ele>335.2</ele>
        <time>2022-09-03T08:54:24Z</time>
      </trkpt>
      <trkpt lat="43.07787" lon="1.68116">
        <ele>335</ele>
        <time>2022-09-03T08:54:25Z</time>
      </trkpt>
      <trkpt lat="43.07768" lon="1.68064">
        <ele>334.8</ele>
        <time>2022-09-03T08:54:31Z</time>
      </trkpt>
      <trkpt lat="43.07758" lon="1.68015">
        <ele>335</ele>
        <time>2022-09-03T08:54:37Z</time>
      </trkpt>
      <trkpt lat="43.07747" lon="1.67952">
        <ele>335.8</ele>
        <time>2022-09-03T08:54:46Z</time>
      </trkpt>
      <trkpt lat="43.07743" lon="1.67912">
        <ele>336.4</ele>
        <time>2022-09-03T08:54:52Z</time>
      </trkpt>
      <trkpt lat="43.07743" lon="1.67906">
        <ele>336.4</ele>
        <time>2022-09-03T08:54:53Z</time>
      </trkpt>
      <trkpt lat="43.07747" lon="1.67853">
        <ele>336.8</ele>
        <time>2022-09-03T08:55:01Z</time>
      </trkpt>
      <trkpt lat="43.07752" lon="1.67811">
        <ele>337.4</ele>
        <time>2022-09-03T08:55:08Z</time>
      </trkpt>
      <trkpt lat="43.07752" lon="1.67805">
        <ele>337.6</ele>
        <time>2022-09-03T08:55:09Z</time>
      </trkpt>
      <trkpt lat="43.07761" lon="1.67741">
        <ele>338.2</ele>
        <time>2022-09-03T08:55:20Z</time>
      </trkpt>
      <trkpt lat="43.07768" lon="1.67701">
        <ele>338.4</ele>
        <time>2022-09-03T08:55:27Z</time>
      </trkpt>
      <trkpt lat="43.07769" lon="1.67695">
        <ele>338.6</ele>
        <time>2022-09-03T08:55:28Z</time>
      </trkpt>
      <trkpt lat="43.07777" lon="1.67643">
        <ele>339</ele>
        <time>2022-09-03T08:55:37Z</time>
      </trkpt>
      <trkpt lat="43.07787" lon="1.67573">
        <ele>339.2</ele>
        <time>2022-09-03T08:55:49Z</time>
      </trkpt>
      <trkpt lat="43.07794" lon="1.6751">
        <ele>339.4</ele>
        <time>2022-09-03T08:55:59Z</time>
      </trkpt>
      <trkpt lat="43.07795" lon="1.67466">
        <ele>339.6</ele>
        <time>2022-09-03T08:56:06Z</time>
      </trkpt>
      <trkpt lat="43.07796" lon="1.67454">
        <ele>340</ele>
        <time>2022-09-03T08:56:08Z</time>
      </trkpt>
      <trkpt lat="43.07796" lon="1.67402">
        <ele>339.6</ele>
        <time>2022-09-03T08:56:17Z</time>
      </trkpt>
      <trkpt lat="43.07796" lon="1.67398">
        <ele>339.2</ele>
        <time>2022-09-03T08:56:20Z</time>
      </trkpt>
      <trkpt lat="43.07795" lon="1.67398">
        <ele>339.2</ele>
        <time>2022-09-03T08:56:21Z</time>
      </trkpt>
      <trkpt lat="43.07797" lon="1.67409">
        <ele>339.4</ele>
        <time>2022-09-03T08:56:29Z</time>
      </trkpt>
      <trkpt lat="43.07797" lon="1.67412">
        <ele>339.4</ele>
        <time>2022-09-03T08:56:30Z</time>
      </trkpt>
      <trkpt lat="43.07796" lon="1.67416">
        <ele>338.4</ele>
        <time>2022-09-03T09:06:55Z</time>
      </trkpt>
      <trkpt lat="43.07797" lon="1.67407">
        <ele>338.4</ele>
        <time>2022-09-03T09:06:58Z</time>
      </trkpt>
      <trkpt lat="43.07795" lon="1.67382">
        <ele>338.6</ele>
        <time>2022-09-03T09:07:05Z</time>
      </trkpt>
      <trkpt lat="43.07793" lon="1.67349">
        <ele>338.6</ele>
        <time>2022-09-03T09:07:14Z</time>
      </trkpt>
      <trkpt lat="43.07791" lon="1.67315">
        <ele>338.4</ele>
        <time>2022-09-03T09:07:23Z</time>
      </trkpt>
      <trkpt lat="43.07787" lon="1.6729">
        <ele>338.4</ele>
        <time>2022-09-03T09:07:30Z</time>
      </trkpt>
      <trkpt lat="43.07787" lon="1.67303">
        <ele>337.2</ele>
        <time>2022-09-03T09:16:13Z</time>
      </trkpt>
      <trkpt lat="43.07788" lon="1.67296">
        <ele>337.4</ele>
        <time>2022-09-03T09:16:16Z</time>
      </trkpt>
      <trkpt lat="43.07787" lon="1.67292">
        <ele>337.2</ele>
        <time>2022-09-03T09:16:17Z</time>
      </trkpt>
      <trkpt lat="43.07786" lon="1.67269">
        <ele>336.6</ele>
        <time>2022-09-03T09:16:22Z</time>
      </trkpt>
      <trkpt lat="43.07784" lon="1.67252">
        <ele>336.2</ele>
        <time>2022-09-03T09:16:25Z</time>
      </trkpt>
      <trkpt lat="43.07783" lon="1.67237">
        <ele>335.8</ele>
        <time>2022-09-03T09:16:27Z</time>
      </trkpt>
      <trkpt lat="43.0778" lon="1.67203">
        <ele>334.8</ele>
        <time>2022-09-03T09:16:31Z</time>
      </trkpt>
      <trkpt lat="43.07778" lon="1.67184">
        <ele>333.8</ele>
        <time>2022-09-03T09:16:33Z</time>
      </trkpt>
      <trkpt lat="43.07778" lon="1.67151">
        <ele>332.6</ele>
        <time>2022-09-03T09:16:36Z</time>
      </trkpt>
      <trkpt lat="43.07779" lon="1.67125">
        <ele>331.6</ele>
        <time>2022-09-03T09:16:38Z</time>
      </trkpt>
      <trkpt lat="43.0778" lon="1.67111">
        <ele>330.8</ele>
        <time>2022-09-03T09:16:39Z</time>
      </trkpt>
      <trkpt lat="43.07781" lon="1.67083">
        <ele>329.4</ele>
        <time>2022-09-03T09:16:41Z</time>
      </trkpt>
      <trkpt lat="43.07783" lon="1.67054">
        <ele>328.2</ele>
        <time>2022-09-03T09:16:43Z</time>
      </trkpt>
      <trkpt lat="43.07784" lon="1.6704">
        <ele>327</ele>
        <time>2022-09-03T09:16:44Z</time>
      </trkpt>
      <trkpt lat="43.07787" lon="1.67009">
        <ele>326</ele>
        <time>2022-09-03T09:16:46Z</time>
      </trkpt>
      <trkpt lat="43.0779" lon="1.66979">
        <ele>324.4</ele>
        <time>2022-09-03T09:16:48Z</time>
      </trkpt>
      <trkpt lat="43.07795" lon="1.66935">
        <ele>323</ele>
        <time>2022-09-03T09:16:51Z</time>
      </trkpt>
      <trkpt lat="43.078" lon="1.66894">
        <ele>321.8</ele>
        <time>2022-09-03T09:16:54Z</time>
      </trkpt>
      <trkpt lat="43.07806" lon="1.66856">
        <ele>321.2</ele>
        <time>2022-09-03T09:16:57Z</time>
      </trkpt>
      <trkpt lat="43.07812" lon="1.66822">
        <ele>320.6</ele>
        <time>2022-09-03T09:17:00Z</time>
      </trkpt>
      <trkpt lat="43.07818" lon="1.6678">
        <ele>319.8</ele>
        <time>2022-09-03T09:17:04Z</time>
      </trkpt>
      <trkpt lat="43.07825" lon="1.66743">
        <ele>319</ele>
        <time>2022-09-03T09:17:08Z</time>
      </trkpt>
      <trkpt lat="43.07828" lon="1.66718">
        <ele>318.6</ele>
        <time>2022-09-03T09:17:11Z</time>
      </trkpt>
      <trkpt lat="43.07826" lon="1.6667">
        <ele>318.6</ele>
        <time>2022-09-03T09:17:17Z</time>
      </trkpt>
      <trkpt lat="43.07815" lon="1.66605">
        <ele>318.2</ele>
        <time>2022-09-03T09:17:26Z</time>
      </trkpt>
      <trkpt lat="43.07811" lon="1.66592">
        <ele>318.2</ele>
        <time>2022-09-03T09:17:28Z</time>
      </trkpt>
      <trkpt lat="43.07806" lon="1.66581">
        <ele>318</ele>
        <time>2022-09-03T09:17:30Z</time>
      </trkpt>
      <trkpt lat="43.07803" lon="1.66575">
        <ele>318</ele>
        <time>2022-09-03T09:17:31Z</time>
      </trkpt>
      <trkpt lat="43.07786" lon="1.66542">
        <ele>318.2</ele>
        <time>2022-09-03T09:17:38Z</time>
      </trkpt>
      <trkpt lat="43.07781" lon="1.66513">
        <ele>318</ele>
        <time>2022-09-03T09:17:44Z</time>
      </trkpt>
      <trkpt lat="43.07782" lon="1.66492">
        <ele>317.8</ele>
        <time>2022-09-03T09:17:50Z</time>
      </trkpt>
      <trkpt lat="43.07784" lon="1.66483">
        <ele>317.8</ele>
        <time>2022-09-03T09:17:55Z</time>
      </trkpt>
      <trkpt lat="43.07786" lon="1.66469">
        <ele>317.8</ele>
        <time>2022-09-03T09:18:00Z</time>
      </trkpt>
      <trkpt lat="43.0779" lon="1.66438">
        <ele>317.8</ele>
        <time>2022-09-03T09:18:06Z</time>
      </trkpt>
      <trkpt lat="43.07789" lon="1.66425">
        <ele>317.8</ele>
        <time>2022-09-03T09:18:08Z</time>
      </trkpt>
      <trkpt lat="43.07788" lon="1.66394">
        <ele>317.4</ele>
        <time>2022-09-03T09:18:13Z</time>
      </trkpt>
      <trkpt lat="43.07786" lon="1.66355">
        <ele>317.6</ele>
        <time>2022-09-03T09:18:20Z</time>
      </trkpt>
      <trkpt lat="43.0778" lon="1.66325">
        <ele>317.6</ele>
        <time>2022-09-03T09:18:26Z</time>
      </trkpt>
      <trkpt lat="43.07773" lon="1.66286">
        <ele>317.4</ele>
        <time>2022-09-03T09:18:34Z</time>
      </trkpt>
      <trkpt lat="43.07773" lon="1.6628">
        <ele>317.4</ele>
        <time>2022-09-03T09:18:35Z</time>
      </trkpt>
      <trkpt lat="43.07773" lon="1.66261">
        <ele>317</ele>
        <time>2022-09-03T09:18:38Z</time>
      </trkpt>
      <trkpt lat="43.07774" lon="1.66254">
        <ele>316.8</ele>
        <time>2022-09-03T09:18:39Z</time>
      </trkpt>
      <trkpt lat="43.0778" lon="1.66217">
        <ele>315.8</ele>
        <time>2022-09-03T09:18:44Z</time>
      </trkpt>
      <trkpt lat="43.07782" lon="1.66209">
        <ele>315.6</ele>
        <time>2022-09-03T09:18:45Z</time>
      </trkpt>
      <trkpt lat="43.07789" lon="1.66169">
        <ele>314.8</ele>
        <time>2022-09-03T09:18:50Z</time>
      </trkpt>
      <trkpt lat="43.07797" lon="1.66133">
        <ele>314.2</ele>
        <time>2022-09-03T09:18:55Z</time>
      </trkpt>
      <trkpt lat="43.07793" lon="1.66117">
        <ele>313.8</ele>
        <time>2022-09-03T09:18:58Z</time>
      </trkpt>
      <trkpt lat="43.0779" lon="1.66113">
        <ele>313.6</ele>
        <time>2022-09-03T09:18:59Z</time>
      </trkpt>
      <trkpt lat="43.07777" lon="1.66102">
        <ele>313.6</ele>
        <time>2022-09-03T09:19:02Z</time>
      </trkpt>
      <trkpt lat="43.07773" lon="1.66099">
        <ele>313.8</ele>
        <time>2022-09-03T09:19:03Z</time>
      </trkpt>
      <trkpt lat="43.07739" lon="1.66076">
        <ele>313.6</ele>
        <time>2022-09-03T09:19:10Z</time>
      </trkpt>
      <trkpt lat="43.07699" lon="1.66044">
        <ele>313.2</ele>
        <time>2022-09-03T09:19:19Z</time>
      </trkpt>
      <trkpt lat="43.07695" lon="1.66039">
        <ele>313.2</ele>
        <time>2022-09-03T09:19:20Z</time>
      </trkpt>
      <trkpt lat="43.07661" lon="1.65996">
        <ele>313</ele>
        <time>2022-09-03T09:19:29Z</time>
      </trkpt>
      <trkpt lat="43.07628" lon="1.65966">
        <ele>313.2</ele>
        <time>2022-09-03T09:19:37Z</time>
      </trkpt>
      <trkpt lat="43.07599" lon="1.65942">
        <ele>312.8</ele>
        <time>2022-09-03T09:19:44Z</time>
      </trkpt>
      <trkpt lat="43.07586" lon="1.65931">
        <ele>312.6</ele>
        <time>2022-09-03T09:19:47Z</time>
      </trkpt>
      <trkpt lat="43.07562" lon="1.65912">
        <ele>312.8</ele>
        <time>2022-09-03T09:19:53Z</time>
      </trkpt>
      <trkpt lat="43.07535" lon="1.65887">
        <ele>313</ele>
        <time>2022-09-03T09:20:00Z</time>
      </trkpt>
      <trkpt lat="43.07506" lon="1.65855">
        <ele>312.8</ele>
        <time>2022-09-03T09:20:08Z</time>
      </trkpt>
      <trkpt lat="43.07477" lon="1.65826">
        <ele>312.8</ele>
        <time>2022-09-03T09:20:16Z</time>
      </trkpt>
      <trkpt lat="43.07447" lon="1.65788">
        <ele>313</ele>
        <time>2022-09-03T09:20:25Z</time>
      </trkpt>
      <trkpt lat="43.07417" lon="1.65747">
        <ele>313</ele>
        <time>2022-09-03T09:20:34Z</time>
      </trkpt>
      <trkpt lat="43.07396" lon="1.65717">
        <ele>312.8</ele>
        <time>2022-09-03T09:20:41Z</time>
      </trkpt>
      <trkpt lat="43.07375" lon="1.65688">
        <ele>312.8</ele>
        <time>2022-09-03T09:20:49Z</time>
      </trkpt>
      <trkpt lat="43.07362" lon="1.65676">
        <ele>312.8</ele>
        <time>2022-09-03T09:20:54Z</time>
      </trkpt>
      <trkpt lat="43.07337" lon="1.65673">
        <ele>313.2</ele>
        <time>2022-09-03T09:21:00Z</time>
      </trkpt>
      <trkpt lat="43.07296" lon="1.65668">
        <ele>313.4</ele>
        <time>2022-09-03T09:21:09Z</time>
      </trkpt>
      <trkpt lat="43.07249" lon="1.65663">
        <ele>313.6</ele>
        <time>2022-09-03T09:21:19Z</time>
      </trkpt>
      <trkpt lat="43.07244" lon="1.65662">
        <ele>313.8</ele>
        <time>2022-09-03T09:21:20Z</time>
      </trkpt>
      <trkpt lat="43.07195" lon="1.65651">
        <ele>313.6</ele>
        <time>2022-09-03T09:21:30Z</time>
      </trkpt>
      <trkpt lat="43.07151" lon="1.6564">
        <ele>313.8</ele>
        <time>2022-09-03T09:21:39Z</time>
      </trkpt>
      <trkpt lat="43.07147" lon="1.65638">
        <ele>313.6</ele>
        <time>2022-09-03T09:21:40Z</time>
      </trkpt>
      <trkpt lat="43.07114" lon="1.65626">
        <ele>313.8</ele>
        <time>2022-09-03T09:21:47Z</time>
      </trkpt>
      <trkpt lat="43.07077" lon="1.65609">
        <ele>314</ele>
        <time>2022-09-03T09:21:55Z</time>
      </trkpt>
      <trkpt lat="43.07026" lon="1.6559">
        <ele>314.4</ele>
        <time>2022-09-03T09:22:06Z</time>
      </trkpt>
      <trkpt lat="43.0698" lon="1.65583">
        <ele>314.6</ele>
        <time>2022-09-03T09:22:16Z</time>
      </trkpt>
      <trkpt lat="43.06957" lon="1.65582">
        <ele>314.8</ele>
        <time>2022-09-03T09:22:21Z</time>
      </trkpt>
      <trkpt lat="43.06937" lon="1.6558">
        <ele>314.8</ele>
        <time>2022-09-03T09:22:25Z</time>
      </trkpt>
      <trkpt lat="43.06898" lon="1.65581">
        <ele>315.2</ele>
        <time>2022-09-03T09:22:33Z</time>
      </trkpt>
      <trkpt lat="43.06893" lon="1.6558">
        <ele>315.2</ele>
        <time>2022-09-03T09:22:34Z</time>
      </trkpt>
      <trkpt lat="43.06889" lon="1.65579">
        <ele>315.2</ele>
        <time>2022-09-03T09:22:35Z</time>
      </trkpt>
      <trkpt lat="43.06875" lon="1.6557">
        <ele>315.4</ele>
        <time>2022-09-03T09:22:38Z</time>
      </trkpt>
      <trkpt lat="43.06866" lon="1.65548">
        <ele>315.4</ele>
        <time>2022-09-03T09:22:42Z</time>
      </trkpt>
      <trkpt lat="43.06865" lon="1.65542">
        <ele>315.4</ele>
        <time>2022-09-03T09:22:43Z</time>
      </trkpt>
      <trkpt lat="43.06861" lon="1.65523">
        <ele>315.4</ele>
        <time>2022-09-03T09:22:46Z</time>
      </trkpt>
      <trkpt lat="43.06854" lon="1.65506">
        <ele>315.6</ele>
        <time>2022-09-03T09:22:49Z</time>
      </trkpt>
      <trkpt lat="43.06851" lon="1.65501">
        <ele>315.8</ele>
        <time>2022-09-03T09:22:50Z</time>
      </trkpt>
      <trkpt lat="43.06844" lon="1.65491">
        <ele>315.8</ele>
        <time>2022-09-03T09:22:52Z</time>
      </trkpt>
      <trkpt lat="43.06832" lon="1.65478">
        <ele>315.8</ele>
        <time>2022-09-03T09:22:55Z</time>
      </trkpt>
      <trkpt lat="43.06794" lon="1.65442">
        <ele>315.8</ele>
        <time>2022-09-03T09:23:04Z</time>
      </trkpt>
      <trkpt lat="43.06762" lon="1.65423">
        <ele>315.8</ele>
        <time>2022-09-03T09:23:11Z</time>
      </trkpt>
      <trkpt lat="43.06728" lon="1.65413">
        <ele>316</ele>
        <time>2022-09-03T09:23:19Z</time>
      </trkpt>
      <trkpt lat="43.06684" lon="1.65412">
        <ele>316.6</ele>
        <time>2022-09-03T09:23:28Z</time>
      </trkpt>
      <trkpt lat="43.06675" lon="1.65412">
        <ele>316.8</ele>
        <time>2022-09-03T09:23:30Z</time>
      </trkpt>
      <trkpt lat="43.06633" lon="1.65411">
        <ele>316.8</ele>
        <time>2022-09-03T09:23:39Z</time>
      </trkpt>
      <trkpt lat="43.06597" lon="1.65411">
        <ele>316.8</ele>
        <time>2022-09-03T09:23:47Z</time>
      </trkpt>
      <trkpt lat="43.06569" lon="1.65409">
        <ele>316.6</ele>
        <time>2022-09-03T09:23:54Z</time>
      </trkpt>
      <trkpt lat="43.06533" lon="1.65403">
        <ele>316.6</ele>
        <time>2022-09-03T09:24:02Z</time>
      </trkpt>
      <trkpt lat="43.06502" lon="1.65398">
        <ele>316.6</ele>
        <time>2022-09-03T09:24:10Z</time>
      </trkpt>
      <trkpt lat="43.06466" lon="1.65392">
        <ele>316.6</ele>
        <time>2022-09-03T09:24:19Z</time>
      </trkpt>
      <trkpt lat="43.06428" lon="1.65388">
        <ele>317</ele>
        <time>2022-09-03T09:24:28Z</time>
      </trkpt>
      <trkpt lat="43.064" lon="1.65378">
        <ele>317.2</ele>
        <time>2022-09-03T09:24:35Z</time>
      </trkpt>
      <trkpt lat="43.06392" lon="1.65372">
        <ele>317.2</ele>
        <time>2022-09-03T09:24:37Z</time>
      </trkpt>
      <trkpt lat="43.0638" lon="1.65364">
        <ele>317.6</ele>
        <time>2022-09-03T09:24:40Z</time>
      </trkpt>
      <trkpt lat="43.06362" lon="1.65348">
        <ele>317.4</ele>
        <time>2022-09-03T09:24:45Z</time>
      </trkpt>
      <trkpt lat="43.06355" lon="1.65342">
        <ele>317.4</ele>
        <time>2022-09-03T09:24:47Z</time>
      </trkpt>
      <trkpt lat="43.06344" lon="1.65334">
        <ele>317.6</ele>
        <time>2022-09-03T09:24:50Z</time>
      </trkpt>
      <trkpt lat="43.06319" lon="1.6531">
        <ele>317.6</ele>
        <time>2022-09-03T09:24:57Z</time>
      </trkpt>
      <trkpt lat="43.06312" lon="1.65303">
        <ele>317.6</ele>
        <time>2022-09-03T09:24:59Z</time>
      </trkpt>
      <trkpt lat="43.06299" lon="1.65288">
        <ele>317.8</ele>
        <time>2022-09-03T09:25:03Z</time>
      </trkpt>
      <trkpt lat="43.0629" lon="1.65275">
        <ele>317.8</ele>
        <time>2022-09-03T09:25:06Z</time>
      </trkpt>
      <trkpt lat="43.06277" lon="1.65259">
        <ele>318</ele>
        <time>2022-09-03T09:25:10Z</time>
      </trkpt>
      <trkpt lat="43.06274" lon="1.65255">
        <ele>318</ele>
        <time>2022-09-03T09:25:11Z</time>
      </trkpt>
      <trkpt lat="43.06257" lon="1.65229">
        <ele>318</ele>
        <time>2022-09-03T09:25:18Z</time>
      </trkpt>
      <trkpt lat="43.06245" lon="1.6521">
        <ele>318</ele>
        <time>2022-09-03T09:25:24Z</time>
      </trkpt>
      <trkpt lat="43.06227" lon="1.6518">
        <ele>318.4</ele>
        <time>2022-09-03T09:25:32Z</time>
      </trkpt>
      <trkpt lat="43.06207" lon="1.65149">
        <ele>318.8</ele>
        <time>2022-09-03T09:25:40Z</time>
      </trkpt>
      <trkpt lat="43.06199" lon="1.65138">
        <ele>319</ele>
        <time>2022-09-03T09:25:43Z</time>
      </trkpt>
      <trkpt lat="43.06183" lon="1.65115">
        <ele>319.2</ele>
        <time>2022-09-03T09:25:49Z</time>
      </trkpt>
      <trkpt lat="43.06159" lon="1.65082">
        <ele>319.6</ele>
        <time>2022-09-03T09:25:58Z</time>
      </trkpt>
      <trkpt lat="43.06137" lon="1.65053">
        <ele>319.8</ele>
        <time>2022-09-03T09:26:06Z</time>
      </trkpt>
      <trkpt lat="43.06131" lon="1.65046">
        <ele>320</ele>
        <time>2022-09-03T09:26:08Z</time>
      </trkpt>
      <trkpt lat="43.06109" lon="1.65015">
        <ele>320.2</ele>
        <time>2022-09-03T09:26:16Z</time>
      </trkpt>
      <trkpt lat="43.06083" lon="1.64978">
        <ele>320.4</ele>
        <time>2022-09-03T09:26:25Z</time>
      </trkpt>
      <trkpt lat="43.0606" lon="1.64944">
        <ele>321</ele>
        <time>2022-09-03T09:26:34Z</time>
      </trkpt>
      <trkpt lat="43.06057" lon="1.6494">
        <ele>321</ele>
        <time>2022-09-03T09:26:35Z</time>
      </trkpt>
      <trkpt lat="43.06036" lon="1.64915">
        <ele>321.2</ele>
        <time>2022-09-03T09:26:42Z</time>
      </trkpt>
      <trkpt lat="43.06015" lon="1.64893">
        <ele>321.2</ele>
        <time>2022-09-03T09:26:50Z</time>
      </trkpt>
      <trkpt lat="43.05997" lon="1.64887">
        <ele>321.2</ele>
        <time>2022-09-03T09:26:56Z</time>
      </trkpt>
      <trkpt lat="43.05987" lon="1.64874">
        <ele>321.4</ele>
        <time>2022-09-03T09:27:00Z</time>
      </trkpt>
      <trkpt lat="43.05966" lon="1.64848">
        <ele>322</ele>
        <time>2022-09-03T09:27:07Z</time>
      </trkpt>
      <trkpt lat="43.05962" lon="1.64845">
        <ele>322</ele>
        <time>2022-09-03T09:27:08Z</time>
      </trkpt>
      <trkpt lat="43.05956" lon="1.64838">
        <ele>322.2</ele>
        <time>2022-09-03T09:27:10Z</time>
      </trkpt>
      <trkpt lat="43.05942" lon="1.64826">
        <ele>322.4</ele>
        <time>2022-09-03T09:27:14Z</time>
      </trkpt>
      <trkpt lat="43.05908" lon="1.64799">
        <ele>323</ele>
        <time>2022-09-03T09:27:23Z</time>
      </trkpt>
      <trkpt lat="43.05895" lon="1.64786">
        <ele>323.2</ele>
        <time>2022-09-03T09:27:27Z</time>
      </trkpt>
      <trkpt lat="43.0588" lon="1.64774">
        <ele>323.2</ele>
        <time>2022-09-03T09:27:31Z</time>
      </trkpt>
      <trkpt lat="43.05851" lon="1.6475">
        <ele>323.6</ele>
        <time>2022-09-03T09:27:39Z</time>
      </trkpt>
      <trkpt lat="43.0581" lon="1.64722">
        <ele>324</ele>
        <time>2022-09-03T09:27:50Z</time>
      </trkpt>
      <trkpt lat="43.05802" lon="1.64716">
        <ele>324.2</ele>
        <time>2022-09-03T09:27:52Z</time>
      </trkpt>
      <trkpt lat="43.05772" lon="1.64692">
        <ele>324.4</ele>
        <time>2022-09-03T09:28:00Z</time>
      </trkpt>
      <trkpt lat="43.05737" lon="1.64658">
        <ele>324.8</ele>
        <time>2022-09-03T09:28:10Z</time>
      </trkpt>
      <trkpt lat="43.05709" lon="1.64635">
        <ele>324.8</ele>
        <time>2022-09-03T09:28:18Z</time>
      </trkpt>
      <trkpt lat="43.05677" lon="1.64608">
        <ele>325</ele>
        <time>2022-09-03T09:28:27Z</time>
      </trkpt>
      <trkpt lat="43.05653" lon="1.64583">
        <ele>325</ele>
        <time>2022-09-03T09:28:34Z</time>
      </trkpt>
      <trkpt lat="43.05648" lon="1.64575">
        <ele>325</ele>
        <time>2022-09-03T09:28:36Z</time>
      </trkpt>
      <trkpt lat="43.05645" lon="1.6457">
        <ele>325.2</ele>
        <time>2022-09-03T09:28:37Z</time>
      </trkpt>
      <trkpt lat="43.05643" lon="1.64565">
        <ele>325.2</ele>
        <time>2022-09-03T09:28:38Z</time>
      </trkpt>
      <trkpt lat="43.05633" lon="1.64545">
        <ele>325.4</ele>
        <time>2022-09-03T09:28:42Z</time>
      </trkpt>
      <trkpt lat="43.05614" lon="1.6451">
        <ele>325.8</ele>
        <time>2022-09-03T09:28:49Z</time>
      </trkpt>
      <trkpt lat="43.05611" lon="1.64505">
        <ele>325.8</ele>
        <time>2022-09-03T09:28:50Z</time>
      </trkpt>
      <trkpt lat="43.05579" lon="1.64459">
        <ele>326</ele>
        <time>2022-09-03T09:29:00Z</time>
      </trkpt>
      <trkpt lat="43.05555" lon="1.64436">
        <ele>326.4</ele>
        <time>2022-09-03T09:29:06Z</time>
      </trkpt>
      <trkpt lat="43.05551" lon="1.64432">
        <ele>326.4</ele>
        <time>2022-09-03T09:29:07Z</time>
      </trkpt>
      <trkpt lat="43.05519" lon="1.64402">
        <ele>326.4</ele>
        <time>2022-09-03T09:29:15Z</time>
      </trkpt>
      <trkpt lat="43.05485" lon="1.64371">
        <ele>326.4</ele>
        <time>2022-09-03T09:29:24Z</time>
      </trkpt>
      <trkpt lat="43.05457" lon="1.6434">
        <ele>326.6</ele>
        <time>2022-09-03T09:29:32Z</time>
      </trkpt>
      <trkpt lat="43.05444" lon="1.64325">
        <ele>326.8</ele>
        <time>2022-09-03T09:29:36Z</time>
      </trkpt>
      <trkpt lat="43.05433" lon="1.64313">
        <ele>326.6</ele>
        <time>2022-09-03T09:29:39Z</time>
      </trkpt>
      <trkpt lat="43.05411" lon="1.64288">
        <ele>326.4</ele>
        <time>2022-09-03T09:29:46Z</time>
      </trkpt>
      <trkpt lat="43.0539" lon="1.64264">
        <ele>326.8</ele>
        <time>2022-09-03T09:29:53Z</time>
      </trkpt>
      <trkpt lat="43.05367" lon="1.64241">
        <ele>326.2</ele>
        <time>2022-09-03T09:30:00Z</time>
      </trkpt>
      <trkpt lat="43.05363" lon="1.64239">
        <ele>326</ele>
        <time>2022-09-03T09:30:01Z</time>
      </trkpt>
      <trkpt lat="43.0534" lon="1.64225">
        <ele>325</ele>
        <time>2022-09-03T09:30:06Z</time>
      </trkpt>
      <trkpt lat="43.05335" lon="1.64222">
        <ele>324.8</ele>
        <time>2022-09-03T09:30:07Z</time>
      </trkpt>
      <trkpt lat="43.05317" lon="1.64212">
        <ele>324</ele>
        <time>2022-09-03T09:30:10Z</time>
      </trkpt>
      <trkpt lat="43.05303" lon="1.64204">
        <ele>323.2</ele>
        <time>2022-09-03T09:30:12Z</time>
      </trkpt>
      <trkpt lat="43.05288" lon="1.64196">
        <ele>322.8</ele>
        <time>2022-09-03T09:30:14Z</time>
      </trkpt>
      <trkpt lat="43.05258" lon="1.64177">
        <ele>321.8</ele>
        <time>2022-09-03T09:30:18Z</time>
      </trkpt>
      <trkpt lat="43.0525" lon="1.64172">
        <ele>321.2</ele>
        <time>2022-09-03T09:30:19Z</time>
      </trkpt>
      <trkpt lat="43.05234" lon="1.64162">
        <ele>320.6</ele>
        <time>2022-09-03T09:30:21Z</time>
      </trkpt>
      <trkpt lat="43.05217" lon="1.64152">
        <ele>319.4</ele>
        <time>2022-09-03T09:30:23Z</time>
      </trkpt>
      <trkpt lat="43.05186" lon="1.64133">
        <ele>318.4</ele>
        <time>2022-09-03T09:30:27Z</time>
      </trkpt>
      <trkpt lat="43.05178" lon="1.64127">
        <ele>318.4</ele>
        <time>2022-09-03T09:30:28Z</time>
      </trkpt>
      <trkpt lat="43.05157" lon="1.64111">
        <ele>318</ele>
        <time>2022-09-03T09:30:31Z</time>
      </trkpt>
      <trkpt lat="43.05147" lon="1.64098">
        <ele>318</ele>
        <time>2022-09-03T09:30:33Z</time>
      </trkpt>
      <trkpt lat="43.05137" lon="1.64083">
        <ele>318</ele>
        <time>2022-09-03T09:30:36Z</time>
      </trkpt>
      <trkpt lat="43.05134" lon="1.64078">
        <ele>318</ele>
        <time>2022-09-03T09:30:39Z</time>
      </trkpt>
      <trkpt lat="43.05127" lon="1.6407">
        <ele>318</ele>
        <time>2022-09-03T09:30:44Z</time>
      </trkpt>
      <trkpt lat="43.05119" lon="1.64058">
        <ele>317.6</ele>
        <time>2022-09-03T09:30:47Z</time>
      </trkpt>
      <trkpt lat="43.05118" lon="1.64053">
        <ele>317.4</ele>
        <time>2022-09-03T09:30:48Z</time>
      </trkpt>
      <trkpt lat="43.05109" lon="1.64026">
        <ele>317.4</ele>
        <time>2022-09-03T09:30:53Z</time>
      </trkpt>
      <trkpt lat="43.05102" lon="1.64004">
        <ele>317.4</ele>
        <time>2022-09-03T09:30:57Z</time>
      </trkpt>
      <trkpt lat="43.05099" lon="1.63992">
        <ele>317.2</ele>
        <time>2022-09-03T09:30:59Z</time>
      </trkpt>
      <trkpt lat="43.0509" lon="1.63949">
        <ele>317.2</ele>
        <time>2022-09-03T09:31:07Z</time>
      </trkpt>
      <trkpt lat="43.05084" lon="1.63899">
        <ele>317</ele>
        <time>2022-09-03T09:31:16Z</time>
      </trkpt>
      <trkpt lat="43.05083" lon="1.63894">
        <ele>317</ele>
        <time>2022-09-03T09:31:17Z</time>
      </trkpt>
      <trkpt lat="43.05079" lon="1.63877">
        <ele>317</ele>
        <time>2022-09-03T09:31:20Z</time>
      </trkpt>
      <trkpt lat="43.05074" lon="1.63869">
        <ele>317.2</ele>
        <time>2022-09-03T09:31:22Z</time>
      </trkpt>
      <trkpt lat="43.05059" lon="1.63859">
        <ele>317.6</ele>
        <time>2022-09-03T09:31:26Z</time>
      </trkpt>
      <trkpt lat="43.05056" lon="1.63856">
        <ele>317.6</ele>
        <time>2022-09-03T09:31:27Z</time>
      </trkpt>
      <trkpt lat="43.05039" lon="1.63836">
        <ele>317.6</ele>
        <time>2022-09-03T09:31:33Z</time>
      </trkpt>
      <trkpt lat="43.05018" lon="1.63809">
        <ele>317.6</ele>
        <time>2022-09-03T09:31:41Z</time>
      </trkpt>
      <trkpt lat="43.04995" lon="1.63785">
        <ele>317.8</ele>
        <time>2022-09-03T09:31:49Z</time>
      </trkpt>
      <trkpt lat="43.04971" lon="1.63779">
        <ele>318</ele>
        <time>2022-09-03T09:31:55Z</time>
      </trkpt>
      <trkpt lat="43.04943" lon="1.63773">
        <ele>318.4</ele>
        <time>2022-09-03T09:32:02Z</time>
      </trkpt>
      <trkpt lat="43.04939" lon="1.63773">
        <ele>318.4</ele>
        <time>2022-09-03T09:32:03Z</time>
      </trkpt>
      <trkpt lat="43.04903" lon="1.63765">
        <ele>318.4</ele>
        <time>2022-09-03T09:32:12Z</time>
      </trkpt>
      <trkpt lat="43.04887" lon="1.63763">
        <ele>318.8</ele>
        <time>2022-09-03T09:32:16Z</time>
      </trkpt>
      <trkpt lat="43.04875" lon="1.63761">
        <ele>319</ele>
        <time>2022-09-03T09:32:19Z</time>
      </trkpt>
      <trkpt lat="43.04846" lon="1.6376">
        <ele>318.8</ele>
        <time>2022-09-03T09:32:26Z</time>
      </trkpt>
      <trkpt lat="43.04821" lon="1.63759">
        <ele>318.8</ele>
        <time>2022-09-03T09:32:33Z</time>
      </trkpt>
      <trkpt lat="43.0481" lon="1.63756">
        <ele>318.8</ele>
        <time>2022-09-03T09:32:38Z</time>
      </trkpt>
      <trkpt lat="43.04806" lon="1.63745">
        <ele>319.2</ele>
        <time>2022-09-03T09:32:53Z</time>
      </trkpt>
      <trkpt lat="43.04803" lon="1.63731">
        <ele>319.4</ele>
        <time>2022-09-03T09:32:57Z</time>
      </trkpt>
      <trkpt lat="43.048" lon="1.63719">
        <ele>319.4</ele>
        <time>2022-09-03T09:33:00Z</time>
      </trkpt>
      <trkpt lat="43.04793" lon="1.63685">
        <ele>319.4</ele>
        <time>2022-09-03T09:33:09Z</time>
      </trkpt>
      <trkpt lat="43.04792" lon="1.63667">
        <ele>319.4</ele>
        <time>2022-09-03T09:33:16Z</time>
      </trkpt>
      <trkpt lat="43.04791" lon="1.63664">
        <ele>319.2</ele>
        <time>2022-09-03T09:33:17Z</time>
      </trkpt>
      <trkpt lat="43.04787" lon="1.63661">
        <ele>319.2</ele>
        <time>2022-09-03T09:33:20Z</time>
      </trkpt>
      <trkpt lat="43.04785" lon="1.63651">
        <ele>319.4</ele>
        <time>2022-09-03T09:33:23Z</time>
      </trkpt>
      <trkpt lat="43.04784" lon="1.63648">
        <ele>319.4</ele>
        <time>2022-09-03T09:33:24Z</time>
      </trkpt>
      <trkpt lat="43.04778" lon="1.63624">
        <ele>319.6</ele>
        <time>2022-09-03T09:33:30Z</time>
      </trkpt>
      <trkpt lat="43.04772" lon="1.63599">
        <ele>319.4</ele>
        <time>2022-09-03T09:33:36Z</time>
      </trkpt>
      <trkpt lat="43.04765" lon="1.6357">
        <ele>319.6</ele>
        <time>2022-09-03T09:33:43Z</time>
      </trkpt>
      <trkpt lat="43.04757" lon="1.63536">
        <ele>319.6</ele>
        <time>2022-09-03T09:33:50Z</time>
      </trkpt>
      <trkpt lat="43.04745" lon="1.63491">
        <ele>319.8</ele>
        <time>2022-09-03T09:33:58Z</time>
      </trkpt>
      <trkpt lat="43.04745" lon="1.63478">
        <ele>319.8</ele>
        <time>2022-09-03T09:34:01Z</time>
      </trkpt>
      <trkpt lat="43.04748" lon="1.63479">
        <ele>319.6</ele>
        <time>2022-09-03T09:34:02Z</time>
      </trkpt>
      <trkpt lat="43.04755" lon="1.63483">
        <ele>319.6</ele>
        <time>2022-09-03T09:34:06Z</time>
      </trkpt>
      <trkpt lat="43.04758" lon="1.63486">
        <ele>319.6</ele>
        <time>2022-09-03T09:34:09Z</time>
      </trkpt>
      <trkpt lat="43.04761" lon="1.63486">
        <ele>319.6</ele>
        <time>2022-09-03T09:34:11Z</time>
      </trkpt>
      <trkpt lat="43.04758" lon="1.63482">
        <ele>319.6</ele>
        <time>2022-09-03T09:34:15Z</time>
      </trkpt>
      <trkpt lat="43.04745" lon="1.63475">
        <ele>320.6</ele>
        <time>2022-09-03T09:42:06Z</time>
      </trkpt>
      <trkpt lat="43.0474" lon="1.6346">
        <ele>320.8</ele>
        <time>2022-09-03T09:42:13Z</time>
      </trkpt>
      <trkpt lat="43.04735" lon="1.6344">
        <ele>321</ele>
        <time>2022-09-03T09:42:19Z</time>
      </trkpt>
      <trkpt lat="43.04726" lon="1.63414">
        <ele>321</ele>
        <time>2022-09-03T09:42:26Z</time>
      </trkpt>
      <trkpt lat="43.04717" lon="1.63376">
        <ele>321.2</ele>
        <time>2022-09-03T09:42:34Z</time>
      </trkpt>
      <trkpt lat="43.04703" lon="1.63319">
        <ele>321.6</ele>
        <time>2022-09-03T09:42:46Z</time>
      </trkpt>
      <trkpt lat="43.04701" lon="1.6331">
        <ele>321.8</ele>
        <time>2022-09-03T09:42:48Z</time>
      </trkpt>
      <trkpt lat="43.04692" lon="1.63266">
        <ele>322.2</ele>
        <time>2022-09-03T09:42:57Z</time>
      </trkpt>
      <trkpt lat="43.04681" lon="1.63226">
        <ele>322.4</ele>
        <time>2022-09-03T09:43:05Z</time>
      </trkpt>
      <trkpt lat="43.04672" lon="1.63188">
        <ele>322.8</ele>
        <time>2022-09-03T09:43:12Z</time>
      </trkpt>
      <trkpt lat="43.04669" lon="1.63177">
        <ele>322.8</ele>
        <time>2022-09-03T09:43:14Z</time>
      </trkpt>
      <trkpt lat="43.04658" lon="1.6313">
        <ele>323.4</ele>
        <time>2022-09-03T09:43:23Z</time>
      </trkpt>
      <trkpt lat="43.04646" lon="1.63089">
        <ele>323.2</ele>
        <time>2022-09-03T09:43:31Z</time>
      </trkpt>
      <trkpt lat="43.04635" lon="1.63044">
        <ele>323.4</ele>
        <time>2022-09-03T09:43:39Z</time>
      </trkpt>
      <trkpt lat="43.04623" lon="1.63001">
        <ele>323.8</ele>
        <time>2022-09-03T09:43:47Z</time>
      </trkpt>
      <trkpt lat="43.04622" lon="1.62995">
        <ele>324</ele>
        <time>2022-09-03T09:43:48Z</time>
      </trkpt>
      <trkpt lat="43.04613" lon="1.62958">
        <ele>323.8</ele>
        <time>2022-09-03T09:43:55Z</time>
      </trkpt>
      <trkpt lat="43.04606" lon="1.62927">
        <ele>324</ele>
        <time>2022-09-03T09:44:02Z</time>
      </trkpt>
      <trkpt lat="43.04598" lon="1.62894">
        <ele>324</ele>
        <time>2022-09-03T09:44:11Z</time>
      </trkpt>
      <trkpt lat="43.04595" lon="1.62888">
        <ele>323.6</ele>
        <time>2022-09-03T09:44:15Z</time>
      </trkpt>
      <trkpt lat="43.04592" lon="1.62864">
        <ele>323.2</ele>
        <time>2022-09-03T09:44:38Z</time>
      </trkpt>
      <trkpt lat="43.0459" lon="1.62862">
        <ele>323.2</ele>
        <time>2022-09-03T09:44:39Z</time>
      </trkpt>
      <trkpt lat="43.04587" lon="1.62857">
        <ele>323</ele>
        <time>2022-09-03T09:44:41Z</time>
      </trkpt>
      <trkpt lat="43.04586" lon="1.62856">
        <ele>323</ele>
        <time>2022-09-03T09:44:42Z</time>
      </trkpt>
      <trkpt lat="43.04585" lon="1.62854">
        <ele>323</ele>
        <time>2022-09-03T09:44:43Z</time>
      </trkpt>
      <trkpt lat="43.0456" lon="1.62833">
        <ele>321.8</ele>
        <time>2022-09-03T09:51:36Z</time>
      </trkpt>
      <trkpt lat="43.04558" lon="1.62828">
        <ele>321.6</ele>
        <time>2022-09-03T09:51:38Z</time>
      </trkpt>
      <trkpt lat="43.04555" lon="1.62822">
        <ele>321.6</ele>
        <time>2022-09-03T09:51:42Z</time>
      </trkpt>
      <trkpt lat="43.04553" lon="1.62823">
        <ele>321.6</ele>
        <time>2022-09-03T09:51:44Z</time>
      </trkpt>
      <trkpt lat="43.04548" lon="1.62826">
        <ele>322.2</ele>
        <time>2022-09-03T09:51:50Z</time>
      </trkpt>
      <trkpt lat="43.04544" lon="1.62827">
        <ele>322.8</ele>
        <time>2022-09-03T09:51:54Z</time>
      </trkpt>
      <trkpt lat="43.04542" lon="1.62827">
        <ele>323</ele>
        <time>2022-09-03T09:51:56Z</time>
      </trkpt>
      <trkpt lat="43.04531" lon="1.62834">
        <ele>323.8</ele>
        <time>2022-09-03T09:52:02Z</time>
      </trkpt>
      <trkpt lat="43.04514" lon="1.62848">
        <ele>324</ele>
        <time>2022-09-03T09:52:10Z</time>
      </trkpt>
      <trkpt lat="43.04493" lon="1.62868">
        <ele>324.4</ele>
        <time>2022-09-03T09:52:19Z</time>
      </trkpt>
      <trkpt lat="43.0447" lon="1.62884">
        <ele>324.8</ele>
        <time>2022-09-03T09:52:27Z</time>
      </trkpt>
      <trkpt lat="43.04462" lon="1.62891">
        <ele>325</ele>
        <time>2022-09-03T09:52:30Z</time>
      </trkpt>
      <trkpt lat="43.04438" lon="1.62914">
        <ele>325.4</ele>
        <time>2022-09-03T09:52:39Z</time>
      </trkpt>
      <trkpt lat="43.04417" lon="1.62934">
        <ele>325.8</ele>
        <time>2022-09-03T09:52:47Z</time>
      </trkpt>
      <trkpt lat="43.04408" lon="1.62941">
        <ele>326</ele>
        <time>2022-09-03T09:52:50Z</time>
      </trkpt>
      <trkpt lat="43.044" lon="1.62946">
        <ele>326.4</ele>
        <time>2022-09-03T09:52:53Z</time>
      </trkpt>
      <trkpt lat="43.04396" lon="1.62947">
        <ele>326.4</ele>
        <time>2022-09-03T09:52:54Z</time>
      </trkpt>
      <trkpt lat="43.04376" lon="1.62941">
        <ele>326.6</ele>
        <time>2022-09-03T09:53:00Z</time>
      </trkpt>
      <trkpt lat="43.04357" lon="1.62929">
        <ele>326.6</ele>
        <time>2022-09-03T09:53:06Z</time>
      </trkpt>
      <trkpt lat="43.0434" lon="1.6292">
        <ele>327</ele>
        <time>2022-09-03T09:53:12Z</time>
      </trkpt>
      <trkpt lat="43.04337" lon="1.62917">
        <ele>327</ele>
        <time>2022-09-03T09:53:13Z</time>
      </trkpt>
      <trkpt lat="43.04317" lon="1.62907">
        <ele>327.4</ele>
        <time>2022-09-03T09:53:19Z</time>
      </trkpt>
      <trkpt lat="43.04294" lon="1.62894">
        <ele>327.4</ele>
        <time>2022-09-03T09:53:26Z</time>
      </trkpt>
      <trkpt lat="43.0427" lon="1.62882">
        <ele>327.6</ele>
        <time>2022-09-03T09:53:33Z</time>
      </trkpt>
      <trkpt lat="43.04249" lon="1.62871">
        <ele>328</ele>
        <time>2022-09-03T09:53:39Z</time>
      </trkpt>
      <trkpt lat="43.04245" lon="1.62869">
        <ele>328.2</ele>
        <time>2022-09-03T09:53:40Z</time>
      </trkpt>
      <trkpt lat="43.04219" lon="1.62854">
        <ele>328.8</ele>
        <time>2022-09-03T09:53:48Z</time>
      </trkpt>
      <trkpt lat="43.04208" lon="1.62845">
        <ele>329.2</ele>
        <time>2022-09-03T09:53:52Z</time>
      </trkpt>
      <trkpt lat="43.04204" lon="1.62839">
        <ele>329.6</ele>
        <time>2022-09-03T09:53:54Z</time>
      </trkpt>
      <trkpt lat="43.04191" lon="1.62813">
        <ele>330</ele>
        <time>2022-09-03T09:54:01Z</time>
      </trkpt>
      <trkpt lat="43.04182" lon="1.62783">
        <ele>330</ele>
        <time>2022-09-03T09:54:08Z</time>
      </trkpt>
      <trkpt lat="43.04171" lon="1.62751">
        <ele>330.2</ele>
        <time>2022-09-03T09:54:15Z</time>
      </trkpt>
      <trkpt lat="43.04169" lon="1.62746">
        <ele>330.2</ele>
        <time>2022-09-03T09:54:16Z</time>
      </trkpt>
      <trkpt lat="43.04164" lon="1.6273">
        <ele>330.2</ele>
        <time>2022-09-03T09:54:19Z</time>
      </trkpt>
      <trkpt lat="43.04159" lon="1.62714">
        <ele>330.2</ele>
        <time>2022-09-03T09:54:22Z</time>
      </trkpt>
      <trkpt lat="43.04148" lon="1.62678">
        <ele>330</ele>
        <time>2022-09-03T09:54:29Z</time>
      </trkpt>
      <trkpt lat="43.04135" lon="1.62642">
        <ele>330</ele>
        <time>2022-09-03T09:54:36Z</time>
      </trkpt>
      <trkpt lat="43.04121" lon="1.62615">
        <ele>330</ele>
        <time>2022-09-03T09:54:42Z</time>
      </trkpt>
      <trkpt lat="43.04115" lon="1.62607">
        <ele>330.2</ele>
        <time>2022-09-03T09:54:44Z</time>
      </trkpt>
      <trkpt lat="43.04088" lon="1.62569">
        <ele>330.4</ele>
        <time>2022-09-03T09:54:54Z</time>
      </trkpt>
      <trkpt lat="43.04075" lon="1.62547">
        <ele>330.4</ele>
        <time>2022-09-03T09:54:59Z</time>
      </trkpt>
      <trkpt lat="43.04071" lon="1.62537">
        <ele>330.4</ele>
        <time>2022-09-03T09:55:01Z</time>
      </trkpt>
      <trkpt lat="43.04055" lon="1.62496">
        <ele>331.2</ele>
        <time>2022-09-03T09:55:09Z</time>
      </trkpt>
      <trkpt lat="43.04042" lon="1.62461">
        <ele>330.4</ele>
        <time>2022-09-03T09:55:16Z</time>
      </trkpt>
      <trkpt lat="43.0404" lon="1.62455">
        <ele>330.6</ele>
        <time>2022-09-03T09:55:17Z</time>
      </trkpt>
      <trkpt lat="43.04023" lon="1.62418">
        <ele>330</ele>
        <time>2022-09-03T09:55:25Z</time>
      </trkpt>
      <trkpt lat="43.04008" lon="1.62381">
        <ele>330.2</ele>
        <time>2022-09-03T09:55:33Z</time>
      </trkpt>
      <trkpt lat="43.04003" lon="1.62363">
        <ele>330.2</ele>
        <time>2022-09-03T09:55:38Z</time>
      </trkpt>
      <trkpt lat="43.03994" lon="1.62344">
        <ele>330.6</ele>
        <time>2022-09-03T09:55:43Z</time>
      </trkpt>
      <trkpt lat="43.03992" lon="1.62339">
        <ele>330.6</ele>
        <time>2022-09-03T09:55:44Z</time>
      </trkpt>
      <trkpt lat="43.03982" lon="1.62321">
        <ele>329.6</ele>
        <time>2022-09-03T09:55:48Z</time>
      </trkpt>
      <trkpt lat="43.03978" lon="1.62317">
        <ele>329.6</ele>
        <time>2022-09-03T09:55:49Z</time>
      </trkpt>
      <trkpt lat="43.03954" lon="1.6229">
        <ele>329.8</ele>
        <time>2022-09-03T09:55:56Z</time>
      </trkpt>
      <trkpt lat="43.03928" lon="1.62257">
        <ele>330</ele>
        <time>2022-09-03T09:56:04Z</time>
      </trkpt>
      <trkpt lat="43.03904" lon="1.62222">
        <ele>330.2</ele>
        <time>2022-09-03T09:56:12Z</time>
      </trkpt>
      <trkpt lat="43.03877" lon="1.62187">
        <ele>330.4</ele>
        <time>2022-09-03T09:56:20Z</time>
      </trkpt>
      <trkpt lat="43.03866" lon="1.62175">
        <ele>330.4</ele>
        <time>2022-09-03T09:56:23Z</time>
      </trkpt>
      <trkpt lat="43.03855" lon="1.62163">
        <ele>330.4</ele>
        <time>2022-09-03T09:56:26Z</time>
      </trkpt>
      <trkpt lat="43.03839" lon="1.62146">
        <ele>330.8</ele>
        <time>2022-09-03T09:56:31Z</time>
      </trkpt>
      <trkpt lat="43.03812" lon="1.62119">
        <ele>330.2</ele>
        <time>2022-09-03T09:56:39Z</time>
      </trkpt>
      <trkpt lat="43.03788" lon="1.62095">
        <ele>330.2</ele>
        <time>2022-09-03T09:56:46Z</time>
      </trkpt>
      <trkpt lat="43.03761" lon="1.62071">
        <ele>330.2</ele>
        <time>2022-09-03T09:56:54Z</time>
      </trkpt>
      <trkpt lat="43.03749" lon="1.6206">
        <ele>329.8</ele>
        <time>2022-09-03T09:56:57Z</time>
      </trkpt>
      <trkpt lat="43.03737" lon="1.6205">
        <ele>329.4</ele>
        <time>2022-09-03T09:57:00Z</time>
      </trkpt>
      <trkpt lat="43.03731" lon="1.62044">
        <ele>329</ele>
        <time>2022-09-03T09:57:02Z</time>
      </trkpt>
      <trkpt lat="43.0373" lon="1.62041">
        <ele>328.6</ele>
        <time>2022-09-03T09:57:03Z</time>
      </trkpt>
      <trkpt lat="43.03729" lon="1.62037">
        <ele>328.4</ele>
        <time>2022-09-03T09:57:04Z</time>
      </trkpt>
      <trkpt lat="43.03735" lon="1.62021">
        <ele>328.6</ele>
        <time>2022-09-03T09:57:08Z</time>
      </trkpt>
      <trkpt lat="43.03737" lon="1.62017">
        <ele>328.6</ele>
        <time>2022-09-03T09:57:09Z</time>
      </trkpt>
      <trkpt lat="43.03749" lon="1.61989">
        <ele>328.2</ele>
        <time>2022-09-03T09:57:16Z</time>
      </trkpt>
      <trkpt lat="43.03746" lon="1.61972">
        <ele>328.2</ele>
        <time>2022-09-03T09:57:20Z</time>
      </trkpt>
      <trkpt lat="43.0373" lon="1.61941">
        <ele>328.6</ele>
        <time>2022-09-03T09:57:28Z</time>
      </trkpt>
      <trkpt lat="43.03714" lon="1.61906">
        <ele>329.2</ele>
        <time>2022-09-03T09:57:36Z</time>
      </trkpt>
      <trkpt lat="43.03705" lon="1.61878">
        <ele>329.2</ele>
        <time>2022-09-03T09:57:42Z</time>
      </trkpt>
      <trkpt lat="43.037" lon="1.61859">
        <ele>329.4</ele>
        <time>2022-09-03T09:57:46Z</time>
      </trkpt>
      <trkpt lat="43.03688" lon="1.61824">
        <ele>329.2</ele>
        <time>2022-09-03T09:57:53Z</time>
      </trkpt>
      <trkpt lat="43.03675" lon="1.61779">
        <ele>329.4</ele>
        <time>2022-09-03T09:58:01Z</time>
      </trkpt>
      <trkpt lat="43.03667" lon="1.61753">
        <ele>330</ele>
        <time>2022-09-03T09:58:06Z</time>
      </trkpt>
      <trkpt lat="43.03665" lon="1.61743">
        <ele>330</ele>
        <time>2022-09-03T09:58:08Z</time>
      </trkpt>
      <trkpt lat="43.03655" lon="1.61711">
        <ele>330.8</ele>
        <time>2022-09-03T09:58:15Z</time>
      </trkpt>
      <trkpt lat="43.03642" lon="1.61698">
        <ele>331</ele>
        <time>2022-09-03T09:58:20Z</time>
      </trkpt>
      <trkpt lat="43.03639" lon="1.61696">
        <ele>331</ele>
        <time>2022-09-03T09:58:21Z</time>
      </trkpt>
      <trkpt lat="43.03632" lon="1.61687">
        <ele>331.4</ele>
        <time>2022-09-03T09:58:25Z</time>
      </trkpt>
      <trkpt lat="43.03622" lon="1.6166">
        <ele>331.6</ele>
        <time>2022-09-03T09:58:33Z</time>
      </trkpt>
      <trkpt lat="43.03619" lon="1.61631">
        <ele>331.4</ele>
        <time>2022-09-03T09:58:40Z</time>
      </trkpt>
      <trkpt lat="43.03619" lon="1.61599">
        <ele>331</ele>
        <time>2022-09-03T09:58:47Z</time>
      </trkpt>
      <trkpt lat="43.03615" lon="1.61568">
        <ele>330.4</ele>
        <time>2022-09-03T09:58:53Z</time>
      </trkpt>
      <trkpt lat="43.03606" lon="1.61548">
        <ele>330</ele>
        <time>2022-09-03T09:58:57Z</time>
      </trkpt>
      <trkpt lat="43.03605" lon="1.61543">
        <ele>330</ele>
        <time>2022-09-03T09:58:58Z</time>
      </trkpt>
      <trkpt lat="43.03603" lon="1.61537">
        <ele>330</ele>
        <time>2022-09-03T09:58:59Z</time>
      </trkpt>
      <trkpt lat="43.03602" lon="1.61526">
        <ele>330</ele>
        <time>2022-09-03T09:59:01Z</time>
      </trkpt>
      <trkpt lat="43.03601" lon="1.61516">
        <ele>330</ele>
        <time>2022-09-03T09:59:03Z</time>
      </trkpt>
      <trkpt lat="43.03593" lon="1.61487">
        <ele>330</ele>
        <time>2022-09-03T09:59:09Z</time>
      </trkpt>
      <trkpt lat="43.0358" lon="1.61457">
        <ele>330.2</ele>
        <time>2022-09-03T09:59:17Z</time>
      </trkpt>
      <trkpt lat="43.03564" lon="1.6142">
        <ele>330.8</ele>
        <time>2022-09-03T09:59:27Z</time>
      </trkpt>
      <trkpt lat="43.03563" lon="1.61417">
        <ele>331</ele>
        <time>2022-09-03T09:59:28Z</time>
      </trkpt>
      <trkpt lat="43.03555" lon="1.614">
        <ele>331.6</ele>
        <time>2022-09-03T09:59:33Z</time>
      </trkpt>
      <trkpt lat="43.0354" lon="1.61368">
        <ele>331.4</ele>
        <time>2022-09-03T09:59:42Z</time>
      </trkpt>
      <trkpt lat="43.03524" lon="1.61335">
        <ele>331.8</ele>
        <time>2022-09-03T09:59:50Z</time>
      </trkpt>
      <trkpt lat="43.03513" lon="1.61314">
        <ele>332</ele>
        <time>2022-09-03T09:59:55Z</time>
      </trkpt>
      <trkpt lat="43.03495" lon="1.61279">
        <ele>332.2</ele>
        <time>2022-09-03T10:00:03Z</time>
      </trkpt>
      <trkpt lat="43.0347" lon="1.61237">
        <ele>332.6</ele>
        <time>2022-09-03T10:00:12Z</time>
      </trkpt>
      <trkpt lat="43.03439" lon="1.61193">
        <ele>332.8</ele>
        <time>2022-09-03T10:00:22Z</time>
      </trkpt>
      <trkpt lat="43.03418" lon="1.61165">
        <ele>332.8</ele>
        <time>2022-09-03T10:00:29Z</time>
      </trkpt>
      <trkpt lat="43.03412" lon="1.61157">
        <ele>333</ele>
        <time>2022-09-03T10:00:31Z</time>
      </trkpt>
      <trkpt lat="43.03386" lon="1.61122">
        <ele>333.2</ele>
        <time>2022-09-03T10:00:39Z</time>
      </trkpt>
      <trkpt lat="43.03358" lon="1.61082">
        <ele>334</ele>
        <time>2022-09-03T10:00:48Z</time>
      </trkpt>
      <trkpt lat="43.03355" lon="1.61077">
        <ele>334</ele>
        <time>2022-09-03T10:00:49Z</time>
      </trkpt>
      <trkpt lat="43.03336" lon="1.61047">
        <ele>334.2</ele>
        <time>2022-09-03T10:00:56Z</time>
      </trkpt>
      <trkpt lat="43.0331" lon="1.61008">
        <ele>334.4</ele>
        <time>2022-09-03T10:01:05Z</time>
      </trkpt>
      <trkpt lat="43.03292" lon="1.60973">
        <ele>334.8</ele>
        <time>2022-09-03T10:01:13Z</time>
      </trkpt>
      <trkpt lat="43.03275" lon="1.60954">
        <ele>335.2</ele>
        <time>2022-09-03T10:01:19Z</time>
      </trkpt>
      <trkpt lat="43.03246" lon="1.60939">
        <ele>336.4</ele>
        <time>2022-09-03T10:01:27Z</time>
      </trkpt>
      <trkpt lat="43.03226" lon="1.60929">
        <ele>337.2</ele>
        <time>2022-09-03T10:01:33Z</time>
      </trkpt>
      <trkpt lat="43.03213" lon="1.60922">
        <ele>337.6</ele>
        <time>2022-09-03T10:01:37Z</time>
      </trkpt>
      <trkpt lat="43.03193" lon="1.60912">
        <ele>337.6</ele>
        <time>2022-09-03T10:01:43Z</time>
      </trkpt>
      <trkpt lat="43.03165" lon="1.60899">
        <ele>338</ele>
        <time>2022-09-03T10:01:51Z</time>
      </trkpt>
      <trkpt lat="43.03133" lon="1.60886">
        <ele>338.2</ele>
        <time>2022-09-03T10:01:59Z</time>
      </trkpt>
      <trkpt lat="43.03096" lon="1.60876">
        <ele>338.6</ele>
        <time>2022-09-03T10:02:08Z</time>
      </trkpt>
      <trkpt lat="43.03059" lon="1.60865">
        <ele>338.4</ele>
        <time>2022-09-03T10:02:17Z</time>
      </trkpt>
      <trkpt lat="43.03026" lon="1.60854">
        <ele>338.6</ele>
        <time>2022-09-03T10:02:25Z</time>
      </trkpt>
      <trkpt lat="43.03018" lon="1.60852">
        <ele>338.6</ele>
        <time>2022-09-03T10:02:27Z</time>
      </trkpt>
      <trkpt lat="43.03003" lon="1.60852">
        <ele>338.8</ele>
        <time>2022-09-03T10:02:31Z</time>
      </trkpt>
      <trkpt lat="43.02976" lon="1.60861">
        <ele>338.4</ele>
        <time>2022-09-03T10:02:38Z</time>
      </trkpt>
      <trkpt lat="43.02942" lon="1.60872">
        <ele>337.8</ele>
        <time>2022-09-03T10:02:47Z</time>
      </trkpt>
      <trkpt lat="43.02926" lon="1.60877">
        <ele>337.4</ele>
        <time>2022-09-03T10:02:51Z</time>
      </trkpt>
      <trkpt lat="43.02919" lon="1.60874">
        <ele>337.4</ele>
        <time>2022-09-03T10:02:53Z</time>
      </trkpt>
      <trkpt lat="43.02914" lon="1.6086">
        <ele>337</ele>
        <time>2022-09-03T10:02:56Z</time>
      </trkpt>
      <trkpt lat="43.02912" lon="1.60847">
        <ele>336.8</ele>
        <time>2022-09-03T10:02:58Z</time>
      </trkpt>
      <trkpt lat="43.02908" lon="1.60813">
        <ele>336.8</ele>
        <time>2022-09-03T10:03:03Z</time>
      </trkpt>
      <trkpt lat="43.02906" lon="1.60786">
        <ele>336.6</ele>
        <time>2022-09-03T10:03:07Z</time>
      </trkpt>
      <trkpt lat="43.02905" lon="1.60765">
        <ele>336.8</ele>
        <time>2022-09-03T10:03:10Z</time>
      </trkpt>
      <trkpt lat="43.02901" lon="1.60723">
        <ele>336.6</ele>
        <time>2022-09-03T10:03:17Z</time>
      </trkpt>
      <trkpt lat="43.02897" lon="1.60684">
        <ele>336.4</ele>
        <time>2022-09-03T10:03:23Z</time>
      </trkpt>
      <trkpt lat="43.02897" lon="1.60679">
        <ele>336.4</ele>
        <time>2022-09-03T10:03:24Z</time>
      </trkpt>
      <trkpt lat="43.02893" lon="1.60647">
        <ele>336.4</ele>
        <time>2022-09-03T10:03:30Z</time>
      </trkpt>
      <trkpt lat="43.02888" lon="1.6063">
        <ele>336.6</ele>
        <time>2022-09-03T10:03:33Z</time>
      </trkpt>
      <trkpt lat="43.02882" lon="1.60621">
        <ele>336.6</ele>
        <time>2022-09-03T10:03:35Z</time>
      </trkpt>
      <trkpt lat="43.02866" lon="1.60609">
        <ele>337</ele>
        <time>2022-09-03T10:03:39Z</time>
      </trkpt>
      <trkpt lat="43.02853" lon="1.60606">
        <ele>337.2</ele>
        <time>2022-09-03T10:03:42Z</time>
      </trkpt>
      <trkpt lat="43.02849" lon="1.60606">
        <ele>337.4</ele>
        <time>2022-09-03T10:03:43Z</time>
      </trkpt>
      <trkpt lat="43.02841" lon="1.60605">
        <ele>337.8</ele>
        <time>2022-09-03T10:03:45Z</time>
      </trkpt>
      <trkpt lat="43.02806" lon="1.60604">
        <ele>338.6</ele>
        <time>2022-09-03T10:03:54Z</time>
      </trkpt>
      <trkpt lat="43.02777" lon="1.60605">
        <ele>339.6</ele>
        <time>2022-09-03T10:04:02Z</time>
      </trkpt>
      <trkpt lat="43.02774" lon="1.60604">
        <ele>339.6</ele>
        <time>2022-09-03T10:04:03Z</time>
      </trkpt>
      <trkpt lat="43.0275" lon="1.60604">
        <ele>340.4</ele>
        <time>2022-09-03T10:04:10Z</time>
      </trkpt>
      <trkpt lat="43.0274" lon="1.60603">
        <ele>340.6</ele>
        <time>2022-09-03T10:04:13Z</time>
      </trkpt>
      <trkpt lat="43.02725" lon="1.60603">
        <ele>341.2</ele>
        <time>2022-09-03T10:04:18Z</time>
      </trkpt>
      <trkpt lat="43.02713" lon="1.60603">
        <ele>341.8</ele>
        <time>2022-09-03T10:04:22Z</time>
      </trkpt>
      <trkpt lat="43.02698" lon="1.606">
        <ele>342.6</ele>
        <time>2022-09-03T10:04:27Z</time>
      </trkpt>
      <trkpt lat="43.02689" lon="1.60598">
        <ele>342.8</ele>
        <time>2022-09-03T10:04:30Z</time>
      </trkpt>
      <trkpt lat="43.02674" lon="1.60592">
        <ele>343.4</ele>
        <time>2022-09-03T10:04:35Z</time>
      </trkpt>
      <trkpt lat="43.02666" lon="1.60587">
        <ele>343.8</ele>
        <time>2022-09-03T10:04:38Z</time>
      </trkpt>
      <trkpt lat="43.02652" lon="1.60577">
        <ele>344.4</ele>
        <time>2022-09-03T10:04:43Z</time>
      </trkpt>
      <trkpt lat="43.02641" lon="1.60564">
        <ele>344.8</ele>
        <time>2022-09-03T10:04:48Z</time>
      </trkpt>
      <trkpt lat="43.02633" lon="1.60552">
        <ele>345.6</ele>
        <time>2022-09-03T10:04:52Z</time>
      </trkpt>
      <trkpt lat="43.02628" lon="1.60543">
        <ele>346</ele>
        <time>2022-09-03T10:04:55Z</time>
      </trkpt>
      <trkpt lat="43.0262" lon="1.60527">
        <ele>346.8</ele>
        <time>2022-09-03T10:05:00Z</time>
      </trkpt>
      <trkpt lat="43.02618" lon="1.60524">
        <ele>347</ele>
        <time>2022-09-03T10:05:01Z</time>
      </trkpt>
      <trkpt lat="43.02607" lon="1.60509">
        <ele>347.4</ele>
        <time>2022-09-03T10:05:07Z</time>
      </trkpt>
      <trkpt lat="43.02597" lon="1.60497">
        <ele>348</ele>
        <time>2022-09-03T10:05:12Z</time>
      </trkpt>
      <trkpt lat="43.02595" lon="1.60495">
        <ele>348.2</ele>
        <time>2022-09-03T10:05:13Z</time>
      </trkpt>
      <trkpt lat="43.02581" lon="1.60496">
        <ele>348</ele>
        <time>2022-09-03T10:05:17Z</time>
      </trkpt>
      <trkpt lat="43.02564" lon="1.60506">
        <ele>347</ele>
        <time>2022-09-03T10:05:20Z</time>
      </trkpt>
      <trkpt lat="43.02556" lon="1.60511">
        <ele>346.4</ele>
        <time>2022-09-03T10:05:21Z</time>
      </trkpt>
      <trkpt lat="43.02539" lon="1.60519">
        <ele>344.8</ele>
        <time>2022-09-03T10:05:23Z</time>
      </trkpt>
      <trkpt lat="43.0253" lon="1.60523">
        <ele>344</ele>
        <time>2022-09-03T10:05:24Z</time>
      </trkpt>
      <trkpt lat="43.02522" lon="1.60527">
        <ele>343.6</ele>
        <time>2022-09-03T10:05:25Z</time>
      </trkpt>
      <trkpt lat="43.02497" lon="1.6054">
        <ele>342.6</ele>
        <time>2022-09-03T10:05:28Z</time>
      </trkpt>
      <trkpt lat="43.02473" lon="1.60554">
        <ele>342</ele>
        <time>2022-09-03T10:05:31Z</time>
      </trkpt>
      <trkpt lat="43.0246" lon="1.60567">
        <ele>341.4</ele>
        <time>2022-09-03T10:05:33Z</time>
      </trkpt>
      <trkpt lat="43.02448" lon="1.60581">
        <ele>341.2</ele>
        <time>2022-09-03T10:05:35Z</time>
      </trkpt>
      <trkpt lat="43.02424" lon="1.60609">
        <ele>340.8</ele>
        <time>2022-09-03T10:05:40Z</time>
      </trkpt>
      <trkpt lat="43.02403" lon="1.6063">
        <ele>341</ele>
        <time>2022-09-03T10:05:46Z</time>
      </trkpt>
      <trkpt lat="43.02388" lon="1.60633">
        <ele>341.6</ele>
        <time>2022-09-03T10:05:50Z</time>
      </trkpt>
      <trkpt lat="43.02365" lon="1.60624">
        <ele>342.4</ele>
        <time>2022-09-03T10:05:56Z</time>
      </trkpt>
      <trkpt lat="43.02361" lon="1.60622">
        <ele>342.6</ele>
        <time>2022-09-03T10:05:57Z</time>
      </trkpt>
      <trkpt lat="43.02336" lon="1.60609">
        <ele>343.2</ele>
        <time>2022-09-03T10:06:04Z</time>
      </trkpt>
      <trkpt lat="43.02308" lon="1.60597">
        <ele>343.6</ele>
        <time>2022-09-03T10:06:12Z</time>
      </trkpt>
      <trkpt lat="43.02293" lon="1.6059">
        <ele>343.6</ele>
        <time>2022-09-03T10:06:16Z</time>
      </trkpt>
      <trkpt lat="43.02285" lon="1.60586">
        <ele>343.6</ele>
        <time>2022-09-03T10:06:18Z</time>
      </trkpt>
      <trkpt lat="43.0227" lon="1.60577">
        <ele>343.8</ele>
        <time>2022-09-03T10:06:22Z</time>
      </trkpt>
      <trkpt lat="43.02249" lon="1.60566">
        <ele>343.8</ele>
        <time>2022-09-03T10:06:28Z</time>
      </trkpt>
      <trkpt lat="43.02223" lon="1.60548">
        <ele>343.8</ele>
        <time>2022-09-03T10:06:36Z</time>
      </trkpt>
      <trkpt lat="43.02197" lon="1.6053">
        <ele>343.6</ele>
        <time>2022-09-03T10:06:44Z</time>
      </trkpt>
      <trkpt lat="43.02173" lon="1.60522">
        <ele>344.2</ele>
        <time>2022-09-03T10:06:50Z</time>
      </trkpt>
      <trkpt lat="43.02144" lon="1.60517">
        <ele>344.4</ele>
        <time>2022-09-03T10:06:57Z</time>
      </trkpt>
      <trkpt lat="43.02111" lon="1.60513">
        <ele>344.8</ele>
        <time>2022-09-03T10:07:05Z</time>
      </trkpt>
      <trkpt lat="43.02107" lon="1.60513">
        <ele>344.8</ele>
        <time>2022-09-03T10:07:06Z</time>
      </trkpt>
      <trkpt lat="43.02085" lon="1.60512">
        <ele>345</ele>
        <time>2022-09-03T10:07:12Z</time>
      </trkpt>
      <trkpt lat="43.02062" lon="1.6051">
        <ele>345</ele>
        <time>2022-09-03T10:07:18Z</time>
      </trkpt>
      <trkpt lat="43.02032" lon="1.60508">
        <ele>345.4</ele>
        <time>2022-09-03T10:07:25Z</time>
      </trkpt>
      <trkpt lat="43.02028" lon="1.60507">
        <ele>345.6</ele>
        <time>2022-09-03T10:07:26Z</time>
      </trkpt>
      <trkpt lat="43.02012" lon="1.60505">
        <ele>346</ele>
        <time>2022-09-03T10:07:30Z</time>
      </trkpt>
      <trkpt lat="43.01999" lon="1.60504">
        <ele>345.8</ele>
        <time>2022-09-03T10:07:33Z</time>
      </trkpt>
      <trkpt lat="43.01965" lon="1.60501">
        <ele>345.6</ele>
        <time>2022-09-03T10:07:41Z</time>
      </trkpt>
      <trkpt lat="43.01957" lon="1.605">
        <ele>345.6</ele>
        <time>2022-09-03T10:07:43Z</time>
      </trkpt>
      <trkpt lat="43.01944" lon="1.60499">
        <ele>345.6</ele>
        <time>2022-09-03T10:07:46Z</time>
      </trkpt>
      <trkpt lat="43.0194" lon="1.60499">
        <ele>345.6</ele>
        <time>2022-09-03T10:07:47Z</time>
      </trkpt>
      <trkpt lat="43.01924" lon="1.60497">
        <ele>345.8</ele>
        <time>2022-09-03T10:07:51Z</time>
      </trkpt>
      <trkpt lat="43.01917" lon="1.60491">
        <ele>345.8</ele>
        <time>2022-09-03T10:07:53Z</time>
      </trkpt>
      <trkpt lat="43.01905" lon="1.60482">
        <ele>345.8</ele>
        <time>2022-09-03T10:07:56Z</time>
      </trkpt>
      <trkpt lat="43.01888" lon="1.60476">
        <ele>345.8</ele>
        <time>2022-09-03T10:08:00Z</time>
      </trkpt>
      <trkpt lat="43.01861" lon="1.60478">
        <ele>345.6</ele>
        <time>2022-09-03T10:08:06Z</time>
      </trkpt>
      <trkpt lat="43.01857" lon="1.6048">
        <ele>345.6</ele>
        <time>2022-09-03T10:08:07Z</time>
      </trkpt>
      <trkpt lat="43.01847" lon="1.60492">
        <ele>345.6</ele>
        <time>2022-09-03T10:08:10Z</time>
      </trkpt>
      <trkpt lat="43.01843" lon="1.60496">
        <ele>345.6</ele>
        <time>2022-09-03T10:08:11Z</time>
      </trkpt>
      <trkpt lat="43.01823" lon="1.60507">
        <ele>345.8</ele>
        <time>2022-09-03T10:08:16Z</time>
      </trkpt>
      <trkpt lat="43.01806" lon="1.60512">
        <ele>346</ele>
        <time>2022-09-03T10:08:20Z</time>
      </trkpt>
      <trkpt lat="43.01793" lon="1.60516">
        <ele>346.2</ele>
        <time>2022-09-03T10:08:23Z</time>
      </trkpt>
      <trkpt lat="43.01775" lon="1.60535">
        <ele>346</ele>
        <time>2022-09-03T10:08:29Z</time>
      </trkpt>
      <trkpt lat="43.01759" lon="1.60546">
        <ele>346.4</ele>
        <time>2022-09-03T10:08:34Z</time>
      </trkpt>
      <trkpt lat="43.01756" lon="1.60546">
        <ele>346.4</ele>
        <time>2022-09-03T10:08:35Z</time>
      </trkpt>
      <trkpt lat="43.01742" lon="1.60537">
        <ele>346.4</ele>
        <time>2022-09-03T10:08:39Z</time>
      </trkpt>
      <trkpt lat="43.01709" lon="1.60526">
        <ele>346.2</ele>
        <time>2022-09-03T10:08:47Z</time>
      </trkpt>
      <trkpt lat="43.01695" lon="1.60518">
        <ele>345.8</ele>
        <time>2022-09-03T10:08:51Z</time>
      </trkpt>
      <trkpt lat="43.01694" lon="1.60514">
        <ele>345.8</ele>
        <time>2022-09-03T10:08:52Z</time>
      </trkpt>
      <trkpt lat="43.01697" lon="1.60501">
        <ele>345.6</ele>
        <time>2022-09-03T10:08:55Z</time>
      </trkpt>
      <trkpt lat="43.01701" lon="1.60493">
        <ele>345.6</ele>
        <time>2022-09-03T10:08:57Z</time>
      </trkpt>
      <trkpt lat="43.0171" lon="1.60479">
        <ele>345.4</ele>
        <time>2022-09-03T10:09:01Z</time>
      </trkpt>
      <trkpt lat="43.01713" lon="1.60475">
        <ele>345.2</ele>
        <time>2022-09-03T10:09:03Z</time>
      </trkpt>
      <trkpt lat="43.01712" lon="1.60473">
        <ele>345</ele>
        <time>2022-09-03T10:09:05Z</time>
      </trkpt>
      <trkpt lat="43.01707" lon="1.60481">
        <ele>345.2</ele>
        <time>2022-09-03T10:09:09Z</time>
      </trkpt>
      <trkpt lat="43.01706" lon="1.60484">
        <ele>345.4</ele>
        <time>2022-09-03T10:09:10Z</time>
      </trkpt>
      <trkpt lat="43.01696" lon="1.60507">
        <ele>345.8</ele>
        <time>2022-09-03T10:09:17Z</time>
      </trkpt>
      <trkpt lat="43.01684" lon="1.60533">
        <ele>345.6</ele>
        <time>2022-09-03T10:09:25Z</time>
      </trkpt>
      <trkpt lat="43.01677" lon="1.6054">
        <ele>345.6</ele>
        <time>2022-09-03T10:09:29Z</time>
      </trkpt>
      <trkpt lat="43.01676" lon="1.6054">
        <ele>345.6</ele>
        <time>2022-09-03T10:09:30Z</time>
      </trkpt>
      <trkpt lat="43.0167" lon="1.60534">
        <ele>345.6</ele>
        <time>2022-09-03T10:09:33Z</time>
      </trkpt>
      <trkpt lat="43.01668" lon="1.60532">
        <ele>345.6</ele>
        <time>2022-09-03T10:09:34Z</time>
      </trkpt>
      <trkpt lat="43.01657" lon="1.60514">
        <ele>346</ele>
        <time>2022-09-03T10:09:40Z</time>
      </trkpt>
      <trkpt lat="43.01648" lon="1.60501">
        <ele>346.4</ele>
        <time>2022-09-03T10:09:46Z</time>
      </trkpt>
      <trkpt lat="43.0164" lon="1.6049">
        <ele>347</ele>
        <time>2022-09-03T10:09:52Z</time>
      </trkpt>
      <trkpt lat="43.01633" lon="1.60478">
        <ele>347.4</ele>
        <time>2022-09-03T10:09:58Z</time>
      </trkpt>
      <trkpt lat="43.01577" lon="1.60469">
        <ele>356.4</ele>
        <time>2022-09-03T10:10:44Z</time>
      </trkpt>
      <trkpt lat="43.01576" lon="1.6047">
        <ele>356.6</ele>
        <time>2022-09-03T10:10:45Z</time>
      </trkpt>
      <trkpt lat="43.01568" lon="1.60467">
        <ele>357.4</ele>
        <time>2022-09-03T10:11:52Z</time>
      </trkpt>
      <trkpt lat="43.01568" lon="1.60461">
        <ele>357.6</ele>
        <time>2022-09-03T10:11:54Z</time>
      </trkpt>
      <trkpt lat="43.01561" lon="1.60447">
        <ele>357.6</ele>
        <time>2022-09-03T10:11:59Z</time>
      </trkpt>
      <trkpt lat="43.01546" lon="1.60432">
        <ele>357.8</ele>
        <time>2022-09-03T10:12:06Z</time>
      </trkpt>
      <trkpt lat="43.01529" lon="1.60415">
        <ele>357.8</ele>
        <time>2022-09-03T10:12:14Z</time>
      </trkpt>
      <trkpt lat="43.01515" lon="1.60411">
        <ele>358.2</ele>
        <time>2022-09-03T10:12:19Z</time>
      </trkpt>
      <trkpt lat="43.01503" lon="1.60422">
        <ele>358.4</ele>
        <time>2022-09-03T10:12:24Z</time>
      </trkpt>
      <trkpt lat="43.01498" lon="1.60428">
        <ele>358.8</ele>
        <time>2022-09-03T10:12:26Z</time>
      </trkpt>
      <trkpt lat="43.01489" lon="1.6044">
        <ele>359</ele>
        <time>2022-09-03T10:12:30Z</time>
      </trkpt>
      <trkpt lat="43.01473" lon="1.60465">
        <ele>359.8</ele>
        <time>2022-09-03T10:12:38Z</time>
      </trkpt>
      <trkpt lat="43.01458" lon="1.6049">
        <ele>359.8</ele>
        <time>2022-09-03T10:12:46Z</time>
      </trkpt>
      <trkpt lat="43.0144" lon="1.60504">
        <ele>360.2</ele>
        <time>2022-09-03T10:12:53Z</time>
      </trkpt>
      <trkpt lat="43.01423" lon="1.60515">
        <ele>360.8</ele>
        <time>2022-09-03T10:12:59Z</time>
      </trkpt>
      <trkpt lat="43.01421" lon="1.60517">
        <ele>361</ele>
        <time>2022-09-03T10:13:00Z</time>
      </trkpt>
      <trkpt lat="43.01412" lon="1.60527">
        <ele>362</ele>
        <time>2022-09-03T10:13:04Z</time>
      </trkpt>
      <trkpt lat="43.01409" lon="1.60532">
        <ele>362.4</ele>
        <time>2022-09-03T10:13:06Z</time>
      </trkpt>
      <trkpt lat="43.01403" lon="1.60543">
        <ele>363</ele>
        <time>2022-09-03T10:13:10Z</time>
      </trkpt>
      <trkpt lat="43.01401" lon="1.60547">
        <ele>363.4</ele>
        <time>2022-09-03T10:13:12Z</time>
      </trkpt>
      <trkpt lat="43.01395" lon="1.60564">
        <ele>363.2</ele>
        <time>2022-09-03T10:13:17Z</time>
      </trkpt>
      <trkpt lat="43.0139" lon="1.60574">
        <ele>362.8</ele>
        <time>2022-09-03T10:13:19Z</time>
      </trkpt>
      <trkpt lat="43.01382" lon="1.60586">
        <ele>362.2</ele>
        <time>2022-09-03T10:13:21Z</time>
      </trkpt>
      <trkpt lat="43.01378" lon="1.60592">
        <ele>361.4</ele>
        <time>2022-09-03T10:13:22Z</time>
      </trkpt>
      <trkpt lat="43.01373" lon="1.60597">
        <ele>360.8</ele>
        <time>2022-09-03T10:13:23Z</time>
      </trkpt>
      <trkpt lat="43.01368" lon="1.60603">
        <ele>360.2</ele>
        <time>2022-09-03T10:13:24Z</time>
      </trkpt>
      <trkpt lat="43.01356" lon="1.60616">
        <ele>359.2</ele>
        <time>2022-09-03T10:13:26Z</time>
      </trkpt>
      <trkpt lat="43.01346" lon="1.60629">
        <ele>357.8</ele>
        <time>2022-09-03T10:13:28Z</time>
      </trkpt>
      <trkpt lat="43.01337" lon="1.6064">
        <ele>356.6</ele>
        <time>2022-09-03T10:13:31Z</time>
      </trkpt>
      <trkpt lat="43.01333" lon="1.60645">
        <ele>356.2</ele>
        <time>2022-09-03T10:13:32Z</time>
      </trkpt>
      <trkpt lat="43.01329" lon="1.60651">
        <ele>355.8</ele>
        <time>2022-09-03T10:13:33Z</time>
      </trkpt>
      <trkpt lat="43.01327" lon="1.60656">
        <ele>355.2</ele>
        <time>2022-09-03T10:13:34Z</time>
      </trkpt>
      <trkpt lat="43.01324" lon="1.60667">
        <ele>355</ele>
        <time>2022-09-03T10:13:36Z</time>
      </trkpt>
      <trkpt lat="43.01323" lon="1.60679">
        <ele>355.2</ele>
        <time>2022-09-03T10:13:38Z</time>
      </trkpt>
      <trkpt lat="43.01318" lon="1.60697">
        <ele>354.2</ele>
        <time>2022-09-03T10:13:41Z</time>
      </trkpt>
      <trkpt lat="43.01308" lon="1.60716">
        <ele>352.8</ele>
        <time>2022-09-03T10:13:44Z</time>
      </trkpt>
      <trkpt lat="43.01301" lon="1.60729">
        <ele>351.8</ele>
        <time>2022-09-03T10:13:46Z</time>
      </trkpt>
      <trkpt lat="43.01296" lon="1.60742">
        <ele>350.6</ele>
        <time>2022-09-03T10:13:48Z</time>
      </trkpt>
      <trkpt lat="43.01294" lon="1.60748">
        <ele>350.2</ele>
        <time>2022-09-03T10:13:49Z</time>
      </trkpt>
      <trkpt lat="43.01293" lon="1.60753">
        <ele>349.6</ele>
        <time>2022-09-03T10:13:50Z</time>
      </trkpt>
      <trkpt lat="43.01292" lon="1.60758">
        <ele>349.2</ele>
        <time>2022-09-03T10:13:51Z</time>
      </trkpt>
      <trkpt lat="43.01291" lon="1.60769">
        <ele>348</ele>
        <time>2022-09-03T10:13:54Z</time>
      </trkpt>
      <trkpt lat="43.0129" lon="1.60771">
        <ele>347.6</ele>
        <time>2022-09-03T10:13:55Z</time>
      </trkpt>
      <trkpt lat="43.01288" lon="1.60773">
        <ele>347.2</ele>
        <time>2022-09-03T10:13:56Z</time>
      </trkpt>
      <trkpt lat="43.01284" lon="1.60777">
        <ele>346.8</ele>
        <time>2022-09-03T10:13:58Z</time>
      </trkpt>
      <trkpt lat="43.01281" lon="1.60779">
        <ele>346.8</ele>
        <time>2022-09-03T10:13:59Z</time>
      </trkpt>
      <trkpt lat="43.01262" lon="1.60784">
        <ele>346.8</ele>
        <time>2022-09-03T10:14:05Z</time>
      </trkpt>
      <trkpt lat="43.01246" lon="1.60783">
        <ele>347.2</ele>
        <time>2022-09-03T10:14:10Z</time>
      </trkpt>
      <trkpt lat="43.0124" lon="1.60783">
        <ele>347.2</ele>
        <time>2022-09-03T10:14:12Z</time>
      </trkpt>
      <trkpt lat="43.01217" lon="1.60784">
        <ele>347</ele>
        <time>2022-09-03T10:14:20Z</time>
      </trkpt>
      <trkpt lat="43.01193" lon="1.60785">
        <ele>347.2</ele>
        <time>2022-09-03T10:14:28Z</time>
      </trkpt>
      <trkpt lat="43.01158" lon="1.60791">
        <ele>348</ele>
        <time>2022-09-03T10:14:38Z</time>
      </trkpt>
      <trkpt lat="43.01129" lon="1.60799">
        <ele>348.8</ele>
        <time>2022-09-03T10:14:46Z</time>
      </trkpt>
      <trkpt lat="43.01122" lon="1.60802">
        <ele>349.2</ele>
        <time>2022-09-03T10:14:48Z</time>
      </trkpt>
      <trkpt lat="43.01099" lon="1.60814">
        <ele>349.4</ele>
        <time>2022-09-03T10:14:54Z</time>
      </trkpt>
      <trkpt lat="43.01067" lon="1.60834">
        <ele>349.6</ele>
        <time>2022-09-03T10:15:03Z</time>
      </trkpt>
      <trkpt lat="43.01042" lon="1.60845">
        <ele>350.2</ele>
        <time>2022-09-03T10:15:10Z</time>
      </trkpt>
      <trkpt lat="43.01009" lon="1.60854">
        <ele>350.6</ele>
        <time>2022-09-03T10:15:19Z</time>
      </trkpt>
      <trkpt lat="43.00983" lon="1.6086">
        <ele>351.4</ele>
        <time>2022-09-03T10:15:25Z</time>
      </trkpt>
      <trkpt lat="43.00979" lon="1.60861">
        <ele>351.2</ele>
        <time>2022-09-03T10:15:26Z</time>
      </trkpt>
      <trkpt lat="43.00952" lon="1.60868">
        <ele>350.8</ele>
        <time>2022-09-03T10:15:32Z</time>
      </trkpt>
      <trkpt lat="43.00907" lon="1.60879">
        <ele>350.6</ele>
        <time>2022-09-03T10:15:41Z</time>
      </trkpt>
      <trkpt lat="43.00854" lon="1.60892">
        <ele>350.6</ele>
        <time>2022-09-03T10:15:51Z</time>
      </trkpt>
      <trkpt lat="43.00796" lon="1.60906">
        <ele>350.6</ele>
        <time>2022-09-03T10:16:02Z</time>
      </trkpt>
      <trkpt lat="43.00791" lon="1.60908">
        <ele>350.8</ele>
        <time>2022-09-03T10:16:03Z</time>
      </trkpt>
      <trkpt lat="43.00734" lon="1.60921">
        <ele>351</ele>
        <time>2022-09-03T10:16:14Z</time>
      </trkpt>
      <trkpt lat="43.00729" lon="1.60923">
        <ele>351.2</ele>
        <time>2022-09-03T10:16:15Z</time>
      </trkpt>
      <trkpt lat="43.00682" lon="1.60935">
        <ele>352.2</ele>
        <time>2022-09-03T10:16:24Z</time>
      </trkpt>
      <trkpt lat="43.00652" lon="1.60941">
        <ele>352.4</ele>
        <time>2022-09-03T10:16:30Z</time>
      </trkpt>
      <trkpt lat="43.00637" lon="1.60945">
        <ele>352.2</ele>
        <time>2022-09-03T10:16:33Z</time>
      </trkpt>
      <trkpt lat="43.00592" lon="1.60956">
        <ele>353.2</ele>
        <time>2022-09-03T10:16:42Z</time>
      </trkpt>
      <trkpt lat="43.00559" lon="1.60963">
        <ele>353.6</ele>
        <time>2022-09-03T10:16:49Z</time>
      </trkpt>
      <trkpt lat="43.00545" lon="1.60965">
        <ele>354</ele>
        <time>2022-09-03T10:16:52Z</time>
      </trkpt>
      <trkpt lat="43.00496" lon="1.60972">
        <ele>354</ele>
        <time>2022-09-03T10:17:03Z</time>
      </trkpt>
      <trkpt lat="43.00475" lon="1.60975">
        <ele>354.6</ele>
        <time>2022-09-03T10:17:08Z</time>
      </trkpt>
      <trkpt lat="43.00462" lon="1.60976">
        <ele>354.6</ele>
        <time>2022-09-03T10:17:11Z</time>
      </trkpt>
      <trkpt lat="43.00416" lon="1.60982">
        <ele>355.2</ele>
        <time>2022-09-03T10:17:22Z</time>
      </trkpt>
      <trkpt lat="43.00371" lon="1.60991">
        <ele>355.4</ele>
        <time>2022-09-03T10:17:33Z</time>
      </trkpt>
      <trkpt lat="43.00333" lon="1.60996">
        <ele>355</ele>
        <time>2022-09-03T10:17:41Z</time>
      </trkpt>
      <trkpt lat="43.00287" lon="1.60999">
        <ele>355.2</ele>
        <time>2022-09-03T10:17:50Z</time>
      </trkpt>
      <trkpt lat="43.00257" lon="1.60991">
        <ele>355.8</ele>
        <time>2022-09-03T10:17:56Z</time>
      </trkpt>
      <trkpt lat="43.00247" lon="1.60988">
        <ele>355.8</ele>
        <time>2022-09-03T10:17:58Z</time>
      </trkpt>
      <trkpt lat="43.00204" lon="1.6098">
        <ele>356.4</ele>
        <time>2022-09-03T10:18:07Z</time>
      </trkpt>
      <trkpt lat="43.0019" lon="1.6098">
        <ele>356.8</ele>
        <time>2022-09-03T10:18:10Z</time>
      </trkpt>
      <trkpt lat="43.00177" lon="1.60983">
        <ele>357</ele>
        <time>2022-09-03T10:18:13Z</time>
      </trkpt>
      <trkpt lat="43.00173" lon="1.60984">
        <ele>357</ele>
        <time>2022-09-03T10:18:14Z</time>
      </trkpt>
      <trkpt lat="43.00145" lon="1.60998">
        <ele>357.4</ele>
        <time>2022-09-03T10:18:21Z</time>
      </trkpt>
      <trkpt lat="43.00128" lon="1.61005">
        <ele>357.8</ele>
        <time>2022-09-03T10:18:25Z</time>
      </trkpt>
      <trkpt lat="43.00116" lon="1.6101">
        <ele>357.8</ele>
        <time>2022-09-03T10:18:28Z</time>
      </trkpt>
      <trkpt lat="43.00081" lon="1.61018">
        <ele>358.8</ele>
        <time>2022-09-03T10:18:37Z</time>
      </trkpt>
      <trkpt lat="43.00077" lon="1.61018">
        <ele>359</ele>
        <time>2022-09-03T10:18:38Z</time>
      </trkpt>
      <trkpt lat="43.00058" lon="1.61015">
        <ele>360</ele>
        <time>2022-09-03T10:18:43Z</time>
      </trkpt>
      <trkpt lat="43.00048" lon="1.61012">
        <ele>360.6</ele>
        <time>2022-09-03T10:18:46Z</time>
      </trkpt>
      <trkpt lat="43.0003" lon="1.61005">
        <ele>361.2</ele>
        <time>2022-09-03T10:18:51Z</time>
      </trkpt>
      <trkpt lat="43.00027" lon="1.61003">
        <ele>361.2</ele>
        <time>2022-09-03T10:18:52Z</time>
      </trkpt>
      <trkpt lat="43.00002" lon="1.6099">
        <ele>362.2</ele>
        <time>2022-09-03T10:18:59Z</time>
      </trkpt>
      <trkpt lat="42.99999" lon="1.60989">
        <ele>362.2</ele>
        <time>2022-09-03T10:19:00Z</time>
      </trkpt>
      <trkpt lat="42.99972" lon="1.6097">
        <ele>363.2</ele>
        <time>2022-09-03T10:19:08Z</time>
      </trkpt>
      <trkpt lat="42.99968" lon="1.60968">
        <ele>363.2</ele>
        <time>2022-09-03T10:19:09Z</time>
      </trkpt>
      <trkpt lat="42.99944" lon="1.60952">
        <ele>364</ele>
        <time>2022-09-03T10:19:16Z</time>
      </trkpt>
      <trkpt lat="42.99936" lon="1.60949">
        <ele>364.2</ele>
        <time>2022-09-03T10:19:18Z</time>
      </trkpt>
      <trkpt lat="42.99909" lon="1.60944">
        <ele>364.6</ele>
        <time>2022-09-03T10:19:25Z</time>
      </trkpt>
      <trkpt lat="42.9987" lon="1.60945">
        <ele>365.4</ele>
        <time>2022-09-03T10:19:35Z</time>
      </trkpt>
      <trkpt lat="42.99863" lon="1.60945">
        <ele>365.6</ele>
        <time>2022-09-03T10:19:37Z</time>
      </trkpt>
      <trkpt lat="42.99835" lon="1.60943">
        <ele>366.6</ele>
        <time>2022-09-03T10:19:44Z</time>
      </trkpt>
      <trkpt lat="42.99831" lon="1.60942">
        <ele>366.8</ele>
        <time>2022-09-03T10:19:45Z</time>
      </trkpt>
      <trkpt lat="42.99812" lon="1.60933">
        <ele>367.4</ele>
        <time>2022-09-03T10:19:52Z</time>
      </trkpt>
      <trkpt lat="42.99808" lon="1.6093">
        <ele>367.6</ele>
        <time>2022-09-03T10:19:54Z</time>
      </trkpt>
      <trkpt lat="42.99799" lon="1.60925">
        <ele>368.4</ele>
        <time>2022-09-03T10:19:58Z</time>
      </trkpt>
      <trkpt lat="42.99796" lon="1.60922">
        <ele>368.6</ele>
        <time>2022-09-03T10:20:00Z</time>
      </trkpt>
      <trkpt lat="42.99788" lon="1.60915">
        <ele>369.8</ele>
        <time>2022-09-03T10:20:05Z</time>
      </trkpt>
      <trkpt lat="42.99786" lon="1.60913">
        <ele>369.8</ele>
        <time>2022-09-03T10:20:06Z</time>
      </trkpt>
      <trkpt lat="42.99776" lon="1.60905">
        <ele>370.8</ele>
        <time>2022-09-03T10:20:12Z</time>
      </trkpt>
      <trkpt lat="42.99773" lon="1.60902">
        <ele>371.2</ele>
        <time>2022-09-03T10:20:14Z</time>
      </trkpt>
      <trkpt lat="42.99767" lon="1.60897">
        <ele>371.8</ele>
        <time>2022-09-03T10:20:18Z</time>
      </trkpt>
      <trkpt lat="42.9976" lon="1.6089">
        <ele>372.8</ele>
        <time>2022-09-03T10:20:23Z</time>
      </trkpt>
      <trkpt lat="42.99758" lon="1.60889">
        <ele>372.8</ele>
        <time>2022-09-03T10:20:24Z</time>
      </trkpt>
      <trkpt lat="42.99751" lon="1.60883">
        <ele>374</ele>
        <time>2022-09-03T10:20:29Z</time>
      </trkpt>
      <trkpt lat="42.99748" lon="1.60881">
        <ele>374.4</ele>
        <time>2022-09-03T10:20:31Z</time>
      </trkpt>
      <trkpt lat="42.99741" lon="1.60877">
        <ele>375.2</ele>
        <time>2022-09-03T10:20:35Z</time>
      </trkpt>
      <trkpt lat="42.99732" lon="1.60873">
        <ele>376.2</ele>
        <time>2022-09-03T10:20:40Z</time>
      </trkpt>
      <trkpt lat="42.99723" lon="1.60868">
        <ele>377.2</ele>
        <time>2022-09-03T10:20:46Z</time>
      </trkpt>
      <trkpt lat="42.99721" lon="1.60867">
        <ele>377.4</ele>
        <time>2022-09-03T10:20:47Z</time>
      </trkpt>
      <trkpt lat="42.99715" lon="1.60863">
        <ele>378.4</ele>
        <time>2022-09-03T10:20:51Z</time>
      </trkpt>
      <trkpt lat="42.99709" lon="1.6086">
        <ele>379</ele>
        <time>2022-09-03T10:20:55Z</time>
      </trkpt>
      <trkpt lat="42.99706" lon="1.60858">
        <ele>379.4</ele>
        <time>2022-09-03T10:20:57Z</time>
      </trkpt>
      <trkpt lat="42.997" lon="1.60856">
        <ele>380</ele>
        <time>2022-09-03T10:21:01Z</time>
      </trkpt>
      <trkpt lat="42.99696" lon="1.60852">
        <ele>380.6</ele>
        <time>2022-09-03T10:21:04Z</time>
      </trkpt>
      <trkpt lat="42.99692" lon="1.60851">
        <ele>380.8</ele>
        <time>2022-09-03T10:21:06Z</time>
      </trkpt>
      <trkpt lat="42.99689" lon="1.60849">
        <ele>381.2</ele>
        <time>2022-09-03T10:21:08Z</time>
      </trkpt>
      <trkpt lat="42.99686" lon="1.60848">
        <ele>381.6</ele>
        <time>2022-09-03T10:21:10Z</time>
      </trkpt>
      <trkpt lat="42.99682" lon="1.60845">
        <ele>382</ele>
        <time>2022-09-03T10:21:13Z</time>
      </trkpt>
      <trkpt lat="42.99679" lon="1.60843">
        <ele>382.8</ele>
        <time>2022-09-03T10:21:15Z</time>
      </trkpt>
      <trkpt lat="42.99676" lon="1.60842">
        <ele>383.2</ele>
        <time>2022-09-03T10:21:17Z</time>
      </trkpt>
      <trkpt lat="42.99672" lon="1.60841">
        <ele>383.6</ele>
        <time>2022-09-03T10:21:19Z</time>
      </trkpt>
      <trkpt lat="42.99669" lon="1.6084">
        <ele>383.8</ele>
        <time>2022-09-03T10:21:21Z</time>
      </trkpt>
      <trkpt lat="42.99658" lon="1.60836">
        <ele>385</ele>
        <time>2022-09-03T10:21:27Z</time>
      </trkpt>
      <trkpt lat="42.99651" lon="1.60835">
        <ele>385.6</ele>
        <time>2022-09-03T10:21:31Z</time>
      </trkpt>
      <trkpt lat="42.99643" lon="1.60834">
        <ele>386</ele>
        <time>2022-09-03T10:21:35Z</time>
      </trkpt>
      <trkpt lat="42.99637" lon="1.60833">
        <ele>386.6</ele>
        <time>2022-09-03T10:21:39Z</time>
      </trkpt>
      <trkpt lat="42.99632" lon="1.60833">
        <ele>387</ele>
        <time>2022-09-03T10:21:42Z</time>
      </trkpt>
      <trkpt lat="42.99622" lon="1.60832">
        <ele>387.6</ele>
        <time>2022-09-03T10:21:47Z</time>
      </trkpt>
      <trkpt lat="42.99615" lon="1.60831">
        <ele>388</ele>
        <time>2022-09-03T10:21:51Z</time>
      </trkpt>
      <trkpt lat="42.99605" lon="1.60832">
        <ele>388.8</ele>
        <time>2022-09-03T10:21:56Z</time>
      </trkpt>
      <trkpt lat="42.99601" lon="1.60832">
        <ele>389.2</ele>
        <time>2022-09-03T10:21:58Z</time>
      </trkpt>
      <trkpt lat="42.99592" lon="1.60833">
        <ele>389.6</ele>
        <time>2022-09-03T10:22:02Z</time>
      </trkpt>
      <trkpt lat="42.99576" lon="1.60834">
        <ele>390.2</ele>
        <time>2022-09-03T10:22:09Z</time>
      </trkpt>
      <trkpt lat="42.99566" lon="1.60835">
        <ele>390.2</ele>
        <time>2022-09-03T10:22:13Z</time>
      </trkpt>
      <trkpt lat="42.99543" lon="1.60837">
        <ele>390.8</ele>
        <time>2022-09-03T10:22:22Z</time>
      </trkpt>
      <trkpt lat="42.99533" lon="1.60839">
        <ele>391.2</ele>
        <time>2022-09-03T10:22:26Z</time>
      </trkpt>
      <trkpt lat="42.99526" lon="1.60839">
        <ele>391.4</ele>
        <time>2022-09-03T10:22:29Z</time>
      </trkpt>
      <trkpt lat="42.99506" lon="1.60841">
        <ele>392</ele>
        <time>2022-09-03T10:22:37Z</time>
      </trkpt>
      <trkpt lat="42.99496" lon="1.60841">
        <ele>392</ele>
        <time>2022-09-03T10:22:42Z</time>
      </trkpt>
      <trkpt lat="42.99495" lon="1.60837">
        <ele>392</ele>
        <time>2022-09-03T10:22:44Z</time>
      </trkpt>
      <trkpt lat="42.99498" lon="1.60832">
        <ele>392.2</ele>
        <time>2022-09-03T10:22:48Z</time>
      </trkpt>
      <trkpt lat="42.99499" lon="1.60832">
        <ele>392</ele>
        <time>2022-09-03T10:22:49Z</time>
      </trkpt>
      <trkpt lat="42.99501" lon="1.60831">
        <ele>392.2</ele>
        <time>2022-09-03T10:22:53Z</time>
      </trkpt>
      <trkpt lat="42.99509" lon="1.60832">
        <ele>392.2</ele>
        <time>2022-09-03T10:25:26Z</time>
      </trkpt>
      <trkpt lat="42.99515" lon="1.60832">
        <ele>392.2</ele>
        <time>2022-09-03T10:25:28Z</time>
      </trkpt>
      <trkpt lat="42.99522" lon="1.60832">
        <ele>392.4</ele>
        <time>2022-09-03T10:25:30Z</time>
      </trkpt>
      <trkpt lat="42.99539" lon="1.60829">
        <ele>392.4</ele>
        <time>2022-09-03T10:25:35Z</time>
      </trkpt>
      <trkpt lat="42.99572" lon="1.60824">
        <ele>392.2</ele>
        <time>2022-09-03T10:25:44Z</time>
      </trkpt>
      <trkpt lat="42.99591" lon="1.60819">
        <ele>392.4</ele>
        <time>2022-09-03T10:25:49Z</time>
      </trkpt>
      <trkpt lat="42.99621" lon="1.60819">
        <ele>393</ele>
        <time>2022-09-03T10:25:57Z</time>
      </trkpt>
      <trkpt lat="42.99649" lon="1.60821">
        <ele>393</ele>
        <time>2022-09-03T10:26:05Z</time>
      </trkpt>
      <trkpt lat="42.99665" lon="1.60823">
        <ele>393.4</ele>
        <time>2022-09-03T10:26:10Z</time>
      </trkpt>
      <trkpt lat="42.99668" lon="1.60824">
        <ele>393.4</ele>
        <time>2022-09-03T10:26:11Z</time>
      </trkpt>
      <trkpt lat="42.99691" lon="1.60828">
        <ele>394.2</ele>
        <time>2022-09-03T10:26:18Z</time>
      </trkpt>
      <trkpt lat="42.99714" lon="1.60829">
        <ele>394.4</ele>
        <time>2022-09-03T10:26:25Z</time>
      </trkpt>
      <trkpt lat="42.99733" lon="1.60829">
        <ele>394.8</ele>
        <time>2022-09-03T10:26:31Z</time>
      </trkpt>
      <trkpt lat="42.99755" lon="1.60824">
        <ele>395</ele>
        <time>2022-09-03T10:26:38Z</time>
      </trkpt>
      <trkpt lat="42.99765" lon="1.60822">
        <ele>395.4</ele>
        <time>2022-09-03T10:26:41Z</time>
      </trkpt>
      <trkpt lat="42.99782" lon="1.60817">
        <ele>395.6</ele>
        <time>2022-09-03T10:26:46Z</time>
      </trkpt>
      <trkpt lat="42.99816" lon="1.60801">
        <ele>396</ele>
        <time>2022-09-03T10:26:56Z</time>
      </trkpt>
      <trkpt lat="42.99844" lon="1.60782">
        <ele>396.4</ele>
        <time>2022-09-03T10:27:05Z</time>
      </trkpt>
      <trkpt lat="42.99847" lon="1.6078">
        <ele>396.6</ele>
        <time>2022-09-03T10:27:06Z</time>
      </trkpt>
      <trkpt lat="42.99871" lon="1.60758">
        <ele>397.2</ele>
        <time>2022-09-03T10:27:14Z</time>
      </trkpt>
      <trkpt lat="42.99874" lon="1.60756">
        <ele>397.2</ele>
        <time>2022-09-03T10:27:15Z</time>
      </trkpt>
      <trkpt lat="42.99897" lon="1.6073">
        <ele>397.6</ele>
        <time>2022-09-03T10:27:23Z</time>
      </trkpt>
      <trkpt lat="42.99902" lon="1.60723">
        <ele>397.6</ele>
        <time>2022-09-03T10:27:25Z</time>
      </trkpt>
      <trkpt lat="42.99917" lon="1.60702">
        <ele>398</ele>
        <time>2022-09-03T10:27:31Z</time>
      </trkpt>
      <trkpt lat="42.99929" lon="1.60681">
        <ele>398.6</ele>
        <time>2022-09-03T10:27:37Z</time>
      </trkpt>
      <trkpt lat="42.99942" lon="1.60657">
        <ele>399</ele>
        <time>2022-09-03T10:27:43Z</time>
      </trkpt>
      <trkpt lat="42.99952" lon="1.60632">
        <ele>399.4</ele>
        <time>2022-09-03T10:27:49Z</time>
      </trkpt>
      <trkpt lat="42.99957" lon="1.60611">
        <ele>399.8</ele>
        <time>2022-09-03T10:27:54Z</time>
      </trkpt>
      <trkpt lat="42.99958" lon="1.60606">
        <ele>399.6</ele>
        <time>2022-09-03T10:27:55Z</time>
      </trkpt>
      <trkpt lat="42.99963" lon="1.60578">
        <ele>400</ele>
        <time>2022-09-03T10:28:01Z</time>
      </trkpt>
      <trkpt lat="42.99967" lon="1.60552">
        <ele>400.2</ele>
        <time>2022-09-03T10:28:07Z</time>
      </trkpt>
      <trkpt lat="42.99971" lon="1.60525">
        <ele>400.4</ele>
        <time>2022-09-03T10:28:13Z</time>
      </trkpt>
      <trkpt lat="42.99974" lon="1.60502">
        <ele>400.8</ele>
        <time>2022-09-03T10:28:18Z</time>
      </trkpt>
      <trkpt lat="42.99975" lon="1.60486">
        <ele>401</ele>
        <time>2022-09-03T10:28:21Z</time>
      </trkpt>
      <trkpt lat="42.99975" lon="1.6046">
        <ele>401</ele>
        <time>2022-09-03T10:28:26Z</time>
      </trkpt>
      <trkpt lat="42.99975" lon="1.60429">
        <ele>401.4</ele>
        <time>2022-09-03T10:28:33Z</time>
      </trkpt>
      <trkpt lat="42.99974" lon="1.60403">
        <ele>401.6</ele>
        <time>2022-09-03T10:28:40Z</time>
      </trkpt>
      <trkpt lat="42.99971" lon="1.60388">
        <ele>401.4</ele>
        <time>2022-09-03T10:28:46Z</time>
      </trkpt>
      <trkpt lat="42.99977" lon="1.6037">
        <ele>402</ele>
        <time>2022-09-03T10:33:08Z</time>
      </trkpt>
      <trkpt lat="42.99977" lon="1.60368">
        <ele>402</ele>
        <time>2022-09-03T10:33:09Z</time>
      </trkpt>
      <trkpt lat="42.99975" lon="1.60351">
        <ele>402.4</ele>
        <time>2022-09-03T10:33:15Z</time>
      </trkpt>
      <trkpt lat="42.99973" lon="1.60331">
        <ele>402.8</ele>
        <time>2022-09-03T10:33:21Z</time>
      </trkpt>
      <trkpt lat="42.99974" lon="1.60313">
        <ele>403</ele>
        <time>2022-09-03T10:33:25Z</time>
      </trkpt>
      <trkpt lat="42.99974" lon="1.60305">
        <ele>403.2</ele>
        <time>2022-09-03T10:33:27Z</time>
      </trkpt>
      <trkpt lat="42.99971" lon="1.60276">
        <ele>403.6</ele>
        <time>2022-09-03T10:33:34Z</time>
      </trkpt>
      <trkpt lat="42.9997" lon="1.60256">
        <ele>404</ele>
        <time>2022-09-03T10:33:38Z</time>
      </trkpt>
      <trkpt lat="42.9997" lon="1.60251">
        <ele>404.2</ele>
        <time>2022-09-03T10:33:39Z</time>
      </trkpt>
      <trkpt lat="42.99969" lon="1.60235">
        <ele>404.4</ele>
        <time>2022-09-03T10:33:43Z</time>
      </trkpt>
      <trkpt lat="42.99971" lon="1.60209">
        <ele>404.6</ele>
        <time>2022-09-03T10:33:49Z</time>
      </trkpt>
      <trkpt lat="42.99975" lon="1.6019">
        <ele>405</ele>
        <time>2022-09-03T10:33:54Z</time>
      </trkpt>
      <trkpt lat="42.99977" lon="1.60181">
        <ele>405.2</ele>
        <time>2022-09-03T10:33:56Z</time>
      </trkpt>
      <trkpt lat="42.99983" lon="1.6016">
        <ele>405.4</ele>
        <time>2022-09-03T10:34:00Z</time>
      </trkpt>
      <trkpt lat="42.99997" lon="1.60121">
        <ele>406</ele>
        <time>2022-09-03T10:34:07Z</time>
      </trkpt>
      <trkpt lat="43.00002" lon="1.60107">
        <ele>406.2</ele>
        <time>2022-09-03T10:34:10Z</time>
      </trkpt>
      <trkpt lat="43.0001" lon="1.60084">
        <ele>406.6</ele>
        <time>2022-09-03T10:34:15Z</time>
      </trkpt>
      <trkpt lat="43.0002" lon="1.60054">
        <ele>407.2</ele>
        <time>2022-09-03T10:34:22Z</time>
      </trkpt>
      <trkpt lat="43.00021" lon="1.6005">
        <ele>407.4</ele>
        <time>2022-09-03T10:34:23Z</time>
      </trkpt>
      <trkpt lat="43.00029" lon="1.60027">
        <ele>407.8</ele>
        <time>2022-09-03T10:34:28Z</time>
      </trkpt>
      <trkpt lat="43.00041" lon="1.59998">
        <ele>408.2</ele>
        <time>2022-09-03T10:34:35Z</time>
      </trkpt>
      <trkpt lat="43.00048" lon="1.59981">
        <ele>408.4</ele>
        <time>2022-09-03T10:34:39Z</time>
      </trkpt>
      <trkpt lat="43.00053" lon="1.59965">
        <ele>408.6</ele>
        <time>2022-09-03T10:34:43Z</time>
      </trkpt>
      <trkpt lat="43.0006" lon="1.59946">
        <ele>408.8</ele>
        <time>2022-09-03T10:34:48Z</time>
      </trkpt>
      <trkpt lat="43.00066" lon="1.59935">
        <ele>409.2</ele>
        <time>2022-09-03T10:34:51Z</time>
      </trkpt>
      <trkpt lat="43.00077" lon="1.59921">
        <ele>409.4</ele>
        <time>2022-09-03T10:34:56Z</time>
      </trkpt>
      <trkpt lat="43.00078" lon="1.59916">
        <ele>409.6</ele>
        <time>2022-09-03T10:34:57Z</time>
      </trkpt>
      <trkpt lat="43.00084" lon="1.59892">
        <ele>409.8</ele>
        <time>2022-09-03T10:35:02Z</time>
      </trkpt>
      <trkpt lat="43.00093" lon="1.59866">
        <ele>410.4</ele>
        <time>2022-09-03T10:35:08Z</time>
      </trkpt>
      <trkpt lat="43.00094" lon="1.59862">
        <ele>410.4</ele>
        <time>2022-09-03T10:35:09Z</time>
      </trkpt>
      <trkpt lat="43.00101" lon="1.59846">
        <ele>410.6</ele>
        <time>2022-09-03T10:35:13Z</time>
      </trkpt>
      <trkpt lat="43.00108" lon="1.59818">
        <ele>411</ele>
        <time>2022-09-03T10:35:19Z</time>
      </trkpt>
      <trkpt lat="43.00116" lon="1.59794">
        <ele>411.2</ele>
        <time>2022-09-03T10:35:25Z</time>
      </trkpt>
      <trkpt lat="43.0012" lon="1.59786">
        <ele>411.4</ele>
        <time>2022-09-03T10:35:27Z</time>
      </trkpt>
      <trkpt lat="43.00126" lon="1.59774">
        <ele>411.8</ele>
        <time>2022-09-03T10:35:30Z</time>
      </trkpt>
      <trkpt lat="43.00144" lon="1.59738">
        <ele>412.2</ele>
        <time>2022-09-03T10:35:39Z</time>
      </trkpt>
      <trkpt lat="43.00148" lon="1.59725">
        <ele>412.6</ele>
        <time>2022-09-03T10:35:42Z</time>
      </trkpt>
      <trkpt lat="43.00151" lon="1.59711">
        <ele>412.6</ele>
        <time>2022-09-03T10:35:45Z</time>
      </trkpt>
      <trkpt lat="43.0016" lon="1.59676">
        <ele>413</ele>
        <time>2022-09-03T10:35:52Z</time>
      </trkpt>
      <trkpt lat="43.00165" lon="1.5964">
        <ele>413.2</ele>
        <time>2022-09-03T10:35:59Z</time>
      </trkpt>
      <trkpt lat="43.00167" lon="1.59621">
        <ele>413.6</ele>
        <time>2022-09-03T10:36:03Z</time>
      </trkpt>
      <trkpt lat="43.00169" lon="1.59607">
        <ele>413.8</ele>
        <time>2022-09-03T10:36:06Z</time>
      </trkpt>
      <trkpt lat="43.00171" lon="1.59567">
        <ele>414.6</ele>
        <time>2022-09-03T10:36:14Z</time>
      </trkpt>
      <trkpt lat="43.00171" lon="1.59558">
        <ele>414.8</ele>
        <time>2022-09-03T10:36:16Z</time>
      </trkpt>
      <trkpt lat="43.00171" lon="1.59548">
        <ele>415</ele>
        <time>2022-09-03T10:36:18Z</time>
      </trkpt>
      <trkpt lat="43.00169" lon="1.59528">
        <ele>415.2</ele>
        <time>2022-09-03T10:36:22Z</time>
      </trkpt>
      <trkpt lat="43.00171" lon="1.59504">
        <ele>415.6</ele>
        <time>2022-09-03T10:36:28Z</time>
      </trkpt>
      <trkpt lat="43.00172" lon="1.59473">
        <ele>415.8</ele>
        <time>2022-09-03T10:36:35Z</time>
      </trkpt>
      <trkpt lat="43.00172" lon="1.59469">
        <ele>415.8</ele>
        <time>2022-09-03T10:36:36Z</time>
      </trkpt>
      <trkpt lat="43.00173" lon="1.59438">
        <ele>415.8</ele>
        <time>2022-09-03T10:36:43Z</time>
      </trkpt>
      <trkpt lat="43.00174" lon="1.59417">
        <ele>416.2</ele>
        <time>2022-09-03T10:36:50Z</time>
      </trkpt>
      <trkpt lat="43.00175" lon="1.59402">
        <ele>416.2</ele>
        <time>2022-09-03T10:36:57Z</time>
      </trkpt>
      <trkpt lat="43.00176" lon="1.59389">
        <ele>416.8</ele>
        <time>2022-09-03T10:38:07Z</time>
      </trkpt>
      <trkpt lat="43.00177" lon="1.59385">
        <ele>416.8</ele>
        <time>2022-09-03T10:38:08Z</time>
      </trkpt>
      <trkpt lat="43.00177" lon="1.5937">
        <ele>417</ele>
        <time>2022-09-03T10:38:11Z</time>
      </trkpt>
      <trkpt lat="43.00177" lon="1.59359">
        <ele>417.2</ele>
        <time>2022-09-03T10:38:14Z</time>
      </trkpt>
      <trkpt lat="43.00178" lon="1.59341">
        <ele>417.6</ele>
        <time>2022-09-03T10:38:20Z</time>
      </trkpt>
      <trkpt lat="43.00179" lon="1.59324">
        <ele>417.6</ele>
        <time>2022-09-03T10:38:25Z</time>
      </trkpt>
      <trkpt lat="43.00179" lon="1.59313">
        <ele>418</ele>
        <time>2022-09-03T10:38:28Z</time>
      </trkpt>
      <trkpt lat="43.00179" lon="1.59295">
        <ele>418.2</ele>
        <time>2022-09-03T10:38:31Z</time>
      </trkpt>
      <trkpt lat="43.00179" lon="1.59258">
        <ele>418.4</ele>
        <time>2022-09-03T10:38:38Z</time>
      </trkpt>
      <trkpt lat="43.0018" lon="1.59225">
        <ele>419</ele>
        <time>2022-09-03T10:38:45Z</time>
      </trkpt>
      <trkpt lat="43.0018" lon="1.5922">
        <ele>419</ele>
        <time>2022-09-03T10:38:46Z</time>
      </trkpt>
      <trkpt lat="43.0018" lon="1.59215">
        <ele>419</ele>
        <time>2022-09-03T10:38:47Z</time>
      </trkpt>
      <trkpt lat="43.00182" lon="1.59195">
        <ele>419.4</ele>
        <time>2022-09-03T10:38:52Z</time>
      </trkpt>
      <trkpt lat="43.00183" lon="1.5918">
        <ele>420</ele>
        <time>2022-09-03T10:38:56Z</time>
      </trkpt>
      <trkpt lat="43.00184" lon="1.59175">
        <ele>420</ele>
        <time>2022-09-03T10:38:57Z</time>
      </trkpt>
      <trkpt lat="43.00184" lon="1.5915">
        <ele>420.4</ele>
        <time>2022-09-03T10:39:03Z</time>
      </trkpt>
      <trkpt lat="43.00187" lon="1.59129">
        <ele>420.6</ele>
        <time>2022-09-03T10:39:08Z</time>
      </trkpt>
      <trkpt lat="43.0019" lon="1.59104">
        <ele>421</ele>
        <time>2022-09-03T10:39:14Z</time>
      </trkpt>
      <trkpt lat="43.00191" lon="1.59094">
        <ele>421</ele>
        <time>2022-09-03T10:39:16Z</time>
      </trkpt>
      <trkpt lat="43.00195" lon="1.59071">
        <ele>421.6</ele>
        <time>2022-09-03T10:39:21Z</time>
      </trkpt>
      <trkpt lat="43.002" lon="1.59036">
        <ele>421.6</ele>
        <time>2022-09-03T10:39:28Z</time>
      </trkpt>
      <trkpt lat="43.00207" lon="1.59006">
        <ele>422</ele>
        <time>2022-09-03T10:39:34Z</time>
      </trkpt>
      <trkpt lat="43.0021" lon="1.58989">
        <ele>422.2</ele>
        <time>2022-09-03T10:39:37Z</time>
      </trkpt>
      <trkpt lat="43.00214" lon="1.58972">
        <ele>422.6</ele>
        <time>2022-09-03T10:39:40Z</time>
      </trkpt>
      <trkpt lat="43.00219" lon="1.58946">
        <ele>422.8</ele>
        <time>2022-09-03T10:39:46Z</time>
      </trkpt>
      <trkpt lat="43.0022" lon="1.58944">
        <ele>423</ele>
        <time>2022-09-03T10:39:47Z</time>
      </trkpt>
      <trkpt lat="43.00223" lon="1.58934">
        <ele>423.2</ele>
        <time>2022-09-03T10:39:51Z</time>
      </trkpt>
      <trkpt lat="43.00224" lon="1.58928">
        <ele>423.4</ele>
        <time>2022-09-03T10:39:53Z</time>
      </trkpt>
      <trkpt lat="43.00227" lon="1.58909">
        <ele>423.6</ele>
        <time>2022-09-03T10:39:58Z</time>
      </trkpt>
      <trkpt lat="43.00229" lon="1.58887">
        <ele>424</ele>
        <time>2022-09-03T10:40:03Z</time>
      </trkpt>
      <trkpt lat="43.00231" lon="1.58854">
        <ele>424.2</ele>
        <time>2022-09-03T10:40:09Z</time>
      </trkpt>
      <trkpt lat="43.00232" lon="1.58841">
        <ele>424.4</ele>
        <time>2022-09-03T10:40:11Z</time>
      </trkpt>
      <trkpt lat="43.00234" lon="1.58812">
        <ele>425</ele>
        <time>2022-09-03T10:40:16Z</time>
      </trkpt>
      <trkpt lat="43.00235" lon="1.58785">
        <ele>425.4</ele>
        <time>2022-09-03T10:40:22Z</time>
      </trkpt>
      <trkpt lat="43.00236" lon="1.58781">
        <ele>425.4</ele>
        <time>2022-09-03T10:40:23Z</time>
      </trkpt>
      <trkpt lat="43.00235" lon="1.58759">
        <ele>425.8</ele>
        <time>2022-09-03T10:40:28Z</time>
      </trkpt>
      <trkpt lat="43.00237" lon="1.58745">
        <ele>426</ele>
        <time>2022-09-03T10:40:33Z</time>
      </trkpt>
      <trkpt lat="43.00239" lon="1.58728">
        <ele>426.6</ele>
        <time>2022-09-03T10:40:39Z</time>
      </trkpt>
      <trkpt lat="43.0024" lon="1.58711">
        <ele>426.4</ele>
        <time>2022-09-03T10:40:44Z</time>
      </trkpt>
      <trkpt lat="43.0024" lon="1.58709">
        <ele>426.6</ele>
        <time>2022-09-03T10:40:45Z</time>
      </trkpt>
      <trkpt lat="43.00233" lon="1.58672">
        <ele>426.4</ele>
        <time>2022-09-03T10:40:51Z</time>
      </trkpt>
      <trkpt lat="43.0023" lon="1.58638">
        <ele>426.2</ele>
        <time>2022-09-03T10:40:56Z</time>
      </trkpt>
      <trkpt lat="43.00221" lon="1.5859">
        <ele>426.4</ele>
        <time>2022-09-03T10:41:04Z</time>
      </trkpt>
      <trkpt lat="43.00218" lon="1.58566">
        <ele>427.6</ele>
        <time>2022-09-03T10:41:10Z</time>
      </trkpt>
      <trkpt lat="43.00218" lon="1.58563">
        <ele>427.8</ele>
        <time>2022-09-03T10:41:11Z</time>
      </trkpt>
      <trkpt lat="43.00215" lon="1.58543">
        <ele>428.6</ele>
        <time>2022-09-03T10:41:17Z</time>
      </trkpt>
      <trkpt lat="43.00214" lon="1.58531">
        <ele>428.8</ele>
        <time>2022-09-03T10:41:20Z</time>
      </trkpt>
      <trkpt lat="43.00211" lon="1.58514">
        <ele>428.8</ele>
        <time>2022-09-03T10:41:24Z</time>
      </trkpt>
      <trkpt lat="43.00202" lon="1.58487">
        <ele>429.2</ele>
        <time>2022-09-03T10:41:30Z</time>
      </trkpt>
      <trkpt lat="43.00199" lon="1.58478">
        <ele>429.4</ele>
        <time>2022-09-03T10:41:32Z</time>
      </trkpt>
      <trkpt lat="43.00191" lon="1.58449">
        <ele>429.6</ele>
        <time>2022-09-03T10:41:38Z</time>
      </trkpt>
      <trkpt lat="43.00187" lon="1.58437">
        <ele>429.8</ele>
        <time>2022-09-03T10:41:41Z</time>
      </trkpt>
      <trkpt lat="43.00184" lon="1.58423">
        <ele>430</ele>
        <time>2022-09-03T10:41:44Z</time>
      </trkpt>
      <trkpt lat="43.00173" lon="1.58388">
        <ele>430.2</ele>
        <time>2022-09-03T10:41:51Z</time>
      </trkpt>
      <trkpt lat="43.00168" lon="1.58361">
        <ele>430.6</ele>
        <time>2022-09-03T10:41:57Z</time>
      </trkpt>
      <trkpt lat="43.0016" lon="1.58327">
        <ele>430.8</ele>
        <time>2022-09-03T10:42:04Z</time>
      </trkpt>
      <trkpt lat="43.00159" lon="1.58322">
        <ele>431</ele>
        <time>2022-09-03T10:42:05Z</time>
      </trkpt>
      <trkpt lat="43.00154" lon="1.58294">
        <ele>431.2</ele>
        <time>2022-09-03T10:42:11Z</time>
      </trkpt>
      <trkpt lat="43.00151" lon="1.58259">
        <ele>431.8</ele>
        <time>2022-09-03T10:42:18Z</time>
      </trkpt>
      <trkpt lat="43.00151" lon="1.58254">
        <ele>432</ele>
        <time>2022-09-03T10:42:19Z</time>
      </trkpt>
      <trkpt lat="43.0015" lon="1.58211">
        <ele>432.4</ele>
        <time>2022-09-03T10:42:28Z</time>
      </trkpt>
      <trkpt lat="43.00151" lon="1.58184">
        <ele>433</ele>
        <time>2022-09-03T10:42:34Z</time>
      </trkpt>
      <trkpt lat="43.00152" lon="1.58154">
        <ele>433.2</ele>
        <time>2022-09-03T10:42:40Z</time>
      </trkpt>
      <trkpt lat="43.00155" lon="1.58121">
        <ele>433.6</ele>
        <time>2022-09-03T10:42:47Z</time>
      </trkpt>
      <trkpt lat="43.00163" lon="1.58092">
        <ele>434</ele>
        <time>2022-09-03T10:42:53Z</time>
      </trkpt>
      <trkpt lat="43.00164" lon="1.58087">
        <ele>434.2</ele>
        <time>2022-09-03T10:42:54Z</time>
      </trkpt>
      <trkpt lat="43.00171" lon="1.58061">
        <ele>434.4</ele>
        <time>2022-09-03T10:43:00Z</time>
      </trkpt>
      <trkpt lat="43.00176" lon="1.58036">
        <ele>435</ele>
        <time>2022-09-03T10:43:06Z</time>
      </trkpt>
      <trkpt lat="43.00178" lon="1.58031">
        <ele>435</ele>
        <time>2022-09-03T10:43:07Z</time>
      </trkpt>
      <trkpt lat="43.00183" lon="1.58004">
        <ele>434.6</ele>
        <time>2022-09-03T10:43:13Z</time>
      </trkpt>
      <trkpt lat="43.0019" lon="1.57976">
        <ele>435.2</ele>
        <time>2022-09-03T10:43:19Z</time>
      </trkpt>
      <trkpt lat="43.00196" lon="1.57943">
        <ele>435.4</ele>
        <time>2022-09-03T10:43:26Z</time>
      </trkpt>
      <trkpt lat="43.00201" lon="1.57915">
        <ele>436</ele>
        <time>2022-09-03T10:43:32Z</time>
      </trkpt>
      <trkpt lat="43.00202" lon="1.5791">
        <ele>436</ele>
        <time>2022-09-03T10:43:33Z</time>
      </trkpt>
      <trkpt lat="43.00207" lon="1.57875">
        <ele>436.6</ele>
        <time>2022-09-03T10:43:40Z</time>
      </trkpt>
      <trkpt lat="43.00207" lon="1.57847">
        <ele>436.8</ele>
        <time>2022-09-03T10:43:46Z</time>
      </trkpt>
      <trkpt lat="43.00208" lon="1.57818">
        <ele>437</ele>
        <time>2022-09-03T10:43:52Z</time>
      </trkpt>
      <trkpt lat="43.00207" lon="1.57808">
        <ele>437</ele>
        <time>2022-09-03T10:43:54Z</time>
      </trkpt>
      <trkpt lat="43.00207" lon="1.57762">
        <ele>437.4</ele>
        <time>2022-09-03T10:44:03Z</time>
      </trkpt>
      <trkpt lat="43.00206" lon="1.57723">
        <ele>437.8</ele>
        <time>2022-09-03T10:44:11Z</time>
      </trkpt>
      <trkpt lat="43.00206" lon="1.57714">
        <ele>438.2</ele>
        <time>2022-09-03T10:44:13Z</time>
      </trkpt>
      <trkpt lat="43.00204" lon="1.57686">
        <ele>438.6</ele>
        <time>2022-09-03T10:44:19Z</time>
      </trkpt>
      <trkpt lat="43.00203" lon="1.57654">
        <ele>439.2</ele>
        <time>2022-09-03T10:44:26Z</time>
      </trkpt>
      <trkpt lat="43.00199" lon="1.57631">
        <ele>439.6</ele>
        <time>2022-09-03T10:44:31Z</time>
      </trkpt>
      <trkpt lat="43.00197" lon="1.5761">
        <ele>439.8</ele>
        <time>2022-09-03T10:44:36Z</time>
      </trkpt>
      <trkpt lat="43.00195" lon="1.57588">
        <ele>440</ele>
        <time>2022-09-03T10:44:41Z</time>
      </trkpt>
      <trkpt lat="43.00192" lon="1.57574">
        <ele>440.2</ele>
        <time>2022-09-03T10:44:44Z</time>
      </trkpt>
      <trkpt lat="43.00189" lon="1.57559">
        <ele>440.6</ele>
        <time>2022-09-03T10:44:47Z</time>
      </trkpt>
      <trkpt lat="43.00187" lon="1.57554">
        <ele>440.6</ele>
        <time>2022-09-03T10:44:48Z</time>
      </trkpt>
      <trkpt lat="43.00184" lon="1.57536">
        <ele>440.8</ele>
        <time>2022-09-03T10:44:52Z</time>
      </trkpt>
      <trkpt lat="43.00181" lon="1.57512">
        <ele>441.2</ele>
        <time>2022-09-03T10:44:57Z</time>
      </trkpt>
      <trkpt lat="43.0018" lon="1.57507">
        <ele>441.4</ele>
        <time>2022-09-03T10:44:58Z</time>
      </trkpt>
      <trkpt lat="43.00178" lon="1.57497">
        <ele>441.6</ele>
        <time>2022-09-03T10:45:00Z</time>
      </trkpt>
      <trkpt lat="43.00169" lon="1.57476">
        <ele>441.6</ele>
        <time>2022-09-03T10:45:04Z</time>
      </trkpt>
      <trkpt lat="43.00175" lon="1.5745">
        <ele>442</ele>
        <time>2022-09-03T10:45:10Z</time>
      </trkpt>
      <trkpt lat="43.00178" lon="1.57442">
        <ele>442.2</ele>
        <time>2022-09-03T10:45:12Z</time>
      </trkpt>
      <trkpt lat="43.00184" lon="1.57422">
        <ele>442.6</ele>
        <time>2022-09-03T10:45:17Z</time>
      </trkpt>
      <trkpt lat="43.00185" lon="1.57394">
        <ele>442.8</ele>
        <time>2022-09-03T10:45:23Z</time>
      </trkpt>
      <trkpt lat="43.00183" lon="1.57359">
        <ele>442.8</ele>
        <time>2022-09-03T10:45:30Z</time>
      </trkpt>
      <trkpt lat="43.00177" lon="1.57323">
        <ele>443</ele>
        <time>2022-09-03T10:45:38Z</time>
      </trkpt>
      <trkpt lat="43.00175" lon="1.57309">
        <ele>443.2</ele>
        <time>2022-09-03T10:45:41Z</time>
      </trkpt>
      <trkpt lat="43.00173" lon="1.57299">
        <ele>443.2</ele>
        <time>2022-09-03T10:45:43Z</time>
      </trkpt>
      <trkpt lat="43.0017" lon="1.57272">
        <ele>443.6</ele>
        <time>2022-09-03T10:45:49Z</time>
      </trkpt>
      <trkpt lat="43.00167" lon="1.57238">
        <ele>444</ele>
        <time>2022-09-03T10:45:56Z</time>
      </trkpt>
      <trkpt lat="43.00166" lon="1.57228">
        <ele>444.2</ele>
        <time>2022-09-03T10:45:58Z</time>
      </trkpt>
      <trkpt lat="43.00165" lon="1.57205">
        <ele>444.8</ele>
        <time>2022-09-03T10:46:03Z</time>
      </trkpt>
      <trkpt lat="43.00163" lon="1.57185">
        <ele>445.2</ele>
        <time>2022-09-03T10:46:07Z</time>
      </trkpt>
      <trkpt lat="43.00161" lon="1.57166">
        <ele>445.4</ele>
        <time>2022-09-03T10:46:11Z</time>
      </trkpt>
      <trkpt lat="43.00158" lon="1.5714">
        <ele>445.8</ele>
        <time>2022-09-03T10:46:16Z</time>
      </trkpt>
      <trkpt lat="43.00159" lon="1.57116">
        <ele>446.2</ele>
        <time>2022-09-03T10:46:21Z</time>
      </trkpt>
      <trkpt lat="43.00159" lon="1.57103">
        <ele>446.4</ele>
        <time>2022-09-03T10:46:24Z</time>
      </trkpt>
      <trkpt lat="43.0016" lon="1.57093">
        <ele>446.6</ele>
        <time>2022-09-03T10:46:26Z</time>
      </trkpt>
      <trkpt lat="43.00159" lon="1.5705">
        <ele>447.2</ele>
        <time>2022-09-03T10:46:34Z</time>
      </trkpt>
      <trkpt lat="43.00158" lon="1.57029">
        <ele>447.4</ele>
        <time>2022-09-03T10:46:38Z</time>
      </trkpt>
      <trkpt lat="43.00159" lon="1.57015">
        <ele>447.6</ele>
        <time>2022-09-03T10:46:41Z</time>
      </trkpt>
      <trkpt lat="43.0016" lon="1.56996">
        <ele>447.8</ele>
        <time>2022-09-03T10:46:46Z</time>
      </trkpt>
      <trkpt lat="43.00164" lon="1.56979">
        <ele>448</ele>
        <time>2022-09-03T10:46:52Z</time>
      </trkpt>
      <trkpt lat="43.00166" lon="1.56966">
        <ele>447.8</ele>
        <time>2022-09-03T10:46:59Z</time>
      </trkpt>
      <trkpt lat="43.00168" lon="1.5695">
        <ele>448</ele>
        <time>2022-09-03T10:47:39Z</time>
      </trkpt>
      <trkpt lat="43.00172" lon="1.56939">
        <ele>448.2</ele>
        <time>2022-09-03T10:47:42Z</time>
      </trkpt>
      <trkpt lat="43.00176" lon="1.56924">
        <ele>448.6</ele>
        <time>2022-09-03T10:47:46Z</time>
      </trkpt>
      <trkpt lat="43.00178" lon="1.56916">
        <ele>448.6</ele>
        <time>2022-09-03T10:47:48Z</time>
      </trkpt>
      <trkpt lat="43.00184" lon="1.56885">
        <ele>449.2</ele>
        <time>2022-09-03T10:47:56Z</time>
      </trkpt>
      <trkpt lat="43.00187" lon="1.56864">
        <ele>449.2</ele>
        <time>2022-09-03T10:48:02Z</time>
      </trkpt>
      <trkpt lat="43.00188" lon="1.56858">
        <ele>449.4</ele>
        <time>2022-09-03T10:48:04Z</time>
      </trkpt>
      <trkpt lat="43.00189" lon="1.5685">
        <ele>449.6</ele>
        <time>2022-09-03T10:48:07Z</time>
      </trkpt>
      <trkpt lat="43.00189" lon="1.56847">
        <ele>449.6</ele>
        <time>2022-09-03T10:48:08Z</time>
      </trkpt>
      <trkpt lat="43.00189" lon="1.56838">
        <ele>449.8</ele>
        <time>2022-09-03T10:48:11Z</time>
      </trkpt>
      <trkpt lat="43.0019" lon="1.56827">
        <ele>449.8</ele>
        <time>2022-09-03T10:48:14Z</time>
      </trkpt>
      <trkpt lat="43.00191" lon="1.56807">
        <ele>450</ele>
        <time>2022-09-03T10:48:20Z</time>
      </trkpt>
      <trkpt lat="43.00194" lon="1.56793">
        <ele>450.2</ele>
        <time>2022-09-03T10:48:26Z</time>
      </trkpt>
      <trkpt lat="43.002" lon="1.56767">
        <ele>450.6</ele>
        <time>2022-09-03T10:48:33Z</time>
      </trkpt>
      <trkpt lat="43.00201" lon="1.56763">
        <ele>450.6</ele>
        <time>2022-09-03T10:48:34Z</time>
      </trkpt>
      <trkpt lat="43.00205" lon="1.56738">
        <ele>451</ele>
        <time>2022-09-03T10:48:40Z</time>
      </trkpt>
      <trkpt lat="43.00211" lon="1.56709">
        <ele>451.2</ele>
        <time>2022-09-03T10:48:47Z</time>
      </trkpt>
      <trkpt lat="43.00219" lon="1.56684">
        <ele>451.6</ele>
        <time>2022-09-03T10:48:53Z</time>
      </trkpt>
      <trkpt lat="43.0022" lon="1.5668">
        <ele>451.8</ele>
        <time>2022-09-03T10:48:54Z</time>
      </trkpt>
      <trkpt lat="43.00224" lon="1.56656">
        <ele>451.8</ele>
        <time>2022-09-03T10:49:00Z</time>
      </trkpt>
      <trkpt lat="43.00223" lon="1.56634">
        <ele>452</ele>
        <time>2022-09-03T10:49:06Z</time>
      </trkpt>
      <trkpt lat="43.00227" lon="1.56616">
        <ele>452.2</ele>
        <time>2022-09-03T10:49:59Z</time>
      </trkpt>
      <trkpt lat="43.00236" lon="1.56608">
        <ele>452.4</ele>
        <time>2022-09-03T10:50:02Z</time>
      </trkpt>
      <trkpt lat="43.00247" lon="1.56591">
        <ele>452.8</ele>
        <time>2022-09-03T10:50:08Z</time>
      </trkpt>
      <trkpt lat="43.00248" lon="1.56582">
        <ele>452.8</ele>
        <time>2022-09-03T10:50:12Z</time>
      </trkpt>
      <trkpt lat="43.00248" lon="1.5658">
        <ele>452.8</ele>
        <time>2022-09-03T10:50:14Z</time>
      </trkpt>
      <trkpt lat="43.00264" lon="1.56553">
        <ele>453.4</ele>
        <time>2022-09-03T10:52:56Z</time>
      </trkpt>
      <trkpt lat="43.00267" lon="1.56547">
        <ele>453.4</ele>
        <time>2022-09-03T10:52:58Z</time>
      </trkpt>
      <trkpt lat="43.00276" lon="1.56527">
        <ele>453.6</ele>
        <time>2022-09-03T10:53:04Z</time>
      </trkpt>
      <trkpt lat="43.00281" lon="1.56515">
        <ele>453.8</ele>
        <time>2022-09-03T10:53:08Z</time>
      </trkpt>
      <trkpt lat="43.00286" lon="1.56506">
        <ele>453.6</ele>
        <time>2022-09-03T10:53:11Z</time>
      </trkpt>
      <trkpt lat="43.00292" lon="1.56493">
        <ele>454</ele>
        <time>2022-09-03T10:53:17Z</time>
      </trkpt>
      <trkpt lat="43.00296" lon="1.5648">
        <ele>454</ele>
        <time>2022-09-03T10:53:23Z</time>
      </trkpt>
      <trkpt lat="43.00304" lon="1.56467">
        <ele>454.4</ele>
        <time>2022-09-03T10:53:29Z</time>
      </trkpt>
      <trkpt lat="43.00312" lon="1.56446">
        <ele>455</ele>
        <time>2022-09-03T10:55:26Z</time>
      </trkpt>
      <trkpt lat="43.00325" lon="1.56423">
        <ele>455.4</ele>
        <time>2022-09-03T10:55:34Z</time>
      </trkpt>
      <trkpt lat="43.00333" lon="1.564">
        <ele>455.6</ele>
        <time>2022-09-03T10:55:41Z</time>
      </trkpt>
      <trkpt lat="43.00339" lon="1.56383">
        <ele>456</ele>
        <time>2022-09-03T10:55:47Z</time>
      </trkpt>
      <trkpt lat="43.00341" lon="1.56381">
        <ele>456</ele>
        <time>2022-09-03T10:55:48Z</time>
      </trkpt>
      <trkpt lat="43.00349" lon="1.56366">
        <ele>456.4</ele>
        <time>2022-09-03T10:55:53Z</time>
      </trkpt>
      <trkpt lat="43.00362" lon="1.56342">
        <ele>456.8</ele>
        <time>2022-09-03T10:56:00Z</time>
      </trkpt>
      <trkpt lat="43.00368" lon="1.56331">
        <ele>457.2</ele>
        <time>2022-09-03T10:56:03Z</time>
      </trkpt>
      <trkpt lat="43.00377" lon="1.56308">
        <ele>457.4</ele>
        <time>2022-09-03T10:56:09Z</time>
      </trkpt>
      <trkpt lat="43.00389" lon="1.56286">
        <ele>457.8</ele>
        <time>2022-09-03T10:56:15Z</time>
      </trkpt>
      <trkpt lat="43.00396" lon="1.56271">
        <ele>458.2</ele>
        <time>2022-09-03T10:56:19Z</time>
      </trkpt>
      <trkpt lat="43.00401" lon="1.56258">
        <ele>458.4</ele>
        <time>2022-09-03T10:56:22Z</time>
      </trkpt>
      <trkpt lat="43.00415" lon="1.56233">
        <ele>459</ele>
        <time>2022-09-03T10:56:28Z</time>
      </trkpt>
      <trkpt lat="43.00421" lon="1.56217">
        <ele>459.2</ele>
        <time>2022-09-03T10:56:32Z</time>
      </trkpt>
      <trkpt lat="43.00424" lon="1.56203">
        <ele>459.4</ele>
        <time>2022-09-03T10:56:35Z</time>
      </trkpt>
      <trkpt lat="43.00435" lon="1.56184">
        <ele>459.6</ele>
        <time>2022-09-03T10:56:40Z</time>
      </trkpt>
      <trkpt lat="43.00449" lon="1.56163">
        <ele>460.2</ele>
        <time>2022-09-03T10:56:46Z</time>
      </trkpt>
      <trkpt lat="43.00461" lon="1.56149">
        <ele>460.2</ele>
        <time>2022-09-03T10:56:50Z</time>
      </trkpt>
      <trkpt lat="43.00466" lon="1.56145">
        <ele>460.4</ele>
        <time>2022-09-03T10:56:52Z</time>
      </trkpt>
      <trkpt lat="43.00476" lon="1.5613">
        <ele>460.6</ele>
        <time>2022-09-03T10:56:57Z</time>
      </trkpt>
      <trkpt lat="43.00482" lon="1.56113">
        <ele>460.8</ele>
        <time>2022-09-03T10:57:03Z</time>
      </trkpt>
      <trkpt lat="43.00488" lon="1.56096">
        <ele>461</ele>
        <time>2022-09-03T10:57:09Z</time>
      </trkpt>
      <trkpt lat="43.00496" lon="1.56078">
        <ele>461.4</ele>
        <time>2022-09-03T10:57:15Z</time>
      </trkpt>
      <trkpt lat="43.00501" lon="1.56072">
        <ele>461.8</ele>
        <time>2022-09-03T10:57:17Z</time>
      </trkpt>
      <trkpt lat="43.00514" lon="1.56057">
        <ele>462.2</ele>
        <time>2022-09-03T10:57:22Z</time>
      </trkpt>
      <trkpt lat="43.00536" lon="1.56037">
        <ele>462.4</ele>
        <time>2022-09-03T10:57:28Z</time>
      </trkpt>
      <trkpt lat="43.00544" lon="1.56023">
        <ele>462.4</ele>
        <time>2022-09-03T10:57:31Z</time>
      </trkpt>
      <trkpt lat="43.00546" lon="1.56018">
        <ele>462.6</ele>
        <time>2022-09-03T10:57:32Z</time>
      </trkpt>
      <trkpt lat="43.00553" lon="1.5601">
        <ele>462.6</ele>
        <time>2022-09-03T10:57:34Z</time>
      </trkpt>
      <trkpt lat="43.00573" lon="1.55987">
        <ele>463</ele>
        <time>2022-09-03T10:57:41Z</time>
      </trkpt>
      <trkpt lat="43.00587" lon="1.55971">
        <ele>463.4</ele>
        <time>2022-09-03T10:57:46Z</time>
      </trkpt>
      <trkpt lat="43.00604" lon="1.55952">
        <ele>463.8</ele>
        <time>2022-09-03T10:57:52Z</time>
      </trkpt>
      <trkpt lat="43.00621" lon="1.55927">
        <ele>464.2</ele>
        <time>2022-09-03T10:57:59Z</time>
      </trkpt>
      <trkpt lat="43.00633" lon="1.55908">
        <ele>464.2</ele>
        <time>2022-09-03T10:58:05Z</time>
      </trkpt>
      <trkpt lat="43.00634" lon="1.55905">
        <ele>464.6</ele>
        <time>2022-09-03T10:58:06Z</time>
      </trkpt>
      <trkpt lat="43.00646" lon="1.55888">
        <ele>464.8</ele>
        <time>2022-09-03T10:58:11Z</time>
      </trkpt>
      <trkpt lat="43.00659" lon="1.55863">
        <ele>465</ele>
        <time>2022-09-03T10:58:18Z</time>
      </trkpt>
      <trkpt lat="43.00671" lon="1.55845">
        <ele>465.4</ele>
        <time>2022-09-03T10:58:23Z</time>
      </trkpt>
      <trkpt lat="43.00674" lon="1.55841">
        <ele>465.6</ele>
        <time>2022-09-03T10:58:24Z</time>
      </trkpt>
      <trkpt lat="43.00683" lon="1.5582">
        <ele>466</ele>
        <time>2022-09-03T10:58:29Z</time>
      </trkpt>
      <trkpt lat="43.0069" lon="1.55797">
        <ele>466.6</ele>
        <time>2022-09-03T10:58:34Z</time>
      </trkpt>
      <trkpt lat="43.00694" lon="1.55789">
        <ele>466.6</ele>
        <time>2022-09-03T10:58:36Z</time>
      </trkpt>
      <trkpt lat="43.00699" lon="1.55767">
        <ele>467</ele>
        <time>2022-09-03T10:58:41Z</time>
      </trkpt>
      <trkpt lat="43.00708" lon="1.55735">
        <ele>467.4</ele>
        <time>2022-09-03T10:58:48Z</time>
      </trkpt>
      <trkpt lat="43.00714" lon="1.55727">
        <ele>467.6</ele>
        <time>2022-09-03T10:58:50Z</time>
      </trkpt>
      <trkpt lat="43.00723" lon="1.55707">
        <ele>468</ele>
        <time>2022-09-03T10:58:54Z</time>
      </trkpt>
      <trkpt lat="43.00734" lon="1.55684">
        <ele>468.4</ele>
        <time>2022-09-03T10:58:59Z</time>
      </trkpt>
      <trkpt lat="43.00748" lon="1.55653">
        <ele>468.6</ele>
        <time>2022-09-03T10:59:06Z</time>
      </trkpt>
      <trkpt lat="43.00752" lon="1.55644">
        <ele>468.6</ele>
        <time>2022-09-03T10:59:08Z</time>
      </trkpt>
      <trkpt lat="43.00761" lon="1.55622">
        <ele>468.8</ele>
        <time>2022-09-03T10:59:13Z</time>
      </trkpt>
      <trkpt lat="43.00771" lon="1.55589">
        <ele>469.4</ele>
        <time>2022-09-03T10:59:20Z</time>
      </trkpt>
      <trkpt lat="43.00774" lon="1.55581">
        <ele>469.6</ele>
        <time>2022-09-03T10:59:22Z</time>
      </trkpt>
      <trkpt lat="43.00786" lon="1.55554">
        <ele>470</ele>
        <time>2022-09-03T10:59:28Z</time>
      </trkpt>
      <trkpt lat="43.00795" lon="1.55523">
        <ele>470.4</ele>
        <time>2022-09-03T10:59:35Z</time>
      </trkpt>
      <trkpt lat="43.008" lon="1.55506">
        <ele>470.8</ele>
        <time>2022-09-03T10:59:39Z</time>
      </trkpt>
      <trkpt lat="43.00806" lon="1.55493">
        <ele>470.8</ele>
        <time>2022-09-03T10:59:42Z</time>
      </trkpt>
      <trkpt lat="43.00819" lon="1.55462">
        <ele>471.2</ele>
        <time>2022-09-03T10:59:49Z</time>
      </trkpt>
      <trkpt lat="43.00832" lon="1.55425">
        <ele>471.6</ele>
        <time>2022-09-03T10:59:57Z</time>
      </trkpt>
      <trkpt lat="43.00841" lon="1.55402">
        <ele>471.8</ele>
        <time>2022-09-03T11:00:02Z</time>
      </trkpt>
      <trkpt lat="43.00847" lon="1.55384">
        <ele>472.2</ele>
        <time>2022-09-03T11:00:06Z</time>
      </trkpt>
      <trkpt lat="43.00857" lon="1.55354">
        <ele>472.4</ele>
        <time>2022-09-03T11:00:13Z</time>
      </trkpt>
      <trkpt lat="43.00867" lon="1.55329">
        <ele>472.8</ele>
        <time>2022-09-03T11:00:19Z</time>
      </trkpt>
      <trkpt lat="43.00871" lon="1.5532">
        <ele>473</ele>
        <time>2022-09-03T11:00:21Z</time>
      </trkpt>
      <trkpt lat="43.00886" lon="1.55276">
        <ele>473.6</ele>
        <time>2022-09-03T11:00:31Z</time>
      </trkpt>
      <trkpt lat="43.0089" lon="1.55263">
        <ele>473.8</ele>
        <time>2022-09-03T11:00:34Z</time>
      </trkpt>
      <trkpt lat="43.00896" lon="1.55245">
        <ele>474.2</ele>
        <time>2022-09-03T11:00:38Z</time>
      </trkpt>
      <trkpt lat="43.00908" lon="1.55209">
        <ele>474.6</ele>
        <time>2022-09-03T11:00:46Z</time>
      </trkpt>
      <trkpt lat="43.00915" lon="1.55191">
        <ele>475</ele>
        <time>2022-09-03T11:00:50Z</time>
      </trkpt>
      <trkpt lat="43.00921" lon="1.55173">
        <ele>475.2</ele>
        <time>2022-09-03T11:00:54Z</time>
      </trkpt>
      <trkpt lat="43.0093" lon="1.55147">
        <ele>475.8</ele>
        <time>2022-09-03T11:01:00Z</time>
      </trkpt>
      <trkpt lat="43.00937" lon="1.55123">
        <ele>476</ele>
        <time>2022-09-03T11:01:05Z</time>
      </trkpt>
      <trkpt lat="43.00941" lon="1.55109">
        <ele>476.2</ele>
        <time>2022-09-03T11:01:08Z</time>
      </trkpt>
      <trkpt lat="43.00955" lon="1.55069">
        <ele>477</ele>
        <time>2022-09-03T11:01:17Z</time>
      </trkpt>
      <trkpt lat="43.00957" lon="1.55064">
        <ele>477</ele>
        <time>2022-09-03T11:01:18Z</time>
      </trkpt>
      <trkpt lat="43.00969" lon="1.5503">
        <ele>477.4</ele>
        <time>2022-09-03T11:01:26Z</time>
      </trkpt>
      <trkpt lat="43.0098" lon="1.54989">
        <ele>478</ele>
        <time>2022-09-03T11:01:35Z</time>
      </trkpt>
      <trkpt lat="43.00991" lon="1.54954">
        <ele>478</ele>
        <time>2022-09-03T11:01:43Z</time>
      </trkpt>
      <trkpt lat="43.00997" lon="1.54934">
        <ele>478.6</ele>
        <time>2022-09-03T11:01:49Z</time>
      </trkpt>
      <trkpt lat="43.01003" lon="1.54913">
        <ele>478.6</ele>
        <time>2022-09-03T11:01:56Z</time>
      </trkpt>
      <trkpt lat="43.0101" lon="1.5489">
        <ele>479</ele>
        <time>2022-09-03T11:02:02Z</time>
      </trkpt>
      <trkpt lat="43.01016" lon="1.54871">
        <ele>479.4</ele>
        <time>2022-09-03T11:02:07Z</time>
      </trkpt>
      <trkpt lat="43.01026" lon="1.54839">
        <ele>479.8</ele>
        <time>2022-09-03T11:02:14Z</time>
      </trkpt>
      <trkpt lat="43.01031" lon="1.54825">
        <ele>480</ele>
        <time>2022-09-03T11:02:17Z</time>
      </trkpt>
      <trkpt lat="43.01038" lon="1.54802">
        <ele>480.4</ele>
        <time>2022-09-03T11:02:22Z</time>
      </trkpt>
      <trkpt lat="43.01049" lon="1.54774">
        <ele>480.8</ele>
        <time>2022-09-03T11:02:28Z</time>
      </trkpt>
      <trkpt lat="43.01056" lon="1.54761">
        <ele>481</ele>
        <time>2022-09-03T11:02:31Z</time>
      </trkpt>
      <trkpt lat="43.01062" lon="1.54747">
        <ele>481.2</ele>
        <time>2022-09-03T11:02:34Z</time>
      </trkpt>
      <trkpt lat="43.01077" lon="1.54712">
        <ele>481.6</ele>
        <time>2022-09-03T11:02:42Z</time>
      </trkpt>
      <trkpt lat="43.01087" lon="1.54683">
        <ele>482</ele>
        <time>2022-09-03T11:02:49Z</time>
      </trkpt>
      <trkpt lat="43.01092" lon="1.54675">
        <ele>482.2</ele>
        <time>2022-09-03T11:02:51Z</time>
      </trkpt>
      <trkpt lat="43.01105" lon="1.54651">
        <ele>482.4</ele>
        <time>2022-09-03T11:02:57Z</time>
      </trkpt>
      <trkpt lat="43.01117" lon="1.54626">
        <ele>483</ele>
        <time>2022-09-03T11:03:03Z</time>
      </trkpt>
      <trkpt lat="43.01128" lon="1.54601">
        <ele>483.2</ele>
        <time>2022-09-03T11:03:09Z</time>
      </trkpt>
      <trkpt lat="43.01137" lon="1.54581">
        <ele>483.6</ele>
        <time>2022-09-03T11:03:14Z</time>
      </trkpt>
      <trkpt lat="43.01153" lon="1.5455">
        <ele>483.8</ele>
        <time>2022-09-03T11:03:22Z</time>
      </trkpt>
      <trkpt lat="43.01163" lon="1.54525">
        <ele>484.2</ele>
        <time>2022-09-03T11:03:28Z</time>
      </trkpt>
      <trkpt lat="43.01165" lon="1.54521">
        <ele>484.2</ele>
        <time>2022-09-03T11:03:29Z</time>
      </trkpt>
      <trkpt lat="43.01175" lon="1.54495">
        <ele>484.4</ele>
        <time>2022-09-03T11:03:35Z</time>
      </trkpt>
      <trkpt lat="43.0119" lon="1.54464">
        <ele>484.6</ele>
        <time>2022-09-03T11:03:42Z</time>
      </trkpt>
      <trkpt lat="43.01198" lon="1.54446">
        <ele>484.6</ele>
        <time>2022-09-03T11:03:46Z</time>
      </trkpt>
      <trkpt lat="43.0121" lon="1.54413">
        <ele>484.8</ele>
        <time>2022-09-03T11:03:52Z</time>
      </trkpt>
      <trkpt lat="43.01223" lon="1.54375">
        <ele>484.6</ele>
        <time>2022-09-03T11:03:59Z</time>
      </trkpt>
      <trkpt lat="43.01231" lon="1.54352">
        <ele>484.6</ele>
        <time>2022-09-03T11:04:03Z</time>
      </trkpt>
      <trkpt lat="43.01234" lon="1.5434">
        <ele>484.6</ele>
        <time>2022-09-03T11:04:05Z</time>
      </trkpt>
      <trkpt lat="43.01245" lon="1.54304">
        <ele>484.6</ele>
        <time>2022-09-03T11:04:11Z</time>
      </trkpt>
      <trkpt lat="43.01258" lon="1.54266">
        <ele>484.6</ele>
        <time>2022-09-03T11:04:17Z</time>
      </trkpt>
      <trkpt lat="43.01263" lon="1.54252">
        <ele>484.6</ele>
        <time>2022-09-03T11:04:19Z</time>
      </trkpt>
      <trkpt lat="43.01269" lon="1.54228">
        <ele>484.6</ele>
        <time>2022-09-03T11:04:23Z</time>
      </trkpt>
      <trkpt lat="43.01271" lon="1.54222">
        <ele>484.6</ele>
        <time>2022-09-03T11:04:24Z</time>
      </trkpt>
      <trkpt lat="43.01273" lon="1.54215">
        <ele>484.6</ele>
        <time>2022-09-03T11:04:25Z</time>
      </trkpt>
      <trkpt lat="43.01275" lon="1.54203">
        <ele>484.6</ele>
        <time>2022-09-03T11:04:27Z</time>
      </trkpt>
      <trkpt lat="43.01278" lon="1.54193">
        <ele>484.6</ele>
        <time>2022-09-03T11:04:30Z</time>
      </trkpt>
      <trkpt lat="43.01284" lon="1.54167">
        <ele>483.8</ele>
        <time>2022-09-03T11:04:35Z</time>
      </trkpt>
      <trkpt lat="43.01297" lon="1.54134">
        <ele>484</ele>
        <time>2022-09-03T11:04:41Z</time>
      </trkpt>
      <trkpt lat="43.01307" lon="1.54101">
        <ele>484</ele>
        <time>2022-09-03T11:04:47Z</time>
      </trkpt>
      <trkpt lat="43.0132" lon="1.54074">
        <ele>483.8</ele>
        <time>2022-09-03T11:04:53Z</time>
      </trkpt>
      <trkpt lat="43.01331" lon="1.54052">
        <ele>484.4</ele>
        <time>2022-09-03T11:04:59Z</time>
      </trkpt>
      <trkpt lat="43.01342" lon="1.54026">
        <ele>484.4</ele>
        <time>2022-09-03T11:05:06Z</time>
      </trkpt>
      <trkpt lat="43.01351" lon="1.54001">
        <ele>484</ele>
        <time>2022-09-03T11:05:12Z</time>
      </trkpt>
      <trkpt lat="43.01357" lon="1.5398">
        <ele>483.8</ele>
        <time>2022-09-03T11:05:18Z</time>
      </trkpt>
      <trkpt lat="43.01364" lon="1.53954">
        <ele>483.8</ele>
        <time>2022-09-03T11:05:24Z</time>
      </trkpt>
      <trkpt lat="43.01371" lon="1.5393">
        <ele>483.6</ele>
        <time>2022-09-03T11:05:30Z</time>
      </trkpt>
      <trkpt lat="43.01381" lon="1.53898">
        <ele>483.6</ele>
        <time>2022-09-03T11:05:37Z</time>
      </trkpt>
      <trkpt lat="43.01387" lon="1.53866">
        <ele>483.8</ele>
        <time>2022-09-03T11:05:43Z</time>
      </trkpt>
      <trkpt lat="43.01395" lon="1.53824">
        <ele>483.8</ele>
        <time>2022-09-03T11:05:50Z</time>
      </trkpt>
      <trkpt lat="43.01402" lon="1.53794">
        <ele>483.6</ele>
        <time>2022-09-03T11:05:55Z</time>
      </trkpt>
      <trkpt lat="43.01412" lon="1.53754">
        <ele>483.6</ele>
        <time>2022-09-03T11:06:02Z</time>
      </trkpt>
      <trkpt lat="43.0142" lon="1.53715">
        <ele>483.6</ele>
        <time>2022-09-03T11:06:09Z</time>
      </trkpt>
      <trkpt lat="43.01423" lon="1.53694">
        <ele>483.8</ele>
        <time>2022-09-03T11:06:15Z</time>
      </trkpt>
      <trkpt lat="43.01423" lon="1.53687">
        <ele>484</ele>
        <time>2022-09-03T11:06:17Z</time>
      </trkpt>
      <trkpt lat="43.01425" lon="1.53679">
        <ele>484.2</ele>
        <time>2022-09-03T11:06:19Z</time>
      </trkpt>
      <trkpt lat="43.01431" lon="1.53652">
        <ele>484.2</ele>
        <time>2022-09-03T11:06:25Z</time>
      </trkpt>
      <trkpt lat="43.0143" lon="1.53627">
        <ele>484.2</ele>
        <time>2022-09-03T11:06:31Z</time>
      </trkpt>
      <trkpt lat="43.01434" lon="1.53609">
        <ele>484.2</ele>
        <time>2022-09-03T11:06:37Z</time>
      </trkpt>
      <trkpt lat="43.01444" lon="1.53591">
        <ele>484.2</ele>
        <time>2022-09-03T11:06:44Z</time>
      </trkpt>
      <trkpt lat="43.01451" lon="1.53567">
        <ele>484</ele>
        <time>2022-09-03T11:06:51Z</time>
      </trkpt>
      <trkpt lat="43.01453" lon="1.53541">
        <ele>484</ele>
        <time>2022-09-03T11:06:58Z</time>
      </trkpt>
      <trkpt lat="43.01454" lon="1.53514">
        <ele>484.2</ele>
        <time>2022-09-03T11:07:05Z</time>
      </trkpt>
      <trkpt lat="43.01454" lon="1.53483">
        <ele>484</ele>
        <time>2022-09-03T11:07:12Z</time>
      </trkpt>
      <trkpt lat="43.01453" lon="1.53441">
        <ele>484.2</ele>
        <time>2022-09-03T11:07:20Z</time>
      </trkpt>
      <trkpt lat="43.01449" lon="1.53399">
        <ele>484</ele>
        <time>2022-09-03T11:07:28Z</time>
      </trkpt>
      <trkpt lat="43.01447" lon="1.53369">
        <ele>484.2</ele>
        <time>2022-09-03T11:07:34Z</time>
      </trkpt>
      <trkpt lat="43.01443" lon="1.53338">
        <ele>484</ele>
        <time>2022-09-03T11:07:40Z</time>
      </trkpt>
      <trkpt lat="43.01439" lon="1.53304">
        <ele>484.6</ele>
        <time>2022-09-03T11:07:47Z</time>
      </trkpt>
      <trkpt lat="43.01433" lon="1.53262">
        <ele>484.8</ele>
        <time>2022-09-03T11:07:55Z</time>
      </trkpt>
      <trkpt lat="43.01428" lon="1.53228">
        <ele>485.4</ele>
        <time>2022-09-03T11:08:02Z</time>
      </trkpt>
      <trkpt lat="43.01421" lon="1.53189">
        <ele>485.8</ele>
        <time>2022-09-03T11:08:10Z</time>
      </trkpt>
      <trkpt lat="43.01416" lon="1.53164">
        <ele>486.4</ele>
        <time>2022-09-03T11:08:15Z</time>
      </trkpt>
      <trkpt lat="43.0141" lon="1.5314">
        <ele>486.4</ele>
        <time>2022-09-03T11:08:20Z</time>
      </trkpt>
      <trkpt lat="43.01398" lon="1.53102">
        <ele>487.4</ele>
        <time>2022-09-03T11:08:28Z</time>
      </trkpt>
      <trkpt lat="43.01397" lon="1.53097">
        <ele>487.4</ele>
        <time>2022-09-03T11:08:29Z</time>
      </trkpt>
      <trkpt lat="43.01387" lon="1.5307">
        <ele>487.6</ele>
        <time>2022-09-03T11:08:35Z</time>
      </trkpt>
      <trkpt lat="43.01374" lon="1.53041">
        <ele>488</ele>
        <time>2022-09-03T11:08:42Z</time>
      </trkpt>
      <trkpt lat="43.01365" lon="1.53021">
        <ele>488.2</ele>
        <time>2022-09-03T11:08:47Z</time>
      </trkpt>
      <trkpt lat="43.01359" lon="1.53012">
        <ele>488.4</ele>
        <time>2022-09-03T11:08:50Z</time>
      </trkpt>
      <trkpt lat="43.01354" lon="1.53001">
        <ele>488.8</ele>
        <time>2022-09-03T11:08:53Z</time>
      </trkpt>
      <trkpt lat="43.01343" lon="1.52978">
        <ele>489.4</ele>
        <time>2022-09-03T11:09:00Z</time>
      </trkpt>
      <trkpt lat="43.01337" lon="1.52962">
        <ele>489.6</ele>
        <time>2022-09-03T11:09:04Z</time>
      </trkpt>
      <trkpt lat="43.01333" lon="1.52954">
        <ele>489.6</ele>
        <time>2022-09-03T11:09:06Z</time>
      </trkpt>
      <trkpt lat="43.01323" lon="1.52932">
        <ele>490.2</ele>
        <time>2022-09-03T11:09:12Z</time>
      </trkpt>
      <trkpt lat="43.0131" lon="1.52899">
        <ele>490.4</ele>
        <time>2022-09-03T11:09:20Z</time>
      </trkpt>
      <trkpt lat="43.01306" lon="1.5289">
        <ele>490.8</ele>
        <time>2022-09-03T11:09:22Z</time>
      </trkpt>
      <trkpt lat="43.01294" lon="1.5286">
        <ele>491.2</ele>
        <time>2022-09-03T11:09:28Z</time>
      </trkpt>
      <trkpt lat="43.01273" lon="1.52812">
        <ele>491.8</ele>
        <time>2022-09-03T11:09:37Z</time>
      </trkpt>
      <trkpt lat="43.01261" lon="1.52779">
        <ele>492</ele>
        <time>2022-09-03T11:09:43Z</time>
      </trkpt>
      <trkpt lat="43.01244" lon="1.52725">
        <ele>492.8</ele>
        <time>2022-09-03T11:09:52Z</time>
      </trkpt>
      <trkpt lat="43.01235" lon="1.52688">
        <ele>493.2</ele>
        <time>2022-09-03T11:09:59Z</time>
      </trkpt>
      <trkpt lat="43.01229" lon="1.52659">
        <ele>493.6</ele>
        <time>2022-09-03T11:10:05Z</time>
      </trkpt>
      <trkpt lat="43.01226" lon="1.52634">
        <ele>493.8</ele>
        <time>2022-09-03T11:10:10Z</time>
      </trkpt>
      <trkpt lat="43.01225" lon="1.52623">
        <ele>494</ele>
        <time>2022-09-03T11:10:12Z</time>
      </trkpt>
      <trkpt lat="43.01219" lon="1.52574">
        <ele>494.6</ele>
        <time>2022-09-03T11:10:21Z</time>
      </trkpt>
      <trkpt lat="43.01217" lon="1.52559">
        <ele>495</ele>
        <time>2022-09-03T11:10:24Z</time>
      </trkpt>
      <trkpt lat="43.01215" lon="1.5254">
        <ele>495</ele>
        <time>2022-09-03T11:10:28Z</time>
      </trkpt>
      <trkpt lat="43.01211" lon="1.52503">
        <ele>495.6</ele>
        <time>2022-09-03T11:10:35Z</time>
      </trkpt>
      <trkpt lat="43.01208" lon="1.52471">
        <ele>496</ele>
        <time>2022-09-03T11:10:41Z</time>
      </trkpt>
      <trkpt lat="43.01206" lon="1.52461">
        <ele>496</ele>
        <time>2022-09-03T11:10:43Z</time>
      </trkpt>
      <trkpt lat="43.01203" lon="1.52442">
        <ele>496.2</ele>
        <time>2022-09-03T11:10:47Z</time>
      </trkpt>
      <trkpt lat="43.01202" lon="1.52414">
        <ele>496.4</ele>
        <time>2022-09-03T11:10:53Z</time>
      </trkpt>
      <trkpt lat="43.01198" lon="1.52386">
        <ele>496.8</ele>
        <time>2022-09-03T11:10:59Z</time>
      </trkpt>
      <trkpt lat="43.01196" lon="1.5237">
        <ele>497.2</ele>
        <time>2022-09-03T11:11:02Z</time>
      </trkpt>
      <trkpt lat="43.01193" lon="1.52347">
        <ele>497.4</ele>
        <time>2022-09-03T11:11:06Z</time>
      </trkpt>
      <trkpt lat="43.01184" lon="1.52301">
        <ele>497.8</ele>
        <time>2022-09-03T11:11:13Z</time>
      </trkpt>
      <trkpt lat="43.01171" lon="1.52255">
        <ele>498</ele>
        <time>2022-09-03T11:11:20Z</time>
      </trkpt>
      <trkpt lat="43.01156" lon="1.52215">
        <ele>497.6</ele>
        <time>2022-09-03T11:11:27Z</time>
      </trkpt>
      <trkpt lat="43.01144" lon="1.5219">
        <ele>497.6</ele>
        <time>2022-09-03T11:11:32Z</time>
      </trkpt>
      <trkpt lat="43.01131" lon="1.52152">
        <ele>497.4</ele>
        <time>2022-09-03T11:11:38Z</time>
      </trkpt>
      <trkpt lat="43.01128" lon="1.52138">
        <ele>497</ele>
        <time>2022-09-03T11:11:40Z</time>
      </trkpt>
      <trkpt lat="43.01123" lon="1.52112">
        <ele>496.8</ele>
        <time>2022-09-03T11:11:44Z</time>
      </trkpt>
      <trkpt lat="43.01122" lon="1.52106">
        <ele>496.6</ele>
        <time>2022-09-03T11:11:45Z</time>
      </trkpt>
      <trkpt lat="43.01117" lon="1.52057">
        <ele>496.2</ele>
        <time>2022-09-03T11:11:52Z</time>
      </trkpt>
      <trkpt lat="43.01111" lon="1.52022">
        <ele>496</ele>
        <time>2022-09-03T11:11:57Z</time>
      </trkpt>
      <trkpt lat="43.01108" lon="1.52008">
        <ele>495.8</ele>
        <time>2022-09-03T11:11:59Z</time>
      </trkpt>
      <trkpt lat="43.01105" lon="1.51994">
        <ele>495.2</ele>
        <time>2022-09-03T11:12:01Z</time>
      </trkpt>
      <trkpt lat="43.01104" lon="1.51987">
        <ele>495</ele>
        <time>2022-09-03T11:12:02Z</time>
      </trkpt>
      <trkpt lat="43.011" lon="1.51969">
        <ele>495</ele>
        <time>2022-09-03T11:12:05Z</time>
      </trkpt>
      <trkpt lat="43.01091" lon="1.51913">
        <ele>494</ele>
        <time>2022-09-03T11:12:13Z</time>
      </trkpt>
      <trkpt lat="43.01089" lon="1.51883">
        <ele>493.4</ele>
        <time>2022-09-03T11:12:19Z</time>
      </trkpt>
      <trkpt lat="43.01086" lon="1.51848">
        <ele>493.4</ele>
        <time>2022-09-03T11:12:26Z</time>
      </trkpt>
      <trkpt lat="43.01081" lon="1.51806">
        <ele>493.4</ele>
        <time>2022-09-03T11:12:33Z</time>
      </trkpt>
      <trkpt lat="43.0108" lon="1.51794">
        <ele>492.8</ele>
        <time>2022-09-03T11:12:35Z</time>
      </trkpt>
      <trkpt lat="43.01079" lon="1.51762">
        <ele>492.6</ele>
        <time>2022-09-03T11:12:41Z</time>
      </trkpt>
      <trkpt lat="43.01081" lon="1.51733">
        <ele>492</ele>
        <time>2022-09-03T11:12:47Z</time>
      </trkpt>
      <trkpt lat="43.01082" lon="1.51724">
        <ele>491.8</ele>
        <time>2022-09-03T11:12:49Z</time>
      </trkpt>
      <trkpt lat="43.01085" lon="1.51701">
        <ele>491.6</ele>
        <time>2022-09-03T11:12:53Z</time>
      </trkpt>
      <trkpt lat="43.01091" lon="1.51655">
        <ele>490.6</ele>
        <time>2022-09-03T11:13:00Z</time>
      </trkpt>
      <trkpt lat="43.01097" lon="1.51616">
        <ele>490.4</ele>
        <time>2022-09-03T11:13:06Z</time>
      </trkpt>
      <trkpt lat="43.01104" lon="1.51577">
        <ele>489.8</ele>
        <time>2022-09-03T11:13:12Z</time>
      </trkpt>
      <trkpt lat="43.01109" lon="1.5155">
        <ele>489.6</ele>
        <time>2022-09-03T11:13:16Z</time>
      </trkpt>
      <trkpt lat="43.01112" lon="1.5153">
        <ele>489.2</ele>
        <time>2022-09-03T11:13:19Z</time>
      </trkpt>
      <trkpt lat="43.01121" lon="1.51479">
        <ele>488.8</ele>
        <time>2022-09-03T11:13:27Z</time>
      </trkpt>
      <trkpt lat="43.01122" lon="1.51473">
        <ele>488.8</ele>
        <time>2022-09-03T11:13:28Z</time>
      </trkpt>
      <trkpt lat="43.01123" lon="1.51467">
        <ele>488.8</ele>
        <time>2022-09-03T11:13:29Z</time>
      </trkpt>
      <trkpt lat="43.01125" lon="1.51456">
        <ele>488.4</ele>
        <time>2022-09-03T11:13:31Z</time>
      </trkpt>
      <trkpt lat="43.0113" lon="1.51428">
        <ele>488</ele>
        <time>2022-09-03T11:13:36Z</time>
      </trkpt>
      <trkpt lat="43.01134" lon="1.514">
        <ele>487.6</ele>
        <time>2022-09-03T11:13:42Z</time>
      </trkpt>
      <trkpt lat="43.01135" lon="1.51391">
        <ele>487.4</ele>
        <time>2022-09-03T11:13:45Z</time>
      </trkpt>
      <trkpt lat="43.01137" lon="1.51381">
        <ele>487.4</ele>
        <time>2022-09-03T11:13:48Z</time>
      </trkpt>
      <trkpt lat="43.01141" lon="1.51356">
        <ele>487.2</ele>
        <time>2022-09-03T11:13:53Z</time>
      </trkpt>
      <trkpt lat="43.01147" lon="1.51325">
        <ele>486.4</ele>
        <time>2022-09-03T11:13:59Z</time>
      </trkpt>
      <trkpt lat="43.01147" lon="1.51322">
        <ele>486.4</ele>
        <time>2022-09-03T11:14:00Z</time>
      </trkpt>
      <trkpt lat="43.01148" lon="1.51314">
        <ele>485.8</ele>
        <time>2022-09-03T11:14:54Z</time>
      </trkpt>
      <trkpt lat="43.01149" lon="1.51305">
        <ele>485.8</ele>
        <time>2022-09-03T11:14:56Z</time>
      </trkpt>
      <trkpt lat="43.01154" lon="1.51274">
        <ele>485.8</ele>
        <time>2022-09-03T11:15:02Z</time>
      </trkpt>
      <trkpt lat="43.01163" lon="1.5122">
        <ele>485.6</ele>
        <time>2022-09-03T11:15:11Z</time>
      </trkpt>
      <trkpt lat="43.01165" lon="1.51209">
        <ele>485.2</ele>
        <time>2022-09-03T11:15:13Z</time>
      </trkpt>
      <trkpt lat="43.01168" lon="1.51192">
        <ele>485.2</ele>
        <time>2022-09-03T11:15:16Z</time>
      </trkpt>
      <trkpt lat="43.01169" lon="1.5118">
        <ele>485</ele>
        <time>2022-09-03T11:15:18Z</time>
      </trkpt>
      <trkpt lat="43.01172" lon="1.51149">
        <ele>484.8</ele>
        <time>2022-09-03T11:15:23Z</time>
      </trkpt>
      <trkpt lat="43.01173" lon="1.51136">
        <ele>484.6</ele>
        <time>2022-09-03T11:15:25Z</time>
      </trkpt>
      <trkpt lat="43.01175" lon="1.51099">
        <ele>484.2</ele>
        <time>2022-09-03T11:15:31Z</time>
      </trkpt>
      <trkpt lat="43.01175" lon="1.51093">
        <ele>483.8</ele>
        <time>2022-09-03T11:15:32Z</time>
      </trkpt>
      <trkpt lat="43.01173" lon="1.51039">
        <ele>483.2</ele>
        <time>2022-09-03T11:15:40Z</time>
      </trkpt>
      <trkpt lat="43.01171" lon="1.51006">
        <ele>483</ele>
        <time>2022-09-03T11:15:45Z</time>
      </trkpt>
      <trkpt lat="43.0117" lon="1.50993">
        <ele>482.8</ele>
        <time>2022-09-03T11:15:47Z</time>
      </trkpt>
      <trkpt lat="43.01161" lon="1.50936">
        <ele>482</ele>
        <time>2022-09-03T11:15:56Z</time>
      </trkpt>
      <trkpt lat="43.0116" lon="1.5093">
        <ele>482</ele>
        <time>2022-09-03T11:15:57Z</time>
      </trkpt>
      <trkpt lat="43.01155" lon="1.50907">
        <ele>481.4</ele>
        <time>2022-09-03T11:16:02Z</time>
      </trkpt>
      <trkpt lat="43.01153" lon="1.50899">
        <ele>480.8</ele>
        <time>2022-09-03T11:16:05Z</time>
      </trkpt>
      <trkpt lat="43.0115" lon="1.5089">
        <ele>480.4</ele>
        <time>2022-09-03T11:16:19Z</time>
      </trkpt>
      <trkpt lat="43.0115" lon="1.50884">
        <ele>480.4</ele>
        <time>2022-09-03T11:16:22Z</time>
      </trkpt>
      <trkpt lat="43.01123" lon="1.50791">
        <ele>479.8</ele>
        <time>2022-09-03T11:22:27Z</time>
      </trkpt>
      <trkpt lat="43.01122" lon="1.50788">
        <ele>479.6</ele>
        <time>2022-09-03T11:22:28Z</time>
      </trkpt>
      <trkpt lat="43.01118" lon="1.50774">
        <ele>481.2</ele>
        <time>2022-09-03T12:07:28Z</time>
      </trkpt>
      <trkpt lat="43.01112" lon="1.50753">
        <ele>481.2</ele>
        <time>2022-09-03T12:07:34Z</time>
      </trkpt>
      <trkpt lat="43.01103" lon="1.50727">
        <ele>481</ele>
        <time>2022-09-03T12:07:40Z</time>
      </trkpt>
      <trkpt lat="43.01092" lon="1.50694">
        <ele>480.8</ele>
        <time>2022-09-03T12:07:47Z</time>
      </trkpt>
      <trkpt lat="43.01079" lon="1.50651">
        <ele>480.4</ele>
        <time>2022-09-03T12:07:55Z</time>
      </trkpt>
      <trkpt lat="43.01073" lon="1.50635">
        <ele>480.2</ele>
        <time>2022-09-03T12:07:58Z</time>
      </trkpt>
      <trkpt lat="43.01068" lon="1.50618">
        <ele>480.2</ele>
        <time>2022-09-03T12:08:01Z</time>
      </trkpt>
      <trkpt lat="43.01057" lon="1.50583">
        <ele>479.8</ele>
        <time>2022-09-03T12:08:07Z</time>
      </trkpt>
      <trkpt lat="43.01052" lon="1.50565">
        <ele>479.2</ele>
        <time>2022-09-03T12:08:10Z</time>
      </trkpt>
      <trkpt lat="43.0105" lon="1.50559">
        <ele>479</ele>
        <time>2022-09-03T12:08:11Z</time>
      </trkpt>
      <trkpt lat="43.01047" lon="1.50547">
        <ele>479</ele>
        <time>2022-09-03T12:08:13Z</time>
      </trkpt>
      <trkpt lat="43.01044" lon="1.50533">
        <ele>478.8</ele>
        <time>2022-09-03T12:08:15Z</time>
      </trkpt>
      <trkpt lat="43.01039" lon="1.50506">
        <ele>478.6</ele>
        <time>2022-09-03T12:08:19Z</time>
      </trkpt>
      <trkpt lat="43.01033" lon="1.50467">
        <ele>478.4</ele>
        <time>2022-09-03T12:08:25Z</time>
      </trkpt>
      <trkpt lat="43.01032" lon="1.50455">
        <ele>478</ele>
        <time>2022-09-03T12:08:27Z</time>
      </trkpt>
      <trkpt lat="43.01028" lon="1.50431">
        <ele>477.8</ele>
        <time>2022-09-03T12:08:31Z</time>
      </trkpt>
      <trkpt lat="43.01026" lon="1.50376">
        <ele>477.6</ele>
        <time>2022-09-03T12:08:39Z</time>
      </trkpt>
      <trkpt lat="43.01024" lon="1.50329">
        <ele>477.6</ele>
        <time>2022-09-03T12:08:46Z</time>
      </trkpt>
      <trkpt lat="43.01023" lon="1.5027">
        <ele>477.6</ele>
        <time>2022-09-03T12:08:55Z</time>
      </trkpt>
      <trkpt lat="43.01021" lon="1.50192">
        <ele>477.4</ele>
        <time>2022-09-03T12:09:07Z</time>
      </trkpt>
      <trkpt lat="43.0102" lon="1.50143">
        <ele>477.4</ele>
        <time>2022-09-03T12:09:15Z</time>
      </trkpt>
      <trkpt lat="43.01021" lon="1.50102">
        <ele>477.4</ele>
        <time>2022-09-03T12:09:23Z</time>
      </trkpt>
      <trkpt lat="43.01021" lon="1.50081">
        <ele>477.8</ele>
        <time>2022-09-03T12:09:28Z</time>
      </trkpt>
      <trkpt lat="43.01015" lon="1.50064">
        <ele>477.6</ele>
        <time>2022-09-03T12:09:33Z</time>
      </trkpt>
      <trkpt lat="43.01015" lon="1.50037">
        <ele>477.2</ele>
        <time>2022-09-03T12:09:39Z</time>
      </trkpt>
      <trkpt lat="43.01014" lon="1.50024">
        <ele>477</ele>
        <time>2022-09-03T12:09:41Z</time>
      </trkpt>
      <trkpt lat="43.01012" lon="1.50012">
        <ele>477.2</ele>
        <time>2022-09-03T12:09:43Z</time>
      </trkpt>
      <trkpt lat="43.01011" lon="1.50005">
        <ele>477.2</ele>
        <time>2022-09-03T12:09:44Z</time>
      </trkpt>
      <trkpt lat="43.01009" lon="1.49999">
        <ele>477</ele>
        <time>2022-09-03T12:09:45Z</time>
      </trkpt>
      <trkpt lat="43.01" lon="1.49952">
        <ele>476.4</ele>
        <time>2022-09-03T12:09:52Z</time>
      </trkpt>
      <trkpt lat="43.00989" lon="1.49905">
        <ele>475.8</ele>
        <time>2022-09-03T12:09:59Z</time>
      </trkpt>
      <trkpt lat="43.00987" lon="1.49898">
        <ele>475.6</ele>
        <time>2022-09-03T12:10:00Z</time>
      </trkpt>
      <trkpt lat="43.00983" lon="1.49884">
        <ele>475.6</ele>
        <time>2022-09-03T12:10:02Z</time>
      </trkpt>
      <trkpt lat="43.00969" lon="1.49833">
        <ele>475.2</ele>
        <time>2022-09-03T12:10:09Z</time>
      </trkpt>
      <trkpt lat="43.00963" lon="1.49806">
        <ele>474.6</ele>
        <time>2022-09-03T12:10:13Z</time>
      </trkpt>
      <trkpt lat="43.00957" lon="1.49786">
        <ele>474.4</ele>
        <time>2022-09-03T12:10:16Z</time>
      </trkpt>
      <trkpt lat="43.00943" lon="1.49727">
        <ele>474</ele>
        <time>2022-09-03T12:10:24Z</time>
      </trkpt>
      <trkpt lat="43.00939" lon="1.49705">
        <ele>473.6</ele>
        <time>2022-09-03T12:10:27Z</time>
      </trkpt>
      <trkpt lat="43.00936" lon="1.49681">
        <ele>473.2</ele>
        <time>2022-09-03T12:10:30Z</time>
      </trkpt>
      <trkpt lat="43.00931" lon="1.49626">
        <ele>472.4</ele>
        <time>2022-09-03T12:10:37Z</time>
      </trkpt>
      <trkpt lat="43.0093" lon="1.49589">
        <ele>472</ele>
        <time>2022-09-03T12:10:42Z</time>
      </trkpt>
      <trkpt lat="43.00929" lon="1.49574">
        <ele>471.8</ele>
        <time>2022-09-03T12:10:44Z</time>
      </trkpt>
      <trkpt lat="43.0093" lon="1.4952">
        <ele>471.4</ele>
        <time>2022-09-03T12:10:51Z</time>
      </trkpt>
      <trkpt lat="43.00934" lon="1.49457">
        <ele>470.4</ele>
        <time>2022-09-03T12:10:59Z</time>
      </trkpt>
      <trkpt lat="43.00935" lon="1.49442">
        <ele>470.4</ele>
        <time>2022-09-03T12:11:01Z</time>
      </trkpt>
      <trkpt lat="43.00938" lon="1.49375">
        <ele>470</ele>
        <time>2022-09-03T12:11:10Z</time>
      </trkpt>
      <trkpt lat="43.0094" lon="1.49346">
        <ele>469.4</ele>
        <time>2022-09-03T12:11:14Z</time>
      </trkpt>
      <trkpt lat="43.00943" lon="1.4931">
        <ele>469</ele>
        <time>2022-09-03T12:11:19Z</time>
      </trkpt>
      <trkpt lat="43.00946" lon="1.49252">
        <ele>468.6</ele>
        <time>2022-09-03T12:11:26Z</time>
      </trkpt>
      <trkpt lat="43.00948" lon="1.49217">
        <ele>468.2</ele>
        <time>2022-09-03T12:11:30Z</time>
      </trkpt>
      <trkpt lat="43.00951" lon="1.49192">
        <ele>468</ele>
        <time>2022-09-03T12:11:33Z</time>
      </trkpt>
      <trkpt lat="43.00954" lon="1.49146">
        <ele>467.2</ele>
        <time>2022-09-03T12:11:39Z</time>
      </trkpt>
      <trkpt lat="43.00954" lon="1.49138">
        <ele>467.2</ele>
        <time>2022-09-03T12:11:40Z</time>
      </trkpt>
      <trkpt lat="43.00958" lon="1.49081">
        <ele>466.4</ele>
        <time>2022-09-03T12:11:47Z</time>
      </trkpt>
      <trkpt lat="43.00958" lon="1.49065">
        <ele>466.2</ele>
        <time>2022-09-03T12:11:49Z</time>
      </trkpt>
      <trkpt lat="43.00962" lon="1.49007">
        <ele>465.4</ele>
        <time>2022-09-03T12:11:56Z</time>
      </trkpt>
      <trkpt lat="43.00963" lon="1.48991">
        <ele>465</ele>
        <time>2022-09-03T12:11:58Z</time>
      </trkpt>
      <trkpt lat="43.00966" lon="1.48938">
        <ele>464.6</ele>
        <time>2022-09-03T12:12:05Z</time>
      </trkpt>
      <trkpt lat="43.00974" lon="1.48874">
        <ele>464.2</ele>
        <time>2022-09-03T12:12:13Z</time>
      </trkpt>
      <trkpt lat="43.00977" lon="1.48852">
        <ele>464</ele>
        <time>2022-09-03T12:12:16Z</time>
      </trkpt>
      <trkpt lat="43.00986" lon="1.48807">
        <ele>463.2</ele>
        <time>2022-09-03T12:12:22Z</time>
      </trkpt>
      <trkpt lat="43.00996" lon="1.48762">
        <ele>462.8</ele>
        <time>2022-09-03T12:12:28Z</time>
      </trkpt>
      <trkpt lat="43.00997" lon="1.48754">
        <ele>462.8</ele>
        <time>2022-09-03T12:12:29Z</time>
      </trkpt>
      <trkpt lat="43.01007" lon="1.48715">
        <ele>462.4</ele>
        <time>2022-09-03T12:12:35Z</time>
      </trkpt>
      <trkpt lat="43.01012" lon="1.48697">
        <ele>461.8</ele>
        <time>2022-09-03T12:12:38Z</time>
      </trkpt>
      <trkpt lat="43.01015" lon="1.48686">
        <ele>461.6</ele>
        <time>2022-09-03T12:12:40Z</time>
      </trkpt>
      <trkpt lat="43.01016" lon="1.48679">
        <ele>461.4</ele>
        <time>2022-09-03T12:12:41Z</time>
      </trkpt>
      <trkpt lat="43.0102" lon="1.48667">
        <ele>461.2</ele>
        <time>2022-09-03T12:12:43Z</time>
      </trkpt>
      <trkpt lat="43.01026" lon="1.48637">
        <ele>461.4</ele>
        <time>2022-09-03T12:12:47Z</time>
      </trkpt>
      <trkpt lat="43.01031" lon="1.48601">
        <ele>460.8</ele>
        <time>2022-09-03T12:12:52Z</time>
      </trkpt>
      <trkpt lat="43.01041" lon="1.48545">
        <ele>460</ele>
        <time>2022-09-03T12:13:00Z</time>
      </trkpt>
      <trkpt lat="43.01054" lon="1.48486">
        <ele>459.6</ele>
        <time>2022-09-03T12:13:08Z</time>
      </trkpt>
      <trkpt lat="43.01073" lon="1.48434">
        <ele>459</ele>
        <time>2022-09-03T12:13:15Z</time>
      </trkpt>
      <trkpt lat="43.01094" lon="1.4839">
        <ele>459</ele>
        <time>2022-09-03T12:13:21Z</time>
      </trkpt>
      <trkpt lat="43.01106" lon="1.48371">
        <ele>458.4</ele>
        <time>2022-09-03T12:13:24Z</time>
      </trkpt>
      <trkpt lat="43.01115" lon="1.48358">
        <ele>458</ele>
        <time>2022-09-03T12:13:26Z</time>
      </trkpt>
      <trkpt lat="43.01141" lon="1.48322">
        <ele>458</ele>
        <time>2022-09-03T12:13:32Z</time>
      </trkpt>
      <trkpt lat="43.01165" lon="1.48293">
        <ele>457.2</ele>
        <time>2022-09-03T12:13:37Z</time>
      </trkpt>
      <trkpt lat="43.01175" lon="1.48282">
        <ele>457</ele>
        <time>2022-09-03T12:13:39Z</time>
      </trkpt>
      <trkpt lat="43.01205" lon="1.48242">
        <ele>456.6</ele>
        <time>2022-09-03T12:13:46Z</time>
      </trkpt>
      <trkpt lat="43.0122" lon="1.48218">
        <ele>456.2</ele>
        <time>2022-09-03T12:13:50Z</time>
      </trkpt>
      <trkpt lat="43.0123" lon="1.48201">
        <ele>455.8</ele>
        <time>2022-09-03T12:13:53Z</time>
      </trkpt>
      <trkpt lat="43.01249" lon="1.48157">
        <ele>455.4</ele>
        <time>2022-09-03T12:14:00Z</time>
      </trkpt>
      <trkpt lat="43.01254" lon="1.48144">
        <ele>455.2</ele>
        <time>2022-09-03T12:14:02Z</time>
      </trkpt>
      <trkpt lat="43.01261" lon="1.48123">
        <ele>455</ele>
        <time>2022-09-03T12:14:05Z</time>
      </trkpt>
      <trkpt lat="43.01264" lon="1.48115">
        <ele>455</ele>
        <time>2022-09-03T12:14:06Z</time>
      </trkpt>
      <trkpt lat="43.01273" lon="1.48067">
        <ele>454.8</ele>
        <time>2022-09-03T12:14:12Z</time>
      </trkpt>
      <trkpt lat="43.01277" lon="1.48034">
        <ele>454.2</ele>
        <time>2022-09-03T12:14:16Z</time>
      </trkpt>
      <trkpt lat="43.01279" lon="1.47991">
        <ele>454.2</ele>
        <time>2022-09-03T12:14:21Z</time>
      </trkpt>
      <trkpt lat="43.01274" lon="1.47913">
        <ele>453.2</ele>
        <time>2022-09-03T12:14:30Z</time>
      </trkpt>
      <trkpt lat="43.01274" lon="1.47905">
        <ele>453.2</ele>
        <time>2022-09-03T12:14:31Z</time>
      </trkpt>
      <trkpt lat="43.01267" lon="1.47825">
        <ele>452.4</ele>
        <time>2022-09-03T12:14:40Z</time>
      </trkpt>
      <trkpt lat="43.01266" lon="1.47809">
        <ele>452</ele>
        <time>2022-09-03T12:14:42Z</time>
      </trkpt>
      <trkpt lat="43.0126" lon="1.47762">
        <ele>451.4</ele>
        <time>2022-09-03T12:14:48Z</time>
      </trkpt>
      <trkpt lat="43.01248" lon="1.477">
        <ele>450.8</ele>
        <time>2022-09-03T12:14:56Z</time>
      </trkpt>
      <trkpt lat="43.01232" lon="1.47652">
        <ele>450.2</ele>
        <time>2022-09-03T12:15:02Z</time>
      </trkpt>
      <trkpt lat="43.01211" lon="1.47605">
        <ele>450</ele>
        <time>2022-09-03T12:15:09Z</time>
      </trkpt>
      <trkpt lat="43.01208" lon="1.47598">
        <ele>449.8</ele>
        <time>2022-09-03T12:15:10Z</time>
      </trkpt>
      <trkpt lat="43.01197" lon="1.47579">
        <ele>449.4</ele>
        <time>2022-09-03T12:15:14Z</time>
      </trkpt>
      <trkpt lat="43.01173" lon="1.47545">
        <ele>449</ele>
        <time>2022-09-03T12:15:21Z</time>
      </trkpt>
      <trkpt lat="43.01169" lon="1.47539">
        <ele>448.8</ele>
        <time>2022-09-03T12:15:22Z</time>
      </trkpt>
      <trkpt lat="43.01165" lon="1.47534">
        <ele>448.6</ele>
        <time>2022-09-03T12:15:23Z</time>
      </trkpt>
      <trkpt lat="43.01148" lon="1.47514">
        <ele>448.2</ele>
        <time>2022-09-03T12:15:27Z</time>
      </trkpt>
      <trkpt lat="43.01116" lon="1.47477">
        <ele>447.6</ele>
        <time>2022-09-03T12:15:34Z</time>
      </trkpt>
      <trkpt lat="43.01084" lon="1.47438">
        <ele>446.8</ele>
        <time>2022-09-03T12:15:41Z</time>
      </trkpt>
      <trkpt lat="43.01074" lon="1.47427">
        <ele>446.6</ele>
        <time>2022-09-03T12:15:43Z</time>
      </trkpt>
      <trkpt lat="43.01052" lon="1.474">
        <ele>446.4</ele>
        <time>2022-09-03T12:15:48Z</time>
      </trkpt>
      <trkpt lat="43.01021" lon="1.47352">
        <ele>445.8</ele>
        <time>2022-09-03T12:15:56Z</time>
      </trkpt>
      <trkpt lat="43.01015" lon="1.47339">
        <ele>445.6</ele>
        <time>2022-09-03T12:15:58Z</time>
      </trkpt>
      <trkpt lat="43.00998" lon="1.47295">
        <ele>445.4</ele>
        <time>2022-09-03T12:16:04Z</time>
      </trkpt>
      <trkpt lat="43.00982" lon="1.47233">
        <ele>445</ele>
        <time>2022-09-03T12:16:12Z</time>
      </trkpt>
      <trkpt lat="43.00978" lon="1.47208">
        <ele>444.6</ele>
        <time>2022-09-03T12:16:15Z</time>
      </trkpt>
      <trkpt lat="43.00975" lon="1.4717">
        <ele>443.8</ele>
        <time>2022-09-03T12:16:20Z</time>
      </trkpt>
      <trkpt lat="43.00974" lon="1.4714">
        <ele>443.4</ele>
        <time>2022-09-03T12:16:24Z</time>
      </trkpt>
      <trkpt lat="43.00975" lon="1.4711">
        <ele>443.4</ele>
        <time>2022-09-03T12:16:28Z</time>
      </trkpt>
      <trkpt lat="43.00981" lon="1.47064">
        <ele>443</ele>
        <time>2022-09-03T12:16:34Z</time>
      </trkpt>
      <trkpt lat="43.00983" lon="1.47056">
        <ele>442.8</ele>
        <time>2022-09-03T12:16:35Z</time>
      </trkpt>
      <trkpt lat="43.0099" lon="1.47018">
        <ele>442.6</ele>
        <time>2022-09-03T12:16:40Z</time>
      </trkpt>
      <trkpt lat="43.00992" lon="1.47003">
        <ele>442.4</ele>
        <time>2022-09-03T12:16:42Z</time>
      </trkpt>
      <trkpt lat="43.00997" lon="1.46974">
        <ele>441.8</ele>
        <time>2022-09-03T12:16:46Z</time>
      </trkpt>
      <trkpt lat="43.01006" lon="1.46929">
        <ele>441.4</ele>
        <time>2022-09-03T12:16:52Z</time>
      </trkpt>
      <trkpt lat="43.01009" lon="1.46904">
        <ele>441.2</ele>
        <time>2022-09-03T12:16:55Z</time>
      </trkpt>
      <trkpt lat="43.01015" lon="1.46866">
        <ele>440.6</ele>
        <time>2022-09-03T12:17:00Z</time>
      </trkpt>
      <trkpt lat="43.01018" lon="1.46852">
        <ele>440.2</ele>
        <time>2022-09-03T12:17:02Z</time>
      </trkpt>
      <trkpt lat="43.01026" lon="1.46806">
        <ele>439.6</ele>
        <time>2022-09-03T12:17:08Z</time>
      </trkpt>
      <trkpt lat="43.01038" lon="1.4675">
        <ele>439.2</ele>
        <time>2022-09-03T12:17:15Z</time>
      </trkpt>
      <trkpt lat="43.01041" lon="1.46743">
        <ele>439</ele>
        <time>2022-09-03T12:17:16Z</time>
      </trkpt>
      <trkpt lat="43.01043" lon="1.46736">
        <ele>439</ele>
        <time>2022-09-03T12:17:17Z</time>
      </trkpt>
      <trkpt lat="43.01056" lon="1.46694">
        <ele>438.6</ele>
        <time>2022-09-03T12:17:23Z</time>
      </trkpt>
      <trkpt lat="43.01065" lon="1.46668">
        <ele>438.2</ele>
        <time>2022-09-03T12:17:27Z</time>
      </trkpt>
      <trkpt lat="43.01071" lon="1.46649">
        <ele>437.8</ele>
        <time>2022-09-03T12:17:30Z</time>
      </trkpt>
      <trkpt lat="43.01086" lon="1.46607">
        <ele>437.2</ele>
        <time>2022-09-03T12:17:37Z</time>
      </trkpt>
      <trkpt lat="43.01088" lon="1.466">
        <ele>437</ele>
        <time>2022-09-03T12:17:38Z</time>
      </trkpt>
      <trkpt lat="43.01103" lon="1.46556">
        <ele>436.4</ele>
        <time>2022-09-03T12:17:45Z</time>
      </trkpt>
      <trkpt lat="43.01114" lon="1.46513">
        <ele>436</ele>
        <time>2022-09-03T12:17:51Z</time>
      </trkpt>
      <trkpt lat="43.01123" lon="1.4646">
        <ele>435.8</ele>
        <time>2022-09-03T12:17:58Z</time>
      </trkpt>
      <trkpt lat="43.01129" lon="1.46401">
        <ele>435</ele>
        <time>2022-09-03T12:18:05Z</time>
      </trkpt>
      <trkpt lat="43.01131" lon="1.46344">
        <ele>434.4</ele>
        <time>2022-09-03T12:18:12Z</time>
      </trkpt>
      <trkpt lat="43.01131" lon="1.46326">
        <ele>433.8</ele>
        <time>2022-09-03T12:18:14Z</time>
      </trkpt>
      <trkpt lat="43.01132" lon="1.46299">
        <ele>433.8</ele>
        <time>2022-09-03T12:18:17Z</time>
      </trkpt>
      <trkpt lat="43.01131" lon="1.46291">
        <ele>433.8</ele>
        <time>2022-09-03T12:18:18Z</time>
      </trkpt>
      <trkpt lat="43.01131" lon="1.46253">
        <ele>433.2</ele>
        <time>2022-09-03T12:18:22Z</time>
      </trkpt>
      <trkpt lat="43.01133" lon="1.46206">
        <ele>432.8</ele>
        <time>2022-09-03T12:18:27Z</time>
      </trkpt>
      <trkpt lat="43.01133" lon="1.46197">
        <ele>432.6</ele>
        <time>2022-09-03T12:18:28Z</time>
      </trkpt>
      <trkpt lat="43.01132" lon="1.46115">
        <ele>431.6</ele>
        <time>2022-09-03T12:18:36Z</time>
      </trkpt>
      <trkpt lat="43.01131" lon="1.46105">
        <ele>431.8</ele>
        <time>2022-09-03T12:18:37Z</time>
      </trkpt>
      <trkpt lat="43.01131" lon="1.46096">
        <ele>432</ele>
        <time>2022-09-03T12:18:38Z</time>
      </trkpt>
      <trkpt lat="43.01129" lon="1.46018">
        <ele>430.6</ele>
        <time>2022-09-03T12:18:47Z</time>
      </trkpt>
      <trkpt lat="43.0113" lon="1.45963">
        <ele>429.8</ele>
        <time>2022-09-03T12:18:54Z</time>
      </trkpt>
      <trkpt lat="43.01129" lon="1.45947">
        <ele>429.6</ele>
        <time>2022-09-03T12:18:56Z</time>
      </trkpt>
      <trkpt lat="43.01128" lon="1.45918">
        <ele>429.2</ele>
        <time>2022-09-03T12:19:00Z</time>
      </trkpt>
      <trkpt lat="43.01128" lon="1.4591">
        <ele>429</ele>
        <time>2022-09-03T12:19:01Z</time>
      </trkpt>
      <trkpt lat="43.01127" lon="1.45867">
        <ele>428.6</ele>
        <time>2022-09-03T12:19:07Z</time>
      </trkpt>
      <trkpt lat="43.01128" lon="1.45861">
        <ele>428.6</ele>
        <time>2022-09-03T12:19:08Z</time>
      </trkpt>
      <trkpt lat="43.01128" lon="1.45842">
        <ele>428.4</ele>
        <time>2022-09-03T12:19:11Z</time>
      </trkpt>
      <trkpt lat="43.01129" lon="1.4583">
        <ele>428.4</ele>
        <time>2022-09-03T12:19:13Z</time>
      </trkpt>
      <trkpt lat="43.01131" lon="1.45811">
        <ele>428.2</ele>
        <time>2022-09-03T12:19:16Z</time>
      </trkpt>
      <trkpt lat="43.01133" lon="1.4579">
        <ele>428</ele>
        <time>2022-09-03T12:19:20Z</time>
      </trkpt>
      <trkpt lat="43.01137" lon="1.45762">
        <ele>427.8</ele>
        <time>2022-09-03T12:19:26Z</time>
      </trkpt>
      <trkpt lat="43.01139" lon="1.4575">
        <ele>427.6</ele>
        <time>2022-09-03T12:19:29Z</time>
      </trkpt>
      <trkpt lat="43.0114" lon="1.4574">
        <ele>427.4</ele>
        <time>2022-09-03T12:19:32Z</time>
      </trkpt>
      <trkpt lat="43.01167" lon="1.45659">
        <ele>426.6</ele>
        <time>2022-09-03T12:19:45Z</time>
      </trkpt>
      <trkpt lat="43.01168" lon="1.45652">
        <ele>426.6</ele>
        <time>2022-09-03T12:19:48Z</time>
      </trkpt>
      <trkpt lat="43.01168" lon="1.45651">
        <ele>426.4</ele>
        <time>2022-09-03T12:19:49Z</time>
      </trkpt>
      <trkpt lat="43.01174" lon="1.45637">
        <ele>426.6</ele>
        <time>2022-09-03T12:22:31Z</time>
      </trkpt>
      <trkpt lat="43.01175" lon="1.45636">
        <ele>426.6</ele>
        <time>2022-09-03T12:22:32Z</time>
      </trkpt>
      <trkpt lat="43.01178" lon="1.4563">
        <ele>426.4</ele>
        <time>2022-09-03T12:22:35Z</time>
      </trkpt>
      <trkpt lat="43.01183" lon="1.45619">
        <ele>426.4</ele>
        <time>2022-09-03T12:22:39Z</time>
      </trkpt>
      <trkpt lat="43.01196" lon="1.45597">
        <ele>426.2</ele>
        <time>2022-09-03T12:22:45Z</time>
      </trkpt>
      <trkpt lat="43.01221" lon="1.45564">
        <ele>425.8</ele>
        <time>2022-09-03T12:22:53Z</time>
      </trkpt>
      <trkpt lat="43.01244" lon="1.45536">
        <ele>425.4</ele>
        <time>2022-09-03T12:22:59Z</time>
      </trkpt>
      <trkpt lat="43.01248" lon="1.4553">
        <ele>425.4</ele>
        <time>2022-09-03T12:23:00Z</time>
      </trkpt>
      <trkpt lat="43.01268" lon="1.45503">
        <ele>424.4</ele>
        <time>2022-09-03T12:23:06Z</time>
      </trkpt>
      <trkpt lat="43.0129" lon="1.45474">
        <ele>424.4</ele>
        <time>2022-09-03T12:23:12Z</time>
      </trkpt>
      <trkpt lat="43.01293" lon="1.4547">
        <ele>424.4</ele>
        <time>2022-09-03T12:23:13Z</time>
      </trkpt>
      <trkpt lat="43.013" lon="1.4546">
        <ele>424.4</ele>
        <time>2022-09-03T12:23:15Z</time>
      </trkpt>
      <trkpt lat="43.01303" lon="1.45455">
        <ele>424.4</ele>
        <time>2022-09-03T12:23:16Z</time>
      </trkpt>
      <trkpt lat="43.01315" lon="1.45432">
        <ele>424</ele>
        <time>2022-09-03T12:23:20Z</time>
      </trkpt>
      <trkpt lat="43.0133" lon="1.45395">
        <ele>423.2</ele>
        <time>2022-09-03T12:23:26Z</time>
      </trkpt>
      <trkpt lat="43.01343" lon="1.45359">
        <ele>422.8</ele>
        <time>2022-09-03T12:23:32Z</time>
      </trkpt>
      <trkpt lat="43.01354" lon="1.4532">
        <ele>422.6</ele>
        <time>2022-09-03T12:23:38Z</time>
      </trkpt>
      <trkpt lat="43.01355" lon="1.45313">
        <ele>422.8</ele>
        <time>2022-09-03T12:23:39Z</time>
      </trkpt>
      <trkpt lat="43.0136" lon="1.45291">
        <ele>422.6</ele>
        <time>2022-09-03T12:23:42Z</time>
      </trkpt>
      <trkpt lat="43.01362" lon="1.45274">
        <ele>422.6</ele>
        <time>2022-09-03T12:23:44Z</time>
      </trkpt>
      <trkpt lat="43.01367" lon="1.45219">
        <ele>422.2</ele>
        <time>2022-09-03T12:23:50Z</time>
      </trkpt>
      <trkpt lat="43.01367" lon="1.45183">
        <ele>422</ele>
        <time>2022-09-03T12:23:54Z</time>
      </trkpt>
      <trkpt lat="43.01364" lon="1.45139">
        <ele>421.6</ele>
        <time>2022-09-03T12:23:59Z</time>
      </trkpt>
      <trkpt lat="43.01359" lon="1.45095">
        <ele>421</ele>
        <time>2022-09-03T12:24:04Z</time>
      </trkpt>
      <trkpt lat="43.01352" lon="1.45023">
        <ele>420</ele>
        <time>2022-09-03T12:24:12Z</time>
      </trkpt>
      <trkpt lat="43.01351" lon="1.45015">
        <ele>420</ele>
        <time>2022-09-03T12:24:13Z</time>
      </trkpt>
      <trkpt lat="43.01347" lon="1.44966">
        <ele>419.4</ele>
        <time>2022-09-03T12:24:19Z</time>
      </trkpt>
      <trkpt lat="43.01342" lon="1.44925">
        <ele>419</ele>
        <time>2022-09-03T12:24:24Z</time>
      </trkpt>
      <trkpt lat="43.01339" lon="1.44909">
        <ele>418.8</ele>
        <time>2022-09-03T12:24:26Z</time>
      </trkpt>
      <trkpt lat="43.01334" lon="1.44848">
        <ele>418</ele>
        <time>2022-09-03T12:24:33Z</time>
      </trkpt>
      <trkpt lat="43.01334" lon="1.44839">
        <ele>417.8</ele>
        <time>2022-09-03T12:24:34Z</time>
      </trkpt>
      <trkpt lat="43.01332" lon="1.44813">
        <ele>417.6</ele>
        <time>2022-09-03T12:24:37Z</time>
      </trkpt>
      <trkpt lat="43.01329" lon="1.44786">
        <ele>417.2</ele>
        <time>2022-09-03T12:24:40Z</time>
      </trkpt>
      <trkpt lat="43.01325" lon="1.44741">
        <ele>416.8</ele>
        <time>2022-09-03T12:24:45Z</time>
      </trkpt>
      <trkpt lat="43.01322" lon="1.44707">
        <ele>416.2</ele>
        <time>2022-09-03T12:24:49Z</time>
      </trkpt>
      <trkpt lat="43.01318" lon="1.44663">
        <ele>415.8</ele>
        <time>2022-09-03T12:24:55Z</time>
      </trkpt>
      <trkpt lat="43.01313" lon="1.44606">
        <ele>415</ele>
        <time>2022-09-03T12:25:03Z</time>
      </trkpt>
      <trkpt lat="43.01313" lon="1.446">
        <ele>415</ele>
        <time>2022-09-03T12:25:04Z</time>
      </trkpt>
      <trkpt lat="43.01312" lon="1.44593">
        <ele>415</ele>
        <time>2022-09-03T12:25:05Z</time>
      </trkpt>
      <trkpt lat="43.01308" lon="1.44559">
        <ele>414.8</ele>
        <time>2022-09-03T12:25:10Z</time>
      </trkpt>
      <trkpt lat="43.01307" lon="1.44551">
        <ele>414.6</ele>
        <time>2022-09-03T12:25:11Z</time>
      </trkpt>
      <trkpt lat="43.01304" lon="1.44513">
        <ele>414.2</ele>
        <time>2022-09-03T12:25:16Z</time>
      </trkpt>
      <trkpt lat="43.01299" lon="1.44462">
        <ele>413.8</ele>
        <time>2022-09-03T12:25:22Z</time>
      </trkpt>
      <trkpt lat="43.01297" lon="1.44435">
        <ele>413.6</ele>
        <time>2022-09-03T12:25:25Z</time>
      </trkpt>
      <trkpt lat="43.01292" lon="1.44374">
        <ele>412.8</ele>
        <time>2022-09-03T12:25:32Z</time>
      </trkpt>
      <trkpt lat="43.01292" lon="1.44365">
        <ele>412.6</ele>
        <time>2022-09-03T12:25:33Z</time>
      </trkpt>
      <trkpt lat="43.0129" lon="1.44305">
        <ele>412</ele>
        <time>2022-09-03T12:25:40Z</time>
      </trkpt>
      <trkpt lat="43.01292" lon="1.44259">
        <ele>412</ele>
        <time>2022-09-03T12:25:45Z</time>
      </trkpt>
      <trkpt lat="43.01293" lon="1.4425">
        <ele>411.8</ele>
        <time>2022-09-03T12:25:46Z</time>
      </trkpt>
      <trkpt lat="43.01296" lon="1.44222">
        <ele>411.6</ele>
        <time>2022-09-03T12:25:49Z</time>
      </trkpt>
      <trkpt lat="43.01303" lon="1.4417">
        <ele>410.8</ele>
        <time>2022-09-03T12:25:55Z</time>
      </trkpt>
      <trkpt lat="43.01305" lon="1.44153">
        <ele>410.6</ele>
        <time>2022-09-03T12:25:57Z</time>
      </trkpt>
      <trkpt lat="43.01313" lon="1.44105">
        <ele>409.8</ele>
        <time>2022-09-03T12:26:03Z</time>
      </trkpt>
      <trkpt lat="43.0132" lon="1.44064">
        <ele>409.4</ele>
        <time>2022-09-03T12:26:08Z</time>
      </trkpt>
      <trkpt lat="43.01324" lon="1.44038">
        <ele>409.4</ele>
        <time>2022-09-03T12:26:11Z</time>
      </trkpt>
      <trkpt lat="43.0133" lon="1.43988">
        <ele>408.8</ele>
        <time>2022-09-03T12:26:17Z</time>
      </trkpt>
      <trkpt lat="43.01333" lon="1.43951">
        <ele>408.4</ele>
        <time>2022-09-03T12:26:22Z</time>
      </trkpt>
      <trkpt lat="43.01335" lon="1.43938">
        <ele>408.2</ele>
        <time>2022-09-03T12:26:24Z</time>
      </trkpt>
      <trkpt lat="43.01335" lon="1.4392">
        <ele>407.8</ele>
        <time>2022-09-03T12:26:27Z</time>
      </trkpt>
      <trkpt lat="43.01333" lon="1.4391">
        <ele>407.8</ele>
        <time>2022-09-03T12:26:29Z</time>
      </trkpt>
      <trkpt lat="43.01333" lon="1.43891">
        <ele>407.6</ele>
        <time>2022-09-03T12:26:32Z</time>
      </trkpt>
      <trkpt lat="43.01335" lon="1.43884">
        <ele>407.4</ele>
        <time>2022-09-03T12:26:33Z</time>
      </trkpt>
      <trkpt lat="43.01337" lon="1.43869">
        <ele>407.2</ele>
        <time>2022-09-03T12:26:35Z</time>
      </trkpt>
      <trkpt lat="43.01338" lon="1.43862">
        <ele>407.2</ele>
        <time>2022-09-03T12:26:36Z</time>
      </trkpt>
      <trkpt lat="43.01339" lon="1.43842">
        <ele>407.4</ele>
        <time>2022-09-03T12:26:39Z</time>
      </trkpt>
      <trkpt lat="43.01343" lon="1.43801">
        <ele>407.2</ele>
        <time>2022-09-03T12:26:45Z</time>
      </trkpt>
      <trkpt lat="43.01344" lon="1.43787">
        <ele>406.8</ele>
        <time>2022-09-03T12:26:47Z</time>
      </trkpt>
      <trkpt lat="43.01346" lon="1.43747">
        <ele>406.6</ele>
        <time>2022-09-03T12:26:53Z</time>
      </trkpt>
      <trkpt lat="43.01347" lon="1.43741">
        <ele>406.6</ele>
        <time>2022-09-03T12:26:54Z</time>
      </trkpt>
      <trkpt lat="43.0135" lon="1.43683">
        <ele>406.4</ele>
        <time>2022-09-03T12:27:02Z</time>
      </trkpt>
      <trkpt lat="43.01351" lon="1.43668">
        <ele>406</ele>
        <time>2022-09-03T12:27:04Z</time>
      </trkpt>
      <trkpt lat="43.01355" lon="1.43625">
        <ele>405.8</ele>
        <time>2022-09-03T12:27:10Z</time>
      </trkpt>
      <trkpt lat="43.01356" lon="1.43602">
        <ele>405.4</ele>
        <time>2022-09-03T12:27:13Z</time>
      </trkpt>
      <trkpt lat="43.01357" lon="1.43589">
        <ele>405.2</ele>
        <time>2022-09-03T12:27:15Z</time>
      </trkpt>
      <trkpt lat="43.01357" lon="1.43576">
        <ele>405</ele>
        <time>2022-09-03T12:27:17Z</time>
      </trkpt>
      <trkpt lat="43.01357" lon="1.43554">
        <ele>404.8</ele>
        <time>2022-09-03T12:27:20Z</time>
      </trkpt>
      <trkpt lat="43.01357" lon="1.43531">
        <ele>404.6</ele>
        <time>2022-09-03T12:27:23Z</time>
      </trkpt>
      <trkpt lat="43.01359" lon="1.43509">
        <ele>404.2</ele>
        <time>2022-09-03T12:27:26Z</time>
      </trkpt>
      <trkpt lat="43.01361" lon="1.4348">
        <ele>403.8</ele>
        <time>2022-09-03T12:27:30Z</time>
      </trkpt>
      <trkpt lat="43.01362" lon="1.43473">
        <ele>403.8</ele>
        <time>2022-09-03T12:27:31Z</time>
      </trkpt>
      <trkpt lat="43.01364" lon="1.43434">
        <ele>403.4</ele>
        <time>2022-09-03T12:27:37Z</time>
      </trkpt>
      <trkpt lat="43.01365" lon="1.43427">
        <ele>403.4</ele>
        <time>2022-09-03T12:27:38Z</time>
      </trkpt>
      <trkpt lat="43.01367" lon="1.43403">
        <ele>403.2</ele>
        <time>2022-09-03T12:27:42Z</time>
      </trkpt>
      <trkpt lat="43.01372" lon="1.43353">
        <ele>403.2</ele>
        <time>2022-09-03T12:27:49Z</time>
      </trkpt>
      <trkpt lat="43.01379" lon="1.43314">
        <ele>403.2</ele>
        <time>2022-09-03T12:27:55Z</time>
      </trkpt>
      <trkpt lat="43.0138" lon="1.43308">
        <ele>403.2</ele>
        <time>2022-09-03T12:27:56Z</time>
      </trkpt>
      <trkpt lat="43.01386" lon="1.43293">
        <ele>403.2</ele>
        <time>2022-09-03T12:27:59Z</time>
      </trkpt>
      <trkpt lat="43.01395" lon="1.43273">
        <ele>403</ele>
        <time>2022-09-03T12:28:04Z</time>
      </trkpt>
      <trkpt lat="43.01402" lon="1.43253">
        <ele>403.2</ele>
        <time>2022-09-03T12:28:10Z</time>
      </trkpt>
      <trkpt lat="43.01406" lon="1.43241">
        <ele>402.8</ele>
        <time>2022-09-03T12:28:13Z</time>
      </trkpt>
      <trkpt lat="43.01409" lon="1.43233">
        <ele>403</ele>
        <time>2022-09-03T12:28:15Z</time>
      </trkpt>
      <trkpt lat="43.01419" lon="1.43205">
        <ele>402.8</ele>
        <time>2022-09-03T12:28:22Z</time>
      </trkpt>
      <trkpt lat="43.01429" lon="1.43172">
        <ele>403</ele>
        <time>2022-09-03T12:28:31Z</time>
      </trkpt>
      <trkpt lat="43.01444" lon="1.43141">
        <ele>403.8</ele>
        <time>2022-09-03T12:28:39Z</time>
      </trkpt>
      <trkpt lat="43.0146" lon="1.43114">
        <ele>404</ele>
        <time>2022-09-03T12:28:45Z</time>
      </trkpt>
      <trkpt lat="43.01465" lon="1.43105">
        <ele>404</ele>
        <time>2022-09-03T12:28:47Z</time>
      </trkpt>
      <trkpt lat="43.01488" lon="1.43062">
        <ele>403.8</ele>
        <time>2022-09-03T12:28:56Z</time>
      </trkpt>
      <trkpt lat="43.01507" lon="1.43029">
        <ele>403.8</ele>
        <time>2022-09-03T12:29:03Z</time>
      </trkpt>
      <trkpt lat="43.01526" lon="1.42986">
        <ele>403.8</ele>
        <time>2022-09-03T12:29:10Z</time>
      </trkpt>
      <trkpt lat="43.01549" lon="1.42929">
        <ele>403.4</ele>
        <time>2022-09-03T12:29:19Z</time>
      </trkpt>
      <trkpt lat="43.01567" lon="1.42895">
        <ele>403.4</ele>
        <time>2022-09-03T12:29:25Z</time>
      </trkpt>
      <trkpt lat="43.01573" lon="1.42884">
        <ele>403.4</ele>
        <time>2022-09-03T12:29:27Z</time>
      </trkpt>
      <trkpt lat="43.01597" lon="1.42841">
        <ele>403.2</ele>
        <time>2022-09-03T12:29:35Z</time>
      </trkpt>
      <trkpt lat="43.01603" lon="1.42831">
        <ele>403.2</ele>
        <time>2022-09-03T12:29:37Z</time>
      </trkpt>
      <trkpt lat="43.01614" lon="1.4281">
        <ele>403.2</ele>
        <time>2022-09-03T12:29:41Z</time>
      </trkpt>
      <trkpt lat="43.01621" lon="1.42795">
        <ele>402.8</ele>
        <time>2022-09-03T12:29:44Z</time>
      </trkpt>
      <trkpt lat="43.01636" lon="1.42761">
        <ele>402.6</ele>
        <time>2022-09-03T12:29:50Z</time>
      </trkpt>
      <trkpt lat="43.0165" lon="1.42724">
        <ele>402.2</ele>
        <time>2022-09-03T12:29:57Z</time>
      </trkpt>
      <trkpt lat="43.01654" lon="1.42706">
        <ele>401.8</ele>
        <time>2022-09-03T12:30:00Z</time>
      </trkpt>
      <trkpt lat="43.01658" lon="1.42688">
        <ele>401.4</ele>
        <time>2022-09-03T12:30:03Z</time>
      </trkpt>
      <trkpt lat="43.01666" lon="1.42644">
        <ele>401.4</ele>
        <time>2022-09-03T12:30:09Z</time>
      </trkpt>
      <trkpt lat="43.01672" lon="1.42606">
        <ele>400.8</ele>
        <time>2022-09-03T12:30:14Z</time>
      </trkpt>
      <trkpt lat="43.01676" lon="1.42586">
        <ele>401</ele>
        <time>2022-09-03T12:30:17Z</time>
      </trkpt>
      <trkpt lat="43.01677" lon="1.42574">
        <ele>400.8</ele>
        <time>2022-09-03T12:30:19Z</time>
      </trkpt>
      <trkpt lat="43.01681" lon="1.42555">
        <ele>400.2</ele>
        <time>2022-09-03T12:30:22Z</time>
      </trkpt>
      <trkpt lat="43.01685" lon="1.42535">
        <ele>400</ele>
        <time>2022-09-03T12:30:25Z</time>
      </trkpt>
      <trkpt lat="43.01687" lon="1.42523">
        <ele>399.8</ele>
        <time>2022-09-03T12:30:27Z</time>
      </trkpt>
      <trkpt lat="43.01688" lon="1.42517">
        <ele>399.6</ele>
        <time>2022-09-03T12:30:28Z</time>
      </trkpt>
      <trkpt lat="43.01696" lon="1.42473">
        <ele>399.2</ele>
        <time>2022-09-03T12:30:35Z</time>
      </trkpt>
      <trkpt lat="43.01698" lon="1.42467">
        <ele>399</ele>
        <time>2022-09-03T12:30:36Z</time>
      </trkpt>
      <trkpt lat="43.01701" lon="1.42455">
        <ele>399</ele>
        <time>2022-09-03T12:30:38Z</time>
      </trkpt>
      <trkpt lat="43.01707" lon="1.42443">
        <ele>398.6</ele>
        <time>2022-09-03T12:30:40Z</time>
      </trkpt>
      <trkpt lat="43.01728" lon="1.42402">
        <ele>398.4</ele>
        <time>2022-09-03T12:30:47Z</time>
      </trkpt>
      <trkpt lat="43.01754" lon="1.4236">
        <ele>397.8</ele>
        <time>2022-09-03T12:30:55Z</time>
      </trkpt>
      <trkpt lat="43.01769" lon="1.4234">
        <ele>397.6</ele>
        <time>2022-09-03T12:30:59Z</time>
      </trkpt>
      <trkpt lat="43.01781" lon="1.42327">
        <ele>397.4</ele>
        <time>2022-09-03T12:31:02Z</time>
      </trkpt>
      <trkpt lat="43.0181" lon="1.42298">
        <ele>396.8</ele>
        <time>2022-09-03T12:31:09Z</time>
      </trkpt>
      <trkpt lat="43.01831" lon="1.42278">
        <ele>396.6</ele>
        <time>2022-09-03T12:31:14Z</time>
      </trkpt>
      <trkpt lat="43.01839" lon="1.4227">
        <ele>396.4</ele>
        <time>2022-09-03T12:31:16Z</time>
      </trkpt>
      <trkpt lat="43.01878" lon="1.42232">
        <ele>395.6</ele>
        <time>2022-09-03T12:31:25Z</time>
      </trkpt>
      <trkpt lat="43.01895" lon="1.42209">
        <ele>395.6</ele>
        <time>2022-09-03T12:31:30Z</time>
      </trkpt>
      <trkpt lat="43.01902" lon="1.422">
        <ele>395.4</ele>
        <time>2022-09-03T12:31:32Z</time>
      </trkpt>
      <trkpt lat="43.01912" lon="1.42188">
        <ele>395.4</ele>
        <time>2022-09-03T12:31:35Z</time>
      </trkpt>
      <trkpt lat="43.01922" lon="1.42178">
        <ele>395.4</ele>
        <time>2022-09-03T12:31:38Z</time>
      </trkpt>
      <trkpt lat="43.01936" lon="1.42156">
        <ele>394.8</ele>
        <time>2022-09-03T12:31:43Z</time>
      </trkpt>
      <trkpt lat="43.01939" lon="1.42151">
        <ele>394.4</ele>
        <time>2022-09-03T12:31:44Z</time>
      </trkpt>
      <trkpt lat="43.01958" lon="1.4211">
        <ele>394</ele>
        <time>2022-09-03T12:31:51Z</time>
      </trkpt>
      <trkpt lat="43.01976" lon="1.42054">
        <ele>393.8</ele>
        <time>2022-09-03T12:31:59Z</time>
      </trkpt>
      <trkpt lat="43.0198" lon="1.4204">
        <ele>393.6</ele>
        <time>2022-09-03T12:32:01Z</time>
      </trkpt>
      <trkpt lat="43.01986" lon="1.4202">
        <ele>393.2</ele>
        <time>2022-09-03T12:32:04Z</time>
      </trkpt>
      <trkpt lat="43.01988" lon="1.42015">
        <ele>393</ele>
        <time>2022-09-03T12:32:05Z</time>
      </trkpt>
      <trkpt lat="43.02" lon="1.41974">
        <ele>392.4</ele>
        <time>2022-09-03T12:32:12Z</time>
      </trkpt>
      <trkpt lat="43.02009" lon="1.41944">
        <ele>392.2</ele>
        <time>2022-09-03T12:32:17Z</time>
      </trkpt>
      <trkpt lat="43.02011" lon="1.41933">
        <ele>392.2</ele>
        <time>2022-09-03T12:32:19Z</time>
      </trkpt>
      <trkpt lat="43.02012" lon="1.41928">
        <ele>392</ele>
        <time>2022-09-03T12:32:20Z</time>
      </trkpt>
      <trkpt lat="43.02015" lon="1.4191">
        <ele>391.6</ele>
        <time>2022-09-03T12:32:23Z</time>
      </trkpt>
      <trkpt lat="43.02017" lon="1.41893">
        <ele>391.2</ele>
        <time>2022-09-03T12:32:26Z</time>
      </trkpt>
      <trkpt lat="43.02018" lon="1.41887">
        <ele>391.2</ele>
        <time>2022-09-03T12:32:27Z</time>
      </trkpt>
      <trkpt lat="43.02018" lon="1.41881">
        <ele>391.2</ele>
        <time>2022-09-03T12:32:28Z</time>
      </trkpt>
      <trkpt lat="43.0202" lon="1.41863">
        <ele>390.8</ele>
        <time>2022-09-03T12:32:31Z</time>
      </trkpt>
      <trkpt lat="43.02022" lon="1.41839">
        <ele>390.8</ele>
        <time>2022-09-03T12:32:35Z</time>
      </trkpt>
      <trkpt lat="43.02023" lon="1.41819">
        <ele>390.6</ele>
        <time>2022-09-03T12:32:38Z</time>
      </trkpt>
      <trkpt lat="43.02024" lon="1.41791">
        <ele>390.4</ele>
        <time>2022-09-03T12:32:43Z</time>
      </trkpt>
      <trkpt lat="43.02025" lon="1.41775">
        <ele>390.2</ele>
        <time>2022-09-03T12:32:46Z</time>
      </trkpt>
      <trkpt lat="43.02022" lon="1.4176">
        <ele>390</ele>
        <time>2022-09-03T12:32:49Z</time>
      </trkpt>
      <trkpt lat="43.02014" lon="1.4172">
        <ele>389.6</ele>
        <time>2022-09-03T12:32:56Z</time>
      </trkpt>
      <trkpt lat="43.02005" lon="1.41678">
        <ele>389.4</ele>
        <time>2022-09-03T12:33:03Z</time>
      </trkpt>
      <trkpt lat="43.02001" lon="1.41659">
        <ele>389.2</ele>
        <time>2022-09-03T12:33:06Z</time>
      </trkpt>
      <trkpt lat="43.01991" lon="1.41629">
        <ele>389</ele>
        <time>2022-09-03T12:33:11Z</time>
      </trkpt>
      <trkpt lat="43.01984" lon="1.41612">
        <ele>388.8</ele>
        <time>2022-09-03T12:33:14Z</time>
      </trkpt>
      <trkpt lat="43.01978" lon="1.41595">
        <ele>388.4</ele>
        <time>2022-09-03T12:33:17Z</time>
      </trkpt>
      <trkpt lat="43.01969" lon="1.41575">
        <ele>388.2</ele>
        <time>2022-09-03T12:33:21Z</time>
      </trkpt>
      <trkpt lat="43.01964" lon="1.41566">
        <ele>388.2</ele>
        <time>2022-09-03T12:33:23Z</time>
      </trkpt>
      <trkpt lat="43.01962" lon="1.41562">
        <ele>388</ele>
        <time>2022-09-03T12:33:24Z</time>
      </trkpt>
      <trkpt lat="43.01947" lon="1.41532">
        <ele>387.8</ele>
        <time>2022-09-03T12:33:31Z</time>
      </trkpt>
      <trkpt lat="43.01934" lon="1.41505">
        <ele>387.6</ele>
        <time>2022-09-03T12:33:37Z</time>
      </trkpt>
      <trkpt lat="43.01922" lon="1.41481">
        <ele>387</ele>
        <time>2022-09-03T12:33:43Z</time>
      </trkpt>
      <trkpt lat="43.0191" lon="1.41461">
        <ele>387.2</ele>
        <time>2022-09-03T12:33:49Z</time>
      </trkpt>
      <trkpt lat="43.01903" lon="1.41439">
        <ele>386.8</ele>
        <time>2022-09-03T12:33:54Z</time>
      </trkpt>
      <trkpt lat="43.01895" lon="1.41411">
        <ele>386.6</ele>
        <time>2022-09-03T12:34:00Z</time>
      </trkpt>
      <trkpt lat="43.01884" lon="1.41375">
        <ele>386.4</ele>
        <time>2022-09-03T12:34:07Z</time>
      </trkpt>
      <trkpt lat="43.01875" lon="1.41333">
        <ele>386</ele>
        <time>2022-09-03T12:34:15Z</time>
      </trkpt>
      <trkpt lat="43.01874" lon="1.41322">
        <ele>386</ele>
        <time>2022-09-03T12:34:17Z</time>
      </trkpt>
      <trkpt lat="43.01873" lon="1.41294">
        <ele>385.6</ele>
        <time>2022-09-03T12:34:22Z</time>
      </trkpt>
      <trkpt lat="43.01873" lon="1.41253">
        <ele>385.4</ele>
        <time>2022-09-03T12:34:29Z</time>
      </trkpt>
      <trkpt lat="43.01878" lon="1.41213">
        <ele>385.2</ele>
        <time>2022-09-03T12:34:35Z</time>
      </trkpt>
      <trkpt lat="43.01879" lon="1.41205">
        <ele>385.2</ele>
        <time>2022-09-03T12:34:36Z</time>
      </trkpt>
      <trkpt lat="43.01882" lon="1.41182">
        <ele>384.8</ele>
        <time>2022-09-03T12:34:39Z</time>
      </trkpt>
      <trkpt lat="43.01883" lon="1.41175">
        <ele>384.8</ele>
        <time>2022-09-03T12:34:40Z</time>
      </trkpt>
      <trkpt lat="43.01893" lon="1.41111">
        <ele>384.2</ele>
        <time>2022-09-03T12:34:48Z</time>
      </trkpt>
      <trkpt lat="43.019" lon="1.4106">
        <ele>383.8</ele>
        <time>2022-09-03T12:34:54Z</time>
      </trkpt>
      <trkpt lat="43.01901" lon="1.41052">
        <ele>383.6</ele>
        <time>2022-09-03T12:34:55Z</time>
      </trkpt>
      <trkpt lat="43.01904" lon="1.40983">
        <ele>383.4</ele>
        <time>2022-09-03T12:35:03Z</time>
      </trkpt>
      <trkpt lat="43.01902" lon="1.40949">
        <ele>382.6</ele>
        <time>2022-09-03T12:35:07Z</time>
      </trkpt>
      <trkpt lat="43.01901" lon="1.40941">
        <ele>382.4</ele>
        <time>2022-09-03T12:35:08Z</time>
      </trkpt>
      <trkpt lat="43.019" lon="1.40934">
        <ele>382.4</ele>
        <time>2022-09-03T12:35:09Z</time>
      </trkpt>
      <trkpt lat="43.01888" lon="1.40874">
        <ele>382.2</ele>
        <time>2022-09-03T12:35:17Z</time>
      </trkpt>
      <trkpt lat="43.01869" lon="1.40815">
        <ele>381.6</ele>
        <time>2022-09-03T12:35:25Z</time>
      </trkpt>
      <trkpt lat="43.01861" lon="1.40795">
        <ele>381.6</ele>
        <time>2022-09-03T12:35:28Z</time>
      </trkpt>
      <trkpt lat="43.01841" lon="1.40756">
        <ele>381.2</ele>
        <time>2022-09-03T12:35:34Z</time>
      </trkpt>
      <trkpt lat="43.0181" lon="1.40702">
        <ele>381.2</ele>
        <time>2022-09-03T12:35:43Z</time>
      </trkpt>
      <trkpt lat="43.01787" lon="1.40661">
        <ele>381</ele>
        <time>2022-09-03T12:35:50Z</time>
      </trkpt>
      <trkpt lat="43.01772" lon="1.40634">
        <ele>380.6</ele>
        <time>2022-09-03T12:35:56Z</time>
      </trkpt>
      <trkpt lat="43.01766" lon="1.40622">
        <ele>380.6</ele>
        <time>2022-09-03T12:35:59Z</time>
      </trkpt>
      <trkpt lat="43.01758" lon="1.40603">
        <ele>380.6</ele>
        <time>2022-09-03T12:36:03Z</time>
      </trkpt>
      <trkpt lat="43.01741" lon="1.40562">
        <ele>380.4</ele>
        <time>2022-09-03T12:36:10Z</time>
      </trkpt>
      <trkpt lat="43.01721" lon="1.40497">
        <ele>380.4</ele>
        <time>2022-09-03T12:36:20Z</time>
      </trkpt>
      <trkpt lat="43.01706" lon="1.4044">
        <ele>379.6</ele>
        <time>2022-09-03T12:36:30Z</time>
      </trkpt>
      <trkpt lat="43.01702" lon="1.40423">
        <ele>379.4</ele>
        <time>2022-09-03T12:36:33Z</time>
      </trkpt>
      <trkpt lat="43.01698" lon="1.40403">
        <ele>378.8</ele>
        <time>2022-09-03T12:36:36Z</time>
      </trkpt>
      <trkpt lat="43.01695" lon="1.4039">
        <ele>378.6</ele>
        <time>2022-09-03T12:36:38Z</time>
      </trkpt>
      <trkpt lat="43.01692" lon="1.40385">
        <ele>378.2</ele>
        <time>2022-09-03T12:36:39Z</time>
      </trkpt>
      <trkpt lat="43.01689" lon="1.4038">
        <ele>378.2</ele>
        <time>2022-09-03T12:36:40Z</time>
      </trkpt>
      <trkpt lat="43.0168" lon="1.40372">
        <ele>378.2</ele>
        <time>2022-09-03T12:36:42Z</time>
      </trkpt>
      <trkpt lat="43.0167" lon="1.40361">
        <ele>377.4</ele>
        <time>2022-09-03T12:36:45Z</time>
      </trkpt>
      <trkpt lat="43.01669" lon="1.40358">
        <ele>377.2</ele>
        <time>2022-09-03T12:36:46Z</time>
      </trkpt>
      <trkpt lat="43.01671" lon="1.40353">
        <ele>377.4</ele>
        <time>2022-09-03T12:36:48Z</time>
      </trkpt>
      <trkpt lat="43.01678" lon="1.40338">
        <ele>378.2</ele>
        <time>2022-09-03T12:36:52Z</time>
      </trkpt>
      <trkpt lat="43.0168" lon="1.40333">
        <ele>378.4</ele>
        <time>2022-09-03T12:36:53Z</time>
      </trkpt>
      <trkpt lat="43.01693" lon="1.40304">
        <ele>379</ele>
        <time>2022-09-03T12:37:00Z</time>
      </trkpt>
      <trkpt lat="43.01698" lon="1.40285">
        <ele>379.2</ele>
        <time>2022-09-03T12:37:04Z</time>
      </trkpt>
      <trkpt lat="43.01701" lon="1.40268">
        <ele>379.2</ele>
        <time>2022-09-03T12:37:07Z</time>
      </trkpt>
      <trkpt lat="43.01703" lon="1.4025">
        <ele>379</ele>
        <time>2022-09-03T12:37:10Z</time>
      </trkpt>
      <trkpt lat="43.01704" lon="1.40232">
        <ele>379.2</ele>
        <time>2022-09-03T12:37:13Z</time>
      </trkpt>
      <trkpt lat="43.01705" lon="1.40219">
        <ele>379.2</ele>
        <time>2022-09-03T12:37:15Z</time>
      </trkpt>
      <trkpt lat="43.01707" lon="1.40192">
        <ele>379</ele>
        <time>2022-09-03T12:37:19Z</time>
      </trkpt>
      <trkpt lat="43.01712" lon="1.40128">
        <ele>378.8</ele>
        <time>2022-09-03T12:37:28Z</time>
      </trkpt>
      <trkpt lat="43.01716" lon="1.40072">
        <ele>378.6</ele>
        <time>2022-09-03T12:37:36Z</time>
      </trkpt>
      <trkpt lat="43.01722" lon="1.40006">
        <ele>378.2</ele>
        <time>2022-09-03T12:37:45Z</time>
      </trkpt>
      <trkpt lat="43.01722" lon="1.39998">
        <ele>378.2</ele>
        <time>2022-09-03T12:37:46Z</time>
      </trkpt>
      <trkpt lat="43.01729" lon="1.39923">
        <ele>377.4</ele>
        <time>2022-09-03T12:37:57Z</time>
      </trkpt>
      <trkpt lat="43.01733" lon="1.39862">
        <ele>377.2</ele>
        <time>2022-09-03T12:38:06Z</time>
      </trkpt>
      <trkpt lat="43.01734" lon="1.39848">
        <ele>377.2</ele>
        <time>2022-09-03T12:38:08Z</time>
      </trkpt>
      <trkpt lat="43.01738" lon="1.39792">
        <ele>377.2</ele>
        <time>2022-09-03T12:38:15Z</time>
      </trkpt>
      <trkpt lat="43.01744" lon="1.39718">
        <ele>376.4</ele>
        <time>2022-09-03T12:38:24Z</time>
      </trkpt>
      <trkpt lat="43.01745" lon="1.39702">
        <ele>376</ele>
        <time>2022-09-03T12:38:26Z</time>
      </trkpt>
      <trkpt lat="43.01749" lon="1.39641">
        <ele>375.8</ele>
        <time>2022-09-03T12:38:34Z</time>
      </trkpt>
      <trkpt lat="43.01753" lon="1.39592">
        <ele>375</ele>
        <time>2022-09-03T12:38:41Z</time>
      </trkpt>
      <trkpt lat="43.01754" lon="1.39578">
        <ele>375</ele>
        <time>2022-09-03T12:38:43Z</time>
      </trkpt>
      <trkpt lat="43.01757" lon="1.39539">
        <ele>374.8</ele>
        <time>2022-09-03T12:38:50Z</time>
      </trkpt>
      <trkpt lat="43.01759" lon="1.39516">
        <ele>374.4</ele>
        <time>2022-09-03T12:38:54Z</time>
      </trkpt>
      <trkpt lat="43.0176" lon="1.39495">
        <ele>374.4</ele>
        <time>2022-09-03T12:38:57Z</time>
      </trkpt>
      <trkpt lat="43.01763" lon="1.39456">
        <ele>374</ele>
        <time>2022-09-03T12:39:03Z</time>
      </trkpt>
      <trkpt lat="43.01764" lon="1.39442">
        <ele>374.2</ele>
        <time>2022-09-03T12:39:05Z</time>
      </trkpt>
      <trkpt lat="43.01766" lon="1.3942">
        <ele>374</ele>
        <time>2022-09-03T12:39:08Z</time>
      </trkpt>
      <trkpt lat="43.01767" lon="1.39382">
        <ele>373.8</ele>
        <time>2022-09-03T12:39:13Z</time>
      </trkpt>
      <trkpt lat="43.01772" lon="1.39328">
        <ele>373</ele>
        <time>2022-09-03T12:39:20Z</time>
      </trkpt>
      <trkpt lat="43.01774" lon="1.39314">
        <ele>372.8</ele>
        <time>2022-09-03T12:39:22Z</time>
      </trkpt>
      <trkpt lat="43.01775" lon="1.39307">
        <ele>372.6</ele>
        <time>2022-09-03T12:39:23Z</time>
      </trkpt>
      <trkpt lat="43.01776" lon="1.39285">
        <ele>372.8</ele>
        <time>2022-09-03T12:39:26Z</time>
      </trkpt>
      <trkpt lat="43.01781" lon="1.39208">
        <ele>372.2</ele>
        <time>2022-09-03T12:39:36Z</time>
      </trkpt>
      <trkpt lat="43.01785" lon="1.39152">
        <ele>372.2</ele>
        <time>2022-09-03T12:39:43Z</time>
      </trkpt>
      <trkpt lat="43.01786" lon="1.39135">
        <ele>372</ele>
        <time>2022-09-03T12:39:45Z</time>
      </trkpt>
      <trkpt lat="43.01786" lon="1.39103">
        <ele>371.8</ele>
        <time>2022-09-03T12:39:49Z</time>
      </trkpt>
      <trkpt lat="43.01785" lon="1.39095">
        <ele>371.6</ele>
        <time>2022-09-03T12:39:50Z</time>
      </trkpt>
      <trkpt lat="43.01779" lon="1.39033">
        <ele>371.6</ele>
        <time>2022-09-03T12:39:58Z</time>
      </trkpt>
      <trkpt lat="43.01773" lon="1.39002">
        <ele>371.4</ele>
        <time>2022-09-03T12:40:02Z</time>
      </trkpt>
      <trkpt lat="43.0177" lon="1.38987">
        <ele>371</ele>
        <time>2022-09-03T12:40:04Z</time>
      </trkpt>
      <trkpt lat="43.01757" lon="1.38938">
        <ele>371</ele>
        <time>2022-09-03T12:40:11Z</time>
      </trkpt>
      <trkpt lat="43.01753" lon="1.38925">
        <ele>371</ele>
        <time>2022-09-03T12:40:13Z</time>
      </trkpt>
      <trkpt lat="43.01749" lon="1.38911">
        <ele>370.6</ele>
        <time>2022-09-03T12:40:15Z</time>
      </trkpt>
      <trkpt lat="43.01743" lon="1.38884">
        <ele>370.8</ele>
        <time>2022-09-03T12:40:19Z</time>
      </trkpt>
      <trkpt lat="43.01741" lon="1.38872">
        <ele>370.8</ele>
        <time>2022-09-03T12:40:21Z</time>
      </trkpt>
      <trkpt lat="43.01732" lon="1.38841">
        <ele>370.8</ele>
        <time>2022-09-03T12:40:27Z</time>
      </trkpt>
      <trkpt lat="43.01718" lon="1.38787">
        <ele>370.6</ele>
        <time>2022-09-03T12:40:37Z</time>
      </trkpt>
      <trkpt lat="43.01711" lon="1.38759">
        <ele>370.6</ele>
        <time>2022-09-03T12:40:43Z</time>
      </trkpt>
      <trkpt lat="43.01708" lon="1.38741">
        <ele>370.4</ele>
        <time>2022-09-03T12:40:47Z</time>
      </trkpt>
      <trkpt lat="43.01705" lon="1.38708">
        <ele>370.4</ele>
        <time>2022-09-03T12:40:54Z</time>
      </trkpt>
      <trkpt lat="43.01703" lon="1.38667">
        <ele>370.4</ele>
        <time>2022-09-03T12:41:01Z</time>
      </trkpt>
      <trkpt lat="43.01704" lon="1.38645">
        <ele>370.2</ele>
        <time>2022-09-03T12:41:05Z</time>
      </trkpt>
      <trkpt lat="43.01704" lon="1.38634">
        <ele>370.2</ele>
        <time>2022-09-03T12:41:07Z</time>
      </trkpt>
      <trkpt lat="43.01706" lon="1.38607">
        <ele>370.2</ele>
        <time>2022-09-03T12:41:12Z</time>
      </trkpt>
      <trkpt lat="43.01707" lon="1.38598">
        <ele>370</ele>
        <time>2022-09-03T12:41:14Z</time>
      </trkpt>
      <trkpt lat="43.0171" lon="1.38574">
        <ele>369.8</ele>
        <time>2022-09-03T12:41:19Z</time>
      </trkpt>
      <trkpt lat="43.01712" lon="1.38557">
        <ele>369.6</ele>
        <time>2022-09-03T12:41:22Z</time>
      </trkpt>
      <trkpt lat="43.01714" lon="1.38533">
        <ele>369.6</ele>
        <time>2022-09-03T12:41:27Z</time>
      </trkpt>
      <trkpt lat="43.01716" lon="1.38503">
        <ele>369.4</ele>
        <time>2022-09-03T12:41:34Z</time>
      </trkpt>
      <trkpt lat="43.01717" lon="1.38479">
        <ele>369.4</ele>
        <time>2022-09-03T12:41:40Z</time>
      </trkpt>
      <trkpt lat="43.0172" lon="1.38444">
        <ele>369</ele>
        <time>2022-09-03T12:41:46Z</time>
      </trkpt>
      <trkpt lat="43.01725" lon="1.38394">
        <ele>369.2</ele>
        <time>2022-09-03T12:41:54Z</time>
      </trkpt>
      <trkpt lat="43.01731" lon="1.38332">
        <ele>368.8</ele>
        <time>2022-09-03T12:42:03Z</time>
      </trkpt>
      <trkpt lat="43.01732" lon="1.38326">
        <ele>368.4</ele>
        <time>2022-09-03T12:42:04Z</time>
      </trkpt>
      <trkpt lat="43.01735" lon="1.38291">
        <ele>368.4</ele>
        <time>2022-09-03T12:42:09Z</time>
      </trkpt>
      <trkpt lat="43.01739" lon="1.38225">
        <ele>368</ele>
        <time>2022-09-03T12:42:18Z</time>
      </trkpt>
      <trkpt lat="43.01736" lon="1.38165">
        <ele>367.4</ele>
        <time>2022-09-03T12:42:26Z</time>
      </trkpt>
      <trkpt lat="43.01735" lon="1.38158">
        <ele>367.4</ele>
        <time>2022-09-03T12:42:27Z</time>
      </trkpt>
      <trkpt lat="43.01728" lon="1.38108">
        <ele>366.8</ele>
        <time>2022-09-03T12:42:34Z</time>
      </trkpt>
      <trkpt lat="43.01723" lon="1.3807">
        <ele>366.4</ele>
        <time>2022-09-03T12:42:39Z</time>
      </trkpt>
      <trkpt lat="43.01722" lon="1.38063">
        <ele>366.4</ele>
        <time>2022-09-03T12:42:40Z</time>
      </trkpt>
      <trkpt lat="43.01719" lon="1.38049">
        <ele>366.2</ele>
        <time>2022-09-03T12:42:42Z</time>
      </trkpt>
      <trkpt lat="43.01714" lon="1.38016">
        <ele>366.2</ele>
        <time>2022-09-03T12:42:47Z</time>
      </trkpt>
      <trkpt lat="43.01712" lon="1.38003">
        <ele>366</ele>
        <time>2022-09-03T12:42:49Z</time>
      </trkpt>
      <trkpt lat="43.01706" lon="1.37956">
        <ele>365.8</ele>
        <time>2022-09-03T12:42:56Z</time>
      </trkpt>
      <trkpt lat="43.01702" lon="1.37912">
        <ele>365.8</ele>
        <time>2022-09-03T12:43:03Z</time>
      </trkpt>
      <trkpt lat="43.01701" lon="1.37876">
        <ele>365.8</ele>
        <time>2022-09-03T12:43:10Z</time>
      </trkpt>
      <trkpt lat="43.01694" lon="1.37854">
        <ele>366.2</ele>
        <time>2022-09-03T12:43:16Z</time>
      </trkpt>
      <trkpt lat="43.0168" lon="1.3784">
        <ele>367.2</ele>
        <time>2022-09-03T12:43:21Z</time>
      </trkpt>
      <trkpt lat="43.01679" lon="1.37836">
        <ele>367.4</ele>
        <time>2022-09-03T12:43:22Z</time>
      </trkpt>
      <trkpt lat="43.01678" lon="1.37818">
        <ele>367.8</ele>
        <time>2022-09-03T12:43:26Z</time>
      </trkpt>
      <trkpt lat="43.01679" lon="1.37812">
        <ele>367.6</ele>
        <time>2022-09-03T12:43:27Z</time>
      </trkpt>
      <trkpt lat="43.01687" lon="1.37793">
        <ele>367</ele>
        <time>2022-09-03T12:43:30Z</time>
      </trkpt>
      <trkpt lat="43.01696" lon="1.37773">
        <ele>366.6</ele>
        <time>2022-09-03T12:43:33Z</time>
      </trkpt>
      <trkpt lat="43.01697" lon="1.37759">
        <ele>366.6</ele>
        <time>2022-09-03T12:43:35Z</time>
      </trkpt>
      <trkpt lat="43.017" lon="1.37724">
        <ele>366.4</ele>
        <time>2022-09-03T12:43:40Z</time>
      </trkpt>
      <trkpt lat="43.01701" lon="1.37711">
        <ele>366.2</ele>
        <time>2022-09-03T12:43:42Z</time>
      </trkpt>
      <trkpt lat="43.01705" lon="1.37676">
        <ele>366</ele>
        <time>2022-09-03T12:43:47Z</time>
      </trkpt>
      <trkpt lat="43.01711" lon="1.37623">
        <ele>366</ele>
        <time>2022-09-03T12:43:55Z</time>
      </trkpt>
      <trkpt lat="43.01716" lon="1.37583">
        <ele>365.8</ele>
        <time>2022-09-03T12:44:01Z</time>
      </trkpt>
      <trkpt lat="43.01717" lon="1.3757">
        <ele>365.4</ele>
        <time>2022-09-03T12:44:03Z</time>
      </trkpt>
      <trkpt lat="43.01717" lon="1.37544">
        <ele>365.6</ele>
        <time>2022-09-03T12:44:07Z</time>
      </trkpt>
      <trkpt lat="43.01713" lon="1.37485">
        <ele>365.6</ele>
        <time>2022-09-03T12:44:16Z</time>
      </trkpt>
      <trkpt lat="43.01709" lon="1.37449">
        <ele>365.6</ele>
        <time>2022-09-03T12:44:23Z</time>
      </trkpt>
      <trkpt lat="43.01709" lon="1.37439">
        <ele>365.2</ele>
        <time>2022-09-03T12:44:26Z</time>
      </trkpt>
      <trkpt lat="43.01706" lon="1.37427">
        <ele>365</ele>
        <time>2022-09-03T12:44:29Z</time>
      </trkpt>
      <trkpt lat="43.017" lon="1.37397">
        <ele>364.4</ele>
        <time>2022-09-03T12:44:34Z</time>
      </trkpt>
      <trkpt lat="43.017" lon="1.37391">
        <ele>364</ele>
        <time>2022-09-03T12:44:35Z</time>
      </trkpt>
      <trkpt lat="43.01703" lon="1.37383">
        <ele>363.4</ele>
        <time>2022-09-03T12:44:37Z</time>
      </trkpt>
      <trkpt lat="43.01707" lon="1.3738">
        <ele>363</ele>
        <time>2022-09-03T12:44:39Z</time>
      </trkpt>
      <trkpt lat="43.01709" lon="1.37379">
        <ele>363</ele>
        <time>2022-09-03T12:44:40Z</time>
      </trkpt>
      <trkpt lat="43.01723" lon="1.37373">
        <ele>363.2</ele>
        <time>2022-09-03T12:44:45Z</time>
      </trkpt>
      <trkpt lat="43.01725" lon="1.3737">
        <ele>363.2</ele>
        <time>2022-09-03T12:44:46Z</time>
      </trkpt>
      <trkpt lat="43.01728" lon="1.37351">
        <ele>364</ele>
        <time>2022-09-03T12:44:51Z</time>
      </trkpt>
      <trkpt lat="43.01729" lon="1.37344">
        <ele>364.2</ele>
        <time>2022-09-03T12:44:53Z</time>
      </trkpt>
      <trkpt lat="43.01732" lon="1.37327">
        <ele>365.2</ele>
        <time>2022-09-03T12:44:58Z</time>
      </trkpt>
      <trkpt lat="43.01734" lon="1.37324">
        <ele>365.4</ele>
        <time>2022-09-03T12:45:00Z</time>
      </trkpt>
      <trkpt lat="43.01737" lon="1.3731">
        <ele>366</ele>
        <time>2022-09-03T12:45:05Z</time>
      </trkpt>
      <trkpt lat="43.01738" lon="1.37302">
        <ele>366.2</ele>
        <time>2022-09-03T12:45:07Z</time>
      </trkpt>
      <trkpt lat="43.01739" lon="1.37287">
        <ele>366.4</ele>
        <time>2022-09-03T12:45:12Z</time>
      </trkpt>
      <trkpt lat="43.01739" lon="1.37285">
        <ele>366.4</ele>
        <time>2022-09-03T12:45:13Z</time>
      </trkpt>
      <trkpt lat="43.01737" lon="1.37285">
        <ele>366.4</ele>
        <time>2022-09-03T12:45:15Z</time>
      </trkpt>
      <trkpt lat="43.01736" lon="1.37288">
        <ele>366.4</ele>
        <time>2022-09-03T12:45:17Z</time>
      </trkpt>
      <trkpt lat="43.01736" lon="1.37291">
        <ele>366.2</ele>
        <time>2022-09-03T12:45:20Z</time>
      </trkpt>
      <trkpt lat="43.0174" lon="1.37286">
        <ele>366</ele>
        <time>2022-09-03T12:46:32Z</time>
      </trkpt>
      <trkpt lat="43.0174" lon="1.37281">
        <ele>366.2</ele>
        <time>2022-09-03T12:46:34Z</time>
      </trkpt>
      <trkpt lat="43.01738" lon="1.37267">
        <ele>366</ele>
        <time>2022-09-03T12:50:12Z</time>
      </trkpt>
      <trkpt lat="43.01738" lon="1.3726">
        <ele>366</ele>
        <time>2022-09-03T12:50:14Z</time>
      </trkpt>
      <trkpt lat="43.01739" lon="1.37231">
        <ele>366.2</ele>
        <time>2022-09-03T12:50:22Z</time>
      </trkpt>
      <trkpt lat="43.01738" lon="1.37194">
        <ele>366.2</ele>
        <time>2022-09-03T12:50:31Z</time>
      </trkpt>
      <trkpt lat="43.01731" lon="1.37163">
        <ele>366.4</ele>
        <time>2022-09-03T12:50:39Z</time>
      </trkpt>
      <trkpt lat="43.01719" lon="1.3714">
        <ele>366.6</ele>
        <time>2022-09-03T12:50:46Z</time>
      </trkpt>
      <trkpt lat="43.01702" lon="1.37123">
        <ele>367</ele>
        <time>2022-09-03T12:50:53Z</time>
      </trkpt>
      <trkpt lat="43.01695" lon="1.37117">
        <ele>367.2</ele>
        <time>2022-09-03T12:50:56Z</time>
      </trkpt>
      <trkpt lat="43.01686" lon="1.37105">
        <ele>367.4</ele>
        <time>2022-09-03T12:51:00Z</time>
      </trkpt>
      <trkpt lat="43.01673" lon="1.37096">
        <ele>368.2</ele>
        <time>2022-09-03T12:51:05Z</time>
      </trkpt>
      <trkpt lat="43.01667" lon="1.37092">
        <ele>368.2</ele>
        <time>2022-09-03T12:51:07Z</time>
      </trkpt>
      <trkpt lat="43.01652" lon="1.37085">
        <ele>368.4</ele>
        <time>2022-09-03T12:51:12Z</time>
      </trkpt>
      <trkpt lat="43.01637" lon="1.37074">
        <ele>369.4</ele>
        <time>2022-09-03T12:51:18Z</time>
      </trkpt>
      <trkpt lat="43.01636" lon="1.37072">
        <ele>369.8</ele>
        <time>2022-09-03T12:51:19Z</time>
      </trkpt>
      <trkpt lat="43.0163" lon="1.37067">
        <ele>370.6</ele>
        <time>2022-09-03T12:51:22Z</time>
      </trkpt>
      <trkpt lat="43.01623" lon="1.37058">
        <ele>371.6</ele>
        <time>2022-09-03T12:51:27Z</time>
      </trkpt>
      <trkpt lat="43.01621" lon="1.37056">
        <ele>371.8</ele>
        <time>2022-09-03T12:51:28Z</time>
      </trkpt>
      <trkpt lat="43.0161" lon="1.37042">
        <ele>372.6</ele>
        <time>2022-09-03T12:51:35Z</time>
      </trkpt>
      <trkpt lat="43.01607" lon="1.37038">
        <ele>372.8</ele>
        <time>2022-09-03T12:51:37Z</time>
      </trkpt>
      <trkpt lat="43.01596" lon="1.37025">
        <ele>373</ele>
        <time>2022-09-03T12:51:43Z</time>
      </trkpt>
      <trkpt lat="43.01581" lon="1.37006">
        <ele>373.8</ele>
        <time>2022-09-03T12:51:52Z</time>
      </trkpt>
      <trkpt lat="43.01573" lon="1.36996">
        <ele>373.8</ele>
        <time>2022-09-03T12:51:56Z</time>
      </trkpt>
      <trkpt lat="43.01568" lon="1.36992">
        <ele>374</ele>
        <time>2022-09-03T12:51:58Z</time>
      </trkpt>
      <trkpt lat="43.01552" lon="1.36974">
        <ele>374</ele>
        <time>2022-09-03T12:52:05Z</time>
      </trkpt>
      <trkpt lat="43.01534" lon="1.36956">
        <ele>374.4</ele>
        <time>2022-09-03T12:52:12Z</time>
      </trkpt>
      <trkpt lat="43.01512" lon="1.36936">
        <ele>374.8</ele>
        <time>2022-09-03T12:52:20Z</time>
      </trkpt>
      <trkpt lat="43.0151" lon="1.36934">
        <ele>375</ele>
        <time>2022-09-03T12:52:21Z</time>
      </trkpt>
      <trkpt lat="43.01485" lon="1.36911">
        <ele>375.6</ele>
        <time>2022-09-03T12:52:30Z</time>
      </trkpt>
      <trkpt lat="43.01466" lon="1.36894">
        <ele>376</ele>
        <time>2022-09-03T12:52:37Z</time>
      </trkpt>
      <trkpt lat="43.0144" lon="1.36873">
        <ele>376.4</ele>
        <time>2022-09-03T12:52:46Z</time>
      </trkpt>
      <trkpt lat="43.01419" lon="1.36857">
        <ele>376.6</ele>
        <time>2022-09-03T12:52:53Z</time>
      </trkpt>
      <trkpt lat="43.01403" lon="1.36846">
        <ele>377</ele>
        <time>2022-09-03T12:52:58Z</time>
      </trkpt>
      <trkpt lat="43.01391" lon="1.36839">
        <ele>377.6</ele>
        <time>2022-09-03T12:53:02Z</time>
      </trkpt>
      <trkpt lat="43.0137" lon="1.36829">
        <ele>377.8</ele>
        <time>2022-09-03T12:53:08Z</time>
      </trkpt>
      <trkpt lat="43.0135" lon="1.3682">
        <ele>378</ele>
        <time>2022-09-03T12:53:14Z</time>
      </trkpt>
      <trkpt lat="43.01347" lon="1.36818">
        <ele>378</ele>
        <time>2022-09-03T12:53:15Z</time>
      </trkpt>
      <trkpt lat="43.01317" lon="1.36808">
        <ele>378.4</ele>
        <time>2022-09-03T12:53:23Z</time>
      </trkpt>
      <trkpt lat="43.01281" lon="1.36797">
        <ele>379</ele>
        <time>2022-09-03T12:53:33Z</time>
      </trkpt>
      <trkpt lat="43.01246" lon="1.36788">
        <ele>379.8</ele>
        <time>2022-09-03T12:53:43Z</time>
      </trkpt>
      <trkpt lat="43.01229" lon="1.36782">
        <ele>380</ele>
        <time>2022-09-03T12:53:48Z</time>
      </trkpt>
      <trkpt lat="43.01219" lon="1.36779">
        <ele>380.2</ele>
        <time>2022-09-03T12:53:51Z</time>
      </trkpt>
      <trkpt lat="43.01192" lon="1.36765">
        <ele>381</ele>
        <time>2022-09-03T12:53:59Z</time>
      </trkpt>
      <trkpt lat="43.01183" lon="1.36761">
        <ele>381.2</ele>
        <time>2022-09-03T12:54:02Z</time>
      </trkpt>
      <trkpt lat="43.01166" lon="1.36751">
        <ele>381.6</ele>
        <time>2022-09-03T12:54:07Z</time>
      </trkpt>
      <trkpt lat="43.01145" lon="1.36737">
        <ele>381.8</ele>
        <time>2022-09-03T12:54:13Z</time>
      </trkpt>
      <trkpt lat="43.01127" lon="1.36722">
        <ele>382</ele>
        <time>2022-09-03T12:54:19Z</time>
      </trkpt>
      <trkpt lat="43.01121" lon="1.36716">
        <ele>382.2</ele>
        <time>2022-09-03T12:54:21Z</time>
      </trkpt>
      <trkpt lat="43.0111" lon="1.36705">
        <ele>382.4</ele>
        <time>2022-09-03T12:54:25Z</time>
      </trkpt>
      <trkpt lat="43.01088" lon="1.36677">
        <ele>382.8</ele>
        <time>2022-09-03T12:54:33Z</time>
      </trkpt>
      <trkpt lat="43.01071" lon="1.36655">
        <ele>383</ele>
        <time>2022-09-03T12:54:39Z</time>
      </trkpt>
      <trkpt lat="43.01065" lon="1.36647">
        <ele>383.4</ele>
        <time>2022-09-03T12:54:41Z</time>
      </trkpt>
      <trkpt lat="43.01055" lon="1.36627">
        <ele>383.8</ele>
        <time>2022-09-03T12:54:46Z</time>
      </trkpt>
      <trkpt lat="43.01038" lon="1.36604">
        <ele>383.8</ele>
        <time>2022-09-03T12:54:52Z</time>
      </trkpt>
      <trkpt lat="43.01016" lon="1.36574">
        <ele>384.2</ele>
        <time>2022-09-03T12:55:00Z</time>
      </trkpt>
      <trkpt lat="43.01008" lon="1.36563">
        <ele>384.4</ele>
        <time>2022-09-03T12:55:03Z</time>
      </trkpt>
      <trkpt lat="43.00991" lon="1.36536">
        <ele>385</ele>
        <time>2022-09-03T12:55:10Z</time>
      </trkpt>
      <trkpt lat="43.00975" lon="1.36514">
        <ele>385.4</ele>
        <time>2022-09-03T12:55:16Z</time>
      </trkpt>
      <trkpt lat="43.00962" lon="1.36495">
        <ele>385.8</ele>
        <time>2022-09-03T12:55:21Z</time>
      </trkpt>
      <trkpt lat="43.0094" lon="1.36462">
        <ele>386.4</ele>
        <time>2022-09-03T12:55:30Z</time>
      </trkpt>
      <trkpt lat="43.00934" lon="1.36454">
        <ele>386.6</ele>
        <time>2022-09-03T12:55:32Z</time>
      </trkpt>
      <trkpt lat="43.00904" lon="1.36411">
        <ele>387.2</ele>
        <time>2022-09-03T12:55:44Z</time>
      </trkpt>
      <trkpt lat="43.00899" lon="1.36404">
        <ele>387.4</ele>
        <time>2022-09-03T12:55:46Z</time>
      </trkpt>
      <trkpt lat="43.00889" lon="1.36391">
        <ele>387.6</ele>
        <time>2022-09-03T12:55:50Z</time>
      </trkpt>
      <trkpt lat="43.00868" lon="1.36359">
        <ele>388</ele>
        <time>2022-09-03T12:55:59Z</time>
      </trkpt>
      <trkpt lat="43.00859" lon="1.36346">
        <ele>388.6</ele>
        <time>2022-09-03T12:56:03Z</time>
      </trkpt>
      <trkpt lat="43.00854" lon="1.36338">
        <ele>388.4</ele>
        <time>2022-09-03T12:56:06Z</time>
      </trkpt>
      <trkpt lat="43.0084" lon="1.36318">
        <ele>388.8</ele>
        <time>2022-09-03T12:56:14Z</time>
      </trkpt>
      <trkpt lat="43.00817" lon="1.36285">
        <ele>389.2</ele>
        <time>2022-09-03T12:56:24Z</time>
      </trkpt>
      <trkpt lat="43.00802" lon="1.36261">
        <ele>389.6</ele>
        <time>2022-09-03T12:56:31Z</time>
      </trkpt>
      <trkpt lat="43.008" lon="1.36258">
        <ele>389.6</ele>
        <time>2022-09-03T12:56:32Z</time>
      </trkpt>
      <trkpt lat="43.00794" lon="1.36248">
        <ele>389.6</ele>
        <time>2022-09-03T12:56:37Z</time>
      </trkpt>
      <trkpt lat="43.00794" lon="1.36249">
        <ele>389.6</ele>
        <time>2022-09-03T12:56:38Z</time>
      </trkpt>
      <trkpt lat="43.00794" lon="1.36248">
        <ele>389.6</ele>
        <time>2022-09-03T12:57:46Z</time>
      </trkpt>
      <trkpt lat="43.00792" lon="1.36245">
        <ele>389.8</ele>
        <time>2022-09-03T12:57:47Z</time>
      </trkpt>
      <trkpt lat="43.00776" lon="1.36222">
        <ele>390.2</ele>
        <time>2022-09-03T12:57:54Z</time>
      </trkpt>
      <trkpt lat="43.00768" lon="1.36212">
        <ele>390.6</ele>
        <time>2022-09-03T12:57:57Z</time>
      </trkpt>
      <trkpt lat="43.00753" lon="1.36188">
        <ele>391</ele>
        <time>2022-09-03T12:58:03Z</time>
      </trkpt>
      <trkpt lat="43.00734" lon="1.36154">
        <ele>391.2</ele>
        <time>2022-09-03T12:58:11Z</time>
      </trkpt>
      <trkpt lat="43.00728" lon="1.36139">
        <ele>391.4</ele>
        <time>2022-09-03T12:58:14Z</time>
      </trkpt>
      <trkpt lat="43.00724" lon="1.3613">
        <ele>391.6</ele>
        <time>2022-09-03T12:58:16Z</time>
      </trkpt>
      <trkpt lat="43.00719" lon="1.3612">
        <ele>391.8</ele>
        <time>2022-09-03T12:58:18Z</time>
      </trkpt>
      <trkpt lat="43.00701" lon="1.36071">
        <ele>392.6</ele>
        <time>2022-09-03T12:58:28Z</time>
      </trkpt>
      <trkpt lat="43.00699" lon="1.36067">
        <ele>392.6</ele>
        <time>2022-09-03T12:58:29Z</time>
      </trkpt>
      <trkpt lat="43.00691" lon="1.36042">
        <ele>392.8</ele>
        <time>2022-09-03T12:58:35Z</time>
      </trkpt>
      <trkpt lat="43.00683" lon="1.36011">
        <ele>393</ele>
        <time>2022-09-03T12:58:42Z</time>
      </trkpt>
      <trkpt lat="43.00672" lon="1.35969">
        <ele>393.8</ele>
        <time>2022-09-03T12:58:51Z</time>
      </trkpt>
      <trkpt lat="43.0066" lon="1.3592">
        <ele>394.2</ele>
        <time>2022-09-03T12:59:01Z</time>
      </trkpt>
      <trkpt lat="43.00654" lon="1.3589">
        <ele>394.8</ele>
        <time>2022-09-03T12:59:07Z</time>
      </trkpt>
      <trkpt lat="43.00649" lon="1.35867">
        <ele>395.2</ele>
        <time>2022-09-03T12:59:12Z</time>
      </trkpt>
      <trkpt lat="43.0064" lon="1.35831">
        <ele>395.4</ele>
        <time>2022-09-03T12:59:20Z</time>
      </trkpt>
      <trkpt lat="43.00632" lon="1.35793">
        <ele>395.8</ele>
        <time>2022-09-03T12:59:28Z</time>
      </trkpt>
      <trkpt lat="43.00623" lon="1.35755">
        <ele>396.4</ele>
        <time>2022-09-03T12:59:36Z</time>
      </trkpt>
      <trkpt lat="43.00614" lon="1.35712">
        <ele>396.8</ele>
        <time>2022-09-03T12:59:45Z</time>
      </trkpt>
      <trkpt lat="43.00612" lon="1.35701">
        <ele>397</ele>
        <time>2022-09-03T12:59:47Z</time>
      </trkpt>
      <trkpt lat="43.00603" lon="1.35662">
        <ele>397.6</ele>
        <time>2022-09-03T12:59:55Z</time>
      </trkpt>
      <trkpt lat="43.00596" lon="1.35632">
        <ele>398</ele>
        <time>2022-09-03T13:00:01Z</time>
      </trkpt>
      <trkpt lat="43.0059" lon="1.35607">
        <ele>398.2</ele>
        <time>2022-09-03T13:00:06Z</time>
      </trkpt>
      <trkpt lat="43.00589" lon="1.35602">
        <ele>398.2</ele>
        <time>2022-09-03T13:00:07Z</time>
      </trkpt>
      <trkpt lat="43.00583" lon="1.35582">
        <ele>398.6</ele>
        <time>2022-09-03T13:00:11Z</time>
      </trkpt>
      <trkpt lat="43.00575" lon="1.35556">
        <ele>399</ele>
        <time>2022-09-03T13:00:16Z</time>
      </trkpt>
      <trkpt lat="43.00572" lon="1.35546">
        <ele>399</ele>
        <time>2022-09-03T13:00:18Z</time>
      </trkpt>
      <trkpt lat="43.00559" lon="1.35504">
        <ele>399.8</ele>
        <time>2022-09-03T13:00:26Z</time>
      </trkpt>
      <trkpt lat="43.00551" lon="1.35478">
        <ele>400</ele>
        <time>2022-09-03T13:00:31Z</time>
      </trkpt>
      <trkpt lat="43.00547" lon="1.35467">
        <ele>400.4</ele>
        <time>2022-09-03T13:00:33Z</time>
      </trkpt>
      <trkpt lat="43.00533" lon="1.35418">
        <ele>401</ele>
        <time>2022-09-03T13:00:42Z</time>
      </trkpt>
      <trkpt lat="43.00531" lon="1.35413">
        <ele>401</ele>
        <time>2022-09-03T13:00:43Z</time>
      </trkpt>
      <trkpt lat="43.00514" lon="1.35353">
        <ele>401.6</ele>
        <time>2022-09-03T13:00:54Z</time>
      </trkpt>
      <trkpt lat="43.00501" lon="1.35311">
        <ele>402.2</ele>
        <time>2022-09-03T13:01:02Z</time>
      </trkpt>
      <trkpt lat="43.00486" lon="1.35263">
        <ele>403</ele>
        <time>2022-09-03T13:01:11Z</time>
      </trkpt>
      <trkpt lat="43.00483" lon="1.35252">
        <ele>403.2</ele>
        <time>2022-09-03T13:01:13Z</time>
      </trkpt>
      <trkpt lat="43.00474" lon="1.3522">
        <ele>403.6</ele>
        <time>2022-09-03T13:01:19Z</time>
      </trkpt>
      <trkpt lat="43.0046" lon="1.35178">
        <ele>404.2</ele>
        <time>2022-09-03T13:01:27Z</time>
      </trkpt>
      <trkpt lat="43.00458" lon="1.35167">
        <ele>404.4</ele>
        <time>2022-09-03T13:01:29Z</time>
      </trkpt>
      <trkpt lat="43.0045" lon="1.3513">
        <ele>405</ele>
        <time>2022-09-03T13:01:36Z</time>
      </trkpt>
      <trkpt lat="43.00445" lon="1.35099">
        <ele>405.4</ele>
        <time>2022-09-03T13:01:42Z</time>
      </trkpt>
      <trkpt lat="43.00439" lon="1.35059">
        <ele>405.6</ele>
        <time>2022-09-03T13:01:49Z</time>
      </trkpt>
      <trkpt lat="43.00434" lon="1.3502">
        <ele>406.4</ele>
        <time>2022-09-03T13:01:56Z</time>
      </trkpt>
      <trkpt lat="43.00434" lon="1.35014">
        <ele>406.4</ele>
        <time>2022-09-03T13:01:57Z</time>
      </trkpt>
      <trkpt lat="43.00429" lon="1.34984">
        <ele>407</ele>
        <time>2022-09-03T13:02:03Z</time>
      </trkpt>
      <trkpt lat="43.00428" lon="1.34958">
        <ele>407.2</ele>
        <time>2022-09-03T13:02:08Z</time>
      </trkpt>
      <trkpt lat="43.00428" lon="1.34948">
        <ele>407.4</ele>
        <time>2022-09-03T13:02:10Z</time>
      </trkpt>
      <trkpt lat="43.00427" lon="1.34927">
        <ele>407.6</ele>
        <time>2022-09-03T13:02:14Z</time>
      </trkpt>
      <trkpt lat="43.00427" lon="1.34896">
        <ele>408</ele>
        <time>2022-09-03T13:02:20Z</time>
      </trkpt>
      <trkpt lat="43.00428" lon="1.3486">
        <ele>408.4</ele>
        <time>2022-09-03T13:02:26Z</time>
      </trkpt>
      <trkpt lat="43.00429" lon="1.34819">
        <ele>408.6</ele>
        <time>2022-09-03T13:02:33Z</time>
      </trkpt>
      <trkpt lat="43.00431" lon="1.34781">
        <ele>409</ele>
        <time>2022-09-03T13:02:40Z</time>
      </trkpt>
      <trkpt lat="43.00432" lon="1.34771">
        <ele>409.4</ele>
        <time>2022-09-03T13:02:42Z</time>
      </trkpt>
      <trkpt lat="43.00432" lon="1.34751">
        <ele>409.6</ele>
        <time>2022-09-03T13:02:46Z</time>
      </trkpt>
      <trkpt lat="43.0043" lon="1.34724">
        <ele>409.8</ele>
        <time>2022-09-03T13:02:51Z</time>
      </trkpt>
      <trkpt lat="43.00428" lon="1.34683">
        <ele>410.2</ele>
        <time>2022-09-03T13:02:58Z</time>
      </trkpt>
      <trkpt lat="43.00424" lon="1.34637">
        <ele>410.2</ele>
        <time>2022-09-03T13:03:05Z</time>
      </trkpt>
      <trkpt lat="43.00423" lon="1.3463">
        <ele>410.6</ele>
        <time>2022-09-03T13:03:06Z</time>
      </trkpt>
      <trkpt lat="43.00416" lon="1.34591">
        <ele>410.4</ele>
        <time>2022-09-03T13:03:12Z</time>
      </trkpt>
      <trkpt lat="43.00407" lon="1.34541">
        <ele>410.6</ele>
        <time>2022-09-03T13:03:20Z</time>
      </trkpt>
      <trkpt lat="43.00401" lon="1.34501">
        <ele>410.6</ele>
        <time>2022-09-03T13:03:27Z</time>
      </trkpt>
      <trkpt lat="43.00393" lon="1.34451">
        <ele>410.4</ele>
        <time>2022-09-03T13:03:36Z</time>
      </trkpt>
      <trkpt lat="43.00387" lon="1.34409">
        <ele>410.6</ele>
        <time>2022-09-03T13:03:43Z</time>
      </trkpt>
      <trkpt lat="43.0038" lon="1.34361">
        <ele>410.2</ele>
        <time>2022-09-03T13:03:50Z</time>
      </trkpt>
      <trkpt lat="43.00374" lon="1.3432">
        <ele>410.4</ele>
        <time>2022-09-03T13:03:56Z</time>
      </trkpt>
      <trkpt lat="43.00364" lon="1.34253">
        <ele>411</ele>
        <time>2022-09-03T13:04:06Z</time>
      </trkpt>
      <trkpt lat="43.00358" lon="1.34205">
        <ele>411.6</ele>
        <time>2022-09-03T13:04:13Z</time>
      </trkpt>
      <trkpt lat="43.00357" lon="1.34198">
        <ele>411.6</ele>
        <time>2022-09-03T13:04:14Z</time>
      </trkpt>
      <trkpt lat="43.0035" lon="1.34158">
        <ele>412.4</ele>
        <time>2022-09-03T13:04:20Z</time>
      </trkpt>
      <trkpt lat="43.00347" lon="1.34131">
        <ele>412.4</ele>
        <time>2022-09-03T13:04:24Z</time>
      </trkpt>
      <trkpt lat="43.00344" lon="1.34111">
        <ele>412.6</ele>
        <time>2022-09-03T13:04:27Z</time>
      </trkpt>
      <trkpt lat="43.00339" lon="1.34079">
        <ele>413</ele>
        <time>2022-09-03T13:04:32Z</time>
      </trkpt>
      <trkpt lat="43.00332" lon="1.34034">
        <ele>413.4</ele>
        <time>2022-09-03T13:04:39Z</time>
      </trkpt>
      <trkpt lat="43.00329" lon="1.34016">
        <ele>413.8</ele>
        <time>2022-09-03T13:04:42Z</time>
      </trkpt>
      <trkpt lat="43.00323" lon="1.33988">
        <ele>414.2</ele>
        <time>2022-09-03T13:04:47Z</time>
      </trkpt>
      <trkpt lat="43.00319" lon="1.33961">
        <ele>414.6</ele>
        <time>2022-09-03T13:04:53Z</time>
      </trkpt>
      <trkpt lat="43.00317" lon="1.33945">
        <ele>414.8</ele>
        <time>2022-09-03T13:04:56Z</time>
      </trkpt>
      <trkpt lat="43.00314" lon="1.33924">
        <ele>415.2</ele>
        <time>2022-09-03T13:05:00Z</time>
      </trkpt>
      <trkpt lat="43.00312" lon="1.33913">
        <ele>415.4</ele>
        <time>2022-09-03T13:05:02Z</time>
      </trkpt>
      <trkpt lat="43.00307" lon="1.33884">
        <ele>415.8</ele>
        <time>2022-09-03T13:05:07Z</time>
      </trkpt>
      <trkpt lat="43.00306" lon="1.33879">
        <ele>416</ele>
        <time>2022-09-03T13:05:08Z</time>
      </trkpt>
      <trkpt lat="43.00298" lon="1.33833">
        <ele>416.6</ele>
        <time>2022-09-03T13:05:16Z</time>
      </trkpt>
      <trkpt lat="43.00288" lon="1.3378">
        <ele>417</ele>
        <time>2022-09-03T13:05:26Z</time>
      </trkpt>
      <trkpt lat="43.00284" lon="1.33748">
        <ele>417.4</ele>
        <time>2022-09-03T13:05:32Z</time>
      </trkpt>
      <trkpt lat="43.00279" lon="1.33712">
        <ele>418</ele>
        <time>2022-09-03T13:05:39Z</time>
      </trkpt>
      <trkpt lat="43.00277" lon="1.33701">
        <ele>418.2</ele>
        <time>2022-09-03T13:05:41Z</time>
      </trkpt>
      <trkpt lat="43.0027" lon="1.33656">
        <ele>418.6</ele>
        <time>2022-09-03T13:05:50Z</time>
      </trkpt>
      <trkpt lat="43.00265" lon="1.33625">
        <ele>419.2</ele>
        <time>2022-09-03T13:05:56Z</time>
      </trkpt>
      <trkpt lat="43.00264" lon="1.33613">
        <ele>419.6</ele>
        <time>2022-09-03T13:05:59Z</time>
      </trkpt>
      <trkpt lat="43.00261" lon="1.33596">
        <ele>419.8</ele>
        <time>2022-09-03T13:06:04Z</time>
      </trkpt>
      <trkpt lat="43.00256" lon="1.33569">
        <ele>420</ele>
        <time>2022-09-03T13:06:10Z</time>
      </trkpt>
      <trkpt lat="43.00252" lon="1.33553">
        <ele>420.4</ele>
        <time>2022-09-03T13:06:14Z</time>
      </trkpt>
      <trkpt lat="43.00249" lon="1.33543">
        <ele>420.6</ele>
        <time>2022-09-03T13:06:16Z</time>
      </trkpt>
      <trkpt lat="43.00239" lon="1.33506">
        <ele>421</ele>
        <time>2022-09-03T13:06:23Z</time>
      </trkpt>
      <trkpt lat="43.00229" lon="1.33478">
        <ele>421.4</ele>
        <time>2022-09-03T13:06:29Z</time>
      </trkpt>
      <trkpt lat="43.00226" lon="1.33468">
        <ele>421.6</ele>
        <time>2022-09-03T13:06:31Z</time>
      </trkpt>
      <trkpt lat="43.00209" lon="1.33421">
        <ele>421.8</ele>
        <time>2022-09-03T13:06:40Z</time>
      </trkpt>
      <trkpt lat="43.00196" lon="1.33386">
        <ele>422.4</ele>
        <time>2022-09-03T13:06:47Z</time>
      </trkpt>
      <trkpt lat="43.00193" lon="1.33376">
        <ele>422.6</ele>
        <time>2022-09-03T13:06:49Z</time>
      </trkpt>
      <trkpt lat="43.00177" lon="1.33337">
        <ele>423.2</ele>
        <time>2022-09-03T13:06:57Z</time>
      </trkpt>
      <trkpt lat="43.0017" lon="1.33316">
        <ele>423.6</ele>
        <time>2022-09-03T13:07:01Z</time>
      </trkpt>
      <trkpt lat="43.0016" lon="1.33291">
        <ele>424</ele>
        <time>2022-09-03T13:07:06Z</time>
      </trkpt>
      <trkpt lat="43.00157" lon="1.3328">
        <ele>424.2</ele>
        <time>2022-09-03T13:07:08Z</time>
      </trkpt>
      <trkpt lat="43.00146" lon="1.33256">
        <ele>424.4</ele>
        <time>2022-09-03T13:07:13Z</time>
      </trkpt>
      <trkpt lat="43.00141" lon="1.33248">
        <ele>424.6</ele>
        <time>2022-09-03T13:07:15Z</time>
      </trkpt>
      <trkpt lat="43.00129" lon="1.33225">
        <ele>425</ele>
        <time>2022-09-03T13:07:20Z</time>
      </trkpt>
      <trkpt lat="43.00107" lon="1.33187">
        <ele>425.4</ele>
        <time>2022-09-03T13:07:29Z</time>
      </trkpt>
      <trkpt lat="43.00104" lon="1.33183">
        <ele>425.6</ele>
        <time>2022-09-03T13:07:30Z</time>
      </trkpt>
      <trkpt lat="43.00083" lon="1.33151">
        <ele>426.6</ele>
        <time>2022-09-03T13:07:38Z</time>
      </trkpt>
      <trkpt lat="43.00077" lon="1.33142">
        <ele>426.6</ele>
        <time>2022-09-03T13:07:40Z</time>
      </trkpt>
      <trkpt lat="43.00054" lon="1.33109">
        <ele>427.2</ele>
        <time>2022-09-03T13:07:48Z</time>
      </trkpt>
      <trkpt lat="43.00031" lon="1.33076">
        <ele>427.6</ele>
        <time>2022-09-03T13:07:56Z</time>
      </trkpt>
      <trkpt lat="43.00025" lon="1.33069">
        <ele>428</ele>
        <time>2022-09-03T13:07:58Z</time>
      </trkpt>
      <trkpt lat="43.00004" lon="1.33037">
        <ele>428.4</ele>
        <time>2022-09-03T13:08:06Z</time>
      </trkpt>
      <trkpt lat="42.99995" lon="1.33025">
        <ele>428.8</ele>
        <time>2022-09-03T13:08:09Z</time>
      </trkpt>
      <trkpt lat="42.99992" lon="1.3302">
        <ele>428.8</ele>
        <time>2022-09-03T13:08:10Z</time>
      </trkpt>
      <trkpt lat="42.99984" lon="1.33007">
        <ele>429</ele>
        <time>2022-09-03T13:08:13Z</time>
      </trkpt>
      <trkpt lat="42.99961" lon="1.32977">
        <ele>429.4</ele>
        <time>2022-09-03T13:08:21Z</time>
      </trkpt>
      <trkpt lat="42.99948" lon="1.32958">
        <ele>429.8</ele>
        <time>2022-09-03T13:08:27Z</time>
      </trkpt>
      <trkpt lat="42.99946" lon="1.32954">
        <ele>430</ele>
        <time>2022-09-03T13:08:28Z</time>
      </trkpt>
      <trkpt lat="42.99932" lon="1.32931">
        <ele>430.4</ele>
        <time>2022-09-03T13:08:34Z</time>
      </trkpt>
      <trkpt lat="42.99911" lon="1.32895">
        <ele>431</ele>
        <time>2022-09-03T13:08:43Z</time>
      </trkpt>
      <trkpt lat="42.99896" lon="1.3287">
        <ele>431.6</ele>
        <time>2022-09-03T13:08:49Z</time>
      </trkpt>
      <trkpt lat="42.99884" lon="1.32848">
        <ele>432</ele>
        <time>2022-09-03T13:08:54Z</time>
      </trkpt>
      <trkpt lat="42.99882" lon="1.32844">
        <ele>432.2</ele>
        <time>2022-09-03T13:08:55Z</time>
      </trkpt>
      <trkpt lat="42.99869" lon="1.32814">
        <ele>432.6</ele>
        <time>2022-09-03T13:09:01Z</time>
      </trkpt>
      <trkpt lat="42.99857" lon="1.32787">
        <ele>433</ele>
        <time>2022-09-03T13:09:07Z</time>
      </trkpt>
      <trkpt lat="42.99855" lon="1.32782">
        <ele>433</ele>
        <time>2022-09-03T13:09:08Z</time>
      </trkpt>
      <trkpt lat="42.9984" lon="1.32741">
        <ele>433.4</ele>
        <time>2022-09-03T13:09:16Z</time>
      </trkpt>
      <trkpt lat="42.99825" lon="1.32704">
        <ele>433.8</ele>
        <time>2022-09-03T13:09:23Z</time>
      </trkpt>
      <trkpt lat="42.99821" lon="1.32693">
        <ele>433.8</ele>
        <time>2022-09-03T13:09:25Z</time>
      </trkpt>
      <trkpt lat="42.99817" lon="1.32683">
        <ele>434</ele>
        <time>2022-09-03T13:09:27Z</time>
      </trkpt>
      <trkpt lat="42.99804" lon="1.32649">
        <ele>434.8</ele>
        <time>2022-09-03T13:09:34Z</time>
      </trkpt>
      <trkpt lat="42.99795" lon="1.3262">
        <ele>435</ele>
        <time>2022-09-03T13:09:40Z</time>
      </trkpt>
      <trkpt lat="42.99792" lon="1.3261">
        <ele>435.2</ele>
        <time>2022-09-03T13:09:42Z</time>
      </trkpt>
      <trkpt lat="42.99785" lon="1.32586">
        <ele>435.4</ele>
        <time>2022-09-03T13:09:47Z</time>
      </trkpt>
      <trkpt lat="42.99773" lon="1.3254">
        <ele>436.2</ele>
        <time>2022-09-03T13:09:56Z</time>
      </trkpt>
      <trkpt lat="42.99772" lon="1.32535">
        <ele>436.2</ele>
        <time>2022-09-03T13:09:57Z</time>
      </trkpt>
      <trkpt lat="42.99763" lon="1.32495">
        <ele>436.8</ele>
        <time>2022-09-03T13:10:05Z</time>
      </trkpt>
      <trkpt lat="42.99754" lon="1.32453">
        <ele>436.8</ele>
        <time>2022-09-03T13:10:13Z</time>
      </trkpt>
      <trkpt lat="42.99748" lon="1.32427">
        <ele>437.2</ele>
        <time>2022-09-03T13:10:18Z</time>
      </trkpt>
      <trkpt lat="42.99743" lon="1.32402">
        <ele>437.8</ele>
        <time>2022-09-03T13:10:23Z</time>
      </trkpt>
      <trkpt lat="42.99737" lon="1.32376">
        <ele>438.2</ele>
        <time>2022-09-03T13:10:28Z</time>
      </trkpt>
      <trkpt lat="42.99731" lon="1.32344">
        <ele>438.8</ele>
        <time>2022-09-03T13:10:34Z</time>
      </trkpt>
      <trkpt lat="42.99722" lon="1.32308">
        <ele>438.8</ele>
        <time>2022-09-03T13:10:41Z</time>
      </trkpt>
      <trkpt lat="42.99718" lon="1.32287">
        <ele>439.4</ele>
        <time>2022-09-03T13:10:45Z</time>
      </trkpt>
      <trkpt lat="42.99712" lon="1.32261">
        <ele>440</ele>
        <time>2022-09-03T13:10:50Z</time>
      </trkpt>
      <trkpt lat="42.99707" lon="1.32233">
        <ele>440</ele>
        <time>2022-09-03T13:10:56Z</time>
      </trkpt>
      <trkpt lat="42.99702" lon="1.32209">
        <ele>440.2</ele>
        <time>2022-09-03T13:11:02Z</time>
      </trkpt>
      <trkpt lat="42.99697" lon="1.32196">
        <ele>440.4</ele>
        <time>2022-09-03T13:11:05Z</time>
      </trkpt>
      <trkpt lat="42.99691" lon="1.32176">
        <ele>441</ele>
        <time>2022-09-03T13:11:09Z</time>
      </trkpt>
      <trkpt lat="42.99683" lon="1.32153">
        <ele>441.2</ele>
        <time>2022-09-03T13:11:14Z</time>
      </trkpt>
      <trkpt lat="42.99675" lon="1.32128">
        <ele>441.4</ele>
        <time>2022-09-03T13:11:19Z</time>
      </trkpt>
      <trkpt lat="42.99666" lon="1.32105">
        <ele>442</ele>
        <time>2022-09-03T13:11:24Z</time>
      </trkpt>
      <trkpt lat="42.99654" lon="1.32073">
        <ele>442</ele>
        <time>2022-09-03T13:11:31Z</time>
      </trkpt>
      <trkpt lat="42.99641" lon="1.32048">
        <ele>442.4</ele>
        <time>2022-09-03T13:11:37Z</time>
      </trkpt>
      <trkpt lat="42.99637" lon="1.3204">
        <ele>442.8</ele>
        <time>2022-09-03T13:11:39Z</time>
      </trkpt>
      <trkpt lat="42.99621" lon="1.32004">
        <ele>443.2</ele>
        <time>2022-09-03T13:11:47Z</time>
      </trkpt>
      <trkpt lat="42.99613" lon="1.31986">
        <ele>443.6</ele>
        <time>2022-09-03T13:11:51Z</time>
      </trkpt>
      <trkpt lat="42.9961" lon="1.31982">
        <ele>443.4</ele>
        <time>2022-09-03T13:11:52Z</time>
      </trkpt>
      <trkpt lat="42.99595" lon="1.31954">
        <ele>444</ele>
        <time>2022-09-03T13:11:59Z</time>
      </trkpt>
      <trkpt lat="42.99579" lon="1.3192">
        <ele>444.6</ele>
        <time>2022-09-03T13:12:07Z</time>
      </trkpt>
      <trkpt lat="42.99571" lon="1.31904">
        <ele>445</ele>
        <time>2022-09-03T13:12:12Z</time>
      </trkpt>
      <trkpt lat="42.99558" lon="1.3188">
        <ele>445.4</ele>
        <time>2022-09-03T13:12:19Z</time>
      </trkpt>
      <trkpt lat="42.99554" lon="1.31871">
        <ele>445.6</ele>
        <time>2022-09-03T13:12:21Z</time>
      </trkpt>
      <trkpt lat="42.99546" lon="1.31855">
        <ele>445.6</ele>
        <time>2022-09-03T13:12:24Z</time>
      </trkpt>
      <trkpt lat="42.99533" lon="1.31822">
        <ele>446.2</ele>
        <time>2022-09-03T13:12:31Z</time>
      </trkpt>
      <trkpt lat="42.99527" lon="1.31807">
        <ele>446.6</ele>
        <time>2022-09-03T13:12:34Z</time>
      </trkpt>
      <trkpt lat="42.99516" lon="1.31778">
        <ele>447.4</ele>
        <time>2022-09-03T13:12:40Z</time>
      </trkpt>
      <trkpt lat="42.9951" lon="1.31764">
        <ele>447.8</ele>
        <time>2022-09-03T13:12:43Z</time>
      </trkpt>
      <trkpt lat="42.99498" lon="1.31745">
        <ele>448</ele>
        <time>2022-09-03T13:12:49Z</time>
      </trkpt>
      <trkpt lat="42.9948" lon="1.3173">
        <ele>448.4</ele>
        <time>2022-09-03T13:12:56Z</time>
      </trkpt>
      <trkpt lat="42.9947" lon="1.31707">
        <ele>448.2</ele>
        <time>2022-09-03T13:13:02Z</time>
      </trkpt>
      <trkpt lat="42.99464" lon="1.31688">
        <ele>448</ele>
        <time>2022-09-03T13:13:08Z</time>
      </trkpt>
      <trkpt lat="42.99459" lon="1.31676">
        <ele>448.6</ele>
        <time>2022-09-03T13:13:13Z</time>
      </trkpt>
      <trkpt lat="42.99456" lon="1.31671">
        <ele>448.8</ele>
        <time>2022-09-03T13:13:15Z</time>
      </trkpt>
      <trkpt lat="42.99447" lon="1.31653">
        <ele>449</ele>
        <time>2022-09-03T13:13:21Z</time>
      </trkpt>
      <trkpt lat="42.99432" lon="1.31621">
        <ele>448.8</ele>
        <time>2022-09-03T13:13:29Z</time>
      </trkpt>
      <trkpt lat="42.99417" lon="1.31591">
        <ele>449.4</ele>
        <time>2022-09-03T13:13:36Z</time>
      </trkpt>
      <trkpt lat="42.99403" lon="1.31558">
        <ele>449.8</ele>
        <time>2022-09-03T13:13:43Z</time>
      </trkpt>
      <trkpt lat="42.99401" lon="1.31553">
        <ele>450</ele>
        <time>2022-09-03T13:13:44Z</time>
      </trkpt>
      <trkpt lat="42.99394" lon="1.31534">
        <ele>450.2</ele>
        <time>2022-09-03T13:13:48Z</time>
      </trkpt>
      <trkpt lat="42.9938" lon="1.31502">
        <ele>450.8</ele>
        <time>2022-09-03T13:13:55Z</time>
      </trkpt>
      <trkpt lat="42.99378" lon="1.31498">
        <ele>451</ele>
        <time>2022-09-03T13:13:56Z</time>
      </trkpt>
      <trkpt lat="42.99364" lon="1.31466">
        <ele>451.6</ele>
        <time>2022-09-03T13:14:03Z</time>
      </trkpt>
      <trkpt lat="42.99358" lon="1.31449">
        <ele>452</ele>
        <time>2022-09-03T13:14:07Z</time>
      </trkpt>
      <trkpt lat="42.99354" lon="1.31434">
        <ele>452.2</ele>
        <time>2022-09-03T13:14:10Z</time>
      </trkpt>
      <trkpt lat="42.99343" lon="1.31384">
        <ele>452.8</ele>
        <time>2022-09-03T13:14:20Z</time>
      </trkpt>
      <trkpt lat="42.99342" lon="1.31379">
        <ele>453</ele>
        <time>2022-09-03T13:14:21Z</time>
      </trkpt>
      <trkpt lat="42.99335" lon="1.31341">
        <ele>453.8</ele>
        <time>2022-09-03T13:14:29Z</time>
      </trkpt>
      <trkpt lat="42.99331" lon="1.31301">
        <ele>454</ele>
        <time>2022-09-03T13:14:37Z</time>
      </trkpt>
      <trkpt lat="42.99329" lon="1.31285">
        <ele>454.2</ele>
        <time>2022-09-03T13:14:40Z</time>
      </trkpt>
      <trkpt lat="42.99328" lon="1.31238">
        <ele>454.8</ele>
        <time>2022-09-03T13:14:49Z</time>
      </trkpt>
      <trkpt lat="42.99328" lon="1.31227">
        <ele>455</ele>
        <time>2022-09-03T13:14:51Z</time>
      </trkpt>
      <trkpt lat="42.99328" lon="1.31185">
        <ele>455.4</ele>
        <time>2022-09-03T13:14:59Z</time>
      </trkpt>
      <trkpt lat="42.99331" lon="1.3114">
        <ele>456</ele>
        <time>2022-09-03T13:15:08Z</time>
      </trkpt>
      <trkpt lat="42.99332" lon="1.3113">
        <ele>456</ele>
        <time>2022-09-03T13:15:10Z</time>
      </trkpt>
      <trkpt lat="42.9934" lon="1.31076">
        <ele>456.8</ele>
        <time>2022-09-03T13:15:21Z</time>
      </trkpt>
      <trkpt lat="42.99344" lon="1.31048">
        <ele>457.2</ele>
        <time>2022-09-03T13:15:27Z</time>
      </trkpt>
      <trkpt lat="42.99348" lon="1.31028">
        <ele>457.6</ele>
        <time>2022-09-03T13:15:33Z</time>
      </trkpt>
      <trkpt lat="42.99348" lon="1.31028">
        <ele>458.2</ele>
        <time>2022-09-03T13:15:44Z</time>
      </trkpt>
      <trkpt lat="42.99348" lon="1.31028">
        <ele>459.2</ele>
        <time>2022-09-03T13:16:01Z</time>
      </trkpt>
      <trkpt lat="42.99348" lon="1.31028">
        <ele>460.4</ele>
        <time>2022-09-03T13:16:28Z</time>
      </trkpt>
      <trkpt lat="42.99408" lon="1.3072">
        <ele>460.8</ele>
        <time>2022-09-03T13:16:42Z</time>
      </trkpt>
      <trkpt lat="42.99408" lon="1.30705">
        <ele>460.8</ele>
        <time>2022-09-03T13:16:46Z</time>
      </trkpt>
      <trkpt lat="42.99411" lon="1.30699">
        <ele>460.6</ele>
        <time>2022-09-03T13:18:50Z</time>
      </trkpt>
      <trkpt lat="42.99413" lon="1.30695">
        <ele>460.6</ele>
        <time>2022-09-03T13:18:52Z</time>
      </trkpt>
      <trkpt lat="42.99415" lon="1.30684">
        <ele>461</ele>
        <time>2022-09-03T13:18:55Z</time>
      </trkpt>
      <trkpt lat="42.99417" lon="1.30671">
        <ele>461</ele>
        <time>2022-09-03T13:18:58Z</time>
      </trkpt>
      <trkpt lat="42.9942" lon="1.30655">
        <ele>461.4</ele>
        <time>2022-09-03T13:19:02Z</time>
      </trkpt>
      <trkpt lat="42.99422" lon="1.30642">
        <ele>461.6</ele>
        <time>2022-09-03T13:19:05Z</time>
      </trkpt>
      <trkpt lat="42.99428" lon="1.30608">
        <ele>462.2</ele>
        <time>2022-09-03T13:19:12Z</time>
      </trkpt>
      <trkpt lat="42.99432" lon="1.30584">
        <ele>462.4</ele>
        <time>2022-09-03T13:19:17Z</time>
      </trkpt>
      <trkpt lat="42.99433" lon="1.3058">
        <ele>462.6</ele>
        <time>2022-09-03T13:19:18Z</time>
      </trkpt>
      <trkpt lat="42.9944" lon="1.30549">
        <ele>462.8</ele>
        <time>2022-09-03T13:19:24Z</time>
      </trkpt>
      <trkpt lat="42.99445" lon="1.30517">
        <ele>463.2</ele>
        <time>2022-09-03T13:19:30Z</time>
      </trkpt>
      <trkpt lat="42.99447" lon="1.30506">
        <ele>463.6</ele>
        <time>2022-09-03T13:19:32Z</time>
      </trkpt>
      <trkpt lat="42.99451" lon="1.30486">
        <ele>463.6</ele>
        <time>2022-09-03T13:19:36Z</time>
      </trkpt>
      <trkpt lat="42.99458" lon="1.30441">
        <ele>464.2</ele>
        <time>2022-09-03T13:19:44Z</time>
      </trkpt>
      <trkpt lat="42.99466" lon="1.30403">
        <ele>464.4</ele>
        <time>2022-09-03T13:19:51Z</time>
      </trkpt>
      <trkpt lat="42.99467" lon="1.30398">
        <ele>464.6</ele>
        <time>2022-09-03T13:19:52Z</time>
      </trkpt>
      <trkpt lat="42.99472" lon="1.30357">
        <ele>465.2</ele>
        <time>2022-09-03T13:20:00Z</time>
      </trkpt>
      <trkpt lat="42.99474" lon="1.30315">
        <ele>465.6</ele>
        <time>2022-09-03T13:20:08Z</time>
      </trkpt>
      <trkpt lat="42.99474" lon="1.3031">
        <ele>465.6</ele>
        <time>2022-09-03T13:20:09Z</time>
      </trkpt>
      <trkpt lat="42.99473" lon="1.30278">
        <ele>465.8</ele>
        <time>2022-09-03T13:20:15Z</time>
      </trkpt>
      <trkpt lat="42.99473" lon="1.30246">
        <ele>466.4</ele>
        <time>2022-09-03T13:20:21Z</time>
      </trkpt>
      <trkpt lat="42.99471" lon="1.30225">
        <ele>466.8</ele>
        <time>2022-09-03T13:20:25Z</time>
      </trkpt>
      <trkpt lat="42.99469" lon="1.302">
        <ele>467.4</ele>
        <time>2022-09-03T13:20:30Z</time>
      </trkpt>
      <trkpt lat="42.99466" lon="1.30177">
        <ele>467.4</ele>
        <time>2022-09-03T13:20:35Z</time>
      </trkpt>
      <trkpt lat="42.99463" lon="1.30157">
        <ele>467.8</ele>
        <time>2022-09-03T13:20:40Z</time>
      </trkpt>
      <trkpt lat="42.99463" lon="1.30151">
        <ele>468</ele>
        <time>2022-09-03T13:20:42Z</time>
      </trkpt>
      <trkpt lat="42.99458" lon="1.30127">
        <ele>468.4</ele>
        <time>2022-09-03T13:20:48Z</time>
      </trkpt>
      <trkpt lat="42.99455" lon="1.30102">
        <ele>468.8</ele>
        <time>2022-09-03T13:20:54Z</time>
      </trkpt>
      <trkpt lat="42.99453" lon="1.30093">
        <ele>468.8</ele>
        <time>2022-09-03T13:20:56Z</time>
      </trkpt>
      <trkpt lat="42.9945" lon="1.30075">
        <ele>469</ele>
        <time>2022-09-03T13:21:00Z</time>
      </trkpt>
      <trkpt lat="42.99445" lon="1.30046">
        <ele>469.4</ele>
        <time>2022-09-03T13:21:06Z</time>
      </trkpt>
      <trkpt lat="42.99439" lon="1.30021">
        <ele>470</ele>
        <time>2022-09-03T13:21:11Z</time>
      </trkpt>
      <trkpt lat="42.99438" lon="1.30016">
        <ele>470</ele>
        <time>2022-09-03T13:21:12Z</time>
      </trkpt>
      <trkpt lat="42.9943" lon="1.29977">
        <ele>470.4</ele>
        <time>2022-09-03T13:21:20Z</time>
      </trkpt>
      <trkpt lat="42.99422" lon="1.29943">
        <ele>471</ele>
        <time>2022-09-03T13:21:27Z</time>
      </trkpt>
      <trkpt lat="42.99412" lon="1.29898">
        <ele>471.6</ele>
        <time>2022-09-03T13:21:36Z</time>
      </trkpt>
      <trkpt lat="42.99406" lon="1.29863">
        <ele>471.8</ele>
        <time>2022-09-03T13:21:43Z</time>
      </trkpt>
      <trkpt lat="42.99405" lon="1.29859">
        <ele>472</ele>
        <time>2022-09-03T13:21:44Z</time>
      </trkpt>
      <trkpt lat="42.99397" lon="1.2982">
        <ele>472.6</ele>
        <time>2022-09-03T13:21:52Z</time>
      </trkpt>
      <trkpt lat="42.99394" lon="1.29797">
        <ele>473.2</ele>
        <time>2022-09-03T13:21:57Z</time>
      </trkpt>
      <trkpt lat="42.99391" lon="1.29782">
        <ele>473.2</ele>
        <time>2022-09-03T13:22:00Z</time>
      </trkpt>
      <trkpt lat="42.99383" lon="1.29745">
        <ele>473.8</ele>
        <time>2022-09-03T13:22:08Z</time>
      </trkpt>
      <trkpt lat="42.99376" lon="1.29714">
        <ele>474.2</ele>
        <time>2022-09-03T13:22:15Z</time>
      </trkpt>
      <trkpt lat="42.99368" lon="1.29679">
        <ele>474.6</ele>
        <time>2022-09-03T13:22:22Z</time>
      </trkpt>
      <trkpt lat="42.99362" lon="1.29643">
        <ele>475</ele>
        <time>2022-09-03T13:22:29Z</time>
      </trkpt>
      <trkpt lat="42.99355" lon="1.29612">
        <ele>475.4</ele>
        <time>2022-09-03T13:22:35Z</time>
      </trkpt>
      <trkpt lat="42.99352" lon="1.29596">
        <ele>475.8</ele>
        <time>2022-09-03T13:22:38Z</time>
      </trkpt>
      <trkpt lat="42.99341" lon="1.29551">
        <ele>476.2</ele>
        <time>2022-09-03T13:22:47Z</time>
      </trkpt>
      <trkpt lat="42.99339" lon="1.29546">
        <ele>476.4</ele>
        <time>2022-09-03T13:22:48Z</time>
      </trkpt>
      <trkpt lat="42.99331" lon="1.29518">
        <ele>476.6</ele>
        <time>2022-09-03T13:22:54Z</time>
      </trkpt>
      <trkpt lat="42.9932" lon="1.29497">
        <ele>477.4</ele>
        <time>2022-09-03T13:23:00Z</time>
      </trkpt>
      <trkpt lat="42.99317" lon="1.29491">
        <ele>477.4</ele>
        <time>2022-09-03T13:23:02Z</time>
      </trkpt>
      <trkpt lat="42.99317" lon="1.29491">
        <ele>478.4</ele>
        <time>2022-09-03T13:23:14Z</time>
      </trkpt>
      <trkpt lat="42.99317" lon="1.29491">
        <ele>479.6</ele>
        <time>2022-09-03T13:23:32Z</time>
      </trkpt>
      <trkpt lat="42.99317" lon="1.29491">
        <ele>480.6</ele>
        <time>2022-09-03T13:23:49Z</time>
      </trkpt>
      <trkpt lat="42.99317" lon="1.29491">
        <ele>481.6</ele>
        <time>2022-09-03T13:24:04Z</time>
      </trkpt>
      <trkpt lat="42.99317" lon="1.29491">
        <ele>482.6</ele>
        <time>2022-09-03T13:24:24Z</time>
      </trkpt>
      <trkpt lat="42.99317" lon="1.29491">
        <ele>483.8</ele>
        <time>2022-09-03T13:24:42Z</time>
      </trkpt>
      <trkpt lat="42.99317" lon="1.29491">
        <ele>484.8</ele>
        <time>2022-09-03T13:24:59Z</time>
      </trkpt>
      <trkpt lat="42.99317" lon="1.29491">
        <ele>485.2</ele>
        <time>2022-09-03T13:25:09Z</time>
      </trkpt>
      <trkpt lat="42.98954" lon="1.28574">
        <ele>485.2</ele>
        <time>2022-09-03T13:26:06Z</time>
      </trkpt>
      <trkpt lat="42.98951" lon="1.28562">
        <ele>485.2</ele>
        <time>2022-09-03T13:26:08Z</time>
      </trkpt>
      <trkpt lat="42.98947" lon="1.28544">
        <ele>485.4</ele>
        <time>2022-09-03T13:26:11Z</time>
      </trkpt>
      <trkpt lat="42.98946" lon="1.28526">
        <ele>485.2</ele>
        <time>2022-09-03T13:26:14Z</time>
      </trkpt>
      <trkpt lat="42.98937" lon="1.28505">
        <ele>485.2</ele>
        <time>2022-09-03T13:26:19Z</time>
      </trkpt>
      <trkpt lat="42.9893" lon="1.28478">
        <ele>485.2</ele>
        <time>2022-09-03T13:26:25Z</time>
      </trkpt>
      <trkpt lat="42.98925" lon="1.28448">
        <ele>485</ele>
        <time>2022-09-03T13:26:31Z</time>
      </trkpt>
      <trkpt lat="42.98923" lon="1.28412">
        <ele>484.8</ele>
        <time>2022-09-03T13:26:37Z</time>
      </trkpt>
      <trkpt lat="42.98921" lon="1.28355">
        <ele>485</ele>
        <time>2022-09-03T13:26:46Z</time>
      </trkpt>
      <trkpt lat="42.98921" lon="1.28317">
        <ele>484.8</ele>
        <time>2022-09-03T13:26:53Z</time>
      </trkpt>
      <trkpt lat="42.98922" lon="1.28286">
        <ele>485</ele>
        <time>2022-09-03T13:26:59Z</time>
      </trkpt>
      <trkpt lat="42.9892" lon="1.28254">
        <ele>484.8</ele>
        <time>2022-09-03T13:27:05Z</time>
      </trkpt>
      <trkpt lat="42.98913" lon="1.28223">
        <ele>484.8</ele>
        <time>2022-09-03T13:27:10Z</time>
      </trkpt>
      <trkpt lat="42.9891" lon="1.28173">
        <ele>485</ele>
        <time>2022-09-03T13:27:17Z</time>
      </trkpt>
      <trkpt lat="42.98908" lon="1.28121">
        <ele>485</ele>
        <time>2022-09-03T13:27:24Z</time>
      </trkpt>
      <trkpt lat="42.9891" lon="1.28088">
        <ele>484.8</ele>
        <time>2022-09-03T13:27:29Z</time>
      </trkpt>
      <trkpt lat="42.98911" lon="1.28076">
        <ele>484.6</ele>
        <time>2022-09-03T13:27:31Z</time>
      </trkpt>
      <trkpt lat="42.98915" lon="1.28043">
        <ele>484.4</ele>
        <time>2022-09-03T13:27:37Z</time>
      </trkpt>
      <trkpt lat="42.98921" lon="1.2801">
        <ele>484.4</ele>
        <time>2022-09-03T13:27:44Z</time>
      </trkpt>
      <trkpt lat="42.98929" lon="1.27978">
        <ele>484.4</ele>
        <time>2022-09-03T13:27:50Z</time>
      </trkpt>
      <trkpt lat="42.9894" lon="1.27925">
        <ele>484.6</ele>
        <time>2022-09-03T13:27:58Z</time>
      </trkpt>
      <trkpt lat="42.98948" lon="1.27879">
        <ele>485</ele>
        <time>2022-09-03T13:28:04Z</time>
      </trkpt>
      <trkpt lat="42.98957" lon="1.27825">
        <ele>484.6</ele>
        <time>2022-09-03T13:28:11Z</time>
      </trkpt>
      <trkpt lat="42.98969" lon="1.2776">
        <ele>484.8</ele>
        <time>2022-09-03T13:28:20Z</time>
      </trkpt>
      <trkpt lat="42.98975" lon="1.27724">
        <ele>484.2</ele>
        <time>2022-09-03T13:28:26Z</time>
      </trkpt>
      <trkpt lat="42.98982" lon="1.27686">
        <ele>483.6</ele>
        <time>2022-09-03T13:28:32Z</time>
      </trkpt>
      <trkpt lat="42.98982" lon="1.2768">
        <ele>483.4</ele>
        <time>2022-09-03T13:28:33Z</time>
      </trkpt>
      <trkpt lat="42.9899" lon="1.27637">
        <ele>483.2</ele>
        <time>2022-09-03T13:28:39Z</time>
      </trkpt>
      <trkpt lat="42.98995" lon="1.27582">
        <ele>482.6</ele>
        <time>2022-09-03T13:28:46Z</time>
      </trkpt>
      <trkpt lat="42.98995" lon="1.27574">
        <ele>482.4</ele>
        <time>2022-09-03T13:28:47Z</time>
      </trkpt>
      <trkpt lat="42.98995" lon="1.27567">
        <ele>482.4</ele>
        <time>2022-09-03T13:28:48Z</time>
      </trkpt>
      <trkpt lat="42.98995" lon="1.27521">
        <ele>482.2</ele>
        <time>2022-09-03T13:28:54Z</time>
      </trkpt>
      <trkpt lat="42.98995" lon="1.27513">
        <ele>482.2</ele>
        <time>2022-09-03T13:28:55Z</time>
      </trkpt>
      <trkpt lat="42.98992" lon="1.27493">
        <ele>481.6</ele>
        <time>2022-09-03T13:28:58Z</time>
      </trkpt>
      <trkpt lat="42.98992" lon="1.27489">
        <ele>481.2</ele>
        <time>2022-09-03T13:28:59Z</time>
      </trkpt>
      <trkpt lat="42.9899" lon="1.27469">
        <ele>480.6</ele>
        <time>2022-09-03T13:29:04Z</time>
      </trkpt>
      <trkpt lat="42.98989" lon="1.27454">
        <ele>480.4</ele>
        <time>2022-09-03T13:29:07Z</time>
      </trkpt>
      <trkpt lat="42.98987" lon="1.27441">
        <ele>480.6</ele>
        <time>2022-09-03T13:29:09Z</time>
      </trkpt>
      <trkpt lat="42.98978" lon="1.27395">
        <ele>480</ele>
        <time>2022-09-03T13:29:16Z</time>
      </trkpt>
      <trkpt lat="42.9897" lon="1.27355">
        <ele>479.4</ele>
        <time>2022-09-03T13:29:22Z</time>
      </trkpt>
      <trkpt lat="42.98966" lon="1.27342">
        <ele>479.2</ele>
        <time>2022-09-03T13:29:24Z</time>
      </trkpt>
      <trkpt lat="42.98953" lon="1.27286">
        <ele>479.2</ele>
        <time>2022-09-03T13:29:32Z</time>
      </trkpt>
      <trkpt lat="42.98939" lon="1.27226">
        <ele>478.8</ele>
        <time>2022-09-03T13:29:40Z</time>
      </trkpt>
      <trkpt lat="42.98938" lon="1.27219">
        <ele>478.8</ele>
        <time>2022-09-03T13:29:41Z</time>
      </trkpt>
      <trkpt lat="42.98934" lon="1.27197">
        <ele>478.2</ele>
        <time>2022-09-03T13:29:44Z</time>
      </trkpt>
      <trkpt lat="42.98931" lon="1.27183">
        <ele>477.8</ele>
        <time>2022-09-03T13:29:46Z</time>
      </trkpt>
      <trkpt lat="42.98927" lon="1.27135">
        <ele>477.2</ele>
        <time>2022-09-03T13:29:53Z</time>
      </trkpt>
      <trkpt lat="42.98927" lon="1.27121">
        <ele>477.2</ele>
        <time>2022-09-03T13:29:55Z</time>
      </trkpt>
      <trkpt lat="42.98926" lon="1.27107">
        <ele>477.2</ele>
        <time>2022-09-03T13:29:57Z</time>
      </trkpt>
      <trkpt lat="42.98926" lon="1.271">
        <ele>477</ele>
        <time>2022-09-03T13:29:58Z</time>
      </trkpt>
      <trkpt lat="42.98926" lon="1.27069">
        <ele>476.8</ele>
        <time>2022-09-03T13:30:02Z</time>
      </trkpt>
      <trkpt lat="42.98926" lon="1.27054">
        <ele>476.6</ele>
        <time>2022-09-03T13:30:04Z</time>
      </trkpt>
      <trkpt lat="42.98929" lon="1.27015">
        <ele>476.4</ele>
        <time>2022-09-03T13:30:10Z</time>
      </trkpt>
      <trkpt lat="42.98929" lon="1.27008">
        <ele>476.4</ele>
        <time>2022-09-03T13:30:11Z</time>
      </trkpt>
      <trkpt lat="42.98931" lon="1.26982">
        <ele>476.4</ele>
        <time>2022-09-03T13:30:15Z</time>
      </trkpt>
      <trkpt lat="42.98933" lon="1.26963">
        <ele>476</ele>
        <time>2022-09-03T13:30:18Z</time>
      </trkpt>
      <trkpt lat="42.98934" lon="1.26949">
        <ele>475.8</ele>
        <time>2022-09-03T13:30:20Z</time>
      </trkpt>
      <trkpt lat="42.98934" lon="1.26927">
        <ele>475.6</ele>
        <time>2022-09-03T13:30:23Z</time>
      </trkpt>
      <trkpt lat="42.98935" lon="1.26893">
        <ele>475.4</ele>
        <time>2022-09-03T13:30:28Z</time>
      </trkpt>
      <trkpt lat="42.98934" lon="1.26886">
        <ele>475.4</ele>
        <time>2022-09-03T13:30:29Z</time>
      </trkpt>
      <trkpt lat="42.98933" lon="1.26863">
        <ele>475</ele>
        <time>2022-09-03T13:30:32Z</time>
      </trkpt>
      <trkpt lat="42.98932" lon="1.26841">
        <ele>475</ele>
        <time>2022-09-03T13:30:35Z</time>
      </trkpt>
      <trkpt lat="42.98932" lon="1.26812">
        <ele>474.6</ele>
        <time>2022-09-03T13:30:40Z</time>
      </trkpt>
      <trkpt lat="42.9893" lon="1.268">
        <ele>474.6</ele>
        <time>2022-09-03T13:33:38Z</time>
      </trkpt>
      <trkpt lat="42.98931" lon="1.26796">
        <ele>474.6</ele>
        <time>2022-09-03T13:33:39Z</time>
      </trkpt>
      <trkpt lat="42.98932" lon="1.26783">
        <ele>474.4</ele>
        <time>2022-09-03T13:33:42Z</time>
      </trkpt>
      <trkpt lat="42.98932" lon="1.26778">
        <ele>474.2</ele>
        <time>2022-09-03T13:33:43Z</time>
      </trkpt>
      <trkpt lat="42.98933" lon="1.26749">
        <ele>474.2</ele>
        <time>2022-09-03T13:33:48Z</time>
      </trkpt>
      <trkpt lat="42.98933" lon="1.26728">
        <ele>474</ele>
        <time>2022-09-03T13:33:51Z</time>
      </trkpt>
      <trkpt lat="42.98932" lon="1.26702">
        <ele>473.6</ele>
        <time>2022-09-03T13:33:55Z</time>
      </trkpt>
      <trkpt lat="42.98934" lon="1.26683">
        <ele>473.4</ele>
        <time>2022-09-03T13:33:58Z</time>
      </trkpt>
      <trkpt lat="42.98934" lon="1.26669">
        <ele>473.4</ele>
        <time>2022-09-03T13:34:00Z</time>
      </trkpt>
      <trkpt lat="42.98936" lon="1.26633">
        <ele>473.2</ele>
        <time>2022-09-03T13:34:05Z</time>
      </trkpt>
      <trkpt lat="42.98936" lon="1.26626">
        <ele>473</ele>
        <time>2022-09-03T13:34:06Z</time>
      </trkpt>
      <trkpt lat="42.98936" lon="1.26601">
        <ele>473</ele>
        <time>2022-09-03T13:34:09Z</time>
      </trkpt>
      <trkpt lat="42.98933" lon="1.26566">
        <ele>472.6</ele>
        <time>2022-09-03T13:34:13Z</time>
      </trkpt>
      <trkpt lat="42.98932" lon="1.26494">
        <ele>472.2</ele>
        <time>2022-09-03T13:34:22Z</time>
      </trkpt>
      <trkpt lat="42.98933" lon="1.26461">
        <ele>471.8</ele>
        <time>2022-09-03T13:34:27Z</time>
      </trkpt>
      <trkpt lat="42.98933" lon="1.26447">
        <ele>471.6</ele>
        <time>2022-09-03T13:34:29Z</time>
      </trkpt>
      <trkpt lat="42.98933" lon="1.264">
        <ele>471.2</ele>
        <time>2022-09-03T13:34:36Z</time>
      </trkpt>
      <trkpt lat="42.98933" lon="1.26377">
        <ele>470.8</ele>
        <time>2022-09-03T13:34:39Z</time>
      </trkpt>
      <trkpt lat="42.98932" lon="1.26353">
        <ele>470.6</ele>
        <time>2022-09-03T13:34:42Z</time>
      </trkpt>
      <trkpt lat="42.98931" lon="1.26291">
        <ele>470</ele>
        <time>2022-09-03T13:34:50Z</time>
      </trkpt>
      <trkpt lat="42.9893" lon="1.26253">
        <ele>469.8</ele>
        <time>2022-09-03T13:34:55Z</time>
      </trkpt>
      <trkpt lat="42.9893" lon="1.26245">
        <ele>469.6</ele>
        <time>2022-09-03T13:34:56Z</time>
      </trkpt>
      <trkpt lat="42.98927" lon="1.26175">
        <ele>468.8</ele>
        <time>2022-09-03T13:35:05Z</time>
      </trkpt>
      <trkpt lat="42.98927" lon="1.26167">
        <ele>468.6</ele>
        <time>2022-09-03T13:35:06Z</time>
      </trkpt>
      <trkpt lat="42.9893" lon="1.26107">
        <ele>468.2</ele>
        <time>2022-09-03T13:35:13Z</time>
      </trkpt>
      <trkpt lat="42.98937" lon="1.26041">
        <ele>468</ele>
        <time>2022-09-03T13:35:21Z</time>
      </trkpt>
      <trkpt lat="42.9894" lon="1.26025">
        <ele>467.6</ele>
        <time>2022-09-03T13:35:23Z</time>
      </trkpt>
      <trkpt lat="42.9895" lon="1.25971">
        <ele>467</ele>
        <time>2022-09-03T13:35:30Z</time>
      </trkpt>
      <trkpt lat="42.98957" lon="1.25933">
        <ele>466.4</ele>
        <time>2022-09-03T13:35:35Z</time>
      </trkpt>
      <trkpt lat="42.9896" lon="1.25918">
        <ele>466.2</ele>
        <time>2022-09-03T13:35:37Z</time>
      </trkpt>
      <trkpt lat="42.98971" lon="1.25864">
        <ele>466</ele>
        <time>2022-09-03T13:35:44Z</time>
      </trkpt>
      <trkpt lat="42.98982" lon="1.25815">
        <ele>465.4</ele>
        <time>2022-09-03T13:35:50Z</time>
      </trkpt>
      <trkpt lat="42.98984" lon="1.25806">
        <ele>465.2</ele>
        <time>2022-09-03T13:35:51Z</time>
      </trkpt>
      <trkpt lat="42.98997" lon="1.25748">
        <ele>465</ele>
        <time>2022-09-03T13:35:58Z</time>
      </trkpt>
      <trkpt lat="42.99004" lon="1.25713">
        <ele>464.2</ele>
        <time>2022-09-03T13:36:02Z</time>
      </trkpt>
      <trkpt lat="42.99013" lon="1.25668">
        <ele>464.4</ele>
        <time>2022-09-03T13:36:07Z</time>
      </trkpt>
      <trkpt lat="42.99027" lon="1.25604">
        <ele>463.8</ele>
        <time>2022-09-03T13:36:14Z</time>
      </trkpt>
      <trkpt lat="42.99038" lon="1.2555">
        <ele>463.2</ele>
        <time>2022-09-03T13:36:20Z</time>
      </trkpt>
      <trkpt lat="42.99044" lon="1.25524">
        <ele>463</ele>
        <time>2022-09-03T13:36:23Z</time>
      </trkpt>
      <trkpt lat="42.99056" lon="1.25468">
        <ele>462.4</ele>
        <time>2022-09-03T13:36:29Z</time>
      </trkpt>
      <trkpt lat="42.99058" lon="1.25459">
        <ele>462.2</ele>
        <time>2022-09-03T13:36:30Z</time>
      </trkpt>
      <trkpt lat="42.99067" lon="1.25413">
        <ele>462</ele>
        <time>2022-09-03T13:36:35Z</time>
      </trkpt>
      <trkpt lat="42.99079" lon="1.25352">
        <ele>461.2</ele>
        <time>2022-09-03T13:36:42Z</time>
      </trkpt>
      <trkpt lat="42.99081" lon="1.25344">
        <ele>461.2</ele>
        <time>2022-09-03T13:36:43Z</time>
      </trkpt>
      <trkpt lat="42.99091" lon="1.25296">
        <ele>460.4</ele>
        <time>2022-09-03T13:36:49Z</time>
      </trkpt>
      <trkpt lat="42.99096" lon="1.25274">
        <ele>460</ele>
        <time>2022-09-03T13:36:52Z</time>
      </trkpt>
      <trkpt lat="42.99099" lon="1.25259">
        <ele>459.8</ele>
        <time>2022-09-03T13:36:54Z</time>
      </trkpt>
      <trkpt lat="42.99112" lon="1.25215">
        <ele>459.6</ele>
        <time>2022-09-03T13:37:01Z</time>
      </trkpt>
      <trkpt lat="42.99121" lon="1.25188">
        <ele>459</ele>
        <time>2022-09-03T13:37:05Z</time>
      </trkpt>
      <trkpt lat="42.9913" lon="1.25167">
        <ele>459</ele>
        <time>2022-09-03T13:37:08Z</time>
      </trkpt>
      <trkpt lat="42.99154" lon="1.25117">
        <ele>458.4</ele>
        <time>2022-09-03T13:37:16Z</time>
      </trkpt>
      <trkpt lat="42.99168" lon="1.25093">
        <ele>458</ele>
        <time>2022-09-03T13:37:20Z</time>
      </trkpt>
      <trkpt lat="42.99188" lon="1.25063">
        <ele>457.2</ele>
        <time>2022-09-03T13:37:25Z</time>
      </trkpt>
      <trkpt lat="42.992" lon="1.25045">
        <ele>456.8</ele>
        <time>2022-09-03T13:37:28Z</time>
      </trkpt>
      <trkpt lat="42.9923" lon="1.25001">
        <ele>456</ele>
        <time>2022-09-03T13:37:35Z</time>
      </trkpt>
      <trkpt lat="42.99247" lon="1.24977">
        <ele>455.8</ele>
        <time>2022-09-03T13:37:39Z</time>
      </trkpt>
      <trkpt lat="42.99263" lon="1.24953">
        <ele>455.4</ele>
        <time>2022-09-03T13:37:43Z</time>
      </trkpt>
      <trkpt lat="42.99296" lon="1.249">
        <ele>455</ele>
        <time>2022-09-03T13:37:52Z</time>
      </trkpt>
      <trkpt lat="42.99299" lon="1.24893">
        <ele>454.8</ele>
        <time>2022-09-03T13:37:53Z</time>
      </trkpt>
      <trkpt lat="42.99322" lon="1.24843">
        <ele>454.6</ele>
        <time>2022-09-03T13:38:00Z</time>
      </trkpt>
      <trkpt lat="42.99339" lon="1.24791">
        <ele>453.8</ele>
        <time>2022-09-03T13:38:07Z</time>
      </trkpt>
      <trkpt lat="42.99352" lon="1.24735">
        <ele>453.6</ele>
        <time>2022-09-03T13:38:14Z</time>
      </trkpt>
      <trkpt lat="42.99362" lon="1.24668">
        <ele>452.8</ele>
        <time>2022-09-03T13:38:22Z</time>
      </trkpt>
      <trkpt lat="42.99363" lon="1.24659">
        <ele>452.8</ele>
        <time>2022-09-03T13:38:23Z</time>
      </trkpt>
      <trkpt lat="42.99367" lon="1.24617">
        <ele>452.2</ele>
        <time>2022-09-03T13:38:28Z</time>
      </trkpt>
      <trkpt lat="42.9937" lon="1.24584">
        <ele>451.6</ele>
        <time>2022-09-03T13:38:32Z</time>
      </trkpt>
      <trkpt lat="42.99372" lon="1.24568">
        <ele>451.6</ele>
        <time>2022-09-03T13:38:34Z</time>
      </trkpt>
      <trkpt lat="42.99376" lon="1.24527">
        <ele>451.2</ele>
        <time>2022-09-03T13:38:39Z</time>
      </trkpt>
      <trkpt lat="42.99386" lon="1.24461">
        <ele>450.6</ele>
        <time>2022-09-03T13:38:47Z</time>
      </trkpt>
      <trkpt lat="42.99402" lon="1.24397">
        <ele>450</ele>
        <time>2022-09-03T13:38:55Z</time>
      </trkpt>
      <trkpt lat="42.99414" lon="1.24359">
        <ele>449.6</ele>
        <time>2022-09-03T13:39:00Z</time>
      </trkpt>
      <trkpt lat="42.99422" lon="1.24336">
        <ele>449.2</ele>
        <time>2022-09-03T13:39:03Z</time>
      </trkpt>
      <trkpt lat="42.9945" lon="1.24266">
        <ele>448.8</ele>
        <time>2022-09-03T13:39:12Z</time>
      </trkpt>
      <trkpt lat="42.99452" lon="1.24259">
        <ele>448.8</ele>
        <time>2022-09-03T13:39:13Z</time>
      </trkpt>
      <trkpt lat="42.9946" lon="1.2424">
        <ele>448.4</ele>
        <time>2022-09-03T13:39:16Z</time>
      </trkpt>
      <trkpt lat="42.99471" lon="1.24212">
        <ele>448.2</ele>
        <time>2022-09-03T13:39:20Z</time>
      </trkpt>
      <trkpt lat="42.99491" lon="1.24163">
        <ele>447.4</ele>
        <time>2022-09-03T13:39:27Z</time>
      </trkpt>
      <trkpt lat="42.99499" lon="1.24143">
        <ele>446.8</ele>
        <time>2022-09-03T13:39:30Z</time>
      </trkpt>
      <trkpt lat="42.99513" lon="1.24109">
        <ele>446.2</ele>
        <time>2022-09-03T13:39:35Z</time>
      </trkpt>
      <trkpt lat="42.99518" lon="1.24096">
        <ele>446</ele>
        <time>2022-09-03T13:39:37Z</time>
      </trkpt>
      <trkpt lat="42.99544" lon="1.24033">
        <ele>445.4</ele>
        <time>2022-09-03T13:39:46Z</time>
      </trkpt>
      <trkpt lat="42.9955" lon="1.24018">
        <ele>445.2</ele>
        <time>2022-09-03T13:39:48Z</time>
      </trkpt>
      <trkpt lat="42.99576" lon="1.23948">
        <ele>444.4</ele>
        <time>2022-09-03T13:39:57Z</time>
      </trkpt>
      <trkpt lat="42.99579" lon="1.2394">
        <ele>444.4</ele>
        <time>2022-09-03T13:39:58Z</time>
      </trkpt>
      <trkpt lat="42.99585" lon="1.23923">
        <ele>444.2</ele>
        <time>2022-09-03T13:40:00Z</time>
      </trkpt>
      <trkpt lat="42.99587" lon="1.23915">
        <ele>444.2</ele>
        <time>2022-09-03T13:40:01Z</time>
      </trkpt>
      <trkpt lat="42.99603" lon="1.23859">
        <ele>444</ele>
        <time>2022-09-03T13:40:08Z</time>
      </trkpt>
      <trkpt lat="42.99616" lon="1.23803">
        <ele>443.4</ele>
        <time>2022-09-03T13:40:16Z</time>
      </trkpt>
      <trkpt lat="42.99627" lon="1.23746">
        <ele>443.8</ele>
        <time>2022-09-03T13:40:25Z</time>
      </trkpt>
      <trkpt lat="42.99632" lon="1.23734">
        <ele>443.8</ele>
        <time>2022-09-03T13:40:27Z</time>
      </trkpt>
      <trkpt lat="42.99641" lon="1.23719">
        <ele>444</ele>
        <time>2022-09-03T13:40:30Z</time>
      </trkpt>
      <trkpt lat="42.99649" lon="1.23712">
        <ele>443.8</ele>
        <time>2022-09-03T13:40:32Z</time>
      </trkpt>
      <trkpt lat="42.99662" lon="1.23703">
        <ele>444</ele>
        <time>2022-09-03T13:40:35Z</time>
      </trkpt>
      <trkpt lat="42.99674" lon="1.23688">
        <ele>443.6</ele>
        <time>2022-09-03T13:40:39Z</time>
      </trkpt>
      <trkpt lat="42.99677" lon="1.23683">
        <ele>443.6</ele>
        <time>2022-09-03T13:40:40Z</time>
      </trkpt>
      <trkpt lat="42.9969" lon="1.23661">
        <ele>443.6</ele>
        <time>2022-09-03T13:40:45Z</time>
      </trkpt>
      <trkpt lat="42.997" lon="1.23634">
        <ele>443.6</ele>
        <time>2022-09-03T13:40:50Z</time>
      </trkpt>
      <trkpt lat="42.997" lon="1.23629">
        <ele>443.4</ele>
        <time>2022-09-03T13:40:51Z</time>
      </trkpt>
      <trkpt lat="42.99702" lon="1.23616">
        <ele>443.2</ele>
        <time>2022-09-03T13:40:53Z</time>
      </trkpt>
      <trkpt lat="42.99707" lon="1.23589">
        <ele>443</ele>
        <time>2022-09-03T13:40:57Z</time>
      </trkpt>
      <trkpt lat="42.9972" lon="1.23543">
        <ele>442.2</ele>
        <time>2022-09-03T13:41:03Z</time>
      </trkpt>
      <trkpt lat="42.99723" lon="1.23534">
        <ele>441.6</ele>
        <time>2022-09-03T13:41:04Z</time>
      </trkpt>
      <trkpt lat="42.99725" lon="1.23525">
        <ele>441</ele>
        <time>2022-09-03T13:41:05Z</time>
      </trkpt>
      <trkpt lat="42.99736" lon="1.2348">
        <ele>440</ele>
        <time>2022-09-03T13:41:10Z</time>
      </trkpt>
      <trkpt lat="42.99738" lon="1.23471">
        <ele>439.8</ele>
        <time>2022-09-03T13:41:11Z</time>
      </trkpt>
      <trkpt lat="42.99746" lon="1.23432">
        <ele>439.4</ele>
        <time>2022-09-03T13:41:16Z</time>
      </trkpt>
      <trkpt lat="42.99745" lon="1.23426">
        <ele>439.6</ele>
        <time>2022-09-03T13:41:17Z</time>
      </trkpt>
      <trkpt lat="42.99737" lon="1.23416">
        <ele>440.2</ele>
        <time>2022-09-03T13:41:20Z</time>
      </trkpt>
      <trkpt lat="42.99734" lon="1.23401">
        <ele>441.2</ele>
        <time>2022-09-03T13:41:24Z</time>
      </trkpt>
      <trkpt lat="42.9974" lon="1.23377">
        <ele>441.8</ele>
        <time>2022-09-03T13:41:30Z</time>
      </trkpt>
      <trkpt lat="42.99741" lon="1.23365">
        <ele>442.4</ele>
        <time>2022-09-03T13:41:33Z</time>
      </trkpt>
      <trkpt lat="42.99739" lon="1.23354">
        <ele>443</ele>
        <time>2022-09-03T13:41:36Z</time>
      </trkpt>
      <trkpt lat="42.99736" lon="1.23349">
        <ele>443.4</ele>
        <time>2022-09-03T13:41:38Z</time>
      </trkpt>
      <trkpt lat="42.99731" lon="1.23342">
        <ele>443.6</ele>
        <time>2022-09-03T13:41:41Z</time>
      </trkpt>
      <trkpt lat="42.99731" lon="1.23332">
        <ele>443.6</ele>
        <time>2022-09-03T13:41:44Z</time>
      </trkpt>
      <trkpt lat="42.99732" lon="1.23327">
        <ele>443.6</ele>
        <time>2022-09-03T13:41:45Z</time>
      </trkpt>
      <trkpt lat="42.99742" lon="1.23288">
        <ele>443.2</ele>
        <time>2022-09-03T13:41:53Z</time>
      </trkpt>
      <trkpt lat="42.99752" lon="1.23245">
        <ele>443</ele>
        <time>2022-09-03T13:42:01Z</time>
      </trkpt>
      <trkpt lat="42.99759" lon="1.23214">
        <ele>442.8</ele>
        <time>2022-09-03T13:42:06Z</time>
      </trkpt>
      <trkpt lat="42.99763" lon="1.23189">
        <ele>442.6</ele>
        <time>2022-09-03T13:42:10Z</time>
      </trkpt>
      <trkpt lat="42.99769" lon="1.2314">
        <ele>442.4</ele>
        <time>2022-09-03T13:42:17Z</time>
      </trkpt>
      <trkpt lat="42.99769" lon="1.2308">
        <ele>441.6</ele>
        <time>2022-09-03T13:42:25Z</time>
      </trkpt>
      <trkpt lat="42.99764" lon="1.23029">
        <ele>441.2</ele>
        <time>2022-09-03T13:42:32Z</time>
      </trkpt>
      <trkpt lat="42.99761" lon="1.23015">
        <ele>441</ele>
        <time>2022-09-03T13:42:34Z</time>
      </trkpt>
      <trkpt lat="42.99746" lon="1.22954">
        <ele>440.6</ele>
        <time>2022-09-03T13:42:43Z</time>
      </trkpt>
      <trkpt lat="42.99743" lon="1.22942">
        <ele>440.4</ele>
        <time>2022-09-03T13:42:45Z</time>
      </trkpt>
      <trkpt lat="42.99738" lon="1.2293">
        <ele>440.4</ele>
        <time>2022-09-03T13:42:47Z</time>
      </trkpt>
      <trkpt lat="42.99735" lon="1.22925">
        <ele>440</ele>
        <time>2022-09-03T13:42:48Z</time>
      </trkpt>
      <trkpt lat="42.99721" lon="1.22895">
        <ele>440</ele>
        <time>2022-09-03T13:42:53Z</time>
      </trkpt>
      <trkpt lat="42.99702" lon="1.22858">
        <ele>439.6</ele>
        <time>2022-09-03T13:42:59Z</time>
      </trkpt>
      <trkpt lat="42.99683" lon="1.22823">
        <ele>439.2</ele>
        <time>2022-09-03T13:43:05Z</time>
      </trkpt>
      <trkpt lat="42.99674" lon="1.22806">
        <ele>439</ele>
        <time>2022-09-03T13:43:08Z</time>
      </trkpt>
      <trkpt lat="42.99663" lon="1.22786">
        <ele>438.8</ele>
        <time>2022-09-03T13:43:12Z</time>
      </trkpt>
      <trkpt lat="42.99648" lon="1.22758">
        <ele>438.8</ele>
        <time>2022-09-03T13:43:17Z</time>
      </trkpt>
      <trkpt lat="42.99635" lon="1.22732">
        <ele>438.2</ele>
        <time>2022-09-03T13:43:22Z</time>
      </trkpt>
      <trkpt lat="42.9963" lon="1.2272">
        <ele>438</ele>
        <time>2022-09-03T13:43:24Z</time>
      </trkpt>
      <trkpt lat="42.99615" lon="1.22693">
        <ele>438.2</ele>
        <time>2022-09-03T13:43:29Z</time>
      </trkpt>
      <trkpt lat="42.99604" lon="1.22671">
        <ele>438</ele>
        <time>2022-09-03T13:43:33Z</time>
      </trkpt>
      <trkpt lat="42.99599" lon="1.22663">
        <ele>437.8</ele>
        <time>2022-09-03T13:43:35Z</time>
      </trkpt>
      <trkpt lat="42.99583" lon="1.22635">
        <ele>437</ele>
        <time>2022-09-03T13:43:41Z</time>
      </trkpt>
      <trkpt lat="42.99574" lon="1.22622">
        <ele>436.2</ele>
        <time>2022-09-03T13:43:46Z</time>
      </trkpt>
      <trkpt lat="42.99569" lon="1.22612">
        <ele>436.2</ele>
        <time>2022-09-03T13:43:58Z</time>
      </trkpt>
      <trkpt lat="42.99564" lon="1.22604">
        <ele>436.2</ele>
        <time>2022-09-03T13:44:00Z</time>
      </trkpt>
      <trkpt lat="42.9955" lon="1.22585">
        <ele>436</ele>
        <time>2022-09-03T13:44:05Z</time>
      </trkpt>
      <trkpt lat="42.99545" lon="1.22578">
        <ele>435.8</ele>
        <time>2022-09-03T13:44:07Z</time>
      </trkpt>
      <trkpt lat="42.99529" lon="1.2256">
        <ele>435.8</ele>
        <time>2022-09-03T13:44:12Z</time>
      </trkpt>
      <trkpt lat="42.99504" lon="1.22538">
        <ele>435.6</ele>
        <time>2022-09-03T13:44:18Z</time>
      </trkpt>
      <trkpt lat="42.99483" lon="1.22522">
        <ele>435</ele>
        <time>2022-09-03T13:44:24Z</time>
      </trkpt>
      <trkpt lat="42.99464" lon="1.22513">
        <ele>435</ele>
        <time>2022-09-03T13:44:28Z</time>
      </trkpt>
      <trkpt lat="42.99459" lon="1.2251">
        <ele>435</ele>
        <time>2022-09-03T13:44:29Z</time>
      </trkpt>
      <trkpt lat="42.99454" lon="1.22509">
        <ele>435</ele>
        <time>2022-09-03T13:44:30Z</time>
      </trkpt>
      <trkpt lat="42.9942" lon="1.22497">
        <ele>434.8</ele>
        <time>2022-09-03T13:44:37Z</time>
      </trkpt>
      <trkpt lat="42.99409" lon="1.22494">
        <ele>434.8</ele>
        <time>2022-09-03T13:44:39Z</time>
      </trkpt>
      <trkpt lat="42.99391" lon="1.2249">
        <ele>434.6</ele>
        <time>2022-09-03T13:44:42Z</time>
      </trkpt>
      <trkpt lat="42.99362" lon="1.2248">
        <ele>434</ele>
        <time>2022-09-03T13:44:48Z</time>
      </trkpt>
      <trkpt lat="42.99356" lon="1.22479">
        <ele>433.8</ele>
        <time>2022-09-03T13:44:49Z</time>
      </trkpt>
      <trkpt lat="42.99346" lon="1.22473">
        <ele>433.4</ele>
        <time>2022-09-03T13:44:51Z</time>
      </trkpt>
      <trkpt lat="42.99335" lon="1.22469">
        <ele>433.4</ele>
        <time>2022-09-03T13:44:53Z</time>
      </trkpt>
      <trkpt lat="42.99329" lon="1.22467">
        <ele>433</ele>
        <time>2022-09-03T13:44:54Z</time>
      </trkpt>
      <trkpt lat="42.99303" lon="1.22456">
        <ele>432.8</ele>
        <time>2022-09-03T13:44:59Z</time>
      </trkpt>
      <trkpt lat="42.99293" lon="1.2245">
        <ele>432.6</ele>
        <time>2022-09-03T13:45:01Z</time>
      </trkpt>
      <trkpt lat="42.99271" lon="1.22435">
        <ele>432.2</ele>
        <time>2022-09-03T13:45:06Z</time>
      </trkpt>
      <trkpt lat="42.99268" lon="1.22432">
        <ele>432.2</ele>
        <time>2022-09-03T13:45:07Z</time>
      </trkpt>
      <trkpt lat="42.99259" lon="1.22422">
        <ele>432.2</ele>
        <time>2022-09-03T13:45:10Z</time>
      </trkpt>
      <trkpt lat="42.99251" lon="1.22415">
        <ele>432.2</ele>
        <time>2022-09-03T13:45:12Z</time>
      </trkpt>
      <trkpt lat="42.99236" lon="1.22399">
        <ele>432</ele>
        <time>2022-09-03T13:45:16Z</time>
      </trkpt>
      <trkpt lat="42.99218" lon="1.22372">
        <ele>431.6</ele>
        <time>2022-09-03T13:45:22Z</time>
      </trkpt>
      <trkpt lat="42.99215" lon="1.22368">
        <ele>431.4</ele>
        <time>2022-09-03T13:45:23Z</time>
      </trkpt>
      <trkpt lat="42.99183" lon="1.22337">
        <ele>431</ele>
        <time>2022-09-03T13:45:30Z</time>
      </trkpt>
      <trkpt lat="42.99167" lon="1.22316">
        <ele>430.6</ele>
        <time>2022-09-03T13:45:34Z</time>
      </trkpt>
      <trkpt lat="42.99152" lon="1.22288">
        <ele>430.2</ele>
        <time>2022-09-03T13:45:39Z</time>
      </trkpt>
      <trkpt lat="42.99141" lon="1.2226">
        <ele>429.6</ele>
        <time>2022-09-03T13:45:44Z</time>
      </trkpt>
      <trkpt lat="42.99136" lon="1.22244">
        <ele>429.4</ele>
        <time>2022-09-03T13:45:47Z</time>
      </trkpt>
      <trkpt lat="42.99131" lon="1.22215">
        <ele>429.4</ele>
        <time>2022-09-03T13:45:53Z</time>
      </trkpt>
      <trkpt lat="42.99131" lon="1.22194">
        <ele>429.2</ele>
        <time>2022-09-03T13:45:58Z</time>
      </trkpt>
      <trkpt lat="42.99127" lon="1.22161">
        <ele>428.8</ele>
        <time>2022-09-03T13:46:04Z</time>
      </trkpt>
      <trkpt lat="42.99124" lon="1.22133">
        <ele>428.6</ele>
        <time>2022-09-03T13:46:09Z</time>
      </trkpt>
      <trkpt lat="42.99124" lon="1.22114">
        <ele>428.4</ele>
        <time>2022-09-03T13:46:12Z</time>
      </trkpt>
      <trkpt lat="42.99121" lon="1.22064">
        <ele>428.2</ele>
        <time>2022-09-03T13:46:19Z</time>
      </trkpt>
      <trkpt lat="42.99121" lon="1.22049">
        <ele>428.4</ele>
        <time>2022-09-03T13:46:21Z</time>
      </trkpt>
      <trkpt lat="42.99125" lon="1.22021">
        <ele>428.4</ele>
        <time>2022-09-03T13:46:25Z</time>
      </trkpt>
      <trkpt lat="42.99137" lon="1.21969">
        <ele>428</ele>
        <time>2022-09-03T13:46:32Z</time>
      </trkpt>
      <trkpt lat="42.99148" lon="1.21923">
        <ele>427.8</ele>
        <time>2022-09-03T13:46:38Z</time>
      </trkpt>
      <trkpt lat="42.9916" lon="1.21877">
        <ele>427.6</ele>
        <time>2022-09-03T13:46:44Z</time>
      </trkpt>
      <trkpt lat="42.99169" lon="1.21848">
        <ele>427.6</ele>
        <time>2022-09-03T13:46:48Z</time>
      </trkpt>
      <trkpt lat="42.99178" lon="1.21811">
        <ele>427.4</ele>
        <time>2022-09-03T13:46:53Z</time>
      </trkpt>
      <trkpt lat="42.99189" lon="1.21759">
        <ele>427.2</ele>
        <time>2022-09-03T13:47:00Z</time>
      </trkpt>
      <trkpt lat="42.99196" lon="1.21716">
        <ele>426.4</ele>
        <time>2022-09-03T13:47:06Z</time>
      </trkpt>
      <trkpt lat="42.99203" lon="1.21654">
        <ele>426.4</ele>
        <time>2022-09-03T13:47:14Z</time>
      </trkpt>
      <trkpt lat="42.99209" lon="1.21595">
        <ele>426.4</ele>
        <time>2022-09-03T13:47:22Z</time>
      </trkpt>
      <trkpt lat="42.99211" lon="1.21559">
        <ele>426.4</ele>
        <time>2022-09-03T13:47:27Z</time>
      </trkpt>
      <trkpt lat="42.9921" lon="1.21499">
        <ele>426</ele>
        <time>2022-09-03T13:47:35Z</time>
      </trkpt>
      <trkpt lat="42.99207" lon="1.2144">
        <ele>425.8</ele>
        <time>2022-09-03T13:47:43Z</time>
      </trkpt>
      <trkpt lat="42.99204" lon="1.21411">
        <ele>425.6</ele>
        <time>2022-09-03T13:47:47Z</time>
      </trkpt>
      <trkpt lat="42.99201" lon="1.21389">
        <ele>425.6</ele>
        <time>2022-09-03T13:47:50Z</time>
      </trkpt>
      <trkpt lat="42.99195" lon="1.21337">
        <ele>425.6</ele>
        <time>2022-09-03T13:47:57Z</time>
      </trkpt>
      <trkpt lat="42.99194" lon="1.21323">
        <ele>425.2</ele>
        <time>2022-09-03T13:47:59Z</time>
      </trkpt>
      <trkpt lat="42.99192" lon="1.21285">
        <ele>425.2</ele>
        <time>2022-09-03T13:48:04Z</time>
      </trkpt>
      <trkpt lat="42.99188" lon="1.21238">
        <ele>424.8</ele>
        <time>2022-09-03T13:48:10Z</time>
      </trkpt>
      <trkpt lat="42.99186" lon="1.21186">
        <ele>424.8</ele>
        <time>2022-09-03T13:48:17Z</time>
      </trkpt>
      <trkpt lat="42.99184" lon="1.21155">
        <ele>424.2</ele>
        <time>2022-09-03T13:48:21Z</time>
      </trkpt>
      <trkpt lat="42.99184" lon="1.21122">
        <ele>424</ele>
        <time>2022-09-03T13:48:25Z</time>
      </trkpt>
      <trkpt lat="42.99185" lon="1.21065">
        <ele>424</ele>
        <time>2022-09-03T13:48:32Z</time>
      </trkpt>
      <trkpt lat="42.99188" lon="1.21003">
        <ele>423.8</ele>
        <time>2022-09-03T13:48:40Z</time>
      </trkpt>
      <trkpt lat="42.99195" lon="1.20933">
        <ele>423.6</ele>
        <time>2022-09-03T13:48:49Z</time>
      </trkpt>
      <trkpt lat="42.99203" lon="1.20852">
        <ele>423.8</ele>
        <time>2022-09-03T13:48:59Z</time>
      </trkpt>
      <trkpt lat="42.99206" lon="1.20822">
        <ele>423</ele>
        <time>2022-09-03T13:49:03Z</time>
      </trkpt>
      <trkpt lat="42.99209" lon="1.20793">
        <ele>423.4</ele>
        <time>2022-09-03T13:49:07Z</time>
      </trkpt>
      <trkpt lat="42.99215" lon="1.20744">
        <ele>423</ele>
        <time>2022-09-03T13:49:14Z</time>
      </trkpt>
      <trkpt lat="42.99221" lon="1.20693">
        <ele>422.4</ele>
        <time>2022-09-03T13:49:21Z</time>
      </trkpt>
      <trkpt lat="42.99229" lon="1.20626">
        <ele>422</ele>
        <time>2022-09-03T13:49:30Z</time>
      </trkpt>
      <trkpt lat="42.99229" lon="1.20618">
        <ele>422</ele>
        <time>2022-09-03T13:49:31Z</time>
      </trkpt>
      <trkpt lat="42.99236" lon="1.20554">
        <ele>421.6</ele>
        <time>2022-09-03T13:49:39Z</time>
      </trkpt>
      <trkpt lat="42.99242" lon="1.20498">
        <ele>421.8</ele>
        <time>2022-09-03T13:49:46Z</time>
      </trkpt>
      <trkpt lat="42.99251" lon="1.20418">
        <ele>421.6</ele>
        <time>2022-09-03T13:49:56Z</time>
      </trkpt>
      <trkpt lat="42.99253" lon="1.20402">
        <ele>421.6</ele>
        <time>2022-09-03T13:49:58Z</time>
      </trkpt>
      <trkpt lat="42.99261" lon="1.20332">
        <ele>421</ele>
        <time>2022-09-03T13:50:07Z</time>
      </trkpt>
      <trkpt lat="42.99262" lon="1.20324">
        <ele>421</ele>
        <time>2022-09-03T13:50:08Z</time>
      </trkpt>
      <trkpt lat="42.99271" lon="1.20247">
        <ele>420.4</ele>
        <time>2022-09-03T13:50:18Z</time>
      </trkpt>
      <trkpt lat="42.99272" lon="1.20239">
        <ele>420.2</ele>
        <time>2022-09-03T13:50:19Z</time>
      </trkpt>
      <trkpt lat="42.99281" lon="1.20189">
        <ele>420.2</ele>
        <time>2022-09-03T13:50:26Z</time>
      </trkpt>
      <trkpt lat="42.99294" lon="1.20143">
        <ele>420.2</ele>
        <time>2022-09-03T13:50:33Z</time>
      </trkpt>
      <trkpt lat="42.99307" lon="1.2011">
        <ele>420</ele>
        <time>2022-09-03T13:50:38Z</time>
      </trkpt>
      <trkpt lat="42.99319" lon="1.20084">
        <ele>420</ele>
        <time>2022-09-03T13:50:42Z</time>
      </trkpt>
      <trkpt lat="42.99341" lon="1.20039">
        <ele>419.6</ele>
        <time>2022-09-03T13:50:49Z</time>
      </trkpt>
      <trkpt lat="42.99352" lon="1.20016">
        <ele>419.6</ele>
        <time>2022-09-03T13:50:53Z</time>
      </trkpt>
      <trkpt lat="42.99358" lon="1.20005">
        <ele>419.4</ele>
        <time>2022-09-03T13:50:55Z</time>
      </trkpt>
      <trkpt lat="42.99378" lon="1.19963">
        <ele>419.4</ele>
        <time>2022-09-03T13:51:02Z</time>
      </trkpt>
      <trkpt lat="42.99397" lon="1.1991">
        <ele>418.8</ele>
        <time>2022-09-03T13:51:10Z</time>
      </trkpt>
      <trkpt lat="42.99405" lon="1.19881">
        <ele>419</ele>
        <time>2022-09-03T13:51:14Z</time>
      </trkpt>
      <trkpt lat="42.99406" lon="1.19867">
        <ele>418.8</ele>
        <time>2022-09-03T13:51:16Z</time>
      </trkpt>
      <trkpt lat="42.99407" lon="1.19848">
        <ele>418.6</ele>
        <time>2022-09-03T13:51:19Z</time>
      </trkpt>
      <trkpt lat="42.99409" lon="1.19836">
        <ele>418.4</ele>
        <time>2022-09-03T13:51:21Z</time>
      </trkpt>
      <trkpt lat="42.99409" lon="1.19822">
        <ele>418.4</ele>
        <time>2022-09-03T13:51:23Z</time>
      </trkpt>
      <trkpt lat="42.99409" lon="1.19808">
        <ele>418.2</ele>
        <time>2022-09-03T13:51:25Z</time>
      </trkpt>
      <trkpt lat="42.99409" lon="1.198">
        <ele>418.2</ele>
        <time>2022-09-03T13:51:26Z</time>
      </trkpt>
      <trkpt lat="42.99412" lon="1.19763">
        <ele>417.8</ele>
        <time>2022-09-03T13:51:31Z</time>
      </trkpt>
      <trkpt lat="42.99413" lon="1.19756">
        <ele>417.8</ele>
        <time>2022-09-03T13:51:32Z</time>
      </trkpt>
      <trkpt lat="42.99416" lon="1.1973">
        <ele>417.6</ele>
        <time>2022-09-03T13:51:36Z</time>
      </trkpt>
      <trkpt lat="42.99416" lon="1.19723">
        <ele>417.4</ele>
        <time>2022-09-03T13:51:37Z</time>
      </trkpt>
      <trkpt lat="42.99416" lon="1.19701">
        <ele>417.6</ele>
        <time>2022-09-03T13:51:40Z</time>
      </trkpt>
      <trkpt lat="42.99417" lon="1.19688">
        <ele>417.8</ele>
        <time>2022-09-03T13:51:42Z</time>
      </trkpt>
      <trkpt lat="42.99415" lon="1.19656">
        <ele>417.8</ele>
        <time>2022-09-03T13:51:47Z</time>
      </trkpt>
      <trkpt lat="42.99413" lon="1.19623">
        <ele>417.6</ele>
        <time>2022-09-03T13:51:52Z</time>
      </trkpt>
      <trkpt lat="42.99412" lon="1.19605">
        <ele>417.8</ele>
        <time>2022-09-03T13:51:55Z</time>
      </trkpt>
      <trkpt lat="42.99411" lon="1.19587">
        <ele>417.6</ele>
        <time>2022-09-03T13:51:58Z</time>
      </trkpt>
      <trkpt lat="42.99404" lon="1.19538">
        <ele>416.8</ele>
        <time>2022-09-03T13:52:07Z</time>
      </trkpt>
      <trkpt lat="42.99396" lon="1.19496">
        <ele>417.4</ele>
        <time>2022-09-03T13:52:14Z</time>
      </trkpt>
      <trkpt lat="42.99394" lon="1.1949">
        <ele>417.4</ele>
        <time>2022-09-03T13:52:15Z</time>
      </trkpt>
      <trkpt lat="42.9938" lon="1.19437">
        <ele>417</ele>
        <time>2022-09-03T13:52:24Z</time>
      </trkpt>
      <trkpt lat="42.99372" lon="1.19401">
        <ele>417</ele>
        <time>2022-09-03T13:52:30Z</time>
      </trkpt>
      <trkpt lat="42.99364" lon="1.19353">
        <ele>416.4</ele>
        <time>2022-09-03T13:52:38Z</time>
      </trkpt>
      <trkpt lat="42.9936" lon="1.19315">
        <ele>416</ele>
        <time>2022-09-03T13:52:45Z</time>
      </trkpt>
      <trkpt lat="42.99361" lon="1.19278">
        <ele>416</ele>
        <time>2022-09-03T13:52:51Z</time>
      </trkpt>
      <trkpt lat="42.99362" lon="1.19245">
        <ele>416</ele>
        <time>2022-09-03T13:52:56Z</time>
      </trkpt>
      <trkpt lat="42.99363" lon="1.19231">
        <ele>415.8</ele>
        <time>2022-09-03T13:52:58Z</time>
      </trkpt>
      <trkpt lat="42.99366" lon="1.19211">
        <ele>415.8</ele>
        <time>2022-09-03T13:53:01Z</time>
      </trkpt>
      <trkpt lat="42.99367" lon="1.19204">
        <ele>415.8</ele>
        <time>2022-09-03T13:53:02Z</time>
      </trkpt>
      <trkpt lat="42.99377" lon="1.19155">
        <ele>415.4</ele>
        <time>2022-09-03T13:53:09Z</time>
      </trkpt>
      <trkpt lat="42.99391" lon="1.19117">
        <ele>415.2</ele>
        <time>2022-09-03T13:53:15Z</time>
      </trkpt>
      <trkpt lat="42.9941" lon="1.19066">
        <ele>414.8</ele>
        <time>2022-09-03T13:53:23Z</time>
      </trkpt>
      <trkpt lat="42.99412" lon="1.1906">
        <ele>414.8</ele>
        <time>2022-09-03T13:53:24Z</time>
      </trkpt>
      <trkpt lat="42.99422" lon="1.19037">
        <ele>415</ele>
        <time>2022-09-03T13:53:28Z</time>
      </trkpt>
      <trkpt lat="42.99441" lon="1.18985">
        <ele>414.6</ele>
        <time>2022-09-03T13:53:36Z</time>
      </trkpt>
      <trkpt lat="42.99446" lon="1.18973">
        <ele>414.6</ele>
        <time>2022-09-03T13:53:38Z</time>
      </trkpt>
      <trkpt lat="42.99452" lon="1.18953">
        <ele>414.6</ele>
        <time>2022-09-03T13:53:41Z</time>
      </trkpt>
      <trkpt lat="42.99459" lon="1.18936">
        <ele>414.2</ele>
        <time>2022-09-03T13:53:44Z</time>
      </trkpt>
      <trkpt lat="42.99461" lon="1.18923">
        <ele>414.2</ele>
        <time>2022-09-03T13:53:46Z</time>
      </trkpt>
      <trkpt lat="42.99462" lon="1.18912">
        <ele>414.4</ele>
        <time>2022-09-03T13:53:48Z</time>
      </trkpt>
      <trkpt lat="42.99463" lon="1.18901">
        <ele>414.2</ele>
        <time>2022-09-03T13:53:51Z</time>
      </trkpt>
      <trkpt lat="42.99462" lon="1.18896">
        <ele>413.8</ele>
        <time>2022-09-03T13:53:53Z</time>
      </trkpt>
      <trkpt lat="42.99463" lon="1.18891">
        <ele>413.6</ele>
        <time>2022-09-03T13:53:56Z</time>
      </trkpt>
      <trkpt lat="42.99463" lon="1.18874">
        <ele>414</ele>
        <time>2022-09-03T13:54:01Z</time>
      </trkpt>
      <trkpt lat="42.9946" lon="1.18847">
        <ele>414</ele>
        <time>2022-09-03T13:54:06Z</time>
      </trkpt>
      <trkpt lat="42.99459" lon="1.18821">
        <ele>414.2</ele>
        <time>2022-09-03T13:54:11Z</time>
      </trkpt>
      <trkpt lat="42.99459" lon="1.18797">
        <ele>414.2</ele>
        <time>2022-09-03T13:54:16Z</time>
      </trkpt>
      <trkpt lat="42.99456" lon="1.18769">
        <ele>414</ele>
        <time>2022-09-03T13:54:21Z</time>
      </trkpt>
      <trkpt lat="42.99457" lon="1.1874">
        <ele>414</ele>
        <time>2022-09-03T13:54:27Z</time>
      </trkpt>
      <trkpt lat="42.99453" lon="1.18711">
        <ele>414.4</ele>
        <time>2022-09-03T13:54:32Z</time>
      </trkpt>
      <trkpt lat="42.99449" lon="1.18679">
        <ele>413.6</ele>
        <time>2022-09-03T13:54:37Z</time>
      </trkpt>
      <trkpt lat="42.99449" lon="1.18673">
        <ele>413.6</ele>
        <time>2022-09-03T13:54:38Z</time>
      </trkpt>
      <trkpt lat="42.9944" lon="1.18642">
        <ele>413.4</ele>
        <time>2022-09-03T13:54:43Z</time>
      </trkpt>
      <trkpt lat="42.99426" lon="1.18604">
        <ele>413.2</ele>
        <time>2022-09-03T13:54:49Z</time>
      </trkpt>
      <trkpt lat="42.99424" lon="1.18598">
        <ele>413.2</ele>
        <time>2022-09-03T13:54:50Z</time>
      </trkpt>
      <trkpt lat="42.99409" lon="1.18556">
        <ele>412.8</ele>
        <time>2022-09-03T13:54:57Z</time>
      </trkpt>
      <trkpt lat="42.99402" lon="1.18527">
        <ele>412.8</ele>
        <time>2022-09-03T13:55:02Z</time>
      </trkpt>
      <trkpt lat="42.994" lon="1.18521">
        <ele>412.6</ele>
        <time>2022-09-03T13:55:03Z</time>
      </trkpt>
      <trkpt lat="42.99391" lon="1.18485">
        <ele>412.6</ele>
        <time>2022-09-03T13:55:09Z</time>
      </trkpt>
      <trkpt lat="42.99385" lon="1.18439">
        <ele>412.2</ele>
        <time>2022-09-03T13:55:16Z</time>
      </trkpt>
      <trkpt lat="42.99384" lon="1.18433">
        <ele>412.2</ele>
        <time>2022-09-03T13:55:17Z</time>
      </trkpt>
      <trkpt lat="42.99382" lon="1.18405">
        <ele>412.2</ele>
        <time>2022-09-03T13:55:21Z</time>
      </trkpt>
      <trkpt lat="42.99378" lon="1.18353">
        <ele>412.2</ele>
        <time>2022-09-03T13:55:28Z</time>
      </trkpt>
      <trkpt lat="42.99377" lon="1.18346">
        <ele>412.2</ele>
        <time>2022-09-03T13:55:29Z</time>
      </trkpt>
      <trkpt lat="42.99377" lon="1.18312">
        <ele>412</ele>
        <time>2022-09-03T13:55:34Z</time>
      </trkpt>
      <trkpt lat="42.99374" lon="1.18274">
        <ele>412.2</ele>
        <time>2022-09-03T13:55:40Z</time>
      </trkpt>
      <trkpt lat="42.99371" lon="1.18242">
        <ele>411.8</ele>
        <time>2022-09-03T13:55:46Z</time>
      </trkpt>
      <trkpt lat="42.99369" lon="1.18196">
        <ele>412</ele>
        <time>2022-09-03T13:55:53Z</time>
      </trkpt>
      <trkpt lat="42.99368" lon="1.18146">
        <ele>411.8</ele>
        <time>2022-09-03T13:56:00Z</time>
      </trkpt>
      <trkpt lat="42.99366" lon="1.18127">
        <ele>411.6</ele>
        <time>2022-09-03T13:56:03Z</time>
      </trkpt>
      <trkpt lat="42.99366" lon="1.1811">
        <ele>411.6</ele>
        <time>2022-09-03T13:56:06Z</time>
      </trkpt>
      <trkpt lat="42.99363" lon="1.18089">
        <ele>412.8</ele>
        <time>2022-09-03T13:56:09Z</time>
      </trkpt>
      <trkpt lat="42.99361" lon="1.18069">
        <ele>412.6</ele>
        <time>2022-09-03T13:56:12Z</time>
      </trkpt>
      <trkpt lat="42.9936" lon="1.18049">
        <ele>411.4</ele>
        <time>2022-09-03T13:56:15Z</time>
      </trkpt>
      <trkpt lat="42.99358" lon="1.18028">
        <ele>411</ele>
        <time>2022-09-03T13:56:18Z</time>
      </trkpt>
      <trkpt lat="42.99352" lon="1.17957">
        <ele>410.6</ele>
        <time>2022-09-03T13:56:28Z</time>
      </trkpt>
      <trkpt lat="42.99351" lon="1.1795">
        <ele>410.4</ele>
        <time>2022-09-03T13:56:29Z</time>
      </trkpt>
      <trkpt lat="42.99347" lon="1.17907">
        <ele>410.6</ele>
        <time>2022-09-03T13:56:36Z</time>
      </trkpt>
      <trkpt lat="42.99346" lon="1.17895">
        <ele>410.6</ele>
        <time>2022-09-03T13:56:38Z</time>
      </trkpt>
      <trkpt lat="42.99344" lon="1.17876">
        <ele>410.2</ele>
        <time>2022-09-03T13:56:41Z</time>
      </trkpt>
      <trkpt lat="42.99339" lon="1.17827">
        <ele>410</ele>
        <time>2022-09-03T13:56:49Z</time>
      </trkpt>
      <trkpt lat="42.99333" lon="1.1777">
        <ele>409.6</ele>
        <time>2022-09-03T13:56:58Z</time>
      </trkpt>
      <trkpt lat="42.9933" lon="1.17743">
        <ele>409.4</ele>
        <time>2022-09-03T13:57:02Z</time>
      </trkpt>
      <trkpt lat="42.99326" lon="1.17701">
        <ele>409.2</ele>
        <time>2022-09-03T13:57:08Z</time>
      </trkpt>
      <trkpt lat="42.99323" lon="1.17668">
        <ele>409</ele>
        <time>2022-09-03T13:57:13Z</time>
      </trkpt>
      <trkpt lat="42.99321" lon="1.17657">
        <ele>409</ele>
        <time>2022-09-03T13:57:15Z</time>
      </trkpt>
      <trkpt lat="42.99317" lon="1.17627">
        <ele>408.6</ele>
        <time>2022-09-03T13:57:21Z</time>
      </trkpt>
      <trkpt lat="42.99312" lon="1.17588">
        <ele>408.6</ele>
        <time>2022-09-03T13:57:27Z</time>
      </trkpt>
      <trkpt lat="42.99308" lon="1.1754">
        <ele>408.8</ele>
        <time>2022-09-03T13:57:34Z</time>
      </trkpt>
      <trkpt lat="42.99306" lon="1.17502">
        <ele>409.4</ele>
        <time>2022-09-03T13:57:40Z</time>
      </trkpt>
      <trkpt lat="42.99303" lon="1.17465">
        <ele>409.4</ele>
        <time>2022-09-03T13:57:46Z</time>
      </trkpt>
      <trkpt lat="42.99303" lon="1.17459">
        <ele>409.4</ele>
        <time>2022-09-03T13:57:47Z</time>
      </trkpt>
      <trkpt lat="42.993" lon="1.17421">
        <ele>409.2</ele>
        <time>2022-09-03T13:57:54Z</time>
      </trkpt>
      <trkpt lat="42.99299" lon="1.17413">
        <ele>409</ele>
        <time>2022-09-03T13:57:58Z</time>
      </trkpt>
      <trkpt lat="42.99298" lon="1.17399">
        <ele>409.4</ele>
        <time>2022-09-03T13:59:48Z</time>
      </trkpt>
      <trkpt lat="42.99298" lon="1.17395">
        <ele>409.4</ele>
        <time>2022-09-03T13:59:49Z</time>
      </trkpt>
      <trkpt lat="42.99293" lon="1.17351">
        <ele>409</ele>
        <time>2022-09-03T13:59:58Z</time>
      </trkpt>
      <trkpt lat="42.99291" lon="1.17319">
        <ele>409.4</ele>
        <time>2022-09-03T14:00:04Z</time>
      </trkpt>
      <trkpt lat="42.99287" lon="1.17263">
        <ele>408.6</ele>
        <time>2022-09-03T14:00:14Z</time>
      </trkpt>
      <trkpt lat="42.99285" lon="1.17244">
        <ele>408.2</ele>
        <time>2022-09-03T14:00:17Z</time>
      </trkpt>
      <trkpt lat="42.99285" lon="1.17215">
        <ele>407.8</ele>
        <time>2022-09-03T14:00:21Z</time>
      </trkpt>
      <trkpt lat="42.99286" lon="1.17183">
        <ele>407.2</ele>
        <time>2022-09-03T14:00:25Z</time>
      </trkpt>
      <trkpt lat="42.99286" lon="1.17168">
        <ele>406.8</ele>
        <time>2022-09-03T14:00:27Z</time>
      </trkpt>
      <trkpt lat="42.99285" lon="1.17137">
        <ele>406.2</ele>
        <time>2022-09-03T14:00:31Z</time>
      </trkpt>
      <trkpt lat="42.99285" lon="1.1713">
        <ele>406.2</ele>
        <time>2022-09-03T14:00:32Z</time>
      </trkpt>
      <trkpt lat="42.99285" lon="1.17124">
        <ele>406.4</ele>
        <time>2022-09-03T14:00:33Z</time>
      </trkpt>
      <trkpt lat="42.99285" lon="1.17111">
        <ele>406.6</ele>
        <time>2022-09-03T14:00:35Z</time>
      </trkpt>
      <trkpt lat="42.99285" lon="1.17095">
        <ele>406.6</ele>
        <time>2022-09-03T14:00:38Z</time>
      </trkpt>
      <trkpt lat="42.99284" lon="1.17073">
        <ele>405.8</ele>
        <time>2022-09-03T14:00:42Z</time>
      </trkpt>
      <trkpt lat="42.99284" lon="1.17067">
        <ele>405.8</ele>
        <time>2022-09-03T14:00:43Z</time>
      </trkpt>
      <trkpt lat="42.9928" lon="1.17042">
        <ele>405.8</ele>
        <time>2022-09-03T14:00:48Z</time>
      </trkpt>
      <trkpt lat="42.99277" lon="1.17008">
        <ele>405.6</ele>
        <time>2022-09-03T14:00:54Z</time>
      </trkpt>
      <trkpt lat="42.99275" lon="1.16983">
        <ele>405.4</ele>
        <time>2022-09-03T14:00:58Z</time>
      </trkpt>
      <trkpt lat="42.99273" lon="1.1697">
        <ele>405.4</ele>
        <time>2022-09-03T14:01:00Z</time>
      </trkpt>
      <trkpt lat="42.99267" lon="1.16936">
        <ele>405.2</ele>
        <time>2022-09-03T14:01:06Z</time>
      </trkpt>
      <trkpt lat="42.99261" lon="1.16891">
        <ele>404.8</ele>
        <time>2022-09-03T14:01:14Z</time>
      </trkpt>
      <trkpt lat="42.99257" lon="1.16861">
        <ele>404.6</ele>
        <time>2022-09-03T14:01:19Z</time>
      </trkpt>
      <trkpt lat="42.99251" lon="1.16825">
        <ele>404.4</ele>
        <time>2022-09-03T14:01:26Z</time>
      </trkpt>
      <trkpt lat="42.99249" lon="1.1681">
        <ele>404.2</ele>
        <time>2022-09-03T14:01:30Z</time>
      </trkpt>
      <trkpt lat="42.99248" lon="1.16805">
        <ele>404</ele>
        <time>2022-09-03T14:01:32Z</time>
      </trkpt>
      <trkpt lat="42.99234" lon="1.16748">
        <ele>404</ele>
        <time>2022-09-03T14:02:55Z</time>
      </trkpt>
      <trkpt lat="42.99233" lon="1.16745">
        <ele>403.8</ele>
        <time>2022-09-03T14:02:56Z</time>
      </trkpt>
      <trkpt lat="42.99228" lon="1.16726">
        <ele>403.8</ele>
        <time>2022-09-03T14:03:01Z</time>
      </trkpt>
      <trkpt lat="42.99227" lon="1.16723">
        <ele>403.8</ele>
        <time>2022-09-03T14:03:02Z</time>
      </trkpt>
      <trkpt lat="42.99221" lon="1.16704">
        <ele>404</ele>
        <time>2022-09-03T14:03:22Z</time>
      </trkpt>
      <trkpt lat="42.99217" lon="1.16696">
        <ele>404</ele>
        <time>2022-09-03T14:03:24Z</time>
      </trkpt>
      <trkpt lat="42.99203" lon="1.16665">
        <ele>404</ele>
        <time>2022-09-03T14:03:30Z</time>
      </trkpt>
      <trkpt lat="42.9919" lon="1.1663">
        <ele>404</ele>
        <time>2022-09-03T14:03:37Z</time>
      </trkpt>
      <trkpt lat="42.99178" lon="1.16601">
        <ele>404.2</ele>
        <time>2022-09-03T14:03:43Z</time>
      </trkpt>
      <trkpt lat="42.99165" lon="1.1656">
        <ele>404.2</ele>
        <time>2022-09-03T14:03:51Z</time>
      </trkpt>
      <trkpt lat="42.99159" lon="1.16533">
        <ele>404.2</ele>
        <time>2022-09-03T14:03:57Z</time>
      </trkpt>
      <trkpt lat="42.99153" lon="1.16511">
        <ele>404</ele>
        <time>2022-09-03T14:04:01Z</time>
      </trkpt>
      <trkpt lat="42.9915" lon="1.165">
        <ele>404</ele>
        <time>2022-09-03T14:04:03Z</time>
      </trkpt>
      <trkpt lat="42.99143" lon="1.16474">
        <ele>404.2</ele>
        <time>2022-09-03T14:04:08Z</time>
      </trkpt>
      <trkpt lat="42.99135" lon="1.16441">
        <ele>404.4</ele>
        <time>2022-09-03T14:04:14Z</time>
      </trkpt>
      <trkpt lat="42.99127" lon="1.16413">
        <ele>404.4</ele>
        <time>2022-09-03T14:04:19Z</time>
      </trkpt>
      <trkpt lat="42.99122" lon="1.16387">
        <ele>404.4</ele>
        <time>2022-09-03T14:04:24Z</time>
      </trkpt>
      <trkpt lat="42.99119" lon="1.16376">
        <ele>404.4</ele>
        <time>2022-09-03T14:04:26Z</time>
      </trkpt>
      <trkpt lat="42.99115" lon="1.16352">
        <ele>404.4</ele>
        <time>2022-09-03T14:04:30Z</time>
      </trkpt>
      <trkpt lat="42.99109" lon="1.16326">
        <ele>404.2</ele>
        <time>2022-09-03T14:04:35Z</time>
      </trkpt>
      <trkpt lat="42.99102" lon="1.16295">
        <ele>404.2</ele>
        <time>2022-09-03T14:04:42Z</time>
      </trkpt>
      <trkpt lat="42.99095" lon="1.16261">
        <ele>404.2</ele>
        <time>2022-09-03T14:04:49Z</time>
      </trkpt>
      <trkpt lat="42.99089" lon="1.16246">
        <ele>404.2</ele>
        <time>2022-09-03T14:04:53Z</time>
      </trkpt>
      <trkpt lat="42.99087" lon="1.16243">
        <ele>404.2</ele>
        <time>2022-09-03T14:04:54Z</time>
      </trkpt>
      <trkpt lat="42.99078" lon="1.1624">
        <ele>404.8</ele>
        <time>2022-09-03T14:04:57Z</time>
      </trkpt>
      <trkpt lat="42.99072" lon="1.16239">
        <ele>405.2</ele>
        <time>2022-09-03T14:04:59Z</time>
      </trkpt>
      <trkpt lat="42.9907" lon="1.16239">
        <ele>405.4</ele>
        <time>2022-09-03T14:05:00Z</time>
      </trkpt>
      <trkpt lat="42.99057" lon="1.16239">
        <ele>406.4</ele>
        <time>2022-09-03T14:05:05Z</time>
      </trkpt>
      <trkpt lat="42.99054" lon="1.16239">
        <ele>406.6</ele>
        <time>2022-09-03T14:05:06Z</time>
      </trkpt>
      <trkpt lat="42.99045" lon="1.16239">
        <ele>407.6</ele>
        <time>2022-09-03T14:05:11Z</time>
      </trkpt>
      <trkpt lat="42.99043" lon="1.16239">
        <ele>407.8</ele>
        <time>2022-09-03T14:05:12Z</time>
      </trkpt>
      <trkpt lat="42.99036" lon="1.16241">
        <ele>408.8</ele>
        <time>2022-09-03T14:05:16Z</time>
      </trkpt>
      <trkpt lat="42.99028" lon="1.16238">
        <ele>409.8</ele>
        <time>2022-09-03T14:05:21Z</time>
      </trkpt>
      <trkpt lat="42.99026" lon="1.16235">
        <ele>410.4</ele>
        <time>2022-09-03T14:05:23Z</time>
      </trkpt>
      <trkpt lat="42.99026" lon="1.16228">
        <ele>411</ele>
        <time>2022-09-03T14:05:26Z</time>
      </trkpt>
      <trkpt lat="42.99027" lon="1.16225">
        <ele>411.2</ele>
        <time>2022-09-03T14:05:28Z</time>
      </trkpt>
      <trkpt lat="42.99034" lon="1.16212">
        <ele>411</ele>
        <time>2022-09-03T14:05:34Z</time>
      </trkpt>
      <trkpt lat="42.9904" lon="1.16194">
        <ele>410.6</ele>
        <time>2022-09-03T14:05:38Z</time>
      </trkpt>
      <trkpt lat="42.99041" lon="1.16188">
        <ele>410.2</ele>
        <time>2022-09-03T14:05:39Z</time>
      </trkpt>
      <trkpt lat="42.99042" lon="1.16176">
        <ele>410</ele>
        <time>2022-09-03T14:05:41Z</time>
      </trkpt>
      <trkpt lat="42.99041" lon="1.16163">
        <ele>409.8</ele>
        <time>2022-09-03T14:05:43Z</time>
      </trkpt>
      <trkpt lat="42.99041" lon="1.16156">
        <ele>409.8</ele>
        <time>2022-09-03T14:05:44Z</time>
      </trkpt>
      <trkpt lat="42.99039" lon="1.16142">
        <ele>409.4</ele>
        <time>2022-09-03T14:05:46Z</time>
      </trkpt>
      <trkpt lat="42.99039" lon="1.16119">
        <ele>408.8</ele>
        <time>2022-09-03T14:05:49Z</time>
      </trkpt>
      <trkpt lat="42.99039" lon="1.16111">
        <ele>408.6</ele>
        <time>2022-09-03T14:05:50Z</time>
      </trkpt>
      <trkpt lat="42.9904" lon="1.16084">
        <ele>407.8</ele>
        <time>2022-09-03T14:05:53Z</time>
      </trkpt>
      <trkpt lat="42.9904" lon="1.16065">
        <ele>407.4</ele>
        <time>2022-09-03T14:05:55Z</time>
      </trkpt>
      <trkpt lat="42.99041" lon="1.16025">
        <ele>406.6</ele>
        <time>2022-09-03T14:05:59Z</time>
      </trkpt>
      <trkpt lat="42.99042" lon="1.16006">
        <ele>406.4</ele>
        <time>2022-09-03T14:06:01Z</time>
      </trkpt>
      <trkpt lat="42.99047" lon="1.15971">
        <ele>405.8</ele>
        <time>2022-09-03T14:06:05Z</time>
      </trkpt>
      <trkpt lat="42.99049" lon="1.15963">
        <ele>405.6</ele>
        <time>2022-09-03T14:06:06Z</time>
      </trkpt>
      <trkpt lat="42.99051" lon="1.15955">
        <ele>405.4</ele>
        <time>2022-09-03T14:06:07Z</time>
      </trkpt>
      <trkpt lat="42.99059" lon="1.15939">
        <ele>404.8</ele>
        <time>2022-09-03T14:06:09Z</time>
      </trkpt>
      <trkpt lat="42.99063" lon="1.15929">
        <ele>404.4</ele>
        <time>2022-09-03T14:06:10Z</time>
      </trkpt>
      <trkpt lat="42.99075" lon="1.15898">
        <ele>403.2</ele>
        <time>2022-09-03T14:06:13Z</time>
      </trkpt>
      <trkpt lat="42.99079" lon="1.15888">
        <ele>403</ele>
        <time>2022-09-03T14:06:14Z</time>
      </trkpt>
      <trkpt lat="42.99084" lon="1.15879">
        <ele>402.8</ele>
        <time>2022-09-03T14:06:15Z</time>
      </trkpt>
      <trkpt lat="42.99108" lon="1.15838">
        <ele>402.2</ele>
        <time>2022-09-03T14:06:20Z</time>
      </trkpt>
      <trkpt lat="42.9912" lon="1.15816">
        <ele>402.2</ele>
        <time>2022-09-03T14:06:24Z</time>
      </trkpt>
      <trkpt lat="42.99123" lon="1.15813">
        <ele>401.6</ele>
        <time>2022-09-03T14:06:26Z</time>
      </trkpt>
      <trkpt lat="42.99124" lon="1.15811">
        <ele>401</ele>
        <time>2022-09-03T14:06:27Z</time>
      </trkpt>
      <trkpt lat="42.99124" lon="1.15811">
        <ele>401</ele>
        <time>2022-09-03T14:06:28Z</time>
      </trkpt>
      <trkpt lat="42.99134" lon="1.15799">
        <ele>400.8</ele>
        <time>2022-09-03T14:11:46Z</time>
      </trkpt>
      <trkpt lat="42.99138" lon="1.15794">
        <ele>400.4</ele>
        <time>2022-09-03T14:11:48Z</time>
      </trkpt>
      <trkpt lat="42.99152" lon="1.15783">
        <ele>400</ele>
        <time>2022-09-03T14:11:52Z</time>
      </trkpt>
      <trkpt lat="42.99171" lon="1.15765">
        <ele>399.8</ele>
        <time>2022-09-03T14:11:58Z</time>
      </trkpt>
      <trkpt lat="42.99187" lon="1.15749">
        <ele>399.6</ele>
        <time>2022-09-03T14:12:03Z</time>
      </trkpt>
      <trkpt lat="42.9919" lon="1.15745">
        <ele>399.4</ele>
        <time>2022-09-03T14:12:04Z</time>
      </trkpt>
      <trkpt lat="42.99202" lon="1.15733">
        <ele>399</ele>
        <time>2022-09-03T14:12:07Z</time>
      </trkpt>
      <trkpt lat="42.99206" lon="1.15728">
        <ele>398.8</ele>
        <time>2022-09-03T14:12:08Z</time>
      </trkpt>
      <trkpt lat="42.9921" lon="1.15722">
        <ele>398.6</ele>
        <time>2022-09-03T14:12:09Z</time>
      </trkpt>
      <trkpt lat="42.9922" lon="1.15705">
        <ele>398.4</ele>
        <time>2022-09-03T14:12:12Z</time>
      </trkpt>
      <trkpt lat="42.99224" lon="1.15692">
        <ele>398.4</ele>
        <time>2022-09-03T14:12:14Z</time>
      </trkpt>
      <trkpt lat="42.99229" lon="1.15673">
        <ele>398.8</ele>
        <time>2022-09-03T14:12:18Z</time>
      </trkpt>
      <trkpt lat="42.9923" lon="1.1567">
        <ele>398.8</ele>
        <time>2022-09-03T14:12:19Z</time>
      </trkpt>
      <trkpt lat="42.99234" lon="1.15655">
        <ele>399.4</ele>
        <time>2022-09-03T14:12:25Z</time>
      </trkpt>
      <trkpt lat="42.99235" lon="1.15654">
        <ele>399.6</ele>
        <time>2022-09-03T14:12:26Z</time>
      </trkpt>
      <trkpt lat="42.99237" lon="1.1565">
        <ele>399.6</ele>
        <time>2022-09-03T14:12:30Z</time>
      </trkpt>
      <trkpt lat="42.99239" lon="1.15641">
        <ele>399.4</ele>
        <time>2022-09-03T14:15:35Z</time>
      </trkpt>
      <trkpt lat="42.99238" lon="1.15633">
        <ele>399.6</ele>
        <time>2022-09-03T14:15:37Z</time>
      </trkpt>
      <trkpt lat="42.9923" lon="1.15605">
        <ele>399.4</ele>
        <time>2022-09-03T14:15:43Z</time>
      </trkpt>
      <trkpt lat="42.9922" lon="1.15566">
        <ele>399.4</ele>
        <time>2022-09-03T14:15:50Z</time>
      </trkpt>
      <trkpt lat="42.99219" lon="1.15536">
        <ele>399.6</ele>
        <time>2022-09-03T14:15:56Z</time>
      </trkpt>
      <trkpt lat="42.99215" lon="1.15511">
        <ele>399.4</ele>
        <time>2022-09-03T14:16:01Z</time>
      </trkpt>
      <trkpt lat="42.992" lon="1.1549">
        <ele>399.2</ele>
        <time>2022-09-03T14:16:06Z</time>
      </trkpt>
      <trkpt lat="42.99176" lon="1.1546">
        <ele>398.8</ele>
        <time>2022-09-03T14:16:13Z</time>
      </trkpt>
      <trkpt lat="42.99157" lon="1.15437">
        <ele>398.4</ele>
        <time>2022-09-03T14:16:18Z</time>
      </trkpt>
      <trkpt lat="42.99153" lon="1.15432">
        <ele>398.4</ele>
        <time>2022-09-03T14:16:19Z</time>
      </trkpt>
      <trkpt lat="42.99127" lon="1.15398">
        <ele>398.2</ele>
        <time>2022-09-03T14:16:26Z</time>
      </trkpt>
      <trkpt lat="42.99109" lon="1.15376">
        <ele>398</ele>
        <time>2022-09-03T14:16:31Z</time>
      </trkpt>
      <trkpt lat="42.99102" lon="1.15367">
        <ele>397.6</ele>
        <time>2022-09-03T14:16:33Z</time>
      </trkpt>
      <trkpt lat="42.99071" lon="1.15324">
        <ele>397.8</ele>
        <time>2022-09-03T14:16:42Z</time>
      </trkpt>
      <trkpt lat="42.99055" lon="1.15298">
        <ele>397.6</ele>
        <time>2022-09-03T14:16:47Z</time>
      </trkpt>
      <trkpt lat="42.99036" lon="1.15264">
        <ele>397.4</ele>
        <time>2022-09-03T14:16:53Z</time>
      </trkpt>
      <trkpt lat="42.99033" lon="1.15258">
        <ele>397.4</ele>
        <time>2022-09-03T14:16:54Z</time>
      </trkpt>
      <trkpt lat="42.99011" lon="1.15214">
        <ele>396.8</ele>
        <time>2022-09-03T14:17:01Z</time>
      </trkpt>
      <trkpt lat="42.99002" lon="1.15196">
        <ele>397</ele>
        <time>2022-09-03T14:17:04Z</time>
      </trkpt>
      <trkpt lat="42.98997" lon="1.15184">
        <ele>397</ele>
        <time>2022-09-03T14:17:06Z</time>
      </trkpt>
      <trkpt lat="42.98978" lon="1.15142">
        <ele>396.8</ele>
        <time>2022-09-03T14:17:13Z</time>
      </trkpt>
      <trkpt lat="42.98977" lon="1.15133">
        <ele>396.6</ele>
        <time>2022-09-03T14:17:15Z</time>
      </trkpt>
      <trkpt lat="42.98978" lon="1.15129">
        <ele>396.4</ele>
        <time>2022-09-03T14:17:16Z</time>
      </trkpt>
      <trkpt lat="42.98991" lon="1.15114">
        <ele>396</ele>
        <time>2022-09-03T14:17:20Z</time>
      </trkpt>
      <trkpt lat="42.98994" lon="1.15109">
        <ele>395.8</ele>
        <time>2022-09-03T14:17:21Z</time>
      </trkpt>
      <trkpt lat="42.98997" lon="1.15103">
        <ele>395.8</ele>
        <time>2022-09-03T14:17:22Z</time>
      </trkpt>
      <trkpt lat="42.99" lon="1.15088">
        <ele>395.4</ele>
        <time>2022-09-03T14:17:24Z</time>
      </trkpt>
      <trkpt lat="42.99004" lon="1.15066">
        <ele>395</ele>
        <time>2022-09-03T14:17:27Z</time>
      </trkpt>
      <trkpt lat="42.99008" lon="1.15044">
        <ele>394.6</ele>
        <time>2022-09-03T14:17:30Z</time>
      </trkpt>
      <trkpt lat="42.9901" lon="1.1503">
        <ele>394.6</ele>
        <time>2022-09-03T14:17:32Z</time>
      </trkpt>
      <trkpt lat="42.99013" lon="1.15001">
        <ele>394.4</ele>
        <time>2022-09-03T14:17:36Z</time>
      </trkpt>
      <trkpt lat="42.99019" lon="1.14991">
        <ele>394.2</ele>
        <time>2022-09-03T14:17:38Z</time>
      </trkpt>
      <trkpt lat="42.99027" lon="1.14984">
        <ele>394.2</ele>
        <time>2022-09-03T14:17:40Z</time>
      </trkpt>
      <trkpt lat="42.9903" lon="1.1498">
        <ele>394.4</ele>
        <time>2022-09-03T14:17:41Z</time>
      </trkpt>
      <trkpt lat="42.99032" lon="1.14975">
        <ele>394.2</ele>
        <time>2022-09-03T14:17:42Z</time>
      </trkpt>
      <trkpt lat="42.99029" lon="1.14959">
        <ele>394.6</ele>
        <time>2022-09-03T14:17:45Z</time>
      </trkpt>
      <trkpt lat="42.99025" lon="1.14947">
        <ele>394.6</ele>
        <time>2022-09-03T14:17:48Z</time>
      </trkpt>
      <trkpt lat="42.99021" lon="1.14935">
        <ele>395.2</ele>
        <time>2022-09-03T14:17:51Z</time>
      </trkpt>
      <trkpt lat="42.99015" lon="1.14922">
        <ele>395.8</ele>
        <time>2022-09-03T14:17:55Z</time>
      </trkpt>
      <trkpt lat="42.99008" lon="1.14903">
        <ele>396.4</ele>
        <time>2022-09-03T14:18:00Z</time>
      </trkpt>
      <trkpt lat="42.99003" lon="1.14889">
        <ele>396.8</ele>
        <time>2022-09-03T14:18:04Z</time>
      </trkpt>
      <trkpt lat="42.98996" lon="1.14868">
        <ele>397.8</ele>
        <time>2022-09-03T14:18:10Z</time>
      </trkpt>
      <trkpt lat="42.98995" lon="1.14856">
        <ele>398.6</ele>
        <time>2022-09-03T14:18:14Z</time>
      </trkpt>
      <trkpt lat="42.98996" lon="1.14852">
        <ele>399</ele>
        <time>2022-09-03T14:18:16Z</time>
      </trkpt>
      <trkpt lat="42.99008" lon="1.14847">
        <ele>399.8</ele>
        <time>2022-09-03T14:18:22Z</time>
      </trkpt>
      <trkpt lat="42.9901" lon="1.14847">
        <ele>400</ele>
        <time>2022-09-03T14:18:23Z</time>
      </trkpt>
      <trkpt lat="42.99022" lon="1.14846">
        <ele>400.2</ele>
        <time>2022-09-03T14:18:28Z</time>
      </trkpt>
      <trkpt lat="42.99048" lon="1.14844">
        <ele>400.8</ele>
        <time>2022-09-03T14:18:37Z</time>
      </trkpt>
      <trkpt lat="42.99051" lon="1.14844">
        <ele>401</ele>
        <time>2022-09-03T14:18:38Z</time>
      </trkpt>
      <trkpt lat="42.99075" lon="1.14845">
        <ele>400.8</ele>
        <time>2022-09-03T14:18:45Z</time>
      </trkpt>
      <trkpt lat="42.991" lon="1.14838">
        <ele>401</ele>
        <time>2022-09-03T14:18:52Z</time>
      </trkpt>
      <trkpt lat="42.99114" lon="1.14816">
        <ele>401.2</ele>
        <time>2022-09-03T14:18:58Z</time>
      </trkpt>
      <trkpt lat="42.99126" lon="1.14796">
        <ele>401</ele>
        <time>2022-09-03T14:19:03Z</time>
      </trkpt>
      <trkpt lat="42.99129" lon="1.14792">
        <ele>400.8</ele>
        <time>2022-09-03T14:19:04Z</time>
      </trkpt>
      <trkpt lat="42.99134" lon="1.14782">
        <ele>400.6</ele>
        <time>2022-09-03T14:19:06Z</time>
      </trkpt>
      <trkpt lat="42.99138" lon="1.14762">
        <ele>400.4</ele>
        <time>2022-09-03T14:19:09Z</time>
      </trkpt>
      <trkpt lat="42.99136" lon="1.1474">
        <ele>400.2</ele>
        <time>2022-09-03T14:19:12Z</time>
      </trkpt>
      <trkpt lat="42.99134" lon="1.14733">
        <ele>400.2</ele>
        <time>2022-09-03T14:19:13Z</time>
      </trkpt>
      <trkpt lat="42.99132" lon="1.14726">
        <ele>400</ele>
        <time>2022-09-03T14:19:14Z</time>
      </trkpt>
      <trkpt lat="42.99119" lon="1.14697">
        <ele>399.8</ele>
        <time>2022-09-03T14:19:19Z</time>
      </trkpt>
      <trkpt lat="42.99111" lon="1.14679">
        <ele>400</ele>
        <time>2022-09-03T14:19:23Z</time>
      </trkpt>
      <trkpt lat="42.991" lon="1.14653">
        <ele>399.6</ele>
        <time>2022-09-03T14:19:29Z</time>
      </trkpt>
      <trkpt lat="42.99089" lon="1.14623">
        <ele>399.2</ele>
        <time>2022-09-03T14:19:36Z</time>
      </trkpt>
      <trkpt lat="42.99086" lon="1.14612">
        <ele>399.2</ele>
        <time>2022-09-03T14:19:38Z</time>
      </trkpt>
      <trkpt lat="42.99086" lon="1.14606">
        <ele>399</ele>
        <time>2022-09-03T14:19:39Z</time>
      </trkpt>
      <trkpt lat="42.99087" lon="1.14599">
        <ele>398.8</ele>
        <time>2022-09-03T14:19:40Z</time>
      </trkpt>
      <trkpt lat="42.99091" lon="1.14572">
        <ele>398.2</ele>
        <time>2022-09-03T14:19:44Z</time>
      </trkpt>
      <trkpt lat="42.99093" lon="1.14559">
        <ele>398</ele>
        <time>2022-09-03T14:19:46Z</time>
      </trkpt>
      <trkpt lat="42.99093" lon="1.14552">
        <ele>397.8</ele>
        <time>2022-09-03T14:19:47Z</time>
      </trkpt>
      <trkpt lat="42.99093" lon="1.14545">
        <ele>397.6</ele>
        <time>2022-09-03T14:19:48Z</time>
      </trkpt>
      <trkpt lat="42.99091" lon="1.14526">
        <ele>396.2</ele>
        <time>2022-09-03T14:19:51Z</time>
      </trkpt>
      <trkpt lat="42.99087" lon="1.14509">
        <ele>395</ele>
        <time>2022-09-03T14:19:54Z</time>
      </trkpt>
      <trkpt lat="42.99087" lon="1.14504">
        <ele>394.6</ele>
        <time>2022-09-03T14:19:55Z</time>
      </trkpt>
      <trkpt lat="42.99087" lon="1.14493">
        <ele>393.8</ele>
        <time>2022-09-03T14:19:57Z</time>
      </trkpt>
      <trkpt lat="42.99086" lon="1.14484">
        <ele>392.8</ele>
        <time>2022-09-03T14:19:59Z</time>
      </trkpt>
      <trkpt lat="42.99085" lon="1.1448">
        <ele>392.6</ele>
        <time>2022-09-03T14:20:00Z</time>
      </trkpt>
      <trkpt lat="42.99076" lon="1.14464">
        <ele>391.8</ele>
        <time>2022-09-03T14:20:04Z</time>
      </trkpt>
      <trkpt lat="42.99073" lon="1.1446">
        <ele>391.8</ele>
        <time>2022-09-03T14:20:05Z</time>
      </trkpt>
      <trkpt lat="42.9906" lon="1.14442">
        <ele>391.6</ele>
        <time>2022-09-03T14:20:09Z</time>
      </trkpt>
      <trkpt lat="42.99057" lon="1.14438">
        <ele>391.4</ele>
        <time>2022-09-03T14:20:10Z</time>
      </trkpt>
      <trkpt lat="42.99043" lon="1.14408">
        <ele>391</ele>
        <time>2022-09-03T14:20:16Z</time>
      </trkpt>
      <trkpt lat="42.99042" lon="1.14403">
        <ele>391</ele>
        <time>2022-09-03T14:20:17Z</time>
      </trkpt>
      <trkpt lat="42.9904" lon="1.14393">
        <ele>390.8</ele>
        <time>2022-09-03T14:20:19Z</time>
      </trkpt>
      <trkpt lat="42.99039" lon="1.14388">
        <ele>390.6</ele>
        <time>2022-09-03T14:20:20Z</time>
      </trkpt>
      <trkpt lat="42.99039" lon="1.14384">
        <ele>390.4</ele>
        <time>2022-09-03T14:20:22Z</time>
      </trkpt>
      <trkpt lat="42.9904" lon="1.14381">
        <ele>390.6</ele>
        <time>2022-09-03T14:20:24Z</time>
      </trkpt>
      <trkpt lat="42.9904" lon="1.14381">
        <ele>390.6</ele>
        <time>2022-09-03T14:20:26Z</time>
      </trkpt>
      <trkpt lat="42.99044" lon="1.14379">
        <ele>390.6</ele>
        <time>2022-09-03T14:20:34Z</time>
      </trkpt>
      <trkpt lat="42.99049" lon="1.14377">
        <ele>390.8</ele>
        <time>2022-09-03T14:20:36Z</time>
      </trkpt>
      <trkpt lat="42.99054" lon="1.14376">
        <ele>390.8</ele>
        <time>2022-09-03T14:20:38Z</time>
      </trkpt>
      <trkpt lat="42.9907" lon="1.14368">
        <ele>391</ele>
        <time>2022-09-03T14:20:43Z</time>
      </trkpt>
      <trkpt lat="42.99093" lon="1.14354">
        <ele>390.6</ele>
        <time>2022-09-03T14:20:50Z</time>
      </trkpt>
      <trkpt lat="42.99111" lon="1.14342">
        <ele>391</ele>
        <time>2022-09-03T14:20:56Z</time>
      </trkpt>
      <trkpt lat="42.99133" lon="1.14323">
        <ele>391</ele>
        <time>2022-09-03T14:21:03Z</time>
      </trkpt>
      <trkpt lat="42.9915" lon="1.14298">
        <ele>391</ele>
        <time>2022-09-03T14:21:10Z</time>
      </trkpt>
      <trkpt lat="42.99169" lon="1.1427">
        <ele>391.6</ele>
        <time>2022-09-03T14:21:17Z</time>
      </trkpt>
      <trkpt lat="42.99189" lon="1.14243">
        <ele>391.8</ele>
        <time>2022-09-03T14:21:24Z</time>
      </trkpt>
      <trkpt lat="42.99198" lon="1.14232">
        <ele>391.8</ele>
        <time>2022-09-03T14:21:27Z</time>
      </trkpt>
      <trkpt lat="42.99209" lon="1.14218">
        <ele>392</ele>
        <time>2022-09-03T14:21:31Z</time>
      </trkpt>
      <trkpt lat="42.99219" lon="1.14203">
        <ele>392</ele>
        <time>2022-09-03T14:21:35Z</time>
      </trkpt>
      <trkpt lat="42.99231" lon="1.14187">
        <ele>392.2</ele>
        <time>2022-09-03T14:21:40Z</time>
      </trkpt>
      <trkpt lat="42.99239" lon="1.14187">
        <ele>392.2</ele>
        <time>2022-09-03T14:21:43Z</time>
      </trkpt>
      <trkpt lat="42.99241" lon="1.14187">
        <ele>392.4</ele>
        <time>2022-09-03T14:21:44Z</time>
      </trkpt>
      <trkpt lat="42.99249" lon="1.14184">
        <ele>392.4</ele>
        <time>2022-09-03T14:21:48Z</time>
      </trkpt>
      <trkpt lat="42.99251" lon="1.14184">
        <ele>392.6</ele>
        <time>2022-09-03T14:21:50Z</time>
      </trkpt>
      <trkpt lat="42.99253" lon="1.14186">
        <ele>392.8</ele>
        <time>2022-09-03T14:21:51Z</time>
      </trkpt>
      <trkpt lat="42.99259" lon="1.1419">
        <ele>393</ele>
        <time>2022-09-03T14:21:56Z</time>
      </trkpt>
      <trkpt lat="42.99259" lon="1.142">
        <ele>392.8</ele>
        <time>2022-09-03T14:31:10Z</time>
      </trkpt>
      <trkpt lat="42.99256" lon="1.14201">
        <ele>392.8</ele>
        <time>2022-09-03T14:31:11Z</time>
      </trkpt>
      <trkpt lat="42.99251" lon="1.14195">
        <ele>392.8</ele>
        <time>2022-09-03T14:31:14Z</time>
      </trkpt>
      <trkpt lat="42.99247" lon="1.14188">
        <ele>392.8</ele>
        <time>2022-09-03T14:31:17Z</time>
      </trkpt>
      <trkpt lat="42.99246" lon="1.14181">
        <ele>392.4</ele>
        <time>2022-09-03T14:31:19Z</time>
      </trkpt>
      <trkpt lat="42.99246" lon="1.14175">
        <ele>392.4</ele>
        <time>2022-09-03T14:31:21Z</time>
      </trkpt>
      <trkpt lat="42.9925" lon="1.1416">
        <ele>392.2</ele>
        <time>2022-09-03T14:31:25Z</time>
      </trkpt>
      <trkpt lat="42.9927" lon="1.14128">
        <ele>392.8</ele>
        <time>2022-09-03T14:31:33Z</time>
      </trkpt>
      <trkpt lat="42.99289" lon="1.14096">
        <ele>393.2</ele>
        <time>2022-09-03T14:31:41Z</time>
      </trkpt>
      <trkpt lat="42.9931" lon="1.14059">
        <ele>393.8</ele>
        <time>2022-09-03T14:31:50Z</time>
      </trkpt>
      <trkpt lat="42.99315" lon="1.14051">
        <ele>393.8</ele>
        <time>2022-09-03T14:31:52Z</time>
      </trkpt>
      <trkpt lat="42.99335" lon="1.14026">
        <ele>394.2</ele>
        <time>2022-09-03T14:31:59Z</time>
      </trkpt>
      <trkpt lat="42.99356" lon="1.14015">
        <ele>394.8</ele>
        <time>2022-09-03T14:32:05Z</time>
      </trkpt>
      <trkpt lat="42.99359" lon="1.14015">
        <ele>395</ele>
        <time>2022-09-03T14:32:06Z</time>
      </trkpt>
      <trkpt lat="42.99372" lon="1.14016">
        <ele>396</ele>
        <time>2022-09-03T14:32:10Z</time>
      </trkpt>
      <trkpt lat="42.99378" lon="1.14017">
        <ele>396.2</ele>
        <time>2022-09-03T14:32:12Z</time>
      </trkpt>
      <trkpt lat="42.99392" lon="1.14022">
        <ele>396.8</ele>
        <time>2022-09-03T14:32:17Z</time>
      </trkpt>
      <trkpt lat="42.99397" lon="1.14026">
        <ele>397</ele>
        <time>2022-09-03T14:32:19Z</time>
      </trkpt>
      <trkpt lat="42.99412" lon="1.14035">
        <ele>398</ele>
        <time>2022-09-03T14:32:25Z</time>
      </trkpt>
      <trkpt lat="42.99414" lon="1.14036">
        <ele>398.2</ele>
        <time>2022-09-03T14:32:26Z</time>
      </trkpt>
      <trkpt lat="42.99431" lon="1.14039">
        <ele>399.2</ele>
        <time>2022-09-03T14:32:33Z</time>
      </trkpt>
      <trkpt lat="42.99445" lon="1.14037">
        <ele>397.8</ele>
        <time>2022-09-03T14:32:39Z</time>
      </trkpt>
      <trkpt lat="42.99459" lon="1.14032">
        <ele>397.2</ele>
        <time>2022-09-03T14:32:42Z</time>
      </trkpt>
      <trkpt lat="42.99464" lon="1.14029">
        <ele>397</ele>
        <time>2022-09-03T14:32:43Z</time>
      </trkpt>
      <trkpt lat="42.99469" lon="1.14025">
        <ele>396.4</ele>
        <time>2022-09-03T14:32:44Z</time>
      </trkpt>
      <trkpt lat="42.99474" lon="1.14021">
        <ele>396.2</ele>
        <time>2022-09-03T14:32:45Z</time>
      </trkpt>
      <trkpt lat="42.99483" lon="1.1401">
        <ele>395.4</ele>
        <time>2022-09-03T14:32:47Z</time>
      </trkpt>
      <trkpt lat="42.99487" lon="1.14003">
        <ele>394.6</ele>
        <time>2022-09-03T14:32:48Z</time>
      </trkpt>
      <trkpt lat="42.99492" lon="1.13995">
        <ele>394</ele>
        <time>2022-09-03T14:32:49Z</time>
      </trkpt>
      <trkpt lat="42.99513" lon="1.13957">
        <ele>393.4</ele>
        <time>2022-09-03T14:32:54Z</time>
      </trkpt>
      <trkpt lat="42.99518" lon="1.1395">
        <ele>392.6</ele>
        <time>2022-09-03T14:32:55Z</time>
      </trkpt>
      <trkpt lat="42.99527" lon="1.13938">
        <ele>392</ele>
        <time>2022-09-03T14:32:57Z</time>
      </trkpt>
      <trkpt lat="42.99536" lon="1.13926">
        <ele>391.4</ele>
        <time>2022-09-03T14:32:59Z</time>
      </trkpt>
      <trkpt lat="42.99549" lon="1.13909">
        <ele>390.4</ele>
        <time>2022-09-03T14:33:03Z</time>
      </trkpt>
      <trkpt lat="42.99555" lon="1.13898">
        <ele>389.6</ele>
        <time>2022-09-03T14:33:20Z</time>
      </trkpt>
      <trkpt lat="42.99557" lon="1.13895">
        <ele>389.6</ele>
        <time>2022-09-03T14:33:23Z</time>
      </trkpt>
      <trkpt lat="42.99566" lon="1.13889">
        <ele>389.6</ele>
        <time>2022-09-03T14:33:29Z</time>
      </trkpt>
      <trkpt lat="42.99582" lon="1.13879">
        <ele>389.8</ele>
        <time>2022-09-03T14:33:37Z</time>
      </trkpt>
      <trkpt lat="42.99595" lon="1.13872">
        <ele>389.8</ele>
        <time>2022-09-03T14:33:43Z</time>
      </trkpt>
      <trkpt lat="42.99613" lon="1.13859">
        <ele>389.8</ele>
        <time>2022-09-03T14:33:50Z</time>
      </trkpt>
      <trkpt lat="42.99627" lon="1.13845">
        <ele>389.4</ele>
        <time>2022-09-03T14:33:55Z</time>
      </trkpt>
      <trkpt lat="42.99639" lon="1.13831">
        <ele>389.4</ele>
        <time>2022-09-03T14:34:00Z</time>
      </trkpt>
      <trkpt lat="42.9964" lon="1.13827">
        <ele>389.4</ele>
        <time>2022-09-03T14:34:01Z</time>
      </trkpt>
      <trkpt lat="42.99644" lon="1.13821">
        <ele>389.4</ele>
        <time>2022-09-03T14:34:03Z</time>
      </trkpt>
      <trkpt lat="42.99652" lon="1.13805">
        <ele>389.2</ele>
        <time>2022-09-03T14:34:08Z</time>
      </trkpt>
      <trkpt lat="42.99663" lon="1.13777">
        <ele>388.8</ele>
        <time>2022-09-03T14:34:15Z</time>
      </trkpt>
      <trkpt lat="42.99671" lon="1.1376">
        <ele>388.4</ele>
        <time>2022-09-03T14:34:20Z</time>
      </trkpt>
      <trkpt lat="42.99675" lon="1.13751">
        <ele>387.8</ele>
        <time>2022-09-03T14:34:22Z</time>
      </trkpt>
      <trkpt lat="42.9968" lon="1.13737">
        <ele>387</ele>
        <time>2022-09-03T14:34:25Z</time>
      </trkpt>
      <trkpt lat="42.99687" lon="1.13727">
        <ele>386.2</ele>
        <time>2022-09-03T14:34:28Z</time>
      </trkpt>
      <trkpt lat="42.99699" lon="1.13718">
        <ele>386</ele>
        <time>2022-09-03T14:34:34Z</time>
      </trkpt>
      <trkpt lat="42.99706" lon="1.13712">
        <ele>386</ele>
        <time>2022-09-03T14:34:37Z</time>
      </trkpt>
      <trkpt lat="42.99711" lon="1.1371">
        <ele>385.8</ele>
        <time>2022-09-03T14:34:39Z</time>
      </trkpt>
      <trkpt lat="42.99729" lon="1.13705">
        <ele>386</ele>
        <time>2022-09-03T14:34:47Z</time>
      </trkpt>
      <trkpt lat="42.99744" lon="1.137">
        <ele>385.8</ele>
        <time>2022-09-03T14:34:54Z</time>
      </trkpt>
      <trkpt lat="42.99758" lon="1.13695">
        <ele>385.6</ele>
        <time>2022-09-03T14:35:01Z</time>
      </trkpt>
      <trkpt lat="42.99772" lon="1.13691">
        <ele>384.8</ele>
        <time>2022-09-03T14:35:06Z</time>
      </trkpt>
      <trkpt lat="42.99789" lon="1.13691">
        <ele>384.4</ele>
        <time>2022-09-03T14:35:11Z</time>
      </trkpt>
      <trkpt lat="42.99803" lon="1.13684">
        <ele>384.4</ele>
        <time>2022-09-03T14:35:16Z</time>
      </trkpt>
      <trkpt lat="42.99819" lon="1.13674">
        <ele>383.8</ele>
        <time>2022-09-03T14:35:23Z</time>
      </trkpt>
      <trkpt lat="42.99839" lon="1.13659">
        <ele>383.8</ele>
        <time>2022-09-03T14:35:30Z</time>
      </trkpt>
      <trkpt lat="42.99859" lon="1.13647">
        <ele>383.6</ele>
        <time>2022-09-03T14:35:37Z</time>
      </trkpt>
      <trkpt lat="42.99862" lon="1.13645">
        <ele>383.6</ele>
        <time>2022-09-03T14:35:38Z</time>
      </trkpt>
      <trkpt lat="42.99886" lon="1.13638">
        <ele>383.2</ele>
        <time>2022-09-03T14:35:46Z</time>
      </trkpt>
      <trkpt lat="42.99903" lon="1.13632">
        <ele>383.2</ele>
        <time>2022-09-03T14:35:53Z</time>
      </trkpt>
      <trkpt lat="42.99916" lon="1.13625">
        <ele>383</ele>
        <time>2022-09-03T14:35:59Z</time>
      </trkpt>
      <trkpt lat="42.99919" lon="1.13624">
        <ele>382.8</ele>
        <time>2022-09-03T14:36:00Z</time>
      </trkpt>
      <trkpt lat="42.99941" lon="1.13612">
        <ele>382.6</ele>
        <time>2022-09-03T14:36:08Z</time>
      </trkpt>
      <trkpt lat="42.99964" lon="1.13596">
        <ele>382.4</ele>
        <time>2022-09-03T14:36:16Z</time>
      </trkpt>
      <trkpt lat="42.99983" lon="1.13586">
        <ele>383.2</ele>
        <time>2022-09-03T14:36:22Z</time>
      </trkpt>
      <trkpt lat="42.9999" lon="1.13582">
        <ele>383.8</ele>
        <time>2022-09-03T14:36:25Z</time>
      </trkpt>
      <trkpt lat="42.99996" lon="1.13578">
        <ele>385</ele>
        <time>2022-09-03T14:36:29Z</time>
      </trkpt>
      <trkpt lat="43" lon="1.13577">
        <ele>386</ele>
        <time>2022-09-03T14:36:32Z</time>
      </trkpt>
      <trkpt lat="43.00005" lon="1.13573">
        <ele>387</ele>
        <time>2022-09-03T14:36:35Z</time>
      </trkpt>
      <trkpt lat="43.00007" lon="1.13572">
        <ele>387.2</ele>
        <time>2022-09-03T14:36:36Z</time>
      </trkpt>
      <trkpt lat="43.00011" lon="1.13573">
        <ele>388.2</ele>
        <time>2022-09-03T14:36:39Z</time>
      </trkpt>
      <trkpt lat="43.00012" lon="1.13574">
        <ele>388.4</ele>
        <time>2022-09-03T14:36:40Z</time>
      </trkpt>
      <trkpt lat="43.0002" lon="1.13569">
        <ele>390</ele>
        <time>2022-09-03T14:36:52Z</time>
      </trkpt>
      <trkpt lat="43.0003" lon="1.13551">
        <ele>389.2</ele>
        <time>2022-09-03T14:36:56Z</time>
      </trkpt>
      <trkpt lat="43.00032" lon="1.13546">
        <ele>389</ele>
        <time>2022-09-03T14:36:57Z</time>
      </trkpt>
      <trkpt lat="43.00044" lon="1.13519">
        <ele>387.6</ele>
        <time>2022-09-03T14:37:02Z</time>
      </trkpt>
      <trkpt lat="43.00049" lon="1.1351">
        <ele>387</ele>
        <time>2022-09-03T14:37:06Z</time>
      </trkpt>
      <trkpt lat="43.00046" lon="1.13496">
        <ele>387.2</ele>
        <time>2022-09-03T14:37:10Z</time>
      </trkpt>
      <trkpt lat="43.00045" lon="1.13492">
        <ele>387.4</ele>
        <time>2022-09-03T14:37:11Z</time>
      </trkpt>
      <trkpt lat="43.00042" lon="1.13475">
        <ele>387.6</ele>
        <time>2022-09-03T14:37:17Z</time>
      </trkpt>
      <trkpt lat="43.0004" lon="1.1347">
        <ele>387.4</ele>
        <time>2022-09-03T14:37:24Z</time>
      </trkpt>
      <trkpt lat="43.00035" lon="1.13451">
        <ele>386.8</ele>
        <time>2022-09-03T14:37:30Z</time>
      </trkpt>
      <trkpt lat="43.00036" lon="1.13446">
        <ele>386.8</ele>
        <time>2022-09-03T14:37:32Z</time>
      </trkpt>
      <trkpt lat="43.00038" lon="1.13444">
        <ele>386.6</ele>
        <time>2022-09-03T14:37:34Z</time>
      </trkpt>
      <trkpt lat="43.00041" lon="1.1344">
        <ele>386.4</ele>
        <time>2022-09-03T14:37:45Z</time>
      </trkpt>
      <trkpt lat="43.00044" lon="1.13438">
        <ele>386.6</ele>
        <time>2022-09-03T14:37:46Z</time>
      </trkpt>
      <trkpt lat="43.00065" lon="1.1343">
        <ele>386.8</ele>
        <time>2022-09-03T14:37:52Z</time>
      </trkpt>
      <trkpt lat="43.00088" lon="1.13426">
        <ele>386.8</ele>
        <time>2022-09-03T14:37:58Z</time>
      </trkpt>
      <trkpt lat="43.00113" lon="1.13413">
        <ele>386</ele>
        <time>2022-09-03T14:38:04Z</time>
      </trkpt>
      <trkpt lat="43.00127" lon="1.13405">
        <ele>385.6</ele>
        <time>2022-09-03T14:38:07Z</time>
      </trkpt>
      <trkpt lat="43.00142" lon="1.13396">
        <ele>385</ele>
        <time>2022-09-03T14:38:10Z</time>
      </trkpt>
      <trkpt lat="43.00157" lon="1.13386">
        <ele>384.6</ele>
        <time>2022-09-03T14:38:13Z</time>
      </trkpt>
      <trkpt lat="43.00181" lon="1.13365">
        <ele>383.8</ele>
        <time>2022-09-03T14:38:18Z</time>
      </trkpt>
      <trkpt lat="43.00186" lon="1.1336">
        <ele>383.6</ele>
        <time>2022-09-03T14:38:19Z</time>
      </trkpt>
      <trkpt lat="43.0019" lon="1.13354">
        <ele>383.4</ele>
        <time>2022-09-03T14:38:20Z</time>
      </trkpt>
      <trkpt lat="43.00203" lon="1.13335">
        <ele>382.6</ele>
        <time>2022-09-03T14:38:23Z</time>
      </trkpt>
      <trkpt lat="43.00216" lon="1.13318">
        <ele>382.2</ele>
        <time>2022-09-03T14:38:26Z</time>
      </trkpt>
      <trkpt lat="43.00239" lon="1.1329">
        <ele>381.4</ele>
        <time>2022-09-03T14:38:31Z</time>
      </trkpt>
      <trkpt lat="43.00249" lon="1.13279">
        <ele>381.2</ele>
        <time>2022-09-03T14:38:33Z</time>
      </trkpt>
      <trkpt lat="43.00284" lon="1.13237">
        <ele>380.8</ele>
        <time>2022-09-03T14:38:41Z</time>
      </trkpt>
      <trkpt lat="43.00295" lon="1.13223">
        <ele>380.6</ele>
        <time>2022-09-03T14:38:44Z</time>
      </trkpt>
      <trkpt lat="43.00299" lon="1.13212">
        <ele>380.6</ele>
        <time>2022-09-03T14:38:46Z</time>
      </trkpt>
      <trkpt lat="43.00302" lon="1.13206">
        <ele>380.8</ele>
        <time>2022-09-03T14:38:49Z</time>
      </trkpt>
      <trkpt lat="43.00311" lon="1.13192">
        <ele>381.2</ele>
        <time>2022-09-03T14:38:55Z</time>
      </trkpt>
      <trkpt lat="43.00322" lon="1.13176">
        <ele>382.2</ele>
        <time>2022-09-03T14:39:01Z</time>
      </trkpt>
      <trkpt lat="43.00326" lon="1.13171">
        <ele>382.4</ele>
        <time>2022-09-03T14:39:03Z</time>
      </trkpt>
      <trkpt lat="43.00339" lon="1.13156">
        <ele>383.2</ele>
        <time>2022-09-03T14:39:09Z</time>
      </trkpt>
      <trkpt lat="43.00341" lon="1.13154">
        <ele>383.4</ele>
        <time>2022-09-03T14:39:10Z</time>
      </trkpt>
      <trkpt lat="43.00356" lon="1.13135">
        <ele>384.6</ele>
        <time>2022-09-03T14:39:17Z</time>
      </trkpt>
      <trkpt lat="43.00359" lon="1.13132">
        <ele>384.6</ele>
        <time>2022-09-03T14:39:18Z</time>
      </trkpt>
      <trkpt lat="43.0038" lon="1.13109">
        <ele>385.6</ele>
        <time>2022-09-03T14:39:27Z</time>
      </trkpt>
      <trkpt lat="43.00382" lon="1.13107">
        <ele>385.6</ele>
        <time>2022-09-03T14:39:28Z</time>
      </trkpt>
      <trkpt lat="43.00399" lon="1.13089">
        <ele>386</ele>
        <time>2022-09-03T14:39:35Z</time>
      </trkpt>
      <trkpt lat="43.00418" lon="1.13073">
        <ele>385.8</ele>
        <time>2022-09-03T14:39:41Z</time>
      </trkpt>
      <trkpt lat="43.00447" lon="1.13046">
        <ele>385.2</ele>
        <time>2022-09-03T14:39:51Z</time>
      </trkpt>
      <trkpt lat="43.00472" lon="1.13022">
        <ele>385</ele>
        <time>2022-09-03T14:39:59Z</time>
      </trkpt>
      <trkpt lat="43.00504" lon="1.12992">
        <ele>385</ele>
        <time>2022-09-03T14:40:09Z</time>
      </trkpt>
      <trkpt lat="43.0053" lon="1.12967">
        <ele>384.8</ele>
        <time>2022-09-03T14:40:17Z</time>
      </trkpt>
      <trkpt lat="43.00537" lon="1.12961">
        <ele>384.6</ele>
        <time>2022-09-03T14:40:19Z</time>
      </trkpt>
      <trkpt lat="43.00567" lon="1.12932">
        <ele>384.6</ele>
        <time>2022-09-03T14:40:28Z</time>
      </trkpt>
      <trkpt lat="43.00599" lon="1.12902">
        <ele>384</ele>
        <time>2022-09-03T14:40:37Z</time>
      </trkpt>
      <trkpt lat="43.00624" lon="1.12872">
        <ele>384.2</ele>
        <time>2022-09-03T14:40:46Z</time>
      </trkpt>
      <trkpt lat="43.00621" lon="1.12855">
        <ele>384.8</ele>
        <time>2022-09-03T14:40:50Z</time>
      </trkpt>
      <trkpt lat="43.00619" lon="1.12842">
        <ele>385.6</ele>
        <time>2022-09-03T14:40:55Z</time>
      </trkpt>
      <trkpt lat="43.0062" lon="1.12841">
        <ele>385.8</ele>
        <time>2022-09-03T14:40:56Z</time>
      </trkpt>
      <trkpt lat="43.00625" lon="1.12835">
        <ele>385.8</ele>
        <time>2022-09-03T14:41:00Z</time>
      </trkpt>
      <trkpt lat="43.00632" lon="1.12841">
        <ele>386</ele>
        <time>2022-09-03T14:41:04Z</time>
      </trkpt>
      <trkpt lat="43.00646" lon="1.12849">
        <ele>385.6</ele>
        <time>2022-09-03T14:41:08Z</time>
      </trkpt>
      <trkpt lat="43.00663" lon="1.1284">
        <ele>385</ele>
        <time>2022-09-03T14:41:11Z</time>
      </trkpt>
      <trkpt lat="43.00667" lon="1.12835">
        <ele>384.6</ele>
        <time>2022-09-03T14:41:12Z</time>
      </trkpt>
      <trkpt lat="43.00671" lon="1.12831">
        <ele>384.6</ele>
        <time>2022-09-03T14:41:13Z</time>
      </trkpt>
      <trkpt lat="43.00684" lon="1.12819">
        <ele>383.6</ele>
        <time>2022-09-03T14:41:16Z</time>
      </trkpt>
      <trkpt lat="43.00712" lon="1.12786">
        <ele>382.8</ele>
        <time>2022-09-03T14:41:24Z</time>
      </trkpt>
      <trkpt lat="43.00728" lon="1.12771">
        <ele>382.8</ele>
        <time>2022-09-03T14:41:28Z</time>
      </trkpt>
      <trkpt lat="43.00735" lon="1.12763">
        <ele>382.6</ele>
        <time>2022-09-03T14:41:30Z</time>
      </trkpt>
      <trkpt lat="43.00762" lon="1.12727">
        <ele>382.6</ele>
        <time>2022-09-03T14:41:38Z</time>
      </trkpt>
      <trkpt lat="43.00765" lon="1.12722">
        <ele>382.6</ele>
        <time>2022-09-03T14:41:39Z</time>
      </trkpt>
      <trkpt lat="43.00782" lon="1.12699">
        <ele>382.4</ele>
        <time>2022-09-03T14:41:44Z</time>
      </trkpt>
      <trkpt lat="43.00816" lon="1.12651">
        <ele>382</ele>
        <time>2022-09-03T14:41:54Z</time>
      </trkpt>
      <trkpt lat="43.00837" lon="1.12613">
        <ele>381.8</ele>
        <time>2022-09-03T14:42:01Z</time>
      </trkpt>
      <trkpt lat="43.00853" lon="1.12585">
        <ele>381.6</ele>
        <time>2022-09-03T14:42:06Z</time>
      </trkpt>
      <trkpt lat="43.0086" lon="1.12574">
        <ele>381.6</ele>
        <time>2022-09-03T14:42:08Z</time>
      </trkpt>
      <trkpt lat="43.0088" lon="1.12534">
        <ele>381.4</ele>
        <time>2022-09-03T14:42:15Z</time>
      </trkpt>
      <trkpt lat="43.00893" lon="1.12505">
        <ele>381.2</ele>
        <time>2022-09-03T14:42:20Z</time>
      </trkpt>
      <trkpt lat="43.0091" lon="1.12471">
        <ele>381</ele>
        <time>2022-09-03T14:42:26Z</time>
      </trkpt>
      <trkpt lat="43.0093" lon="1.12423">
        <ele>380.6</ele>
        <time>2022-09-03T14:42:34Z</time>
      </trkpt>
      <trkpt lat="43.00932" lon="1.12417">
        <ele>380.6</ele>
        <time>2022-09-03T14:42:35Z</time>
      </trkpt>
      <trkpt lat="43.00948" lon="1.12376">
        <ele>380.4</ele>
        <time>2022-09-03T14:42:42Z</time>
      </trkpt>
      <trkpt lat="43.00961" lon="1.12353">
        <ele>380.2</ele>
        <time>2022-09-03T14:42:47Z</time>
      </trkpt>
      <trkpt lat="43.00974" lon="1.12315">
        <ele>380</ele>
        <time>2022-09-03T14:42:54Z</time>
      </trkpt>
      <trkpt lat="43.00981" lon="1.12282">
        <ele>379.4</ele>
        <time>2022-09-03T14:43:00Z</time>
      </trkpt>
      <trkpt lat="43.00988" lon="1.12233">
        <ele>379.2</ele>
        <time>2022-09-03T14:43:08Z</time>
      </trkpt>
      <trkpt lat="43.00989" lon="1.12189">
        <ele>379.2</ele>
        <time>2022-09-03T14:43:16Z</time>
      </trkpt>
      <trkpt lat="43.00989" lon="1.12148">
        <ele>379</ele>
        <time>2022-09-03T14:43:24Z</time>
      </trkpt>
      <trkpt lat="43.00978" lon="1.12126">
        <ele>379</ele>
        <time>2022-09-03T14:43:29Z</time>
      </trkpt>
      <trkpt lat="43.00968" lon="1.12109">
        <ele>379.2</ele>
        <time>2022-09-03T14:43:33Z</time>
      </trkpt>
      <trkpt lat="43.0096" lon="1.12095">
        <ele>379.6</ele>
        <time>2022-09-03T14:43:36Z</time>
      </trkpt>
      <trkpt lat="43.00939" lon="1.1206">
        <ele>380.2</ele>
        <time>2022-09-03T14:43:44Z</time>
      </trkpt>
      <trkpt lat="43.00937" lon="1.12056">
        <ele>380.4</ele>
        <time>2022-09-03T14:43:45Z</time>
      </trkpt>
      <trkpt lat="43.00923" lon="1.12038">
        <ele>381.4</ele>
        <time>2022-09-03T14:43:51Z</time>
      </trkpt>
      <trkpt lat="43.0092" lon="1.12036">
        <ele>381.6</ele>
        <time>2022-09-03T14:43:52Z</time>
      </trkpt>
      <trkpt lat="43.00905" lon="1.1202">
        <ele>382.2</ele>
        <time>2022-09-03T14:43:59Z</time>
      </trkpt>
      <trkpt lat="43.00899" lon="1.12013">
        <ele>382.4</ele>
        <time>2022-09-03T14:44:04Z</time>
      </trkpt>
      <trkpt lat="43.00897" lon="1.12009">
        <ele>382.6</ele>
        <time>2022-09-03T14:44:40Z</time>
      </trkpt>
      <trkpt lat="43.00895" lon="1.12007">
        <ele>382.6</ele>
        <time>2022-09-03T14:44:41Z</time>
      </trkpt>
      <trkpt lat="43.00885" lon="1.11994">
        <ele>382.4</ele>
        <time>2022-09-03T14:44:46Z</time>
      </trkpt>
      <trkpt lat="43.00863" lon="1.11971">
        <ele>382.6</ele>
        <time>2022-09-03T14:44:54Z</time>
      </trkpt>
      <trkpt lat="43.00844" lon="1.11946">
        <ele>382.8</ele>
        <time>2022-09-03T14:45:02Z</time>
      </trkpt>
      <trkpt lat="43.00843" lon="1.1193">
        <ele>383</ele>
        <time>2022-09-03T14:45:06Z</time>
      </trkpt>
      <trkpt lat="43.00845" lon="1.1191">
        <ele>382.8</ele>
        <time>2022-09-03T14:45:12Z</time>
      </trkpt>
      <trkpt lat="43.00842" lon="1.11908">
        <ele>383</ele>
        <time>2022-09-03T14:45:13Z</time>
      </trkpt>
      <trkpt lat="43.00826" lon="1.11895">
        <ele>382.8</ele>
        <time>2022-09-03T14:45:19Z</time>
      </trkpt>
      <trkpt lat="43.00809" lon="1.11877">
        <ele>383</ele>
        <time>2022-09-03T14:45:26Z</time>
      </trkpt>
      <trkpt lat="43.00809" lon="1.11873">
        <ele>382.8</ele>
        <time>2022-09-03T14:45:27Z</time>
      </trkpt>
      <trkpt lat="43.00818" lon="1.11858">
        <ele>383</ele>
        <time>2022-09-03T14:45:31Z</time>
      </trkpt>
      <trkpt lat="43.00841" lon="1.11824">
        <ele>383.2</ele>
        <time>2022-09-03T14:45:40Z</time>
      </trkpt>
      <trkpt lat="43.0086" lon="1.11795">
        <ele>383</ele>
        <time>2022-09-03T14:45:47Z</time>
      </trkpt>
      <trkpt lat="43.00878" lon="1.1176">
        <ele>382.8</ele>
        <time>2022-09-03T14:45:54Z</time>
      </trkpt>
      <trkpt lat="43.00898" lon="1.11725">
        <ele>382.8</ele>
        <time>2022-09-03T14:46:01Z</time>
      </trkpt>
      <trkpt lat="43.00901" lon="1.1172">
        <ele>382.8</ele>
        <time>2022-09-03T14:46:02Z</time>
      </trkpt>
      <trkpt lat="43.00908" lon="1.11712">
        <ele>382.6</ele>
        <time>2022-09-03T14:46:04Z</time>
      </trkpt>
      <trkpt lat="43.00919" lon="1.11694">
        <ele>382.8</ele>
        <time>2022-09-03T14:46:08Z</time>
      </trkpt>
      <trkpt lat="43.00943" lon="1.11657">
        <ele>382.4</ele>
        <time>2022-09-03T14:46:16Z</time>
      </trkpt>
      <trkpt lat="43.00964" lon="1.11622">
        <ele>383</ele>
        <time>2022-09-03T14:46:23Z</time>
      </trkpt>
      <trkpt lat="43.0097" lon="1.11612">
        <ele>383</ele>
        <time>2022-09-03T14:46:25Z</time>
      </trkpt>
      <trkpt lat="43.00986" lon="1.11584">
        <ele>382.6</ele>
        <time>2022-09-03T14:46:31Z</time>
      </trkpt>
      <trkpt lat="43.00989" lon="1.1158">
        <ele>382.6</ele>
        <time>2022-09-03T14:46:32Z</time>
      </trkpt>
      <trkpt lat="43.01017" lon="1.11536">
        <ele>382.6</ele>
        <time>2022-09-03T14:46:41Z</time>
      </trkpt>
      <trkpt lat="43.01047" lon="1.11492">
        <ele>382.4</ele>
        <time>2022-09-03T14:46:49Z</time>
      </trkpt>
      <trkpt lat="43.01075" lon="1.1145">
        <ele>382.6</ele>
        <time>2022-09-03T14:46:57Z</time>
      </trkpt>
      <trkpt lat="43.01103" lon="1.1141">
        <ele>382.2</ele>
        <time>2022-09-03T14:47:05Z</time>
      </trkpt>
      <trkpt lat="43.01135" lon="1.11369">
        <ele>382</ele>
        <time>2022-09-03T14:47:13Z</time>
      </trkpt>
      <trkpt lat="43.01165" lon="1.11331">
        <ele>381.8</ele>
        <time>2022-09-03T14:47:21Z</time>
      </trkpt>
      <trkpt lat="43.01184" lon="1.11303">
        <ele>381.6</ele>
        <time>2022-09-03T14:47:26Z</time>
      </trkpt>
      <trkpt lat="43.01188" lon="1.11299">
        <ele>381.6</ele>
        <time>2022-09-03T14:47:27Z</time>
      </trkpt>
      <trkpt lat="43.01196" lon="1.11289">
        <ele>381.4</ele>
        <time>2022-09-03T14:47:29Z</time>
      </trkpt>
      <trkpt lat="43.01214" lon="1.11265">
        <ele>381</ele>
        <time>2022-09-03T14:47:34Z</time>
      </trkpt>
      <trkpt lat="43.01227" lon="1.11246">
        <ele>380.8</ele>
        <time>2022-09-03T14:47:38Z</time>
      </trkpt>
      <trkpt lat="43.01237" lon="1.11232">
        <ele>380.8</ele>
        <time>2022-09-03T14:47:41Z</time>
      </trkpt>
      <trkpt lat="43.01263" lon="1.11196">
        <ele>380.8</ele>
        <time>2022-09-03T14:47:48Z</time>
      </trkpt>
      <trkpt lat="43.01274" lon="1.11178">
        <ele>380.6</ele>
        <time>2022-09-03T14:47:51Z</time>
      </trkpt>
      <trkpt lat="43.01288" lon="1.11156">
        <ele>380.4</ele>
        <time>2022-09-03T14:47:55Z</time>
      </trkpt>
      <trkpt lat="43.01294" lon="1.11145">
        <ele>380.2</ele>
        <time>2022-09-03T14:47:57Z</time>
      </trkpt>
      <trkpt lat="43.01301" lon="1.11135">
        <ele>380</ele>
        <time>2022-09-03T14:47:59Z</time>
      </trkpt>
      <trkpt lat="43.01313" lon="1.11115">
        <ele>380.2</ele>
        <time>2022-09-03T14:48:03Z</time>
      </trkpt>
      <trkpt lat="43.01338" lon="1.11074">
        <ele>380</ele>
        <time>2022-09-03T14:48:11Z</time>
      </trkpt>
      <trkpt lat="43.01361" lon="1.11038">
        <ele>379.8</ele>
        <time>2022-09-03T14:48:19Z</time>
      </trkpt>
      <trkpt lat="43.01379" lon="1.11006">
        <ele>379.8</ele>
        <time>2022-09-03T14:48:26Z</time>
      </trkpt>
      <trkpt lat="43.01385" lon="1.10998">
        <ele>379.6</ele>
        <time>2022-09-03T14:48:28Z</time>
      </trkpt>
      <trkpt lat="43.01402" lon="1.10983">
        <ele>379.4</ele>
        <time>2022-09-03T14:48:33Z</time>
      </trkpt>
      <trkpt lat="43.01413" lon="1.10991">
        <ele>379.6</ele>
        <time>2022-09-03T14:48:36Z</time>
      </trkpt>
      <trkpt lat="43.01423" lon="1.11006">
        <ele>379.4</ele>
        <time>2022-09-03T14:48:40Z</time>
      </trkpt>
      <trkpt lat="43.01426" lon="1.11014">
        <ele>379.2</ele>
        <time>2022-09-03T14:48:42Z</time>
      </trkpt>
      <trkpt lat="43.01424" lon="1.11026">
        <ele>379.4</ele>
        <time>2022-09-03T14:48:45Z</time>
      </trkpt>
      <trkpt lat="43.01418" lon="1.11039">
        <ele>379.6</ele>
        <time>2022-09-03T14:48:50Z</time>
      </trkpt>
      <trkpt lat="43.0141" lon="1.11042">
        <ele>379.8</ele>
        <time>2022-09-03T14:48:56Z</time>
      </trkpt>
    </trkseg>
  </trk>
</gpx>